<?xml version="1.0" encoding="UTF-8" standalone="no" ?>
<gpx xmlns="http://www.topografix.com/GPX/1/1" xmlns:xsi="http://www.w3.org/2001/XMLSchema-instance" xsi:schemaLocation="http://www.topografix.com/GPX/1/1 http://www.topografix.com/GPX/1/1/gpx.xsd" version="1.1" creator="VisuGPX - https://www.visugpx.com">
  <metadata>
    <name>Les éoliennes - Gravel bike</name>
  </metadata>
  <trk>
    <name><![CDATA[Les éoliennes - Gravel bike_1]]></name>
    <trkseg>
      <trkpt lat="48.41107" lon="7.15926">
        <ele>431.8</ele>
        <time>2022-11-05T08:50:54Z</time>
      </trkpt>
      <trkpt lat="48.41101" lon="7.1592">
        <ele>432.6</ele>
        <time>2022-11-05T08:50:55Z</time>
      </trkpt>
      <trkpt lat="48.41086" lon="7.15904">
        <ele>430.2</ele>
        <time>2022-11-05T08:50:58Z</time>
      </trkpt>
      <trkpt lat="48.41083" lon="7.159">
        <ele>430.2</ele>
        <time>2022-11-05T08:50:59Z</time>
      </trkpt>
      <trkpt lat="48.41081" lon="7.15897">
        <ele>430.4</ele>
        <time>2022-11-05T08:51:00Z</time>
      </trkpt>
      <trkpt lat="48.41082" lon="7.15889">
        <ele>430.4</ele>
        <time>2022-11-05T08:51:02Z</time>
      </trkpt>
      <trkpt lat="48.41091" lon="7.15865">
        <ele>430.4</ele>
        <time>2022-11-05T08:51:08Z</time>
      </trkpt>
      <trkpt lat="48.41098" lon="7.15846">
        <ele>430.8</ele>
        <time>2022-11-05T08:51:12Z</time>
      </trkpt>
      <trkpt lat="48.41101" lon="7.15837">
        <ele>431</ele>
        <time>2022-11-05T08:51:14Z</time>
      </trkpt>
      <trkpt lat="48.41106" lon="7.15828">
        <ele>431.4</ele>
        <time>2022-11-05T08:51:16Z</time>
      </trkpt>
      <trkpt lat="48.41115" lon="7.15812">
        <ele>431.6</ele>
        <time>2022-11-05T08:51:20Z</time>
      </trkpt>
      <trkpt lat="48.41125" lon="7.15797">
        <ele>432.4</ele>
        <time>2022-11-05T08:51:24Z</time>
      </trkpt>
      <trkpt lat="48.41127" lon="7.15794">
        <ele>432.4</ele>
        <time>2022-11-05T08:51:25Z</time>
      </trkpt>
      <trkpt lat="48.41138" lon="7.15777">
        <ele>433</ele>
        <time>2022-11-05T08:51:30Z</time>
      </trkpt>
      <trkpt lat="48.41145" lon="7.15766">
        <ele>433.4</ele>
        <time>2022-11-05T08:51:33Z</time>
      </trkpt>
      <trkpt lat="48.41147" lon="7.15763">
        <ele>433.4</ele>
        <time>2022-11-05T08:51:34Z</time>
      </trkpt>
      <trkpt lat="48.41159" lon="7.15741">
        <ele>434</ele>
        <time>2022-11-05T08:51:40Z</time>
      </trkpt>
      <trkpt lat="48.41161" lon="7.15737">
        <ele>434.2</ele>
        <time>2022-11-05T08:51:41Z</time>
      </trkpt>
      <trkpt lat="48.41163" lon="7.15733">
        <ele>434.2</ele>
        <time>2022-11-05T08:51:42Z</time>
      </trkpt>
      <trkpt lat="48.41165" lon="7.1573">
        <ele>434.4</ele>
        <time>2022-11-05T08:51:43Z</time>
      </trkpt>
      <trkpt lat="48.41168" lon="7.15726">
        <ele>434.6</ele>
        <time>2022-11-05T08:51:44Z</time>
      </trkpt>
      <trkpt lat="48.41176" lon="7.15711">
        <ele>435</ele>
        <time>2022-11-05T08:51:48Z</time>
      </trkpt>
      <trkpt lat="48.412" lon="7.15675">
        <ele>435.6</ele>
        <time>2022-11-05T08:51:58Z</time>
      </trkpt>
      <trkpt lat="48.41203" lon="7.15672">
        <ele>435.8</ele>
        <time>2022-11-05T08:51:59Z</time>
      </trkpt>
      <trkpt lat="48.41213" lon="7.15659">
        <ele>435.8</ele>
        <time>2022-11-05T08:52:03Z</time>
      </trkpt>
      <trkpt lat="48.41221" lon="7.15649">
        <ele>436</ele>
        <time>2022-11-05T08:52:06Z</time>
      </trkpt>
      <trkpt lat="48.41226" lon="7.15642">
        <ele>436</ele>
        <time>2022-11-05T08:52:08Z</time>
      </trkpt>
      <trkpt lat="48.41232" lon="7.15636">
        <ele>436.2</ele>
        <time>2022-11-05T08:52:10Z</time>
      </trkpt>
      <trkpt lat="48.41249" lon="7.15617">
        <ele>436.2</ele>
        <time>2022-11-05T08:52:16Z</time>
      </trkpt>
      <trkpt lat="48.41255" lon="7.15611">
        <ele>436.4</ele>
        <time>2022-11-05T08:52:18Z</time>
      </trkpt>
      <trkpt lat="48.41261" lon="7.15606">
        <ele>436.6</ele>
        <time>2022-11-05T08:52:20Z</time>
      </trkpt>
      <trkpt lat="48.41275" lon="7.15594">
        <ele>437.2</ele>
        <time>2022-11-05T08:52:25Z</time>
      </trkpt>
      <trkpt lat="48.41286" lon="7.15587">
        <ele>437.6</ele>
        <time>2022-11-05T08:52:29Z</time>
      </trkpt>
      <trkpt lat="48.41288" lon="7.15585">
        <ele>437.6</ele>
        <time>2022-11-05T08:52:30Z</time>
      </trkpt>
      <trkpt lat="48.41298" lon="7.15577">
        <ele>438.2</ele>
        <time>2022-11-05T08:52:34Z</time>
      </trkpt>
      <trkpt lat="48.4131" lon="7.15568">
        <ele>438.8</ele>
        <time>2022-11-05T08:52:39Z</time>
      </trkpt>
      <trkpt lat="48.41319" lon="7.15561">
        <ele>439.6</ele>
        <time>2022-11-05T08:52:43Z</time>
      </trkpt>
      <trkpt lat="48.41324" lon="7.15558">
        <ele>439.6</ele>
        <time>2022-11-05T08:52:45Z</time>
      </trkpt>
      <trkpt lat="48.41337" lon="7.15549">
        <ele>440.6</ele>
        <time>2022-11-05T08:52:50Z</time>
      </trkpt>
      <trkpt lat="48.41342" lon="7.15546">
        <ele>441</ele>
        <time>2022-11-05T08:52:52Z</time>
      </trkpt>
      <trkpt lat="48.41351" lon="7.15541">
        <ele>441.2</ele>
        <time>2022-11-05T08:52:56Z</time>
      </trkpt>
      <trkpt lat="48.41354" lon="7.1554">
        <ele>441.4</ele>
        <time>2022-11-05T08:52:57Z</time>
      </trkpt>
      <trkpt lat="48.41358" lon="7.15537">
        <ele>441.8</ele>
        <time>2022-11-05T08:52:59Z</time>
      </trkpt>
      <trkpt lat="48.41372" lon="7.1553">
        <ele>443</ele>
        <time>2022-11-05T08:53:05Z</time>
      </trkpt>
      <trkpt lat="48.41374" lon="7.1553">
        <ele>443.2</ele>
        <time>2022-11-05T08:53:06Z</time>
      </trkpt>
      <trkpt lat="48.41378" lon="7.15528">
        <ele>443.6</ele>
        <time>2022-11-05T08:53:08Z</time>
      </trkpt>
      <trkpt lat="48.4138" lon="7.15527">
        <ele>443.8</ele>
        <time>2022-11-05T08:53:09Z</time>
      </trkpt>
      <trkpt lat="48.41384" lon="7.15524">
        <ele>444</ele>
        <time>2022-11-05T08:53:11Z</time>
      </trkpt>
      <trkpt lat="48.41387" lon="7.15523">
        <ele>444.2</ele>
        <time>2022-11-05T08:53:12Z</time>
      </trkpt>
      <trkpt lat="48.41397" lon="7.1552">
        <ele>445</ele>
        <time>2022-11-05T08:53:17Z</time>
      </trkpt>
      <trkpt lat="48.414" lon="7.15519">
        <ele>445</ele>
        <time>2022-11-05T08:53:18Z</time>
      </trkpt>
      <trkpt lat="48.41416" lon="7.15511">
        <ele>446</ele>
        <time>2022-11-05T08:53:24Z</time>
      </trkpt>
      <trkpt lat="48.41421" lon="7.15509">
        <ele>446.2</ele>
        <time>2022-11-05T08:53:26Z</time>
      </trkpt>
      <trkpt lat="48.41431" lon="7.15505">
        <ele>446.6</ele>
        <time>2022-11-05T08:53:30Z</time>
      </trkpt>
      <trkpt lat="48.41437" lon="7.15501">
        <ele>446.8</ele>
        <time>2022-11-05T08:53:32Z</time>
      </trkpt>
      <trkpt lat="48.41442" lon="7.15498">
        <ele>446.8</ele>
        <time>2022-11-05T08:53:34Z</time>
      </trkpt>
      <trkpt lat="48.41446" lon="7.15496">
        <ele>446.8</ele>
        <time>2022-11-05T08:53:35Z</time>
      </trkpt>
      <trkpt lat="48.4145" lon="7.15493">
        <ele>447</ele>
        <time>2022-11-05T08:53:37Z</time>
      </trkpt>
      <trkpt lat="48.41455" lon="7.15489">
        <ele>447.2</ele>
        <time>2022-11-05T08:53:39Z</time>
      </trkpt>
      <trkpt lat="48.4146" lon="7.15486">
        <ele>447</ele>
        <time>2022-11-05T08:53:41Z</time>
      </trkpt>
      <trkpt lat="48.41475" lon="7.15474">
        <ele>447.6</ele>
        <time>2022-11-05T08:53:47Z</time>
      </trkpt>
      <trkpt lat="48.41497" lon="7.15452">
        <ele>447.8</ele>
        <time>2022-11-05T08:53:56Z</time>
      </trkpt>
      <trkpt lat="48.41504" lon="7.15444">
        <ele>448</ele>
        <time>2022-11-05T08:53:59Z</time>
      </trkpt>
      <trkpt lat="48.4151" lon="7.15438">
        <ele>448.2</ele>
        <time>2022-11-05T08:54:01Z</time>
      </trkpt>
      <trkpt lat="48.41515" lon="7.15432">
        <ele>448.4</ele>
        <time>2022-11-05T08:54:03Z</time>
      </trkpt>
      <trkpt lat="48.41536" lon="7.1541">
        <ele>449</ele>
        <time>2022-11-05T08:54:11Z</time>
      </trkpt>
      <trkpt lat="48.41543" lon="7.15402">
        <ele>449.2</ele>
        <time>2022-11-05T08:54:14Z</time>
      </trkpt>
      <trkpt lat="48.41557" lon="7.15386">
        <ele>449.6</ele>
        <time>2022-11-05T08:54:20Z</time>
      </trkpt>
      <trkpt lat="48.41569" lon="7.15372">
        <ele>450.2</ele>
        <time>2022-11-05T08:54:25Z</time>
      </trkpt>
      <trkpt lat="48.41576" lon="7.15364">
        <ele>450.6</ele>
        <time>2022-11-05T08:54:28Z</time>
      </trkpt>
      <trkpt lat="48.41591" lon="7.15356">
        <ele>451.4</ele>
        <time>2022-11-05T08:54:34Z</time>
      </trkpt>
      <trkpt lat="48.41595" lon="7.15352">
        <ele>451.8</ele>
        <time>2022-11-05T08:54:36Z</time>
      </trkpt>
      <trkpt lat="48.41606" lon="7.15347">
        <ele>452.6</ele>
        <time>2022-11-05T08:54:41Z</time>
      </trkpt>
      <trkpt lat="48.41608" lon="7.15346">
        <ele>452.6</ele>
        <time>2022-11-05T08:54:42Z</time>
      </trkpt>
      <trkpt lat="48.41619" lon="7.15341">
        <ele>454</ele>
        <time>2022-11-05T08:54:47Z</time>
      </trkpt>
      <trkpt lat="48.41626" lon="7.15335">
        <ele>454.8</ele>
        <time>2022-11-05T08:54:51Z</time>
      </trkpt>
      <trkpt lat="48.41628" lon="7.15333">
        <ele>455.2</ele>
        <time>2022-11-05T08:54:52Z</time>
      </trkpt>
      <trkpt lat="48.41633" lon="7.15328">
        <ele>455.6</ele>
        <time>2022-11-05T08:54:55Z</time>
      </trkpt>
      <trkpt lat="48.41638" lon="7.15323">
        <ele>456.2</ele>
        <time>2022-11-05T08:54:58Z</time>
      </trkpt>
      <trkpt lat="48.4164" lon="7.15321">
        <ele>456.4</ele>
        <time>2022-11-05T08:54:59Z</time>
      </trkpt>
      <trkpt lat="48.41649" lon="7.15309">
        <ele>457.2</ele>
        <time>2022-11-05T08:55:04Z</time>
      </trkpt>
      <trkpt lat="48.4165" lon="7.15307">
        <ele>457.4</ele>
        <time>2022-11-05T08:55:05Z</time>
      </trkpt>
      <trkpt lat="48.41658" lon="7.15298">
        <ele>457.8</ele>
        <time>2022-11-05T08:55:09Z</time>
      </trkpt>
      <trkpt lat="48.41662" lon="7.15292">
        <ele>458.2</ele>
        <time>2022-11-05T08:55:11Z</time>
      </trkpt>
      <trkpt lat="48.41671" lon="7.1528">
        <ele>459</ele>
        <time>2022-11-05T08:55:15Z</time>
      </trkpt>
      <trkpt lat="48.41674" lon="7.15273">
        <ele>459.2</ele>
        <time>2022-11-05T08:55:17Z</time>
      </trkpt>
      <trkpt lat="48.41682" lon="7.15253">
        <ele>460.4</ele>
        <time>2022-11-05T08:55:22Z</time>
      </trkpt>
      <trkpt lat="48.41698" lon="7.1522">
        <ele>461.4</ele>
        <time>2022-11-05T08:55:31Z</time>
      </trkpt>
      <trkpt lat="48.41698" lon="7.15217">
        <ele>461.4</ele>
        <time>2022-11-05T08:55:32Z</time>
      </trkpt>
      <trkpt lat="48.41702" lon="7.15206">
        <ele>462</ele>
        <time>2022-11-05T08:55:36Z</time>
      </trkpt>
      <trkpt lat="48.41705" lon="7.15194">
        <ele>462.4</ele>
        <time>2022-11-05T08:55:40Z</time>
      </trkpt>
      <trkpt lat="48.41709" lon="7.15175">
        <ele>463</ele>
        <time>2022-11-05T08:55:45Z</time>
      </trkpt>
      <trkpt lat="48.4171" lon="7.15168">
        <ele>463.6</ele>
        <time>2022-11-05T08:55:47Z</time>
      </trkpt>
      <trkpt lat="48.41712" lon="7.1515">
        <ele>464.4</ele>
        <time>2022-11-05T08:55:52Z</time>
      </trkpt>
      <trkpt lat="48.41713" lon="7.15144">
        <ele>464.6</ele>
        <time>2022-11-05T08:55:54Z</time>
      </trkpt>
      <trkpt lat="48.41712" lon="7.15141">
        <ele>465</ele>
        <time>2022-11-05T08:55:56Z</time>
      </trkpt>
      <trkpt lat="48.4171" lon="7.15137">
        <ele>465.4</ele>
        <time>2022-11-05T08:55:58Z</time>
      </trkpt>
      <trkpt lat="48.4171" lon="7.15132">
        <ele>465.6</ele>
        <time>2022-11-05T08:56:00Z</time>
      </trkpt>
      <trkpt lat="48.4171" lon="7.15129">
        <ele>466</ele>
        <time>2022-11-05T08:56:01Z</time>
      </trkpt>
      <trkpt lat="48.41711" lon="7.15124">
        <ele>466.2</ele>
        <time>2022-11-05T08:56:03Z</time>
      </trkpt>
      <trkpt lat="48.41713" lon="7.15112">
        <ele>467</ele>
        <time>2022-11-05T08:56:08Z</time>
      </trkpt>
      <trkpt lat="48.41715" lon="7.15106">
        <ele>467.4</ele>
        <time>2022-11-05T08:56:10Z</time>
      </trkpt>
      <trkpt lat="48.41716" lon="7.151">
        <ele>467.8</ele>
        <time>2022-11-05T08:56:12Z</time>
      </trkpt>
      <trkpt lat="48.41716" lon="7.15096">
        <ele>468</ele>
        <time>2022-11-05T08:56:13Z</time>
      </trkpt>
      <trkpt lat="48.41715" lon="7.15089">
        <ele>468.4</ele>
        <time>2022-11-05T08:56:15Z</time>
      </trkpt>
      <trkpt lat="48.41718" lon="7.15074">
        <ele>469</ele>
        <time>2022-11-05T08:56:18Z</time>
      </trkpt>
      <trkpt lat="48.41717" lon="7.15071">
        <ele>469</ele>
        <time>2022-11-05T08:56:19Z</time>
      </trkpt>
      <trkpt lat="48.41718" lon="7.15059">
        <ele>469.6</ele>
        <time>2022-11-05T08:56:22Z</time>
      </trkpt>
      <trkpt lat="48.4172" lon="7.15054">
        <ele>469.8</ele>
        <time>2022-11-05T08:56:23Z</time>
      </trkpt>
      <trkpt lat="48.41718" lon="7.15045">
        <ele>470.2</ele>
        <time>2022-11-05T08:56:26Z</time>
      </trkpt>
      <trkpt lat="48.41719" lon="7.15034">
        <ele>470.8</ele>
        <time>2022-11-05T08:56:29Z</time>
      </trkpt>
      <trkpt lat="48.4172" lon="7.15028">
        <ele>471</ele>
        <time>2022-11-05T08:56:31Z</time>
      </trkpt>
      <trkpt lat="48.41721" lon="7.15022">
        <ele>471.2</ele>
        <time>2022-11-05T08:56:33Z</time>
      </trkpt>
      <trkpt lat="48.41722" lon="7.15018">
        <ele>471.4</ele>
        <time>2022-11-05T08:56:34Z</time>
      </trkpt>
      <trkpt lat="48.41726" lon="7.14998">
        <ele>472.2</ele>
        <time>2022-11-05T08:56:40Z</time>
      </trkpt>
      <trkpt lat="48.41728" lon="7.14995">
        <ele>472.6</ele>
        <time>2022-11-05T08:56:41Z</time>
      </trkpt>
      <trkpt lat="48.41733" lon="7.14975">
        <ele>473</ele>
        <time>2022-11-05T08:56:46Z</time>
      </trkpt>
      <trkpt lat="48.41734" lon="7.1495">
        <ele>473.4</ele>
        <time>2022-11-05T08:56:51Z</time>
      </trkpt>
      <trkpt lat="48.41735" lon="7.14945">
        <ele>473.6</ele>
        <time>2022-11-05T08:56:52Z</time>
      </trkpt>
      <trkpt lat="48.41735" lon="7.14938">
        <ele>473.8</ele>
        <time>2022-11-05T08:56:54Z</time>
      </trkpt>
      <trkpt lat="48.41735" lon="7.14932">
        <ele>474</ele>
        <time>2022-11-05T08:56:56Z</time>
      </trkpt>
      <trkpt lat="48.41735" lon="7.14925">
        <ele>474.2</ele>
        <time>2022-11-05T08:56:58Z</time>
      </trkpt>
      <trkpt lat="48.41733" lon="7.14912">
        <ele>474.6</ele>
        <time>2022-11-05T08:57:01Z</time>
      </trkpt>
      <trkpt lat="48.41733" lon="7.14891">
        <ele>475</ele>
        <time>2022-11-05T08:57:06Z</time>
      </trkpt>
      <trkpt lat="48.41732" lon="7.14861">
        <ele>475.6</ele>
        <time>2022-11-05T08:57:13Z</time>
      </trkpt>
      <trkpt lat="48.41733" lon="7.14825">
        <ele>476</ele>
        <time>2022-11-05T08:57:20Z</time>
      </trkpt>
      <trkpt lat="48.41738" lon="7.1479">
        <ele>476.6</ele>
        <time>2022-11-05T08:57:26Z</time>
      </trkpt>
      <trkpt lat="48.41739" lon="7.14784">
        <ele>476.6</ele>
        <time>2022-11-05T08:57:27Z</time>
      </trkpt>
      <trkpt lat="48.41752" lon="7.14744">
        <ele>477.4</ele>
        <time>2022-11-05T08:57:35Z</time>
      </trkpt>
      <trkpt lat="48.41757" lon="7.14737">
        <ele>478</ele>
        <time>2022-11-05T08:57:37Z</time>
      </trkpt>
      <trkpt lat="48.41764" lon="7.14724">
        <ele>478.4</ele>
        <time>2022-11-05T08:57:41Z</time>
      </trkpt>
      <trkpt lat="48.41769" lon="7.14718">
        <ele>478.6</ele>
        <time>2022-11-05T08:57:43Z</time>
      </trkpt>
      <trkpt lat="48.41774" lon="7.14712">
        <ele>478.8</ele>
        <time>2022-11-05T08:57:45Z</time>
      </trkpt>
      <trkpt lat="48.41776" lon="7.1471">
        <ele>479</ele>
        <time>2022-11-05T08:57:46Z</time>
      </trkpt>
      <trkpt lat="48.41785" lon="7.14701">
        <ele>479.4</ele>
        <time>2022-11-05T08:57:50Z</time>
      </trkpt>
      <trkpt lat="48.4179" lon="7.14695">
        <ele>479.4</ele>
        <time>2022-11-05T08:57:52Z</time>
      </trkpt>
      <trkpt lat="48.418" lon="7.14682">
        <ele>480</ele>
        <time>2022-11-05T08:57:56Z</time>
      </trkpt>
      <trkpt lat="48.4181" lon="7.14672">
        <ele>480.4</ele>
        <time>2022-11-05T08:58:00Z</time>
      </trkpt>
      <trkpt lat="48.41819" lon="7.14653">
        <ele>480.8</ele>
        <time>2022-11-05T08:58:05Z</time>
      </trkpt>
      <trkpt lat="48.41822" lon="7.14641">
        <ele>481.2</ele>
        <time>2022-11-05T08:58:08Z</time>
      </trkpt>
      <trkpt lat="48.41824" lon="7.14629">
        <ele>481.6</ele>
        <time>2022-11-05T08:58:11Z</time>
      </trkpt>
      <trkpt lat="48.41825" lon="7.14611">
        <ele>482.2</ele>
        <time>2022-11-05T08:58:15Z</time>
      </trkpt>
      <trkpt lat="48.41824" lon="7.14591">
        <ele>483.4</ele>
        <time>2022-11-05T08:58:20Z</time>
      </trkpt>
      <trkpt lat="48.41819" lon="7.14574">
        <ele>484.4</ele>
        <time>2022-11-05T08:58:24Z</time>
      </trkpt>
      <trkpt lat="48.41815" lon="7.14563">
        <ele>485</ele>
        <time>2022-11-05T08:58:27Z</time>
      </trkpt>
      <trkpt lat="48.41811" lon="7.14552">
        <ele>485.4</ele>
        <time>2022-11-05T08:58:30Z</time>
      </trkpt>
      <trkpt lat="48.41806" lon="7.1454">
        <ele>485.6</ele>
        <time>2022-11-05T08:58:34Z</time>
      </trkpt>
      <trkpt lat="48.418" lon="7.14522">
        <ele>486.8</ele>
        <time>2022-11-05T08:58:40Z</time>
      </trkpt>
      <trkpt lat="48.41797" lon="7.14513">
        <ele>487.6</ele>
        <time>2022-11-05T08:58:43Z</time>
      </trkpt>
      <trkpt lat="48.41796" lon="7.14507">
        <ele>488</ele>
        <time>2022-11-05T08:58:45Z</time>
      </trkpt>
      <trkpt lat="48.41792" lon="7.14492">
        <ele>489.2</ele>
        <time>2022-11-05T08:58:50Z</time>
      </trkpt>
      <trkpt lat="48.41789" lon="7.14472">
        <ele>490.4</ele>
        <time>2022-11-05T08:58:57Z</time>
      </trkpt>
      <trkpt lat="48.41786" lon="7.1446">
        <ele>491.6</ele>
        <time>2022-11-05T08:59:02Z</time>
      </trkpt>
      <trkpt lat="48.41785" lon="7.14454">
        <ele>491.8</ele>
        <time>2022-11-05T08:59:04Z</time>
      </trkpt>
      <trkpt lat="48.41785" lon="7.14441">
        <ele>492.6</ele>
        <time>2022-11-05T08:59:08Z</time>
      </trkpt>
      <trkpt lat="48.41785" lon="7.14438">
        <ele>492.6</ele>
        <time>2022-11-05T08:59:09Z</time>
      </trkpt>
      <trkpt lat="48.41784" lon="7.14432">
        <ele>492.8</ele>
        <time>2022-11-05T08:59:11Z</time>
      </trkpt>
      <trkpt lat="48.41785" lon="7.14418">
        <ele>493.8</ele>
        <time>2022-11-05T08:59:15Z</time>
      </trkpt>
      <trkpt lat="48.41785" lon="7.14409">
        <ele>494.4</ele>
        <time>2022-11-05T08:59:18Z</time>
      </trkpt>
      <trkpt lat="48.41785" lon="7.14395">
        <ele>494.8</ele>
        <time>2022-11-05T08:59:22Z</time>
      </trkpt>
      <trkpt lat="48.41785" lon="7.14383">
        <ele>495.4</ele>
        <time>2022-11-05T08:59:26Z</time>
      </trkpt>
      <trkpt lat="48.41786" lon="7.14371">
        <ele>495.8</ele>
        <time>2022-11-05T08:59:30Z</time>
      </trkpt>
      <trkpt lat="48.41786" lon="7.14358">
        <ele>496.4</ele>
        <time>2022-11-05T08:59:34Z</time>
      </trkpt>
      <trkpt lat="48.41786" lon="7.14337">
        <ele>497</ele>
        <time>2022-11-05T08:59:40Z</time>
      </trkpt>
      <trkpt lat="48.41786" lon="7.14335">
        <ele>497.2</ele>
        <time>2022-11-05T08:59:41Z</time>
      </trkpt>
      <trkpt lat="48.41789" lon="7.1431">
        <ele>498</ele>
        <time>2022-11-05T08:59:48Z</time>
      </trkpt>
      <trkpt lat="48.4179" lon="7.14303">
        <ele>498.2</ele>
        <time>2022-11-05T08:59:50Z</time>
      </trkpt>
      <trkpt lat="48.41788" lon="7.14281">
        <ele>499</ele>
        <time>2022-11-05T08:59:57Z</time>
      </trkpt>
      <trkpt lat="48.41788" lon="7.14274">
        <ele>499.2</ele>
        <time>2022-11-05T08:59:59Z</time>
      </trkpt>
      <trkpt lat="48.41786" lon="7.14251">
        <ele>499.8</ele>
        <time>2022-11-05T09:00:05Z</time>
      </trkpt>
      <trkpt lat="48.41785" lon="7.14232">
        <ele>500.2</ele>
        <time>2022-11-05T09:00:10Z</time>
      </trkpt>
      <trkpt lat="48.41783" lon="7.14213">
        <ele>500.8</ele>
        <time>2022-11-05T09:00:15Z</time>
      </trkpt>
      <trkpt lat="48.4178" lon="7.14193">
        <ele>501.2</ele>
        <time>2022-11-05T09:00:21Z</time>
      </trkpt>
      <trkpt lat="48.41778" lon="7.1419">
        <ele>501.6</ele>
        <time>2022-11-05T09:00:22Z</time>
      </trkpt>
      <trkpt lat="48.41777" lon="7.14188">
        <ele>501.8</ele>
        <time>2022-11-05T09:00:23Z</time>
      </trkpt>
      <trkpt lat="48.41776" lon="7.14179">
        <ele>501.8</ele>
        <time>2022-11-05T09:00:26Z</time>
      </trkpt>
      <trkpt lat="48.41776" lon="7.14156">
        <ele>502.2</ele>
        <time>2022-11-05T09:00:32Z</time>
      </trkpt>
      <trkpt lat="48.41776" lon="7.14152">
        <ele>502.4</ele>
        <time>2022-11-05T09:00:33Z</time>
      </trkpt>
      <trkpt lat="48.41775" lon="7.14134">
        <ele>503.4</ele>
        <time>2022-11-05T09:00:38Z</time>
      </trkpt>
      <trkpt lat="48.41775" lon="7.1413">
        <ele>503.4</ele>
        <time>2022-11-05T09:00:39Z</time>
      </trkpt>
      <trkpt lat="48.41775" lon="7.14104">
        <ele>504.2</ele>
        <time>2022-11-05T09:00:46Z</time>
      </trkpt>
      <trkpt lat="48.41775" lon="7.14101">
        <ele>504.4</ele>
        <time>2022-11-05T09:00:47Z</time>
      </trkpt>
      <trkpt lat="48.41776" lon="7.14096">
        <ele>504.6</ele>
        <time>2022-11-05T09:00:48Z</time>
      </trkpt>
      <trkpt lat="48.41776" lon="7.14073">
        <ele>505.4</ele>
        <time>2022-11-05T09:00:54Z</time>
      </trkpt>
      <trkpt lat="48.41777" lon="7.14054">
        <ele>505.6</ele>
        <time>2022-11-05T09:00:58Z</time>
      </trkpt>
      <trkpt lat="48.41777" lon="7.14048">
        <ele>505.6</ele>
        <time>2022-11-05T09:00:59Z</time>
      </trkpt>
      <trkpt lat="48.41775" lon="7.14007">
        <ele>505.6</ele>
        <time>2022-11-05T09:01:06Z</time>
      </trkpt>
      <trkpt lat="48.41774" lon="7.14001">
        <ele>505.6</ele>
        <time>2022-11-05T09:01:07Z</time>
      </trkpt>
      <trkpt lat="48.41769" lon="7.13974">
        <ele>505.2</ele>
        <time>2022-11-05T09:01:11Z</time>
      </trkpt>
      <trkpt lat="48.41763" lon="7.13956">
        <ele>505</ele>
        <time>2022-11-05T09:01:14Z</time>
      </trkpt>
      <trkpt lat="48.41758" lon="7.13946">
        <ele>505</ele>
        <time>2022-11-05T09:01:16Z</time>
      </trkpt>
      <trkpt lat="48.41756" lon="7.13942">
        <ele>505</ele>
        <time>2022-11-05T09:01:17Z</time>
      </trkpt>
      <trkpt lat="48.41752" lon="7.13932">
        <ele>504.8</ele>
        <time>2022-11-05T09:01:19Z</time>
      </trkpt>
      <trkpt lat="48.41748" lon="7.13922">
        <ele>504.8</ele>
        <time>2022-11-05T09:01:21Z</time>
      </trkpt>
      <trkpt lat="48.41744" lon="7.13913">
        <ele>504.8</ele>
        <time>2022-11-05T09:01:23Z</time>
      </trkpt>
      <trkpt lat="48.41739" lon="7.13904">
        <ele>504.8</ele>
        <time>2022-11-05T09:01:25Z</time>
      </trkpt>
      <trkpt lat="48.41734" lon="7.13891">
        <ele>504.8</ele>
        <time>2022-11-05T09:01:28Z</time>
      </trkpt>
      <trkpt lat="48.41731" lon="7.13883">
        <ele>505</ele>
        <time>2022-11-05T09:01:30Z</time>
      </trkpt>
      <trkpt lat="48.41715" lon="7.13843">
        <ele>505.8</ele>
        <time>2022-11-05T09:01:39Z</time>
      </trkpt>
      <trkpt lat="48.41714" lon="7.13838">
        <ele>505.8</ele>
        <time>2022-11-05T09:01:40Z</time>
      </trkpt>
      <trkpt lat="48.41704" lon="7.13803">
        <ele>506</ele>
        <time>2022-11-05T09:01:46Z</time>
      </trkpt>
      <trkpt lat="48.417" lon="7.13781">
        <ele>505.6</ele>
        <time>2022-11-05T09:01:49Z</time>
      </trkpt>
      <trkpt lat="48.41699" lon="7.13764">
        <ele>505.2</ele>
        <time>2022-11-05T09:01:51Z</time>
      </trkpt>
      <trkpt lat="48.41698" lon="7.13736">
        <ele>504.6</ele>
        <time>2022-11-05T09:01:54Z</time>
      </trkpt>
      <trkpt lat="48.41699" lon="7.13716">
        <ele>504.4</ele>
        <time>2022-11-05T09:01:56Z</time>
      </trkpt>
      <trkpt lat="48.41699" lon="7.13686">
        <ele>503.4</ele>
        <time>2022-11-05T09:01:59Z</time>
      </trkpt>
      <trkpt lat="48.41696" lon="7.13647">
        <ele>502.2</ele>
        <time>2022-11-05T09:02:03Z</time>
      </trkpt>
      <trkpt lat="48.41686" lon="7.13609">
        <ele>501.2</ele>
        <time>2022-11-05T09:02:08Z</time>
      </trkpt>
      <trkpt lat="48.41683" lon="7.13596">
        <ele>501.2</ele>
        <time>2022-11-05T09:02:10Z</time>
      </trkpt>
      <trkpt lat="48.41675" lon="7.13571">
        <ele>501.4</ele>
        <time>2022-11-05T09:02:14Z</time>
      </trkpt>
      <trkpt lat="48.41671" lon="7.13559">
        <ele>501.6</ele>
        <time>2022-11-05T09:02:16Z</time>
      </trkpt>
      <trkpt lat="48.41667" lon="7.1354">
        <ele>501.8</ele>
        <time>2022-11-05T09:02:19Z</time>
      </trkpt>
      <trkpt lat="48.41666" lon="7.13534">
        <ele>502</ele>
        <time>2022-11-05T09:02:20Z</time>
      </trkpt>
      <trkpt lat="48.41665" lon="7.13528">
        <ele>502.2</ele>
        <time>2022-11-05T09:02:21Z</time>
      </trkpt>
      <trkpt lat="48.41664" lon="7.13521">
        <ele>502.4</ele>
        <time>2022-11-05T09:02:22Z</time>
      </trkpt>
      <trkpt lat="48.41664" lon="7.13509">
        <ele>502.8</ele>
        <time>2022-11-05T09:02:24Z</time>
      </trkpt>
      <trkpt lat="48.41662" lon="7.13485">
        <ele>503.2</ele>
        <time>2022-11-05T09:02:28Z</time>
      </trkpt>
      <trkpt lat="48.41662" lon="7.13479">
        <ele>503.4</ele>
        <time>2022-11-05T09:02:29Z</time>
      </trkpt>
      <trkpt lat="48.4166" lon="7.13459">
        <ele>503.6</ele>
        <time>2022-11-05T09:02:32Z</time>
      </trkpt>
      <trkpt lat="48.4166" lon="7.13452">
        <ele>503.6</ele>
        <time>2022-11-05T09:02:33Z</time>
      </trkpt>
      <trkpt lat="48.4166" lon="7.13446">
        <ele>503.8</ele>
        <time>2022-11-05T09:02:34Z</time>
      </trkpt>
      <trkpt lat="48.41657" lon="7.13415">
        <ele>504</ele>
        <time>2022-11-05T09:02:39Z</time>
      </trkpt>
      <trkpt lat="48.41655" lon="7.13397">
        <ele>504.4</ele>
        <time>2022-11-05T09:02:42Z</time>
      </trkpt>
      <trkpt lat="48.41655" lon="7.1338">
        <ele>505</ele>
        <time>2022-11-05T09:02:45Z</time>
      </trkpt>
      <trkpt lat="48.41655" lon="7.1336">
        <ele>505.4</ele>
        <time>2022-11-05T09:02:49Z</time>
      </trkpt>
      <trkpt lat="48.41656" lon="7.1335">
        <ele>505.8</ele>
        <time>2022-11-05T09:02:51Z</time>
      </trkpt>
      <trkpt lat="48.41657" lon="7.13346">
        <ele>506</ele>
        <time>2022-11-05T09:02:52Z</time>
      </trkpt>
      <trkpt lat="48.41658" lon="7.13325">
        <ele>506.4</ele>
        <time>2022-11-05T09:02:56Z</time>
      </trkpt>
      <trkpt lat="48.41659" lon="7.13308">
        <ele>506.8</ele>
        <time>2022-11-05T09:02:59Z</time>
      </trkpt>
      <trkpt lat="48.41661" lon="7.13276">
        <ele>507.4</ele>
        <time>2022-11-05T09:03:05Z</time>
      </trkpt>
      <trkpt lat="48.41661" lon="7.13271">
        <ele>507.4</ele>
        <time>2022-11-05T09:03:06Z</time>
      </trkpt>
      <trkpt lat="48.41668" lon="7.13236">
        <ele>508.2</ele>
        <time>2022-11-05T09:03:13Z</time>
      </trkpt>
      <trkpt lat="48.41671" lon="7.13226">
        <ele>508.6</ele>
        <time>2022-11-05T09:03:15Z</time>
      </trkpt>
      <trkpt lat="48.41679" lon="7.13196">
        <ele>509</ele>
        <time>2022-11-05T09:03:21Z</time>
      </trkpt>
      <trkpt lat="48.41683" lon="7.13174">
        <ele>509</ele>
        <time>2022-11-05T09:03:24Z</time>
      </trkpt>
      <trkpt lat="48.41684" lon="7.13165">
        <ele>509</ele>
        <time>2022-11-05T09:03:25Z</time>
      </trkpt>
      <trkpt lat="48.41683" lon="7.13122">
        <ele>508.2</ele>
        <time>2022-11-05T09:03:29Z</time>
      </trkpt>
      <trkpt lat="48.41681" lon="7.13081">
        <ele>506.6</ele>
        <time>2022-11-05T09:03:32Z</time>
      </trkpt>
      <trkpt lat="48.41681" lon="7.13081">
        <ele>506.2</ele>
        <time>2022-11-05T09:03:33Z</time>
      </trkpt>
      <trkpt lat="48.41678" lon="7.13054">
        <ele>505.4</ele>
        <time>2022-11-05T09:03:34Z</time>
      </trkpt>
      <trkpt lat="48.41675" lon="7.13021">
        <ele>504.2</ele>
        <time>2022-11-05T09:03:36Z</time>
      </trkpt>
      <trkpt lat="48.41674" lon="7.13004">
        <ele>503.2</ele>
        <time>2022-11-05T09:03:37Z</time>
      </trkpt>
      <trkpt lat="48.41673" lon="7.12985">
        <ele>502</ele>
        <time>2022-11-05T09:03:38Z</time>
      </trkpt>
      <trkpt lat="48.41672" lon="7.12948">
        <ele>499.8</ele>
        <time>2022-11-05T09:03:40Z</time>
      </trkpt>
      <trkpt lat="48.41673" lon="7.12908">
        <ele>497.8</ele>
        <time>2022-11-05T09:03:42Z</time>
      </trkpt>
      <trkpt lat="48.41675" lon="7.1287">
        <ele>495.4</ele>
        <time>2022-11-05T09:03:44Z</time>
      </trkpt>
      <trkpt lat="48.41676" lon="7.12851">
        <ele>493</ele>
        <time>2022-11-05T09:03:46Z</time>
      </trkpt>
      <trkpt lat="48.41678" lon="7.128">
        <ele>490.2</ele>
        <time>2022-11-05T09:03:48Z</time>
      </trkpt>
      <trkpt lat="48.41678" lon="7.12784">
        <ele>488.6</ele>
        <time>2022-11-05T09:03:49Z</time>
      </trkpt>
      <trkpt lat="48.41679" lon="7.12769">
        <ele>487.4</ele>
        <time>2022-11-05T09:03:50Z</time>
      </trkpt>
      <trkpt lat="48.41678" lon="7.12754">
        <ele>485.4</ele>
        <time>2022-11-05T09:03:51Z</time>
      </trkpt>
      <trkpt lat="48.41675" lon="7.12722">
        <ele>483.2</ele>
        <time>2022-11-05T09:03:53Z</time>
      </trkpt>
      <trkpt lat="48.41672" lon="7.12696">
        <ele>480.8</ele>
        <time>2022-11-05T09:03:55Z</time>
      </trkpt>
      <trkpt lat="48.41669" lon="7.12668">
        <ele>478.6</ele>
        <time>2022-11-05T09:03:57Z</time>
      </trkpt>
      <trkpt lat="48.41665" lon="7.12638">
        <ele>476</ele>
        <time>2022-11-05T09:03:59Z</time>
      </trkpt>
      <trkpt lat="48.41662" lon="7.12623">
        <ele>475.4</ele>
        <time>2022-11-05T09:04:00Z</time>
      </trkpt>
      <trkpt lat="48.41657" lon="7.12606">
        <ele>474.4</ele>
        <time>2022-11-05T09:04:01Z</time>
      </trkpt>
      <trkpt lat="48.41648" lon="7.12581">
        <ele>472.4</ele>
        <time>2022-11-05T09:04:03Z</time>
      </trkpt>
      <trkpt lat="48.41643" lon="7.12568">
        <ele>472</ele>
        <time>2022-11-05T09:04:04Z</time>
      </trkpt>
      <trkpt lat="48.41638" lon="7.12553">
        <ele>470.6</ele>
        <time>2022-11-05T09:04:05Z</time>
      </trkpt>
      <trkpt lat="48.41627" lon="7.12522">
        <ele>469.4</ele>
        <time>2022-11-05T09:04:08Z</time>
      </trkpt>
      <trkpt lat="48.41621" lon="7.125">
        <ele>468</ele>
        <time>2022-11-05T09:04:11Z</time>
      </trkpt>
      <trkpt lat="48.41621" lon="7.12494">
        <ele>467.4</ele>
        <time>2022-11-05T09:04:12Z</time>
      </trkpt>
      <trkpt lat="48.41622" lon="7.1249">
        <ele>467.4</ele>
        <time>2022-11-05T09:04:13Z</time>
      </trkpt>
      <trkpt lat="48.41628" lon="7.12485">
        <ele>467</ele>
        <time>2022-11-05T09:04:15Z</time>
      </trkpt>
      <trkpt lat="48.4165" lon="7.12474">
        <ele>466.4</ele>
        <time>2022-11-05T09:04:21Z</time>
      </trkpt>
      <trkpt lat="48.41658" lon="7.12473">
        <ele>466.6</ele>
        <time>2022-11-05T09:04:24Z</time>
      </trkpt>
      <trkpt lat="48.4166" lon="7.12474">
        <ele>466.6</ele>
        <time>2022-11-05T09:04:25Z</time>
      </trkpt>
      <trkpt lat="48.41672" lon="7.12482">
        <ele>467.4</ele>
        <time>2022-11-05T09:04:30Z</time>
      </trkpt>
      <trkpt lat="48.41678" lon="7.12485">
        <ele>467.8</ele>
        <time>2022-11-05T09:04:33Z</time>
      </trkpt>
      <trkpt lat="48.41682" lon="7.12485">
        <ele>468.2</ele>
        <time>2022-11-05T09:04:35Z</time>
      </trkpt>
      <trkpt lat="48.41692" lon="7.12485">
        <ele>469.4</ele>
        <time>2022-11-05T09:04:40Z</time>
      </trkpt>
      <trkpt lat="48.41696" lon="7.12484">
        <ele>469.8</ele>
        <time>2022-11-05T09:04:42Z</time>
      </trkpt>
      <trkpt lat="48.41701" lon="7.12482">
        <ele>470.4</ele>
        <time>2022-11-05T09:04:45Z</time>
      </trkpt>
      <trkpt lat="48.41706" lon="7.12481">
        <ele>471</ele>
        <time>2022-11-05T09:04:48Z</time>
      </trkpt>
      <trkpt lat="48.41711" lon="7.12481">
        <ele>471.4</ele>
        <time>2022-11-05T09:04:51Z</time>
      </trkpt>
      <trkpt lat="48.41718" lon="7.12479">
        <ele>472.2</ele>
        <time>2022-11-05T09:04:55Z</time>
      </trkpt>
      <trkpt lat="48.41722" lon="7.12479">
        <ele>472.6</ele>
        <time>2022-11-05T09:04:57Z</time>
      </trkpt>
      <trkpt lat="48.41728" lon="7.12478">
        <ele>473</ele>
        <time>2022-11-05T09:05:00Z</time>
      </trkpt>
      <trkpt lat="48.41731" lon="7.12477">
        <ele>473.2</ele>
        <time>2022-11-05T09:05:02Z</time>
      </trkpt>
      <trkpt lat="48.41737" lon="7.12475">
        <ele>473.6</ele>
        <time>2022-11-05T09:05:05Z</time>
      </trkpt>
      <trkpt lat="48.41747" lon="7.12475">
        <ele>474</ele>
        <time>2022-11-05T09:05:10Z</time>
      </trkpt>
      <trkpt lat="48.41756" lon="7.12475">
        <ele>474.6</ele>
        <time>2022-11-05T09:05:15Z</time>
      </trkpt>
      <trkpt lat="48.41762" lon="7.12475">
        <ele>475.2</ele>
        <time>2022-11-05T09:05:18Z</time>
      </trkpt>
      <trkpt lat="48.41768" lon="7.12474">
        <ele>475.6</ele>
        <time>2022-11-05T09:05:21Z</time>
      </trkpt>
      <trkpt lat="48.41772" lon="7.12473">
        <ele>475.6</ele>
        <time>2022-11-05T09:05:23Z</time>
      </trkpt>
      <trkpt lat="48.41782" lon="7.12471">
        <ele>476.6</ele>
        <time>2022-11-05T09:05:28Z</time>
      </trkpt>
      <trkpt lat="48.41784" lon="7.12471">
        <ele>476.8</ele>
        <time>2022-11-05T09:05:29Z</time>
      </trkpt>
      <trkpt lat="48.41797" lon="7.12466">
        <ele>477.6</ele>
        <time>2022-11-05T09:05:35Z</time>
      </trkpt>
      <trkpt lat="48.41799" lon="7.12466">
        <ele>477.8</ele>
        <time>2022-11-05T09:05:36Z</time>
      </trkpt>
      <trkpt lat="48.41801" lon="7.12466">
        <ele>478</ele>
        <time>2022-11-05T09:05:37Z</time>
      </trkpt>
      <trkpt lat="48.41817" lon="7.12461">
        <ele>478.8</ele>
        <time>2022-11-05T09:05:45Z</time>
      </trkpt>
      <trkpt lat="48.41819" lon="7.1246">
        <ele>479</ele>
        <time>2022-11-05T09:05:46Z</time>
      </trkpt>
      <trkpt lat="48.41835" lon="7.12452">
        <ele>480</ele>
        <time>2022-11-05T09:05:54Z</time>
      </trkpt>
      <trkpt lat="48.41848" lon="7.12446">
        <ele>480.6</ele>
        <time>2022-11-05T09:06:00Z</time>
      </trkpt>
      <trkpt lat="48.41862" lon="7.12441">
        <ele>481</ele>
        <time>2022-11-05T09:06:06Z</time>
      </trkpt>
      <trkpt lat="48.41869" lon="7.12437">
        <ele>481.2</ele>
        <time>2022-11-05T09:06:09Z</time>
      </trkpt>
      <trkpt lat="48.41884" lon="7.12416">
        <ele>481.2</ele>
        <time>2022-11-05T09:06:15Z</time>
      </trkpt>
      <trkpt lat="48.4189" lon="7.12406">
        <ele>481.2</ele>
        <time>2022-11-05T09:06:17Z</time>
      </trkpt>
      <trkpt lat="48.41903" lon="7.12383">
        <ele>480.8</ele>
        <time>2022-11-05T09:06:21Z</time>
      </trkpt>
      <trkpt lat="48.41927" lon="7.12343">
        <ele>480</ele>
        <time>2022-11-05T09:06:27Z</time>
      </trkpt>
      <trkpt lat="48.41946" lon="7.12291">
        <ele>479</ele>
        <time>2022-11-05T09:06:34Z</time>
      </trkpt>
      <trkpt lat="48.41948" lon="7.12285">
        <ele>479</ele>
        <time>2022-11-05T09:06:35Z</time>
      </trkpt>
      <trkpt lat="48.41957" lon="7.1226">
        <ele>478.8</ele>
        <time>2022-11-05T09:06:39Z</time>
      </trkpt>
      <trkpt lat="48.41959" lon="7.12254">
        <ele>478.6</ele>
        <time>2022-11-05T09:06:40Z</time>
      </trkpt>
      <trkpt lat="48.41968" lon="7.12232">
        <ele>478.6</ele>
        <time>2022-11-05T09:06:44Z</time>
      </trkpt>
      <trkpt lat="48.41976" lon="7.12212">
        <ele>478.4</ele>
        <time>2022-11-05T09:06:48Z</time>
      </trkpt>
      <trkpt lat="48.41986" lon="7.12192">
        <ele>478.4</ele>
        <time>2022-11-05T09:06:52Z</time>
      </trkpt>
      <trkpt lat="48.41991" lon="7.12184">
        <ele>478.4</ele>
        <time>2022-11-05T09:06:54Z</time>
      </trkpt>
      <trkpt lat="48.41994" lon="7.12181">
        <ele>478.4</ele>
        <time>2022-11-05T09:06:55Z</time>
      </trkpt>
      <trkpt lat="48.41999" lon="7.12177">
        <ele>478.6</ele>
        <time>2022-11-05T09:06:57Z</time>
      </trkpt>
      <trkpt lat="48.42005" lon="7.12175">
        <ele>478.6</ele>
        <time>2022-11-05T09:06:59Z</time>
      </trkpt>
      <trkpt lat="48.42008" lon="7.12174">
        <ele>478.8</ele>
        <time>2022-11-05T09:07:00Z</time>
      </trkpt>
      <trkpt lat="48.42014" lon="7.12172">
        <ele>479</ele>
        <time>2022-11-05T09:07:02Z</time>
      </trkpt>
      <trkpt lat="48.42033" lon="7.12174">
        <ele>479.2</ele>
        <time>2022-11-05T09:07:08Z</time>
      </trkpt>
      <trkpt lat="48.42054" lon="7.12175">
        <ele>480</ele>
        <time>2022-11-05T09:07:16Z</time>
      </trkpt>
      <trkpt lat="48.42056" lon="7.12175">
        <ele>480</ele>
        <time>2022-11-05T09:07:17Z</time>
      </trkpt>
      <trkpt lat="48.42071" lon="7.12174">
        <ele>481</ele>
        <time>2022-11-05T09:07:23Z</time>
      </trkpt>
      <trkpt lat="48.42075" lon="7.12173">
        <ele>481.2</ele>
        <time>2022-11-05T09:07:25Z</time>
      </trkpt>
      <trkpt lat="48.4208" lon="7.12172">
        <ele>481.6</ele>
        <time>2022-11-05T09:07:27Z</time>
      </trkpt>
      <trkpt lat="48.42087" lon="7.1217">
        <ele>482.2</ele>
        <time>2022-11-05T09:07:31Z</time>
      </trkpt>
      <trkpt lat="48.42092" lon="7.12167">
        <ele>482.6</ele>
        <time>2022-11-05T09:07:34Z</time>
      </trkpt>
      <trkpt lat="48.42099" lon="7.1216">
        <ele>483.2</ele>
        <time>2022-11-05T09:07:38Z</time>
      </trkpt>
      <trkpt lat="48.42109" lon="7.12147">
        <ele>484.2</ele>
        <time>2022-11-05T09:07:44Z</time>
      </trkpt>
      <trkpt lat="48.42116" lon="7.12139">
        <ele>485.2</ele>
        <time>2022-11-05T09:07:48Z</time>
      </trkpt>
      <trkpt lat="48.42121" lon="7.12132">
        <ele>485.8</ele>
        <time>2022-11-05T09:07:51Z</time>
      </trkpt>
      <trkpt lat="48.42126" lon="7.12124">
        <ele>486.6</ele>
        <time>2022-11-05T09:07:54Z</time>
      </trkpt>
      <trkpt lat="48.42131" lon="7.12117">
        <ele>487</ele>
        <time>2022-11-05T09:07:57Z</time>
      </trkpt>
      <trkpt lat="48.42133" lon="7.12113">
        <ele>487.2</ele>
        <time>2022-11-05T09:07:59Z</time>
      </trkpt>
      <trkpt lat="48.42136" lon="7.12109">
        <ele>487.6</ele>
        <time>2022-11-05T09:08:02Z</time>
      </trkpt>
      <trkpt lat="48.42136" lon="7.12109">
        <ele>487.8</ele>
        <time>2022-11-05T09:08:04Z</time>
      </trkpt>
      <trkpt lat="48.42136" lon="7.12109">
        <ele>487.8</ele>
        <time>2022-11-05T09:08:05Z</time>
      </trkpt>
      <trkpt lat="48.42136" lon="7.12109">
        <ele>487.8</ele>
        <time>2022-11-05T09:08:07Z</time>
      </trkpt>
      <trkpt lat="48.42139" lon="7.121">
        <ele>487.8</ele>
        <time>2022-11-05T09:08:15Z</time>
      </trkpt>
      <trkpt lat="48.4215" lon="7.12083">
        <ele>487.8</ele>
        <time>2022-11-05T09:08:20Z</time>
      </trkpt>
      <trkpt lat="48.42159" lon="7.12073">
        <ele>487.8</ele>
        <time>2022-11-05T09:08:23Z</time>
      </trkpt>
      <trkpt lat="48.42171" lon="7.12063">
        <ele>487.6</ele>
        <time>2022-11-05T09:08:26Z</time>
      </trkpt>
      <trkpt lat="48.4218" lon="7.12058">
        <ele>487.4</ele>
        <time>2022-11-05T09:08:28Z</time>
      </trkpt>
      <trkpt lat="48.42188" lon="7.12057">
        <ele>487.2</ele>
        <time>2022-11-05T09:08:30Z</time>
      </trkpt>
      <trkpt lat="48.42197" lon="7.12058">
        <ele>487</ele>
        <time>2022-11-05T09:08:32Z</time>
      </trkpt>
      <trkpt lat="48.42207" lon="7.12063">
        <ele>486.8</ele>
        <time>2022-11-05T09:08:35Z</time>
      </trkpt>
      <trkpt lat="48.42218" lon="7.12064">
        <ele>486.6</ele>
        <time>2022-11-05T09:08:38Z</time>
      </trkpt>
      <trkpt lat="48.42222" lon="7.12064">
        <ele>486.6</ele>
        <time>2022-11-05T09:08:39Z</time>
      </trkpt>
      <trkpt lat="48.42228" lon="7.12065">
        <ele>486.4</ele>
        <time>2022-11-05T09:08:41Z</time>
      </trkpt>
      <trkpt lat="48.4225" lon="7.1207">
        <ele>486.4</ele>
        <time>2022-11-05T09:08:47Z</time>
      </trkpt>
      <trkpt lat="48.42276" lon="7.12072">
        <ele>487.2</ele>
        <time>2022-11-05T09:08:54Z</time>
      </trkpt>
      <trkpt lat="48.42295" lon="7.12068">
        <ele>487.8</ele>
        <time>2022-11-05T09:08:59Z</time>
      </trkpt>
      <trkpt lat="48.42301" lon="7.12064">
        <ele>488</ele>
        <time>2022-11-05T09:09:01Z</time>
      </trkpt>
      <trkpt lat="48.4231" lon="7.12054">
        <ele>488.8</ele>
        <time>2022-11-05T09:09:04Z</time>
      </trkpt>
      <trkpt lat="48.42315" lon="7.12046">
        <ele>489.2</ele>
        <time>2022-11-05T09:09:06Z</time>
      </trkpt>
      <trkpt lat="48.42333" lon="7.12027">
        <ele>490</ele>
        <time>2022-11-05T09:09:12Z</time>
      </trkpt>
      <trkpt lat="48.42345" lon="7.12017">
        <ele>490.4</ele>
        <time>2022-11-05T09:09:16Z</time>
      </trkpt>
      <trkpt lat="48.42352" lon="7.12015">
        <ele>490.6</ele>
        <time>2022-11-05T09:09:18Z</time>
      </trkpt>
      <trkpt lat="48.42365" lon="7.12011">
        <ele>491</ele>
        <time>2022-11-05T09:09:22Z</time>
      </trkpt>
      <trkpt lat="48.42369" lon="7.1201">
        <ele>491</ele>
        <time>2022-11-05T09:09:23Z</time>
      </trkpt>
      <trkpt lat="48.42393" lon="7.12002">
        <ele>491.6</ele>
        <time>2022-11-05T09:09:30Z</time>
      </trkpt>
      <trkpt lat="48.42402" lon="7.11998">
        <ele>491.8</ele>
        <time>2022-11-05T09:09:33Z</time>
      </trkpt>
      <trkpt lat="48.42419" lon="7.11997">
        <ele>492.4</ele>
        <time>2022-11-05T09:09:39Z</time>
      </trkpt>
      <trkpt lat="48.42422" lon="7.11998">
        <ele>492.8</ele>
        <time>2022-11-05T09:09:41Z</time>
      </trkpt>
      <trkpt lat="48.42424" lon="7.11997">
        <ele>493</ele>
        <time>2022-11-05T09:09:43Z</time>
      </trkpt>
      <trkpt lat="48.42424" lon="7.11997">
        <ele>493</ele>
        <time>2022-11-05T09:09:44Z</time>
      </trkpt>
      <trkpt lat="48.42424" lon="7.11997">
        <ele>493.2</ele>
        <time>2022-11-05T09:09:46Z</time>
      </trkpt>
      <trkpt lat="48.42423" lon="7.11996">
        <ele>493.4</ele>
        <time>2022-11-05T09:11:10Z</time>
      </trkpt>
      <trkpt lat="48.42421" lon="7.11995">
        <ele>493.4</ele>
        <time>2022-11-05T09:11:11Z</time>
      </trkpt>
      <trkpt lat="48.42417" lon="7.11992">
        <ele>493.4</ele>
        <time>2022-11-05T09:11:13Z</time>
      </trkpt>
      <trkpt lat="48.42409" lon="7.11983">
        <ele>493.4</ele>
        <time>2022-11-05T09:11:16Z</time>
      </trkpt>
      <trkpt lat="48.42404" lon="7.1198">
        <ele>493.6</ele>
        <time>2022-11-05T09:11:18Z</time>
      </trkpt>
      <trkpt lat="48.42387" lon="7.11984">
        <ele>493.8</ele>
        <time>2022-11-05T09:11:25Z</time>
      </trkpt>
      <trkpt lat="48.42373" lon="7.11989">
        <ele>494</ele>
        <time>2022-11-05T09:11:31Z</time>
      </trkpt>
      <trkpt lat="48.42365" lon="7.11993">
        <ele>494</ele>
        <time>2022-11-05T09:11:36Z</time>
      </trkpt>
      <trkpt lat="48.42362" lon="7.11993">
        <ele>494.2</ele>
        <time>2022-11-05T09:11:37Z</time>
      </trkpt>
      <trkpt lat="48.42352" lon="7.11996">
        <ele>494.2</ele>
        <time>2022-11-05T09:11:41Z</time>
      </trkpt>
      <trkpt lat="48.4234" lon="7.12">
        <ele>494.4</ele>
        <time>2022-11-05T09:11:47Z</time>
      </trkpt>
      <trkpt lat="48.42337" lon="7.12001">
        <ele>494.2</ele>
        <time>2022-11-05T09:11:48Z</time>
      </trkpt>
      <trkpt lat="48.42319" lon="7.12007">
        <ele>495</ele>
        <time>2022-11-05T09:11:55Z</time>
      </trkpt>
      <trkpt lat="48.42313" lon="7.12007">
        <ele>495.4</ele>
        <time>2022-11-05T09:11:57Z</time>
      </trkpt>
      <trkpt lat="48.42302" lon="7.12006">
        <ele>495.8</ele>
        <time>2022-11-05T09:12:01Z</time>
      </trkpt>
      <trkpt lat="48.42294" lon="7.12">
        <ele>496.6</ele>
        <time>2022-11-05T09:12:06Z</time>
      </trkpt>
      <trkpt lat="48.42292" lon="7.11998">
        <ele>496.8</ele>
        <time>2022-11-05T09:12:07Z</time>
      </trkpt>
      <trkpt lat="48.42285" lon="7.11989">
        <ele>497.4</ele>
        <time>2022-11-05T09:12:12Z</time>
      </trkpt>
      <trkpt lat="48.42281" lon="7.11985">
        <ele>497.6</ele>
        <time>2022-11-05T09:12:15Z</time>
      </trkpt>
      <trkpt lat="48.42278" lon="7.11983">
        <ele>497.8</ele>
        <time>2022-11-05T09:12:17Z</time>
      </trkpt>
      <trkpt lat="48.42271" lon="7.11978">
        <ele>498.2</ele>
        <time>2022-11-05T09:12:21Z</time>
      </trkpt>
      <trkpt lat="48.42267" lon="7.11973">
        <ele>498.2</ele>
        <time>2022-11-05T09:12:24Z</time>
      </trkpt>
      <trkpt lat="48.42264" lon="7.11969">
        <ele>498.6</ele>
        <time>2022-11-05T09:12:26Z</time>
      </trkpt>
      <trkpt lat="48.42262" lon="7.11968">
        <ele>498.8</ele>
        <time>2022-11-05T09:12:27Z</time>
      </trkpt>
      <trkpt lat="48.42255" lon="7.11962">
        <ele>499.8</ele>
        <time>2022-11-05T09:12:32Z</time>
      </trkpt>
      <trkpt lat="48.42254" lon="7.11962">
        <ele>499.8</ele>
        <time>2022-11-05T09:12:33Z</time>
      </trkpt>
      <trkpt lat="48.42248" lon="7.11959">
        <ele>500</ele>
        <time>2022-11-05T09:12:36Z</time>
      </trkpt>
      <trkpt lat="48.42246" lon="7.11958">
        <ele>500.2</ele>
        <time>2022-11-05T09:12:37Z</time>
      </trkpt>
      <trkpt lat="48.42241" lon="7.11953">
        <ele>500.4</ele>
        <time>2022-11-05T09:12:40Z</time>
      </trkpt>
      <trkpt lat="48.42238" lon="7.1195">
        <ele>500.6</ele>
        <time>2022-11-05T09:12:42Z</time>
      </trkpt>
      <trkpt lat="48.42237" lon="7.1195">
        <ele>501</ele>
        <time>2022-11-05T09:12:43Z</time>
      </trkpt>
      <trkpt lat="48.42234" lon="7.11948">
        <ele>501.2</ele>
        <time>2022-11-05T09:12:45Z</time>
      </trkpt>
      <trkpt lat="48.42231" lon="7.11946">
        <ele>501.6</ele>
        <time>2022-11-05T09:12:47Z</time>
      </trkpt>
      <trkpt lat="48.42229" lon="7.11943">
        <ele>502</ele>
        <time>2022-11-05T09:12:49Z</time>
      </trkpt>
      <trkpt lat="48.42224" lon="7.11938">
        <ele>502.4</ele>
        <time>2022-11-05T09:12:53Z</time>
      </trkpt>
      <trkpt lat="48.42219" lon="7.11931">
        <ele>503</ele>
        <time>2022-11-05T09:12:57Z</time>
      </trkpt>
      <trkpt lat="48.42215" lon="7.11925">
        <ele>503.6</ele>
        <time>2022-11-05T09:13:01Z</time>
      </trkpt>
      <trkpt lat="48.42213" lon="7.11919">
        <ele>504.2</ele>
        <time>2022-11-05T09:13:04Z</time>
      </trkpt>
      <trkpt lat="48.42212" lon="7.11912">
        <ele>505</ele>
        <time>2022-11-05T09:13:09Z</time>
      </trkpt>
      <trkpt lat="48.42212" lon="7.11909">
        <ele>505</ele>
        <time>2022-11-05T09:13:10Z</time>
      </trkpt>
      <trkpt lat="48.42211" lon="7.11907">
        <ele>505.2</ele>
        <time>2022-11-05T09:13:11Z</time>
      </trkpt>
      <trkpt lat="48.42214" lon="7.11898">
        <ele>505.8</ele>
        <time>2022-11-05T09:13:16Z</time>
      </trkpt>
      <trkpt lat="48.42216" lon="7.11892">
        <ele>506.4</ele>
        <time>2022-11-05T09:13:20Z</time>
      </trkpt>
      <trkpt lat="48.42217" lon="7.1189">
        <ele>506.4</ele>
        <time>2022-11-05T09:13:21Z</time>
      </trkpt>
      <trkpt lat="48.42219" lon="7.11887">
        <ele>506.6</ele>
        <time>2022-11-05T09:13:23Z</time>
      </trkpt>
      <trkpt lat="48.42221" lon="7.11882">
        <ele>507</ele>
        <time>2022-11-05T09:13:26Z</time>
      </trkpt>
      <trkpt lat="48.4222" lon="7.11879">
        <ele>507.2</ele>
        <time>2022-11-05T09:13:28Z</time>
      </trkpt>
      <trkpt lat="48.42222" lon="7.11873">
        <ele>507.4</ele>
        <time>2022-11-05T09:13:31Z</time>
      </trkpt>
      <trkpt lat="48.42223" lon="7.11867">
        <ele>508</ele>
        <time>2022-11-05T09:13:34Z</time>
      </trkpt>
      <trkpt lat="48.42222" lon="7.1186">
        <ele>508.4</ele>
        <time>2022-11-05T09:13:37Z</time>
      </trkpt>
      <trkpt lat="48.42221" lon="7.11858">
        <ele>508.6</ele>
        <time>2022-11-05T09:13:38Z</time>
      </trkpt>
      <trkpt lat="48.42223" lon="7.11854">
        <ele>508.8</ele>
        <time>2022-11-05T09:13:40Z</time>
      </trkpt>
      <trkpt lat="48.42225" lon="7.11844">
        <ele>509.4</ele>
        <time>2022-11-05T09:13:44Z</time>
      </trkpt>
      <trkpt lat="48.42225" lon="7.1184">
        <ele>509.6</ele>
        <time>2022-11-05T09:13:46Z</time>
      </trkpt>
      <trkpt lat="48.42225" lon="7.11837">
        <ele>509.6</ele>
        <time>2022-11-05T09:13:47Z</time>
      </trkpt>
      <trkpt lat="48.42225" lon="7.11826">
        <ele>510.2</ele>
        <time>2022-11-05T09:13:51Z</time>
      </trkpt>
      <trkpt lat="48.42226" lon="7.11821">
        <ele>510.4</ele>
        <time>2022-11-05T09:13:53Z</time>
      </trkpt>
      <trkpt lat="48.42225" lon="7.11818">
        <ele>511</ele>
        <time>2022-11-05T09:13:54Z</time>
      </trkpt>
      <trkpt lat="48.42226" lon="7.11805">
        <ele>511.8</ele>
        <time>2022-11-05T09:14:00Z</time>
      </trkpt>
      <trkpt lat="48.42227" lon="7.118">
        <ele>512</ele>
        <time>2022-11-05T09:14:02Z</time>
      </trkpt>
      <trkpt lat="48.4223" lon="7.1179">
        <ele>512.8</ele>
        <time>2022-11-05T09:14:07Z</time>
      </trkpt>
      <trkpt lat="48.4223" lon="7.11785">
        <ele>513.2</ele>
        <time>2022-11-05T09:14:09Z</time>
      </trkpt>
      <trkpt lat="48.42232" lon="7.11775">
        <ele>513.4</ele>
        <time>2022-11-05T09:14:13Z</time>
      </trkpt>
      <trkpt lat="48.42232" lon="7.11771">
        <ele>513.6</ele>
        <time>2022-11-05T09:14:15Z</time>
      </trkpt>
      <trkpt lat="48.42232" lon="7.11769">
        <ele>513.6</ele>
        <time>2022-11-05T09:14:16Z</time>
      </trkpt>
      <trkpt lat="48.42234" lon="7.11757">
        <ele>514.2</ele>
        <time>2022-11-05T09:14:21Z</time>
      </trkpt>
      <trkpt lat="48.42237" lon="7.11743">
        <ele>515.2</ele>
        <time>2022-11-05T09:14:27Z</time>
      </trkpt>
      <trkpt lat="48.42238" lon="7.11735">
        <ele>515.6</ele>
        <time>2022-11-05T09:14:30Z</time>
      </trkpt>
      <trkpt lat="48.4224" lon="7.1171">
        <ele>516.2</ele>
        <time>2022-11-05T09:14:40Z</time>
      </trkpt>
      <trkpt lat="48.4224" lon="7.11707">
        <ele>516.4</ele>
        <time>2022-11-05T09:14:41Z</time>
      </trkpt>
      <trkpt lat="48.4224" lon="7.11693">
        <ele>517</ele>
        <time>2022-11-05T09:14:47Z</time>
      </trkpt>
      <trkpt lat="48.4224" lon="7.11691">
        <ele>517.4</ele>
        <time>2022-11-05T09:14:48Z</time>
      </trkpt>
      <trkpt lat="48.42239" lon="7.11674">
        <ele>517.8</ele>
        <time>2022-11-05T09:14:53Z</time>
      </trkpt>
      <trkpt lat="48.42239" lon="7.11657">
        <ele>518.4</ele>
        <time>2022-11-05T09:14:59Z</time>
      </trkpt>
      <trkpt lat="48.42239" lon="7.11653">
        <ele>518.4</ele>
        <time>2022-11-05T09:15:00Z</time>
      </trkpt>
      <trkpt lat="48.42237" lon="7.11638">
        <ele>518.8</ele>
        <time>2022-11-05T09:15:05Z</time>
      </trkpt>
      <trkpt lat="48.42236" lon="7.11621">
        <ele>519.2</ele>
        <time>2022-11-05T09:15:10Z</time>
      </trkpt>
      <trkpt lat="48.42237" lon="7.11605">
        <ele>519.4</ele>
        <time>2022-11-05T09:15:15Z</time>
      </trkpt>
      <trkpt lat="48.42235" lon="7.11598">
        <ele>519.4</ele>
        <time>2022-11-05T09:15:17Z</time>
      </trkpt>
      <trkpt lat="48.42233" lon="7.11593">
        <ele>519.6</ele>
        <time>2022-11-05T09:15:19Z</time>
      </trkpt>
      <trkpt lat="48.4223" lon="7.11586">
        <ele>519.8</ele>
        <time>2022-11-05T09:15:22Z</time>
      </trkpt>
      <trkpt lat="48.42222" lon="7.11587">
        <ele>520</ele>
        <time>2022-11-05T09:15:27Z</time>
      </trkpt>
      <trkpt lat="48.42219" lon="7.11588">
        <ele>520</ele>
        <time>2022-11-05T09:15:29Z</time>
      </trkpt>
      <trkpt lat="48.42209" lon="7.11603">
        <ele>520.2</ele>
        <time>2022-11-05T09:15:36Z</time>
      </trkpt>
      <trkpt lat="48.42208" lon="7.11605">
        <ele>520.4</ele>
        <time>2022-11-05T09:15:37Z</time>
      </trkpt>
      <trkpt lat="48.42203" lon="7.11615">
        <ele>520.8</ele>
        <time>2022-11-05T09:15:42Z</time>
      </trkpt>
      <trkpt lat="48.42195" lon="7.11625">
        <ele>521.4</ele>
        <time>2022-11-05T09:15:47Z</time>
      </trkpt>
      <trkpt lat="48.42194" lon="7.11627">
        <ele>521.6</ele>
        <time>2022-11-05T09:15:48Z</time>
      </trkpt>
      <trkpt lat="48.42194" lon="7.11628">
        <ele>521.8</ele>
        <time>2022-11-05T09:15:49Z</time>
      </trkpt>
      <trkpt lat="48.42185" lon="7.11636">
        <ele>522.4</ele>
        <time>2022-11-05T09:15:56Z</time>
      </trkpt>
      <trkpt lat="48.42181" lon="7.11643">
        <ele>523</ele>
        <time>2022-11-05T09:16:00Z</time>
      </trkpt>
      <trkpt lat="48.4218" lon="7.11646">
        <ele>523.2</ele>
        <time>2022-11-05T09:16:01Z</time>
      </trkpt>
      <trkpt lat="48.42179" lon="7.11649">
        <ele>523.4</ele>
        <time>2022-11-05T09:16:02Z</time>
      </trkpt>
      <trkpt lat="48.42177" lon="7.11651">
        <ele>523.6</ele>
        <time>2022-11-05T09:16:03Z</time>
      </trkpt>
      <trkpt lat="48.42174" lon="7.11653">
        <ele>524</ele>
        <time>2022-11-05T09:16:05Z</time>
      </trkpt>
      <trkpt lat="48.42171" lon="7.11654">
        <ele>524</ele>
        <time>2022-11-05T09:16:06Z</time>
      </trkpt>
      <trkpt lat="48.42158" lon="7.11668">
        <ele>524.6</ele>
        <time>2022-11-05T09:16:12Z</time>
      </trkpt>
      <trkpt lat="48.42156" lon="7.11669">
        <ele>524.6</ele>
        <time>2022-11-05T09:16:13Z</time>
      </trkpt>
      <trkpt lat="48.4215" lon="7.11673">
        <ele>525</ele>
        <time>2022-11-05T09:16:17Z</time>
      </trkpt>
      <trkpt lat="48.4215" lon="7.11679">
        <ele>525.2</ele>
        <time>2022-11-05T09:16:19Z</time>
      </trkpt>
      <trkpt lat="48.42146" lon="7.11684">
        <ele>525.6</ele>
        <time>2022-11-05T09:16:22Z</time>
      </trkpt>
      <trkpt lat="48.4214" lon="7.1169">
        <ele>526</ele>
        <time>2022-11-05T09:16:25Z</time>
      </trkpt>
      <trkpt lat="48.42133" lon="7.11689">
        <ele>526.6</ele>
        <time>2022-11-05T09:16:29Z</time>
      </trkpt>
      <trkpt lat="48.42129" lon="7.11689">
        <ele>526.8</ele>
        <time>2022-11-05T09:16:31Z</time>
      </trkpt>
      <trkpt lat="48.42118" lon="7.11681">
        <ele>527.8</ele>
        <time>2022-11-05T09:16:38Z</time>
      </trkpt>
      <trkpt lat="48.42114" lon="7.11677">
        <ele>528.2</ele>
        <time>2022-11-05T09:16:40Z</time>
      </trkpt>
      <trkpt lat="48.42108" lon="7.11668">
        <ele>528.8</ele>
        <time>2022-11-05T09:16:44Z</time>
      </trkpt>
      <trkpt lat="48.42099" lon="7.11658">
        <ele>529.4</ele>
        <time>2022-11-05T09:16:49Z</time>
      </trkpt>
      <trkpt lat="48.42093" lon="7.11648">
        <ele>530</ele>
        <time>2022-11-05T09:16:53Z</time>
      </trkpt>
      <trkpt lat="48.42088" lon="7.11642">
        <ele>530.2</ele>
        <time>2022-11-05T09:16:56Z</time>
      </trkpt>
      <trkpt lat="48.42086" lon="7.11639">
        <ele>530.2</ele>
        <time>2022-11-05T09:16:58Z</time>
      </trkpt>
      <trkpt lat="48.42082" lon="7.11632">
        <ele>530.6</ele>
        <time>2022-11-05T09:17:02Z</time>
      </trkpt>
      <trkpt lat="48.42082" lon="7.1163">
        <ele>531</ele>
        <time>2022-11-05T09:17:03Z</time>
      </trkpt>
      <trkpt lat="48.42073" lon="7.11618">
        <ele>531.4</ele>
        <time>2022-11-05T09:17:09Z</time>
      </trkpt>
      <trkpt lat="48.42067" lon="7.11612">
        <ele>532</ele>
        <time>2022-11-05T09:17:13Z</time>
      </trkpt>
      <trkpt lat="48.42062" lon="7.11607">
        <ele>532.2</ele>
        <time>2022-11-05T09:17:16Z</time>
      </trkpt>
      <trkpt lat="48.42059" lon="7.11603">
        <ele>532.6</ele>
        <time>2022-11-05T09:17:18Z</time>
      </trkpt>
      <trkpt lat="48.42057" lon="7.11598">
        <ele>532.8</ele>
        <time>2022-11-05T09:17:20Z</time>
      </trkpt>
      <trkpt lat="48.42056" lon="7.11595">
        <ele>532.8</ele>
        <time>2022-11-05T09:17:21Z</time>
      </trkpt>
      <trkpt lat="48.42052" lon="7.11586">
        <ele>533</ele>
        <time>2022-11-05T09:17:24Z</time>
      </trkpt>
      <trkpt lat="48.42045" lon="7.11572">
        <ele>533.2</ele>
        <time>2022-11-05T09:17:29Z</time>
      </trkpt>
      <trkpt lat="48.4204" lon="7.11566">
        <ele>533.4</ele>
        <time>2022-11-05T09:17:31Z</time>
      </trkpt>
      <trkpt lat="48.42036" lon="7.11559">
        <ele>533.8</ele>
        <time>2022-11-05T09:17:33Z</time>
      </trkpt>
      <trkpt lat="48.42034" lon="7.11553">
        <ele>534</ele>
        <time>2022-11-05T09:17:36Z</time>
      </trkpt>
      <trkpt lat="48.4203" lon="7.11535">
        <ele>534.4</ele>
        <time>2022-11-05T09:17:40Z</time>
      </trkpt>
      <trkpt lat="48.42026" lon="7.11528">
        <ele>534.6</ele>
        <time>2022-11-05T09:17:42Z</time>
      </trkpt>
      <trkpt lat="48.42024" lon="7.11517">
        <ele>535.4</ele>
        <time>2022-11-05T09:17:48Z</time>
      </trkpt>
      <trkpt lat="48.42023" lon="7.11514">
        <ele>535.4</ele>
        <time>2022-11-05T09:17:49Z</time>
      </trkpt>
      <trkpt lat="48.42023" lon="7.11506">
        <ele>535.6</ele>
        <time>2022-11-05T09:17:53Z</time>
      </trkpt>
      <trkpt lat="48.42021" lon="7.1149">
        <ele>536.2</ele>
        <time>2022-11-05T09:17:59Z</time>
      </trkpt>
      <trkpt lat="48.42021" lon="7.11488">
        <ele>536.6</ele>
        <time>2022-11-05T09:18:00Z</time>
      </trkpt>
      <trkpt lat="48.42019" lon="7.11469">
        <ele>537.4</ele>
        <time>2022-11-05T09:18:07Z</time>
      </trkpt>
      <trkpt lat="48.42018" lon="7.11463">
        <ele>537.6</ele>
        <time>2022-11-05T09:18:09Z</time>
      </trkpt>
      <trkpt lat="48.42015" lon="7.11451">
        <ele>537.8</ele>
        <time>2022-11-05T09:18:13Z</time>
      </trkpt>
      <trkpt lat="48.42013" lon="7.11441">
        <ele>538.6</ele>
        <time>2022-11-05T09:18:17Z</time>
      </trkpt>
      <trkpt lat="48.42012" lon="7.11432">
        <ele>538.8</ele>
        <time>2022-11-05T09:18:19Z</time>
      </trkpt>
      <trkpt lat="48.42012" lon="7.11412">
        <ele>539.6</ele>
        <time>2022-11-05T09:18:26Z</time>
      </trkpt>
      <trkpt lat="48.42009" lon="7.11402">
        <ele>540.6</ele>
        <time>2022-11-05T09:18:32Z</time>
      </trkpt>
      <trkpt lat="48.42008" lon="7.114">
        <ele>540.8</ele>
        <time>2022-11-05T09:18:33Z</time>
      </trkpt>
      <trkpt lat="48.42003" lon="7.11393">
        <ele>541.2</ele>
        <time>2022-11-05T09:18:38Z</time>
      </trkpt>
      <trkpt lat="48.42002" lon="7.11391">
        <ele>541.2</ele>
        <time>2022-11-05T09:18:39Z</time>
      </trkpt>
      <trkpt lat="48.42001" lon="7.11388">
        <ele>541.8</ele>
        <time>2022-11-05T09:18:41Z</time>
      </trkpt>
      <trkpt lat="48.41998" lon="7.11382">
        <ele>542.2</ele>
        <time>2022-11-05T09:18:44Z</time>
      </trkpt>
      <trkpt lat="48.41997" lon="7.11378">
        <ele>542.8</ele>
        <time>2022-11-05T09:18:47Z</time>
      </trkpt>
      <trkpt lat="48.41996" lon="7.11371">
        <ele>543.2</ele>
        <time>2022-11-05T09:18:49Z</time>
      </trkpt>
      <trkpt lat="48.41995" lon="7.11365">
        <ele>543.6</ele>
        <time>2022-11-05T09:18:51Z</time>
      </trkpt>
      <trkpt lat="48.41994" lon="7.1136">
        <ele>544.2</ele>
        <time>2022-11-05T09:18:53Z</time>
      </trkpt>
      <trkpt lat="48.41991" lon="7.1135">
        <ele>544.6</ele>
        <time>2022-11-05T09:18:57Z</time>
      </trkpt>
      <trkpt lat="48.41987" lon="7.11343">
        <ele>545.2</ele>
        <time>2022-11-05T09:19:00Z</time>
      </trkpt>
      <trkpt lat="48.41984" lon="7.11335">
        <ele>545.8</ele>
        <time>2022-11-05T09:19:03Z</time>
      </trkpt>
      <trkpt lat="48.41971" lon="7.11322">
        <ele>546.2</ele>
        <time>2022-11-05T09:19:10Z</time>
      </trkpt>
      <trkpt lat="48.41965" lon="7.11312">
        <ele>547.2</ele>
        <time>2022-11-05T09:19:16Z</time>
      </trkpt>
      <trkpt lat="48.41964" lon="7.1131">
        <ele>547.2</ele>
        <time>2022-11-05T09:19:17Z</time>
      </trkpt>
      <trkpt lat="48.41964" lon="7.11308">
        <ele>547.4</ele>
        <time>2022-11-05T09:19:18Z</time>
      </trkpt>
      <trkpt lat="48.41962" lon="7.11301">
        <ele>547.6</ele>
        <time>2022-11-05T09:19:21Z</time>
      </trkpt>
      <trkpt lat="48.41956" lon="7.1129">
        <ele>548.4</ele>
        <time>2022-11-05T09:19:27Z</time>
      </trkpt>
      <trkpt lat="48.41954" lon="7.11286">
        <ele>548.6</ele>
        <time>2022-11-05T09:19:29Z</time>
      </trkpt>
      <trkpt lat="48.41952" lon="7.11274">
        <ele>549.4</ele>
        <time>2022-11-05T09:19:34Z</time>
      </trkpt>
      <trkpt lat="48.41951" lon="7.11268">
        <ele>549.8</ele>
        <time>2022-11-05T09:19:37Z</time>
      </trkpt>
      <trkpt lat="48.4195" lon="7.11265">
        <ele>549.8</ele>
        <time>2022-11-05T09:19:38Z</time>
      </trkpt>
      <trkpt lat="48.41948" lon="7.11258">
        <ele>550</ele>
        <time>2022-11-05T09:19:41Z</time>
      </trkpt>
      <trkpt lat="48.41948" lon="7.11247">
        <ele>550.6</ele>
        <time>2022-11-05T09:19:46Z</time>
      </trkpt>
      <trkpt lat="48.41948" lon="7.1124">
        <ele>551</ele>
        <time>2022-11-05T09:19:49Z</time>
      </trkpt>
      <trkpt lat="48.41951" lon="7.11211">
        <ele>551.6</ele>
        <time>2022-11-05T09:19:58Z</time>
      </trkpt>
      <trkpt lat="48.41951" lon="7.11205">
        <ele>551.6</ele>
        <time>2022-11-05T09:20:00Z</time>
      </trkpt>
      <trkpt lat="48.41948" lon="7.11186">
        <ele>552.2</ele>
        <time>2022-11-05T09:20:07Z</time>
      </trkpt>
      <trkpt lat="48.41944" lon="7.1117">
        <ele>552.6</ele>
        <time>2022-11-05T09:20:13Z</time>
      </trkpt>
      <trkpt lat="48.41941" lon="7.11165">
        <ele>552.8</ele>
        <time>2022-11-05T09:20:15Z</time>
      </trkpt>
      <trkpt lat="48.41938" lon="7.11161">
        <ele>553</ele>
        <time>2022-11-05T09:20:17Z</time>
      </trkpt>
      <trkpt lat="48.41938" lon="7.11159">
        <ele>553.2</ele>
        <time>2022-11-05T09:20:18Z</time>
      </trkpt>
      <trkpt lat="48.41937" lon="7.11148">
        <ele>553.8</ele>
        <time>2022-11-05T09:20:22Z</time>
      </trkpt>
      <trkpt lat="48.41935" lon="7.11132">
        <ele>554.6</ele>
        <time>2022-11-05T09:20:28Z</time>
      </trkpt>
      <trkpt lat="48.41932" lon="7.11124">
        <ele>555</ele>
        <time>2022-11-05T09:20:31Z</time>
      </trkpt>
      <trkpt lat="48.41931" lon="7.11121">
        <ele>555</ele>
        <time>2022-11-05T09:20:32Z</time>
      </trkpt>
      <trkpt lat="48.41932" lon="7.11115">
        <ele>555.4</ele>
        <time>2022-11-05T09:20:34Z</time>
      </trkpt>
      <trkpt lat="48.41932" lon="7.11111">
        <ele>555.6</ele>
        <time>2022-11-05T09:20:35Z</time>
      </trkpt>
      <trkpt lat="48.41931" lon="7.11107">
        <ele>555.8</ele>
        <time>2022-11-05T09:20:37Z</time>
      </trkpt>
      <trkpt lat="48.4193" lon="7.11105">
        <ele>555.8</ele>
        <time>2022-11-05T09:20:38Z</time>
      </trkpt>
      <trkpt lat="48.41929" lon="7.11103">
        <ele>556</ele>
        <time>2022-11-05T09:20:39Z</time>
      </trkpt>
      <trkpt lat="48.41928" lon="7.111">
        <ele>556.2</ele>
        <time>2022-11-05T09:20:40Z</time>
      </trkpt>
      <trkpt lat="48.41928" lon="7.11096">
        <ele>556.6</ele>
        <time>2022-11-05T09:20:41Z</time>
      </trkpt>
      <trkpt lat="48.41929" lon="7.11093">
        <ele>556.6</ele>
        <time>2022-11-05T09:20:42Z</time>
      </trkpt>
      <trkpt lat="48.4193" lon="7.11086">
        <ele>556.8</ele>
        <time>2022-11-05T09:20:44Z</time>
      </trkpt>
      <trkpt lat="48.41929" lon="7.11083">
        <ele>557</ele>
        <time>2022-11-05T09:20:45Z</time>
      </trkpt>
      <trkpt lat="48.41929" lon="7.11081">
        <ele>557</ele>
        <time>2022-11-05T09:20:46Z</time>
      </trkpt>
      <trkpt lat="48.41928" lon="7.11069">
        <ele>557.8</ele>
        <time>2022-11-05T09:20:52Z</time>
      </trkpt>
      <trkpt lat="48.41928" lon="7.11064">
        <ele>558.2</ele>
        <time>2022-11-05T09:20:54Z</time>
      </trkpt>
      <trkpt lat="48.41928" lon="7.11059">
        <ele>558.4</ele>
        <time>2022-11-05T09:20:56Z</time>
      </trkpt>
      <trkpt lat="48.41928" lon="7.11057">
        <ele>558.6</ele>
        <time>2022-11-05T09:20:57Z</time>
      </trkpt>
      <trkpt lat="48.41928" lon="7.11049">
        <ele>558.8</ele>
        <time>2022-11-05T09:21:00Z</time>
      </trkpt>
      <trkpt lat="48.41926" lon="7.11031">
        <ele>559.4</ele>
        <time>2022-11-05T09:21:07Z</time>
      </trkpt>
      <trkpt lat="48.41925" lon="7.11028">
        <ele>559.6</ele>
        <time>2022-11-05T09:21:08Z</time>
      </trkpt>
      <trkpt lat="48.41924" lon="7.11006">
        <ele>560.4</ele>
        <time>2022-11-05T09:21:16Z</time>
      </trkpt>
      <trkpt lat="48.41924" lon="7.11004">
        <ele>560.6</ele>
        <time>2022-11-05T09:21:17Z</time>
      </trkpt>
      <trkpt lat="48.41923" lon="7.10991">
        <ele>561.2</ele>
        <time>2022-11-05T09:21:22Z</time>
      </trkpt>
      <trkpt lat="48.41922" lon="7.10989">
        <ele>561.2</ele>
        <time>2022-11-05T09:21:23Z</time>
      </trkpt>
      <trkpt lat="48.41918" lon="7.1098">
        <ele>561.6</ele>
        <time>2022-11-05T09:21:28Z</time>
      </trkpt>
      <trkpt lat="48.41917" lon="7.10979">
        <ele>561.8</ele>
        <time>2022-11-05T09:21:29Z</time>
      </trkpt>
      <trkpt lat="48.4191" lon="7.10969">
        <ele>562.4</ele>
        <time>2022-11-05T09:21:35Z</time>
      </trkpt>
      <trkpt lat="48.41908" lon="7.10967">
        <ele>562.4</ele>
        <time>2022-11-05T09:21:36Z</time>
      </trkpt>
      <trkpt lat="48.41905" lon="7.10964">
        <ele>562.8</ele>
        <time>2022-11-05T09:21:38Z</time>
      </trkpt>
      <trkpt lat="48.419" lon="7.10957">
        <ele>563.2</ele>
        <time>2022-11-05T09:21:41Z</time>
      </trkpt>
      <trkpt lat="48.41895" lon="7.10946">
        <ele>563.6</ele>
        <time>2022-11-05T09:21:47Z</time>
      </trkpt>
      <trkpt lat="48.41889" lon="7.10943">
        <ele>563.8</ele>
        <time>2022-11-05T09:21:51Z</time>
      </trkpt>
      <trkpt lat="48.41884" lon="7.10942">
        <ele>564</ele>
        <time>2022-11-05T09:21:53Z</time>
      </trkpt>
      <trkpt lat="48.41873" lon="7.10939">
        <ele>564.6</ele>
        <time>2022-11-05T09:22:00Z</time>
      </trkpt>
      <trkpt lat="48.41871" lon="7.10938">
        <ele>564.8</ele>
        <time>2022-11-05T09:22:01Z</time>
      </trkpt>
      <trkpt lat="48.4187" lon="7.10938">
        <ele>564.8</ele>
        <time>2022-11-05T09:22:02Z</time>
      </trkpt>
      <trkpt lat="48.41868" lon="7.10937">
        <ele>565</ele>
        <time>2022-11-05T09:22:03Z</time>
      </trkpt>
      <trkpt lat="48.41863" lon="7.10934">
        <ele>565.4</ele>
        <time>2022-11-05T09:22:06Z</time>
      </trkpt>
      <trkpt lat="48.41861" lon="7.10934">
        <ele>565.4</ele>
        <time>2022-11-05T09:22:07Z</time>
      </trkpt>
      <trkpt lat="48.41856" lon="7.10934">
        <ele>566</ele>
        <time>2022-11-05T09:22:10Z</time>
      </trkpt>
      <trkpt lat="48.41844" lon="7.1093">
        <ele>566.6</ele>
        <time>2022-11-05T09:22:15Z</time>
      </trkpt>
      <trkpt lat="48.41837" lon="7.1093">
        <ele>567</ele>
        <time>2022-11-05T09:22:19Z</time>
      </trkpt>
      <trkpt lat="48.41832" lon="7.10929">
        <ele>567.4</ele>
        <time>2022-11-05T09:22:21Z</time>
      </trkpt>
      <trkpt lat="48.41824" lon="7.10928">
        <ele>567.8</ele>
        <time>2022-11-05T09:22:24Z</time>
      </trkpt>
      <trkpt lat="48.41817" lon="7.10921">
        <ele>568</ele>
        <time>2022-11-05T09:22:27Z</time>
      </trkpt>
      <trkpt lat="48.41814" lon="7.10921">
        <ele>568.8</ele>
        <time>2022-11-05T09:22:31Z</time>
      </trkpt>
      <trkpt lat="48.41814" lon="7.10921">
        <ele>569.2</ele>
        <time>2022-11-05T09:22:34Z</time>
      </trkpt>
      <trkpt lat="48.41814" lon="7.10921">
        <ele>569</ele>
        <time>2022-11-05T09:22:39Z</time>
      </trkpt>
      <trkpt lat="48.41814" lon="7.10921">
        <ele>569</ele>
        <time>2022-11-05T09:22:46Z</time>
      </trkpt>
      <trkpt lat="48.41811" lon="7.10919">
        <ele>569.2</ele>
        <time>2022-11-05T09:22:54Z</time>
      </trkpt>
      <trkpt lat="48.41803" lon="7.10916">
        <ele>569.6</ele>
        <time>2022-11-05T09:22:59Z</time>
      </trkpt>
      <trkpt lat="48.41799" lon="7.10913">
        <ele>570</ele>
        <time>2022-11-05T09:23:01Z</time>
      </trkpt>
      <trkpt lat="48.41798" lon="7.10912">
        <ele>570.2</ele>
        <time>2022-11-05T09:23:02Z</time>
      </trkpt>
      <trkpt lat="48.41789" lon="7.10903">
        <ele>571</ele>
        <time>2022-11-05T09:23:09Z</time>
      </trkpt>
      <trkpt lat="48.41787" lon="7.10899">
        <ele>571.2</ele>
        <time>2022-11-05T09:23:11Z</time>
      </trkpt>
      <trkpt lat="48.41779" lon="7.10879">
        <ele>572</ele>
        <time>2022-11-05T09:23:19Z</time>
      </trkpt>
      <trkpt lat="48.41777" lon="7.10874">
        <ele>572.4</ele>
        <time>2022-11-05T09:23:21Z</time>
      </trkpt>
      <trkpt lat="48.41771" lon="7.10849">
        <ele>573</ele>
        <time>2022-11-05T09:23:29Z</time>
      </trkpt>
      <trkpt lat="48.4177" lon="7.10839">
        <ele>573.4</ele>
        <time>2022-11-05T09:23:32Z</time>
      </trkpt>
      <trkpt lat="48.41768" lon="7.10824">
        <ele>573.8</ele>
        <time>2022-11-05T09:23:36Z</time>
      </trkpt>
      <trkpt lat="48.41768" lon="7.10807">
        <ele>574.4</ele>
        <time>2022-11-05T09:23:41Z</time>
      </trkpt>
      <trkpt lat="48.41768" lon="7.10799">
        <ele>574.6</ele>
        <time>2022-11-05T09:23:43Z</time>
      </trkpt>
      <trkpt lat="48.41772" lon="7.10761">
        <ele>575</ele>
        <time>2022-11-05T09:23:52Z</time>
      </trkpt>
      <trkpt lat="48.41772" lon="7.10728">
        <ele>575.2</ele>
        <time>2022-11-05T09:24:00Z</time>
      </trkpt>
      <trkpt lat="48.4177" lon="7.10705">
        <ele>575.4</ele>
        <time>2022-11-05T09:24:06Z</time>
      </trkpt>
      <trkpt lat="48.41768" lon="7.10696">
        <ele>575.4</ele>
        <time>2022-11-05T09:24:08Z</time>
      </trkpt>
      <trkpt lat="48.41762" lon="7.10685">
        <ele>575.6</ele>
        <time>2022-11-05T09:24:11Z</time>
      </trkpt>
      <trkpt lat="48.41759" lon="7.10682">
        <ele>575.6</ele>
        <time>2022-11-05T09:24:12Z</time>
      </trkpt>
      <trkpt lat="48.41748" lon="7.1067">
        <ele>576</ele>
        <time>2022-11-05T09:24:17Z</time>
      </trkpt>
      <trkpt lat="48.41742" lon="7.10667">
        <ele>576.4</ele>
        <time>2022-11-05T09:24:19Z</time>
      </trkpt>
      <trkpt lat="48.41739" lon="7.10666">
        <ele>576.6</ele>
        <time>2022-11-05T09:24:20Z</time>
      </trkpt>
      <trkpt lat="48.41736" lon="7.10664">
        <ele>576.6</ele>
        <time>2022-11-05T09:24:21Z</time>
      </trkpt>
      <trkpt lat="48.41721" lon="7.10662">
        <ele>577.6</ele>
        <time>2022-11-05T09:24:27Z</time>
      </trkpt>
      <trkpt lat="48.41718" lon="7.10662">
        <ele>577.6</ele>
        <time>2022-11-05T09:24:28Z</time>
      </trkpt>
      <trkpt lat="48.41705" lon="7.10666">
        <ele>578.4</ele>
        <time>2022-11-05T09:24:34Z</time>
      </trkpt>
      <trkpt lat="48.41701" lon="7.10666">
        <ele>578.6</ele>
        <time>2022-11-05T09:24:36Z</time>
      </trkpt>
      <trkpt lat="48.4169" lon="7.10667">
        <ele>579</ele>
        <time>2022-11-05T09:24:42Z</time>
      </trkpt>
      <trkpt lat="48.41687" lon="7.10668">
        <ele>579</ele>
        <time>2022-11-05T09:24:43Z</time>
      </trkpt>
      <trkpt lat="48.41677" lon="7.10666">
        <ele>579.2</ele>
        <time>2022-11-05T09:24:48Z</time>
      </trkpt>
      <trkpt lat="48.41674" lon="7.10665">
        <ele>579.2</ele>
        <time>2022-11-05T09:24:49Z</time>
      </trkpt>
      <trkpt lat="48.41668" lon="7.10662">
        <ele>579.4</ele>
        <time>2022-11-05T09:24:52Z</time>
      </trkpt>
      <trkpt lat="48.41662" lon="7.10657">
        <ele>579.8</ele>
        <time>2022-11-05T09:24:55Z</time>
      </trkpt>
      <trkpt lat="48.41651" lon="7.10647">
        <ele>580</ele>
        <time>2022-11-05T09:24:59Z</time>
      </trkpt>
      <trkpt lat="48.41638" lon="7.10635">
        <ele>580.4</ele>
        <time>2022-11-05T09:25:05Z</time>
      </trkpt>
      <trkpt lat="48.41636" lon="7.10633">
        <ele>580.6</ele>
        <time>2022-11-05T09:25:06Z</time>
      </trkpt>
      <trkpt lat="48.41629" lon="7.10624">
        <ele>580.6</ele>
        <time>2022-11-05T09:25:10Z</time>
      </trkpt>
      <trkpt lat="48.41625" lon="7.10619">
        <ele>580.8</ele>
        <time>2022-11-05T09:25:11Z</time>
      </trkpt>
      <trkpt lat="48.41612" lon="7.1061">
        <ele>581</ele>
        <time>2022-11-05T09:25:16Z</time>
      </trkpt>
      <trkpt lat="48.41609" lon="7.10609">
        <ele>581.2</ele>
        <time>2022-11-05T09:25:17Z</time>
      </trkpt>
      <trkpt lat="48.41601" lon="7.10607">
        <ele>581.4</ele>
        <time>2022-11-05T09:25:19Z</time>
      </trkpt>
      <trkpt lat="48.41589" lon="7.10609">
        <ele>581.8</ele>
        <time>2022-11-05T09:25:23Z</time>
      </trkpt>
      <trkpt lat="48.41588" lon="7.1061">
        <ele>581.8</ele>
        <time>2022-11-05T09:25:24Z</time>
      </trkpt>
      <trkpt lat="48.41576" lon="7.10612">
        <ele>582.6</ele>
        <time>2022-11-05T09:25:31Z</time>
      </trkpt>
      <trkpt lat="48.41573" lon="7.10612">
        <ele>583</ele>
        <time>2022-11-05T09:25:33Z</time>
      </trkpt>
      <trkpt lat="48.41572" lon="7.10612">
        <ele>583</ele>
        <time>2022-11-05T09:25:34Z</time>
      </trkpt>
      <trkpt lat="48.41563" lon="7.1061">
        <ele>583.4</ele>
        <time>2022-11-05T09:25:38Z</time>
      </trkpt>
      <trkpt lat="48.41555" lon="7.10608">
        <ele>584</ele>
        <time>2022-11-05T09:25:42Z</time>
      </trkpt>
      <trkpt lat="48.41549" lon="7.10606">
        <ele>584.2</ele>
        <time>2022-11-05T09:25:45Z</time>
      </trkpt>
      <trkpt lat="48.41524" lon="7.10601">
        <ele>585</ele>
        <time>2022-11-05T09:25:53Z</time>
      </trkpt>
      <trkpt lat="48.41521" lon="7.10601">
        <ele>585</ele>
        <time>2022-11-05T09:25:54Z</time>
      </trkpt>
      <trkpt lat="48.41505" lon="7.10603">
        <ele>586</ele>
        <time>2022-11-05T09:26:00Z</time>
      </trkpt>
      <trkpt lat="48.41493" lon="7.1061">
        <ele>586.4</ele>
        <time>2022-11-05T09:26:05Z</time>
      </trkpt>
      <trkpt lat="48.41487" lon="7.1061">
        <ele>586.6</ele>
        <time>2022-11-05T09:26:07Z</time>
      </trkpt>
      <trkpt lat="48.41474" lon="7.10611">
        <ele>586.8</ele>
        <time>2022-11-05T09:26:12Z</time>
      </trkpt>
      <trkpt lat="48.41468" lon="7.1061">
        <ele>587</ele>
        <time>2022-11-05T09:26:15Z</time>
      </trkpt>
      <trkpt lat="48.4146" lon="7.10613">
        <ele>587.6</ele>
        <time>2022-11-05T09:26:20Z</time>
      </trkpt>
      <trkpt lat="48.41458" lon="7.10613">
        <ele>587.6</ele>
        <time>2022-11-05T09:26:21Z</time>
      </trkpt>
      <trkpt lat="48.41453" lon="7.10614">
        <ele>587.8</ele>
        <time>2022-11-05T09:26:23Z</time>
      </trkpt>
      <trkpt lat="48.41444" lon="7.10614">
        <ele>588.4</ele>
        <time>2022-11-05T09:26:28Z</time>
      </trkpt>
      <trkpt lat="48.41439" lon="7.10612">
        <ele>588.4</ele>
        <time>2022-11-05T09:26:31Z</time>
      </trkpt>
      <trkpt lat="48.41434" lon="7.10613">
        <ele>589</ele>
        <time>2022-11-05T09:26:34Z</time>
      </trkpt>
      <trkpt lat="48.41432" lon="7.10612">
        <ele>589</ele>
        <time>2022-11-05T09:26:35Z</time>
      </trkpt>
      <trkpt lat="48.4143" lon="7.10611">
        <ele>589.2</ele>
        <time>2022-11-05T09:26:37Z</time>
      </trkpt>
      <trkpt lat="48.41421" lon="7.10605">
        <ele>589.4</ele>
        <time>2022-11-05T09:26:40Z</time>
      </trkpt>
      <trkpt lat="48.41412" lon="7.10587">
        <ele>590.2</ele>
        <time>2022-11-05T09:26:47Z</time>
      </trkpt>
      <trkpt lat="48.4141" lon="7.10577">
        <ele>590.2</ele>
        <time>2022-11-05T09:26:50Z</time>
      </trkpt>
      <trkpt lat="48.41409" lon="7.10567">
        <ele>590.4</ele>
        <time>2022-11-05T09:26:53Z</time>
      </trkpt>
      <trkpt lat="48.41409" lon="7.10542">
        <ele>591.2</ele>
        <time>2022-11-05T09:27:00Z</time>
      </trkpt>
      <trkpt lat="48.41409" lon="7.10522">
        <ele>592</ele>
        <time>2022-11-05T09:27:06Z</time>
      </trkpt>
      <trkpt lat="48.41408" lon="7.10512">
        <ele>592.2</ele>
        <time>2022-11-05T09:27:09Z</time>
      </trkpt>
      <trkpt lat="48.41406" lon="7.10507">
        <ele>592.4</ele>
        <time>2022-11-05T09:27:11Z</time>
      </trkpt>
      <trkpt lat="48.41401" lon="7.10496">
        <ele>592.4</ele>
        <time>2022-11-05T09:27:14Z</time>
      </trkpt>
      <trkpt lat="48.414" lon="7.10493">
        <ele>592.8</ele>
        <time>2022-11-05T09:27:15Z</time>
      </trkpt>
      <trkpt lat="48.41395" lon="7.10486">
        <ele>593.2</ele>
        <time>2022-11-05T09:27:17Z</time>
      </trkpt>
      <trkpt lat="48.41385" lon="7.10476">
        <ele>593.8</ele>
        <time>2022-11-05T09:27:21Z</time>
      </trkpt>
      <trkpt lat="48.41382" lon="7.10474">
        <ele>593.8</ele>
        <time>2022-11-05T09:27:22Z</time>
      </trkpt>
      <trkpt lat="48.41373" lon="7.10463">
        <ele>594.2</ele>
        <time>2022-11-05T09:27:26Z</time>
      </trkpt>
      <trkpt lat="48.41366" lon="7.10457">
        <ele>594.4</ele>
        <time>2022-11-05T09:27:29Z</time>
      </trkpt>
      <trkpt lat="48.41363" lon="7.10452">
        <ele>594.6</ele>
        <time>2022-11-05T09:27:31Z</time>
      </trkpt>
      <trkpt lat="48.41353" lon="7.10441">
        <ele>595.4</ele>
        <time>2022-11-05T09:27:36Z</time>
      </trkpt>
      <trkpt lat="48.41348" lon="7.10438">
        <ele>595.8</ele>
        <time>2022-11-05T09:27:39Z</time>
      </trkpt>
      <trkpt lat="48.41344" lon="7.10439">
        <ele>596</ele>
        <time>2022-11-05T09:27:41Z</time>
      </trkpt>
      <trkpt lat="48.41324" lon="7.10445">
        <ele>596.6</ele>
        <time>2022-11-05T09:27:48Z</time>
      </trkpt>
      <trkpt lat="48.41315" lon="7.10456">
        <ele>597</ele>
        <time>2022-11-05T09:27:52Z</time>
      </trkpt>
      <trkpt lat="48.41309" lon="7.10462">
        <ele>597.2</ele>
        <time>2022-11-05T09:27:55Z</time>
      </trkpt>
      <trkpt lat="48.41308" lon="7.10463">
        <ele>597.4</ele>
        <time>2022-11-05T09:27:56Z</time>
      </trkpt>
      <trkpt lat="48.41302" lon="7.10468">
        <ele>597.6</ele>
        <time>2022-11-05T09:27:58Z</time>
      </trkpt>
      <trkpt lat="48.41296" lon="7.10474">
        <ele>597.8</ele>
        <time>2022-11-05T09:27:59Z</time>
      </trkpt>
      <trkpt lat="48.41281" lon="7.10476">
        <ele>598.4</ele>
        <time>2022-11-05T09:28:04Z</time>
      </trkpt>
      <trkpt lat="48.41272" lon="7.10467">
        <ele>598.8</ele>
        <time>2022-11-05T09:28:08Z</time>
      </trkpt>
      <trkpt lat="48.4127" lon="7.10459">
        <ele>599</ele>
        <time>2022-11-05T09:28:10Z</time>
      </trkpt>
      <trkpt lat="48.41262" lon="7.10449">
        <ele>599.6</ele>
        <time>2022-11-05T09:28:15Z</time>
      </trkpt>
      <trkpt lat="48.41256" lon="7.10442">
        <ele>600</ele>
        <time>2022-11-05T09:28:18Z</time>
      </trkpt>
      <trkpt lat="48.41249" lon="7.10439">
        <ele>600.2</ele>
        <time>2022-11-05T09:28:20Z</time>
      </trkpt>
      <trkpt lat="48.41247" lon="7.10438">
        <ele>600.4</ele>
        <time>2022-11-05T09:28:21Z</time>
      </trkpt>
      <trkpt lat="48.41244" lon="7.10434">
        <ele>600.6</ele>
        <time>2022-11-05T09:28:23Z</time>
      </trkpt>
      <trkpt lat="48.41238" lon="7.10429">
        <ele>600.8</ele>
        <time>2022-11-05T09:28:25Z</time>
      </trkpt>
      <trkpt lat="48.41237" lon="7.10426">
        <ele>600.8</ele>
        <time>2022-11-05T09:28:26Z</time>
      </trkpt>
      <trkpt lat="48.41228" lon="7.1042">
        <ele>601</ele>
        <time>2022-11-05T09:28:29Z</time>
      </trkpt>
      <trkpt lat="48.41224" lon="7.1042">
        <ele>601</ele>
        <time>2022-11-05T09:28:30Z</time>
      </trkpt>
      <trkpt lat="48.41222" lon="7.1042">
        <ele>601.2</ele>
        <time>2022-11-05T09:28:31Z</time>
      </trkpt>
      <trkpt lat="48.4121" lon="7.10413">
        <ele>601.6</ele>
        <time>2022-11-05T09:28:35Z</time>
      </trkpt>
      <trkpt lat="48.41204" lon="7.10409">
        <ele>602</ele>
        <time>2022-11-05T09:28:37Z</time>
      </trkpt>
      <trkpt lat="48.41202" lon="7.10408">
        <ele>602.2</ele>
        <time>2022-11-05T09:28:38Z</time>
      </trkpt>
      <trkpt lat="48.41195" lon="7.10401">
        <ele>602.6</ele>
        <time>2022-11-05T09:28:42Z</time>
      </trkpt>
      <trkpt lat="48.4119" lon="7.10396">
        <ele>602.8</ele>
        <time>2022-11-05T09:28:44Z</time>
      </trkpt>
      <trkpt lat="48.4117" lon="7.10383">
        <ele>602.8</ele>
        <time>2022-11-05T09:28:50Z</time>
      </trkpt>
      <trkpt lat="48.41166" lon="7.10382">
        <ele>603.2</ele>
        <time>2022-11-05T09:28:51Z</time>
      </trkpt>
      <trkpt lat="48.41158" lon="7.10381">
        <ele>603.6</ele>
        <time>2022-11-05T09:28:54Z</time>
      </trkpt>
      <trkpt lat="48.41154" lon="7.10382">
        <ele>604</ele>
        <time>2022-11-05T09:28:55Z</time>
      </trkpt>
      <trkpt lat="48.41149" lon="7.1038">
        <ele>604.2</ele>
        <time>2022-11-05T09:28:57Z</time>
      </trkpt>
      <trkpt lat="48.41128" lon="7.10377">
        <ele>604.8</ele>
        <time>2022-11-05T09:29:03Z</time>
      </trkpt>
      <trkpt lat="48.41118" lon="7.10377">
        <ele>605</ele>
        <time>2022-11-05T09:29:05Z</time>
      </trkpt>
      <trkpt lat="48.41108" lon="7.10378">
        <ele>605.4</ele>
        <time>2022-11-05T09:29:09Z</time>
      </trkpt>
      <trkpt lat="48.4109" lon="7.10381">
        <ele>605.8</ele>
        <time>2022-11-05T09:29:15Z</time>
      </trkpt>
      <trkpt lat="48.41083" lon="7.1038">
        <ele>606</ele>
        <time>2022-11-05T09:29:18Z</time>
      </trkpt>
      <trkpt lat="48.4108" lon="7.10379">
        <ele>606.6</ele>
        <time>2022-11-05T09:29:21Z</time>
      </trkpt>
      <trkpt lat="48.41075" lon="7.10376">
        <ele>606.8</ele>
        <time>2022-11-05T09:29:24Z</time>
      </trkpt>
      <trkpt lat="48.41073" lon="7.10373">
        <ele>607</ele>
        <time>2022-11-05T09:29:25Z</time>
      </trkpt>
      <trkpt lat="48.4107" lon="7.10369">
        <ele>607.2</ele>
        <time>2022-11-05T09:29:27Z</time>
      </trkpt>
      <trkpt lat="48.41063" lon="7.10362">
        <ele>607.6</ele>
        <time>2022-11-05T09:29:30Z</time>
      </trkpt>
      <trkpt lat="48.41061" lon="7.10357">
        <ele>607.6</ele>
        <time>2022-11-05T09:29:32Z</time>
      </trkpt>
      <trkpt lat="48.41055" lon="7.10344">
        <ele>608</ele>
        <time>2022-11-05T09:29:36Z</time>
      </trkpt>
      <trkpt lat="48.41054" lon="7.10341">
        <ele>608</ele>
        <time>2022-11-05T09:29:37Z</time>
      </trkpt>
      <trkpt lat="48.41053" lon="7.10331">
        <ele>608.2</ele>
        <time>2022-11-05T09:29:40Z</time>
      </trkpt>
      <trkpt lat="48.41052" lon="7.10328">
        <ele>608.2</ele>
        <time>2022-11-05T09:29:41Z</time>
      </trkpt>
      <trkpt lat="48.41049" lon="7.10325">
        <ele>608.6</ele>
        <time>2022-11-05T09:29:44Z</time>
      </trkpt>
      <trkpt lat="48.41047" lon="7.10321">
        <ele>608.8</ele>
        <time>2022-11-05T09:29:46Z</time>
      </trkpt>
      <trkpt lat="48.41046" lon="7.10319">
        <ele>608.8</ele>
        <time>2022-11-05T09:29:47Z</time>
      </trkpt>
      <trkpt lat="48.41045" lon="7.10316">
        <ele>609</ele>
        <time>2022-11-05T09:29:48Z</time>
      </trkpt>
      <trkpt lat="48.41043" lon="7.10314">
        <ele>609.2</ele>
        <time>2022-11-05T09:29:49Z</time>
      </trkpt>
      <trkpt lat="48.41042" lon="7.10312">
        <ele>609.2</ele>
        <time>2022-11-05T09:29:50Z</time>
      </trkpt>
      <trkpt lat="48.41036" lon="7.10304">
        <ele>609.6</ele>
        <time>2022-11-05T09:29:53Z</time>
      </trkpt>
      <trkpt lat="48.41033" lon="7.10298">
        <ele>609.6</ele>
        <time>2022-11-05T09:29:55Z</time>
      </trkpt>
      <trkpt lat="48.41023" lon="7.1029">
        <ele>610.2</ele>
        <time>2022-11-05T09:29:58Z</time>
      </trkpt>
      <trkpt lat="48.41019" lon="7.10282">
        <ele>610.4</ele>
        <time>2022-11-05T09:30:00Z</time>
      </trkpt>
      <trkpt lat="48.41017" lon="7.10279">
        <ele>610.4</ele>
        <time>2022-11-05T09:30:01Z</time>
      </trkpt>
      <trkpt lat="48.41014" lon="7.10271">
        <ele>610.8</ele>
        <time>2022-11-05T09:30:03Z</time>
      </trkpt>
      <trkpt lat="48.41006" lon="7.10254">
        <ele>611</ele>
        <time>2022-11-05T09:30:07Z</time>
      </trkpt>
      <trkpt lat="48.41005" lon="7.10251">
        <ele>611</ele>
        <time>2022-11-05T09:30:08Z</time>
      </trkpt>
      <trkpt lat="48.41001" lon="7.10246">
        <ele>611</ele>
        <time>2022-11-05T09:30:09Z</time>
      </trkpt>
      <trkpt lat="48.40998" lon="7.10243">
        <ele>611.4</ele>
        <time>2022-11-05T09:30:10Z</time>
      </trkpt>
      <trkpt lat="48.40989" lon="7.10228">
        <ele>611.6</ele>
        <time>2022-11-05T09:30:14Z</time>
      </trkpt>
      <trkpt lat="48.40976" lon="7.10208">
        <ele>612</ele>
        <time>2022-11-05T09:30:20Z</time>
      </trkpt>
      <trkpt lat="48.40972" lon="7.10203">
        <ele>612.4</ele>
        <time>2022-11-05T09:30:22Z</time>
      </trkpt>
      <trkpt lat="48.40966" lon="7.10193">
        <ele>612.6</ele>
        <time>2022-11-05T09:30:26Z</time>
      </trkpt>
      <trkpt lat="48.40941" lon="7.10179">
        <ele>613.4</ele>
        <time>2022-11-05T09:30:32Z</time>
      </trkpt>
      <trkpt lat="48.40937" lon="7.10178">
        <ele>613.4</ele>
        <time>2022-11-05T09:30:33Z</time>
      </trkpt>
      <trkpt lat="48.4093" lon="7.10173">
        <ele>614</ele>
        <time>2022-11-05T09:30:36Z</time>
      </trkpt>
      <trkpt lat="48.40929" lon="7.1017">
        <ele>614</ele>
        <time>2022-11-05T09:30:37Z</time>
      </trkpt>
      <trkpt lat="48.4092" lon="7.10148">
        <ele>614.4</ele>
        <time>2022-11-05T09:30:44Z</time>
      </trkpt>
      <trkpt lat="48.40919" lon="7.10142">
        <ele>614.6</ele>
        <time>2022-11-05T09:30:46Z</time>
      </trkpt>
      <trkpt lat="48.40914" lon="7.10137">
        <ele>614.8</ele>
        <time>2022-11-05T09:30:48Z</time>
      </trkpt>
      <trkpt lat="48.40912" lon="7.10134">
        <ele>614.8</ele>
        <time>2022-11-05T09:30:49Z</time>
      </trkpt>
      <trkpt lat="48.40907" lon="7.10124">
        <ele>615.2</ele>
        <time>2022-11-05T09:30:52Z</time>
      </trkpt>
      <trkpt lat="48.40906" lon="7.10122">
        <ele>615.4</ele>
        <time>2022-11-05T09:30:53Z</time>
      </trkpt>
      <trkpt lat="48.40902" lon="7.10114">
        <ele>615.8</ele>
        <time>2022-11-05T09:30:56Z</time>
      </trkpt>
      <trkpt lat="48.40887" lon="7.10106">
        <ele>616.4</ele>
        <time>2022-11-05T09:31:00Z</time>
      </trkpt>
      <trkpt lat="48.40884" lon="7.10104">
        <ele>616.6</ele>
        <time>2022-11-05T09:31:01Z</time>
      </trkpt>
      <trkpt lat="48.40872" lon="7.10091">
        <ele>617.2</ele>
        <time>2022-11-05T09:31:07Z</time>
      </trkpt>
      <trkpt lat="48.40871" lon="7.10088">
        <ele>617.2</ele>
        <time>2022-11-05T09:31:08Z</time>
      </trkpt>
      <trkpt lat="48.40865" lon="7.10083">
        <ele>617.4</ele>
        <time>2022-11-05T09:31:10Z</time>
      </trkpt>
      <trkpt lat="48.4086" lon="7.10082">
        <ele>617.4</ele>
        <time>2022-11-05T09:31:12Z</time>
      </trkpt>
      <trkpt lat="48.40856" lon="7.1008">
        <ele>617.6</ele>
        <time>2022-11-05T09:31:14Z</time>
      </trkpt>
      <trkpt lat="48.40852" lon="7.10078">
        <ele>617.6</ele>
        <time>2022-11-05T09:31:15Z</time>
      </trkpt>
      <trkpt lat="48.40832" lon="7.10067">
        <ele>618.6</ele>
        <time>2022-11-05T09:31:20Z</time>
      </trkpt>
      <trkpt lat="48.4083" lon="7.10067">
        <ele>618.8</ele>
        <time>2022-11-05T09:31:21Z</time>
      </trkpt>
      <trkpt lat="48.40804" lon="7.10073">
        <ele>619.6</ele>
        <time>2022-11-05T09:31:29Z</time>
      </trkpt>
      <trkpt lat="48.40801" lon="7.10074">
        <ele>619.6</ele>
        <time>2022-11-05T09:31:30Z</time>
      </trkpt>
      <trkpt lat="48.40799" lon="7.10076">
        <ele>619.8</ele>
        <time>2022-11-05T09:31:31Z</time>
      </trkpt>
      <trkpt lat="48.40795" lon="7.1008">
        <ele>619.8</ele>
        <time>2022-11-05T09:31:33Z</time>
      </trkpt>
      <trkpt lat="48.40789" lon="7.10082">
        <ele>620</ele>
        <time>2022-11-05T09:31:34Z</time>
      </trkpt>
      <trkpt lat="48.40769" lon="7.10097">
        <ele>620.6</ele>
        <time>2022-11-05T09:31:39Z</time>
      </trkpt>
      <trkpt lat="48.40767" lon="7.10099">
        <ele>620.6</ele>
        <time>2022-11-05T09:31:40Z</time>
      </trkpt>
      <trkpt lat="48.40756" lon="7.10105">
        <ele>620.8</ele>
        <time>2022-11-05T09:31:45Z</time>
      </trkpt>
      <trkpt lat="48.40752" lon="7.10105">
        <ele>621.2</ele>
        <time>2022-11-05T09:31:47Z</time>
      </trkpt>
      <trkpt lat="48.40734" lon="7.10107">
        <ele>621.6</ele>
        <time>2022-11-05T09:31:54Z</time>
      </trkpt>
      <trkpt lat="48.4073" lon="7.10107">
        <ele>621.6</ele>
        <time>2022-11-05T09:31:56Z</time>
      </trkpt>
      <trkpt lat="48.40718" lon="7.10109">
        <ele>622.4</ele>
        <time>2022-11-05T09:32:01Z</time>
      </trkpt>
      <trkpt lat="48.40708" lon="7.10113">
        <ele>622.8</ele>
        <time>2022-11-05T09:32:05Z</time>
      </trkpt>
      <trkpt lat="48.40702" lon="7.10114">
        <ele>623.2</ele>
        <time>2022-11-05T09:32:08Z</time>
      </trkpt>
      <trkpt lat="48.40696" lon="7.10115">
        <ele>623.4</ele>
        <time>2022-11-05T09:32:10Z</time>
      </trkpt>
      <trkpt lat="48.40692" lon="7.10115">
        <ele>623.4</ele>
        <time>2022-11-05T09:32:12Z</time>
      </trkpt>
      <trkpt lat="48.4069" lon="7.10114">
        <ele>623.4</ele>
        <time>2022-11-05T09:32:13Z</time>
      </trkpt>
      <trkpt lat="48.40684" lon="7.10114">
        <ele>623.8</ele>
        <time>2022-11-05T09:32:17Z</time>
      </trkpt>
      <trkpt lat="48.40674" lon="7.10102">
        <ele>624.8</ele>
        <time>2022-11-05T09:32:22Z</time>
      </trkpt>
      <trkpt lat="48.40673" lon="7.101">
        <ele>625</ele>
        <time>2022-11-05T09:32:23Z</time>
      </trkpt>
      <trkpt lat="48.4067" lon="7.10084">
        <ele>625.8</ele>
        <time>2022-11-05T09:32:28Z</time>
      </trkpt>
      <trkpt lat="48.40669" lon="7.10076">
        <ele>626</ele>
        <time>2022-11-05T09:32:30Z</time>
      </trkpt>
      <trkpt lat="48.40667" lon="7.10061">
        <ele>626.2</ele>
        <time>2022-11-05T09:32:34Z</time>
      </trkpt>
      <trkpt lat="48.40663" lon="7.10041">
        <ele>626.6</ele>
        <time>2022-11-05T09:32:39Z</time>
      </trkpt>
      <trkpt lat="48.40664" lon="7.10034">
        <ele>626.8</ele>
        <time>2022-11-05T09:32:41Z</time>
      </trkpt>
      <trkpt lat="48.40663" lon="7.10027">
        <ele>627</ele>
        <time>2022-11-05T09:32:43Z</time>
      </trkpt>
      <trkpt lat="48.40662" lon="7.10024">
        <ele>627.2</ele>
        <time>2022-11-05T09:32:44Z</time>
      </trkpt>
      <trkpt lat="48.40661" lon="7.10016">
        <ele>627.2</ele>
        <time>2022-11-05T09:32:46Z</time>
      </trkpt>
      <trkpt lat="48.40655" lon="7.09997">
        <ele>627.4</ele>
        <time>2022-11-05T09:32:51Z</time>
      </trkpt>
      <trkpt lat="48.40652" lon="7.09982">
        <ele>628</ele>
        <time>2022-11-05T09:32:55Z</time>
      </trkpt>
      <trkpt lat="48.4065" lon="7.09978">
        <ele>628.2</ele>
        <time>2022-11-05T09:32:56Z</time>
      </trkpt>
      <trkpt lat="48.40643" lon="7.09957">
        <ele>629</ele>
        <time>2022-11-05T09:33:02Z</time>
      </trkpt>
      <trkpt lat="48.40639" lon="7.0995">
        <ele>629.2</ele>
        <time>2022-11-05T09:33:04Z</time>
      </trkpt>
      <trkpt lat="48.40633" lon="7.09927">
        <ele>630.2</ele>
        <time>2022-11-05T09:33:10Z</time>
      </trkpt>
      <trkpt lat="48.40633" lon="7.09924">
        <ele>630.4</ele>
        <time>2022-11-05T09:33:11Z</time>
      </trkpt>
      <trkpt lat="48.40631" lon="7.09919">
        <ele>630.8</ele>
        <time>2022-11-05T09:33:13Z</time>
      </trkpt>
      <trkpt lat="48.40626" lon="7.0991">
        <ele>631.4</ele>
        <time>2022-11-05T09:33:16Z</time>
      </trkpt>
      <trkpt lat="48.40624" lon="7.09903">
        <ele>631.6</ele>
        <time>2022-11-05T09:33:18Z</time>
      </trkpt>
      <trkpt lat="48.40623" lon="7.09895">
        <ele>631.8</ele>
        <time>2022-11-05T09:33:20Z</time>
      </trkpt>
      <trkpt lat="48.40622" lon="7.0989">
        <ele>632</ele>
        <time>2022-11-05T09:33:21Z</time>
      </trkpt>
      <trkpt lat="48.40612" lon="7.09864">
        <ele>632.6</ele>
        <time>2022-11-05T09:33:25Z</time>
      </trkpt>
      <trkpt lat="48.40608" lon="7.09856">
        <ele>633</ele>
        <time>2022-11-05T09:33:28Z</time>
      </trkpt>
      <trkpt lat="48.40601" lon="7.09835">
        <ele>633.2</ele>
        <time>2022-11-05T09:33:33Z</time>
      </trkpt>
      <trkpt lat="48.40595" lon="7.09808">
        <ele>633.4</ele>
        <time>2022-11-05T09:33:39Z</time>
      </trkpt>
      <trkpt lat="48.40589" lon="7.09791">
        <ele>633.6</ele>
        <time>2022-11-05T09:33:43Z</time>
      </trkpt>
      <trkpt lat="48.40588" lon="7.09787">
        <ele>633.6</ele>
        <time>2022-11-05T09:33:44Z</time>
      </trkpt>
      <trkpt lat="48.40579" lon="7.09764">
        <ele>633.8</ele>
        <time>2022-11-05T09:33:50Z</time>
      </trkpt>
      <trkpt lat="48.40569" lon="7.09746">
        <ele>634.4</ele>
        <time>2022-11-05T09:33:55Z</time>
      </trkpt>
      <trkpt lat="48.4056" lon="7.09721">
        <ele>634.6</ele>
        <time>2022-11-05T09:34:03Z</time>
      </trkpt>
      <trkpt lat="48.40548" lon="7.09708">
        <ele>634.8</ele>
        <time>2022-11-05T09:34:07Z</time>
      </trkpt>
      <trkpt lat="48.40543" lon="7.09702">
        <ele>634.8</ele>
        <time>2022-11-05T09:34:09Z</time>
      </trkpt>
      <trkpt lat="48.40533" lon="7.0969">
        <ele>635.4</ele>
        <time>2022-11-05T09:34:14Z</time>
      </trkpt>
      <trkpt lat="48.40525" lon="7.09682">
        <ele>635.8</ele>
        <time>2022-11-05T09:34:17Z</time>
      </trkpt>
      <trkpt lat="48.40519" lon="7.09675">
        <ele>636.2</ele>
        <time>2022-11-05T09:34:20Z</time>
      </trkpt>
      <trkpt lat="48.40517" lon="7.09672">
        <ele>636.4</ele>
        <time>2022-11-05T09:34:21Z</time>
      </trkpt>
      <trkpt lat="48.40515" lon="7.09665">
        <ele>636.8</ele>
        <time>2022-11-05T09:34:23Z</time>
      </trkpt>
      <trkpt lat="48.40507" lon="7.09643">
        <ele>637.8</ele>
        <time>2022-11-05T09:34:29Z</time>
      </trkpt>
      <trkpt lat="48.40504" lon="7.09636">
        <ele>638</ele>
        <time>2022-11-05T09:34:31Z</time>
      </trkpt>
      <trkpt lat="48.40502" lon="7.09627">
        <ele>638.2</ele>
        <time>2022-11-05T09:34:34Z</time>
      </trkpt>
      <trkpt lat="48.40501" lon="7.09615">
        <ele>638.8</ele>
        <time>2022-11-05T09:34:38Z</time>
      </trkpt>
      <trkpt lat="48.405" lon="7.09613">
        <ele>639</ele>
        <time>2022-11-05T09:34:39Z</time>
      </trkpt>
      <trkpt lat="48.40499" lon="7.09609">
        <ele>639.2</ele>
        <time>2022-11-05T09:34:40Z</time>
      </trkpt>
      <trkpt lat="48.40499" lon="7.09601">
        <ele>639.6</ele>
        <time>2022-11-05T09:34:43Z</time>
      </trkpt>
      <trkpt lat="48.40499" lon="7.09595">
        <ele>639.8</ele>
        <time>2022-11-05T09:34:45Z</time>
      </trkpt>
      <trkpt lat="48.40499" lon="7.09592">
        <ele>640.2</ele>
        <time>2022-11-05T09:34:46Z</time>
      </trkpt>
      <trkpt lat="48.40498" lon="7.09588">
        <ele>640.6</ele>
        <time>2022-11-05T09:34:49Z</time>
      </trkpt>
      <trkpt lat="48.40496" lon="7.09569">
        <ele>641.2</ele>
        <time>2022-11-05T09:34:54Z</time>
      </trkpt>
      <trkpt lat="48.40495" lon="7.09558">
        <ele>641.4</ele>
        <time>2022-11-05T09:34:57Z</time>
      </trkpt>
      <trkpt lat="48.40493" lon="7.09557">
        <ele>641.6</ele>
        <time>2022-11-05T09:34:58Z</time>
      </trkpt>
      <trkpt lat="48.40489" lon="7.09548">
        <ele>641.8</ele>
        <time>2022-11-05T09:35:01Z</time>
      </trkpt>
      <trkpt lat="48.40484" lon="7.0954">
        <ele>641.8</ele>
        <time>2022-11-05T09:35:03Z</time>
      </trkpt>
      <trkpt lat="48.40469" lon="7.09535">
        <ele>642.4</ele>
        <time>2022-11-05T09:35:08Z</time>
      </trkpt>
      <trkpt lat="48.40466" lon="7.09533">
        <ele>642.4</ele>
        <time>2022-11-05T09:35:10Z</time>
      </trkpt>
      <trkpt lat="48.40457" lon="7.09527">
        <ele>642.8</ele>
        <time>2022-11-05T09:35:12Z</time>
      </trkpt>
      <trkpt lat="48.40453" lon="7.09519">
        <ele>643</ele>
        <time>2022-11-05T09:35:15Z</time>
      </trkpt>
      <trkpt lat="48.40452" lon="7.09517">
        <ele>643</ele>
        <time>2022-11-05T09:35:16Z</time>
      </trkpt>
      <trkpt lat="48.4044" lon="7.09497">
        <ele>643.2</ele>
        <time>2022-11-05T09:35:22Z</time>
      </trkpt>
      <trkpt lat="48.4043" lon="7.09487">
        <ele>643.2</ele>
        <time>2022-11-05T09:35:25Z</time>
      </trkpt>
      <trkpt lat="48.40427" lon="7.09482">
        <ele>643.2</ele>
        <time>2022-11-05T09:35:26Z</time>
      </trkpt>
      <trkpt lat="48.40425" lon="7.09477">
        <ele>643.4</ele>
        <time>2022-11-05T09:36:26Z</time>
      </trkpt>
      <trkpt lat="48.40425" lon="7.09477">
        <ele>643.4</ele>
        <time>2022-11-05T09:36:27Z</time>
      </trkpt>
      <trkpt lat="48.40425" lon="7.09477">
        <ele>643.4</ele>
        <time>2022-11-05T09:36:28Z</time>
      </trkpt>
      <trkpt lat="48.40421" lon="7.09471">
        <ele>643.6</ele>
        <time>2022-11-05T09:36:33Z</time>
      </trkpt>
      <trkpt lat="48.40416" lon="7.0946">
        <ele>644</ele>
        <time>2022-11-05T09:36:37Z</time>
      </trkpt>
      <trkpt lat="48.4041" lon="7.09449">
        <ele>644.4</ele>
        <time>2022-11-05T09:36:40Z</time>
      </trkpt>
      <trkpt lat="48.40404" lon="7.09434">
        <ele>644.4</ele>
        <time>2022-11-05T09:36:44Z</time>
      </trkpt>
      <trkpt lat="48.40397" lon="7.0942">
        <ele>644.8</ele>
        <time>2022-11-05T09:36:48Z</time>
      </trkpt>
      <trkpt lat="48.40395" lon="7.09417">
        <ele>645</ele>
        <time>2022-11-05T09:36:49Z</time>
      </trkpt>
      <trkpt lat="48.40393" lon="7.09411">
        <ele>645</ele>
        <time>2022-11-05T09:36:51Z</time>
      </trkpt>
      <trkpt lat="48.40393" lon="7.09408">
        <ele>645.2</ele>
        <time>2022-11-05T09:36:52Z</time>
      </trkpt>
      <trkpt lat="48.40392" lon="7.09404">
        <ele>645.2</ele>
        <time>2022-11-05T09:36:53Z</time>
      </trkpt>
      <trkpt lat="48.40388" lon="7.09395">
        <ele>645.4</ele>
        <time>2022-11-05T09:36:55Z</time>
      </trkpt>
      <trkpt lat="48.40387" lon="7.0939">
        <ele>645.6</ele>
        <time>2022-11-05T09:36:56Z</time>
      </trkpt>
      <trkpt lat="48.40385" lon="7.09373">
        <ele>645.8</ele>
        <time>2022-11-05T09:37:00Z</time>
      </trkpt>
      <trkpt lat="48.40381" lon="7.09358">
        <ele>646</ele>
        <time>2022-11-05T09:37:05Z</time>
      </trkpt>
      <trkpt lat="48.40379" lon="7.09354">
        <ele>646</ele>
        <time>2022-11-05T09:37:06Z</time>
      </trkpt>
      <trkpt lat="48.40378" lon="7.0935">
        <ele>646.2</ele>
        <time>2022-11-05T09:37:07Z</time>
      </trkpt>
      <trkpt lat="48.40378" lon="7.09347">
        <ele>646.2</ele>
        <time>2022-11-05T09:37:08Z</time>
      </trkpt>
      <trkpt lat="48.40376" lon="7.09343">
        <ele>646.4</ele>
        <time>2022-11-05T09:37:09Z</time>
      </trkpt>
      <trkpt lat="48.40373" lon="7.09337">
        <ele>646.4</ele>
        <time>2022-11-05T09:37:10Z</time>
      </trkpt>
      <trkpt lat="48.40368" lon="7.09321">
        <ele>646.8</ele>
        <time>2022-11-05T09:37:14Z</time>
      </trkpt>
      <trkpt lat="48.40365" lon="7.09307">
        <ele>647</ele>
        <time>2022-11-05T09:37:16Z</time>
      </trkpt>
      <trkpt lat="48.40368" lon="7.09297">
        <ele>647.6</ele>
        <time>2022-11-05T09:37:20Z</time>
      </trkpt>
      <trkpt lat="48.40368" lon="7.09295">
        <ele>647.8</ele>
        <time>2022-11-05T09:37:21Z</time>
      </trkpt>
      <trkpt lat="48.40364" lon="7.09285">
        <ele>647.8</ele>
        <time>2022-11-05T09:37:23Z</time>
      </trkpt>
      <trkpt lat="48.40362" lon="7.09281">
        <ele>648</ele>
        <time>2022-11-05T09:37:24Z</time>
      </trkpt>
      <trkpt lat="48.40362" lon="7.09277">
        <ele>648.2</ele>
        <time>2022-11-05T09:37:25Z</time>
      </trkpt>
      <trkpt lat="48.4036" lon="7.09271">
        <ele>648.8</ele>
        <time>2022-11-05T09:37:28Z</time>
      </trkpt>
      <trkpt lat="48.40358" lon="7.09261">
        <ele>648.8</ele>
        <time>2022-11-05T09:37:31Z</time>
      </trkpt>
      <trkpt lat="48.40356" lon="7.09258">
        <ele>649</ele>
        <time>2022-11-05T09:37:32Z</time>
      </trkpt>
      <trkpt lat="48.40347" lon="7.09234">
        <ele>649.4</ele>
        <time>2022-11-05T09:37:36Z</time>
      </trkpt>
      <trkpt lat="48.40341" lon="7.09204">
        <ele>649.8</ele>
        <time>2022-11-05T09:37:44Z</time>
      </trkpt>
      <trkpt lat="48.40331" lon="7.09182">
        <ele>650</ele>
        <time>2022-11-05T09:37:50Z</time>
      </trkpt>
      <trkpt lat="48.4033" lon="7.09175">
        <ele>650.4</ele>
        <time>2022-11-05T09:37:52Z</time>
      </trkpt>
      <trkpt lat="48.40326" lon="7.09163">
        <ele>650.8</ele>
        <time>2022-11-05T09:37:56Z</time>
      </trkpt>
      <trkpt lat="48.40321" lon="7.0915">
        <ele>650.8</ele>
        <time>2022-11-05T09:38:00Z</time>
      </trkpt>
      <trkpt lat="48.4032" lon="7.09128">
        <ele>650.6</ele>
        <time>2022-11-05T09:38:05Z</time>
      </trkpt>
      <trkpt lat="48.40314" lon="7.09105">
        <ele>650.6</ele>
        <time>2022-11-05T09:38:09Z</time>
      </trkpt>
      <trkpt lat="48.4031" lon="7.09092">
        <ele>650.6</ele>
        <time>2022-11-05T09:38:11Z</time>
      </trkpt>
      <trkpt lat="48.40304" lon="7.09081">
        <ele>650.4</ele>
        <time>2022-11-05T09:38:13Z</time>
      </trkpt>
      <trkpt lat="48.40302" lon="7.09074">
        <ele>650.4</ele>
        <time>2022-11-05T09:38:14Z</time>
      </trkpt>
      <trkpt lat="48.40299" lon="7.09055">
        <ele>649.8</ele>
        <time>2022-11-05T09:38:17Z</time>
      </trkpt>
      <trkpt lat="48.40293" lon="7.09043">
        <ele>649.2</ele>
        <time>2022-11-05T09:38:20Z</time>
      </trkpt>
      <trkpt lat="48.40294" lon="7.09025">
        <ele>648</ele>
        <time>2022-11-05T09:38:24Z</time>
      </trkpt>
      <trkpt lat="48.40294" lon="7.09022">
        <ele>648</ele>
        <time>2022-11-05T09:38:25Z</time>
      </trkpt>
      <trkpt lat="48.40291" lon="7.09016">
        <ele>647.6</ele>
        <time>2022-11-05T09:38:27Z</time>
      </trkpt>
      <trkpt lat="48.40283" lon="7.09002">
        <ele>647</ele>
        <time>2022-11-05T09:38:30Z</time>
      </trkpt>
      <trkpt lat="48.40277" lon="7.08995">
        <ele>646.6</ele>
        <time>2022-11-05T09:38:32Z</time>
      </trkpt>
      <trkpt lat="48.40271" lon="7.08991">
        <ele>646</ele>
        <time>2022-11-05T09:38:34Z</time>
      </trkpt>
      <trkpt lat="48.40262" lon="7.0899">
        <ele>645.2</ele>
        <time>2022-11-05T09:38:37Z</time>
      </trkpt>
      <trkpt lat="48.4026" lon="7.08991">
        <ele>644.8</ele>
        <time>2022-11-05T09:38:38Z</time>
      </trkpt>
      <trkpt lat="48.40249" lon="7.08991">
        <ele>643.8</ele>
        <time>2022-11-05T09:38:43Z</time>
      </trkpt>
      <trkpt lat="48.40247" lon="7.08992">
        <ele>643.6</ele>
        <time>2022-11-05T09:38:44Z</time>
      </trkpt>
      <trkpt lat="48.40242" lon="7.08998">
        <ele>643.4</ele>
        <time>2022-11-05T09:38:47Z</time>
      </trkpt>
      <trkpt lat="48.4024" lon="7.08998">
        <ele>643.2</ele>
        <time>2022-11-05T09:38:48Z</time>
      </trkpt>
      <trkpt lat="48.40236" lon="7.08996">
        <ele>643.2</ele>
        <time>2022-11-05T09:38:50Z</time>
      </trkpt>
      <trkpt lat="48.40235" lon="7.08994">
        <ele>643.2</ele>
        <time>2022-11-05T09:38:51Z</time>
      </trkpt>
      <trkpt lat="48.40224" lon="7.08984">
        <ele>643</ele>
        <time>2022-11-05T09:38:56Z</time>
      </trkpt>
      <trkpt lat="48.40215" lon="7.08977">
        <ele>643</ele>
        <time>2022-11-05T09:39:00Z</time>
      </trkpt>
      <trkpt lat="48.40207" lon="7.08971">
        <ele>643.2</ele>
        <time>2022-11-05T09:39:03Z</time>
      </trkpt>
      <trkpt lat="48.40191" lon="7.0896">
        <ele>644</ele>
        <time>2022-11-05T09:39:10Z</time>
      </trkpt>
      <trkpt lat="48.40173" lon="7.08955">
        <ele>645</ele>
        <time>2022-11-05T09:39:17Z</time>
      </trkpt>
      <trkpt lat="48.40168" lon="7.08954">
        <ele>645.4</ele>
        <time>2022-11-05T09:39:19Z</time>
      </trkpt>
      <trkpt lat="48.4015" lon="7.08958">
        <ele>645.8</ele>
        <time>2022-11-05T09:39:26Z</time>
      </trkpt>
      <trkpt lat="48.40139" lon="7.08967">
        <ele>646</ele>
        <time>2022-11-05T09:39:32Z</time>
      </trkpt>
      <trkpt lat="48.40134" lon="7.08974">
        <ele>645.8</ele>
        <time>2022-11-05T09:39:36Z</time>
      </trkpt>
      <trkpt lat="48.40133" lon="7.08976">
        <ele>645.8</ele>
        <time>2022-11-05T09:39:37Z</time>
      </trkpt>
      <trkpt lat="48.40123" lon="7.08995">
        <ele>645.4</ele>
        <time>2022-11-05T09:39:42Z</time>
      </trkpt>
      <trkpt lat="48.40122" lon="7.08999">
        <ele>645.4</ele>
        <time>2022-11-05T09:39:43Z</time>
      </trkpt>
      <trkpt lat="48.4012" lon="7.09004">
        <ele>645.4</ele>
        <time>2022-11-05T09:39:44Z</time>
      </trkpt>
      <trkpt lat="48.4011" lon="7.09025">
        <ele>645</ele>
        <time>2022-11-05T09:39:47Z</time>
      </trkpt>
      <trkpt lat="48.40103" lon="7.09044">
        <ele>644.8</ele>
        <time>2022-11-05T09:39:49Z</time>
      </trkpt>
      <trkpt lat="48.40098" lon="7.09053">
        <ele>644.6</ele>
        <time>2022-11-05T09:39:50Z</time>
      </trkpt>
      <trkpt lat="48.40095" lon="7.09061">
        <ele>644.6</ele>
        <time>2022-11-05T09:39:51Z</time>
      </trkpt>
      <trkpt lat="48.40086" lon="7.09075">
        <ele>644</ele>
        <time>2022-11-05T09:39:53Z</time>
      </trkpt>
      <trkpt lat="48.4008" lon="7.09092">
        <ele>643.6</ele>
        <time>2022-11-05T09:39:55Z</time>
      </trkpt>
      <trkpt lat="48.40076" lon="7.09102">
        <ele>643.6</ele>
        <time>2022-11-05T09:39:56Z</time>
      </trkpt>
      <trkpt lat="48.40074" lon="7.09113">
        <ele>643.2</ele>
        <time>2022-11-05T09:39:57Z</time>
      </trkpt>
      <trkpt lat="48.40069" lon="7.09128">
        <ele>643</ele>
        <time>2022-11-05T09:39:59Z</time>
      </trkpt>
      <trkpt lat="48.40057" lon="7.09148">
        <ele>642.8</ele>
        <time>2022-11-05T09:40:01Z</time>
      </trkpt>
      <trkpt lat="48.4005" lon="7.0916">
        <ele>642.4</ele>
        <time>2022-11-05T09:40:03Z</time>
      </trkpt>
      <trkpt lat="48.40039" lon="7.09186">
        <ele>642.2</ele>
        <time>2022-11-05T09:40:07Z</time>
      </trkpt>
      <trkpt lat="48.40034" lon="7.09197">
        <ele>642</ele>
        <time>2022-11-05T09:40:09Z</time>
      </trkpt>
      <trkpt lat="48.40027" lon="7.09211">
        <ele>642</ele>
        <time>2022-11-05T09:40:12Z</time>
      </trkpt>
      <trkpt lat="48.4002" lon="7.09226">
        <ele>642</ele>
        <time>2022-11-05T09:40:15Z</time>
      </trkpt>
      <trkpt lat="48.40013" lon="7.09239">
        <ele>642.2</ele>
        <time>2022-11-05T09:40:18Z</time>
      </trkpt>
      <trkpt lat="48.39999" lon="7.09268">
        <ele>642.8</ele>
        <time>2022-11-05T09:40:25Z</time>
      </trkpt>
      <trkpt lat="48.39984" lon="7.09291">
        <ele>643.6</ele>
        <time>2022-11-05T09:40:31Z</time>
      </trkpt>
      <trkpt lat="48.39977" lon="7.09296">
        <ele>643.6</ele>
        <time>2022-11-05T09:40:33Z</time>
      </trkpt>
      <trkpt lat="48.39968" lon="7.09303">
        <ele>643.6</ele>
        <time>2022-11-05T09:40:36Z</time>
      </trkpt>
      <trkpt lat="48.39956" lon="7.09313">
        <ele>643.8</ele>
        <time>2022-11-05T09:40:40Z</time>
      </trkpt>
      <trkpt lat="48.39925" lon="7.09341">
        <ele>643.6</ele>
        <time>2022-11-05T09:40:48Z</time>
      </trkpt>
      <trkpt lat="48.39908" lon="7.09373">
        <ele>643.6</ele>
        <time>2022-11-05T09:40:55Z</time>
      </trkpt>
      <trkpt lat="48.39895" lon="7.09414">
        <ele>644.4</ele>
        <time>2022-11-05T09:41:04Z</time>
      </trkpt>
      <trkpt lat="48.39892" lon="7.09423">
        <ele>644.4</ele>
        <time>2022-11-05T09:41:06Z</time>
      </trkpt>
      <trkpt lat="48.39881" lon="7.09457">
        <ele>645</ele>
        <time>2022-11-05T09:41:14Z</time>
      </trkpt>
      <trkpt lat="48.39877" lon="7.09473">
        <ele>645.4</ele>
        <time>2022-11-05T09:41:18Z</time>
      </trkpt>
      <trkpt lat="48.3987" lon="7.09492">
        <ele>646</ele>
        <time>2022-11-05T09:41:23Z</time>
      </trkpt>
      <trkpt lat="48.39863" lon="7.09508">
        <ele>646.6</ele>
        <time>2022-11-05T09:41:28Z</time>
      </trkpt>
      <trkpt lat="48.3986" lon="7.09515">
        <ele>646.8</ele>
        <time>2022-11-05T09:41:30Z</time>
      </trkpt>
      <trkpt lat="48.39854" lon="7.09529">
        <ele>647.6</ele>
        <time>2022-11-05T09:41:34Z</time>
      </trkpt>
      <trkpt lat="48.39849" lon="7.09539">
        <ele>648</ele>
        <time>2022-11-05T09:41:37Z</time>
      </trkpt>
      <trkpt lat="48.39846" lon="7.09551">
        <ele>648.8</ele>
        <time>2022-11-05T09:41:41Z</time>
      </trkpt>
      <trkpt lat="48.39839" lon="7.09567">
        <ele>650</ele>
        <time>2022-11-05T09:41:46Z</time>
      </trkpt>
      <trkpt lat="48.39837" lon="7.09574">
        <ele>650.4</ele>
        <time>2022-11-05T09:41:48Z</time>
      </trkpt>
      <trkpt lat="48.39829" lon="7.0959">
        <ele>651.2</ele>
        <time>2022-11-05T09:41:53Z</time>
      </trkpt>
      <trkpt lat="48.39828" lon="7.09594">
        <ele>651.4</ele>
        <time>2022-11-05T09:41:54Z</time>
      </trkpt>
      <trkpt lat="48.39825" lon="7.09607">
        <ele>652.2</ele>
        <time>2022-11-05T09:41:58Z</time>
      </trkpt>
      <trkpt lat="48.39822" lon="7.09615">
        <ele>653</ele>
        <time>2022-11-05T09:42:01Z</time>
      </trkpt>
      <trkpt lat="48.3982" lon="7.09623">
        <ele>653.2</ele>
        <time>2022-11-05T09:42:04Z</time>
      </trkpt>
      <trkpt lat="48.39817" lon="7.0963">
        <ele>653.6</ele>
        <time>2022-11-05T09:42:07Z</time>
      </trkpt>
      <trkpt lat="48.39814" lon="7.09643">
        <ele>654.4</ele>
        <time>2022-11-05T09:42:11Z</time>
      </trkpt>
      <trkpt lat="48.39813" lon="7.09655">
        <ele>655</ele>
        <time>2022-11-05T09:42:15Z</time>
      </trkpt>
      <trkpt lat="48.39812" lon="7.09664">
        <ele>655.4</ele>
        <time>2022-11-05T09:42:18Z</time>
      </trkpt>
      <trkpt lat="48.39812" lon="7.09667">
        <ele>655.4</ele>
        <time>2022-11-05T09:42:19Z</time>
      </trkpt>
      <trkpt lat="48.39812" lon="7.09671">
        <ele>655.4</ele>
        <time>2022-11-05T09:42:20Z</time>
      </trkpt>
      <trkpt lat="48.39812" lon="7.09682">
        <ele>656</ele>
        <time>2022-11-05T09:42:23Z</time>
      </trkpt>
      <trkpt lat="48.39811" lon="7.09693">
        <ele>656.6</ele>
        <time>2022-11-05T09:42:27Z</time>
      </trkpt>
      <trkpt lat="48.3981" lon="7.09699">
        <ele>657</ele>
        <time>2022-11-05T09:42:29Z</time>
      </trkpt>
      <trkpt lat="48.39807" lon="7.09707">
        <ele>657.2</ele>
        <time>2022-11-05T09:42:32Z</time>
      </trkpt>
      <trkpt lat="48.39798" lon="7.09714">
        <ele>657.8</ele>
        <time>2022-11-05T09:42:37Z</time>
      </trkpt>
      <trkpt lat="48.39796" lon="7.09714">
        <ele>658.2</ele>
        <time>2022-11-05T09:42:38Z</time>
      </trkpt>
      <trkpt lat="48.39784" lon="7.09707">
        <ele>659.2</ele>
        <time>2022-11-05T09:42:44Z</time>
      </trkpt>
      <trkpt lat="48.39782" lon="7.09685">
        <ele>660</ele>
        <time>2022-11-05T09:42:51Z</time>
      </trkpt>
      <trkpt lat="48.39782" lon="7.09679">
        <ele>660.2</ele>
        <time>2022-11-05T09:42:53Z</time>
      </trkpt>
      <trkpt lat="48.39786" lon="7.09663">
        <ele>660.4</ele>
        <time>2022-11-05T09:42:58Z</time>
      </trkpt>
      <trkpt lat="48.39786" lon="7.0966">
        <ele>660.6</ele>
        <time>2022-11-05T09:42:59Z</time>
      </trkpt>
      <trkpt lat="48.39789" lon="7.09644">
        <ele>661.2</ele>
        <time>2022-11-05T09:43:04Z</time>
      </trkpt>
      <trkpt lat="48.39789" lon="7.09634">
        <ele>661.4</ele>
        <time>2022-11-05T09:43:07Z</time>
      </trkpt>
      <trkpt lat="48.39789" lon="7.0962">
        <ele>662.2</ele>
        <time>2022-11-05T09:43:11Z</time>
      </trkpt>
      <trkpt lat="48.39787" lon="7.09613">
        <ele>662.8</ele>
        <time>2022-11-05T09:43:14Z</time>
      </trkpt>
      <trkpt lat="48.39786" lon="7.09606">
        <ele>663.4</ele>
        <time>2022-11-05T09:43:17Z</time>
      </trkpt>
      <trkpt lat="48.39782" lon="7.09595">
        <ele>664</ele>
        <time>2022-11-05T09:43:21Z</time>
      </trkpt>
      <trkpt lat="48.39779" lon="7.09582">
        <ele>664.6</ele>
        <time>2022-11-05T09:43:26Z</time>
      </trkpt>
      <trkpt lat="48.3977" lon="7.09569">
        <ele>665.6</ele>
        <time>2022-11-05T09:43:32Z</time>
      </trkpt>
      <trkpt lat="48.39769" lon="7.09567">
        <ele>666.2</ele>
        <time>2022-11-05T09:43:33Z</time>
      </trkpt>
      <trkpt lat="48.39762" lon="7.09555">
        <ele>667</ele>
        <time>2022-11-05T09:43:39Z</time>
      </trkpt>
      <trkpt lat="48.39761" lon="7.09554">
        <ele>667.2</ele>
        <time>2022-11-05T09:43:40Z</time>
      </trkpt>
      <trkpt lat="48.39752" lon="7.09545">
        <ele>668</ele>
        <time>2022-11-05T09:43:45Z</time>
      </trkpt>
      <trkpt lat="48.39749" lon="7.09539">
        <ele>668.6</ele>
        <time>2022-11-05T09:43:48Z</time>
      </trkpt>
      <trkpt lat="48.39743" lon="7.09531">
        <ele>669.2</ele>
        <time>2022-11-05T09:43:52Z</time>
      </trkpt>
      <trkpt lat="48.3974" lon="7.09527">
        <ele>669.6</ele>
        <time>2022-11-05T09:43:54Z</time>
      </trkpt>
      <trkpt lat="48.39734" lon="7.0952">
        <ele>670.2</ele>
        <time>2022-11-05T09:43:58Z</time>
      </trkpt>
      <trkpt lat="48.3973" lon="7.09517">
        <ele>670.6</ele>
        <time>2022-11-05T09:44:00Z</time>
      </trkpt>
      <trkpt lat="48.39723" lon="7.09508">
        <ele>671.4</ele>
        <time>2022-11-05T09:44:06Z</time>
      </trkpt>
      <trkpt lat="48.39721" lon="7.09506">
        <ele>671.4</ele>
        <time>2022-11-05T09:44:07Z</time>
      </trkpt>
      <trkpt lat="48.39716" lon="7.09501">
        <ele>672.2</ele>
        <time>2022-11-05T09:44:11Z</time>
      </trkpt>
      <trkpt lat="48.39714" lon="7.095">
        <ele>672.4</ele>
        <time>2022-11-05T09:44:12Z</time>
      </trkpt>
      <trkpt lat="48.39712" lon="7.09499">
        <ele>672.6</ele>
        <time>2022-11-05T09:44:13Z</time>
      </trkpt>
      <trkpt lat="48.39706" lon="7.09494">
        <ele>673</ele>
        <time>2022-11-05T09:44:17Z</time>
      </trkpt>
      <trkpt lat="48.39701" lon="7.09488">
        <ele>673.4</ele>
        <time>2022-11-05T09:44:21Z</time>
      </trkpt>
      <trkpt lat="48.39695" lon="7.09482">
        <ele>674</ele>
        <time>2022-11-05T09:44:25Z</time>
      </trkpt>
      <trkpt lat="48.3969" lon="7.09478">
        <ele>674.6</ele>
        <time>2022-11-05T09:44:28Z</time>
      </trkpt>
      <trkpt lat="48.39687" lon="7.09475">
        <ele>675</ele>
        <time>2022-11-05T09:44:30Z</time>
      </trkpt>
      <trkpt lat="48.39679" lon="7.09469">
        <ele>675.6</ele>
        <time>2022-11-05T09:44:35Z</time>
      </trkpt>
      <trkpt lat="48.39671" lon="7.09467">
        <ele>676.2</ele>
        <time>2022-11-05T09:44:39Z</time>
      </trkpt>
      <trkpt lat="48.39666" lon="7.09464">
        <ele>676.8</ele>
        <time>2022-11-05T09:44:42Z</time>
      </trkpt>
      <trkpt lat="48.39659" lon="7.09458">
        <ele>677.6</ele>
        <time>2022-11-05T09:44:46Z</time>
      </trkpt>
      <trkpt lat="48.39656" lon="7.09456">
        <ele>678</ele>
        <time>2022-11-05T09:44:48Z</time>
      </trkpt>
      <trkpt lat="48.39651" lon="7.09452">
        <ele>678.4</ele>
        <time>2022-11-05T09:44:51Z</time>
      </trkpt>
      <trkpt lat="48.3965" lon="7.09451">
        <ele>678.6</ele>
        <time>2022-11-05T09:44:52Z</time>
      </trkpt>
      <trkpt lat="48.39646" lon="7.0945">
        <ele>678.8</ele>
        <time>2022-11-05T09:44:54Z</time>
      </trkpt>
      <trkpt lat="48.39639" lon="7.09444">
        <ele>679.6</ele>
        <time>2022-11-05T09:44:59Z</time>
      </trkpt>
      <trkpt lat="48.39636" lon="7.09443">
        <ele>680</ele>
        <time>2022-11-05T09:45:01Z</time>
      </trkpt>
      <trkpt lat="48.39634" lon="7.09443">
        <ele>680.2</ele>
        <time>2022-11-05T09:45:02Z</time>
      </trkpt>
      <trkpt lat="48.39628" lon="7.0944">
        <ele>681</ele>
        <time>2022-11-05T09:45:06Z</time>
      </trkpt>
      <trkpt lat="48.3962" lon="7.09438">
        <ele>682</ele>
        <time>2022-11-05T09:45:11Z</time>
      </trkpt>
      <trkpt lat="48.39619" lon="7.09437">
        <ele>682.2</ele>
        <time>2022-11-05T09:45:12Z</time>
      </trkpt>
      <trkpt lat="48.39613" lon="7.09434">
        <ele>683.2</ele>
        <time>2022-11-05T09:45:16Z</time>
      </trkpt>
      <trkpt lat="48.39609" lon="7.09432">
        <ele>683.6</ele>
        <time>2022-11-05T09:45:19Z</time>
      </trkpt>
      <trkpt lat="48.39607" lon="7.09432">
        <ele>683.8</ele>
        <time>2022-11-05T09:45:20Z</time>
      </trkpt>
      <trkpt lat="48.39606" lon="7.09431">
        <ele>684</ele>
        <time>2022-11-05T09:45:21Z</time>
      </trkpt>
      <trkpt lat="48.39605" lon="7.0943">
        <ele>684.2</ele>
        <time>2022-11-05T09:45:22Z</time>
      </trkpt>
      <trkpt lat="48.396" lon="7.09429">
        <ele>685</ele>
        <time>2022-11-05T09:45:25Z</time>
      </trkpt>
      <trkpt lat="48.39597" lon="7.09427">
        <ele>685.4</ele>
        <time>2022-11-05T09:45:27Z</time>
      </trkpt>
      <trkpt lat="48.39585" lon="7.09423">
        <ele>686.4</ele>
        <time>2022-11-05T09:45:34Z</time>
      </trkpt>
      <trkpt lat="48.39584" lon="7.09423">
        <ele>686.6</ele>
        <time>2022-11-05T09:45:35Z</time>
      </trkpt>
      <trkpt lat="48.39581" lon="7.09421">
        <ele>687</ele>
        <time>2022-11-05T09:45:37Z</time>
      </trkpt>
      <trkpt lat="48.39575" lon="7.0942">
        <ele>687.6</ele>
        <time>2022-11-05T09:45:40Z</time>
      </trkpt>
      <trkpt lat="48.39566" lon="7.09418">
        <ele>688.8</ele>
        <time>2022-11-05T09:45:45Z</time>
      </trkpt>
      <trkpt lat="48.39563" lon="7.09416">
        <ele>689.2</ele>
        <time>2022-11-05T09:45:48Z</time>
      </trkpt>
      <trkpt lat="48.39559" lon="7.09412">
        <ele>689.8</ele>
        <time>2022-11-05T09:45:52Z</time>
      </trkpt>
      <trkpt lat="48.39558" lon="7.09411">
        <ele>690.4</ele>
        <time>2022-11-05T09:45:54Z</time>
      </trkpt>
      <trkpt lat="48.39555" lon="7.0941">
        <ele>690.8</ele>
        <time>2022-11-05T09:45:56Z</time>
      </trkpt>
      <trkpt lat="48.39553" lon="7.09409">
        <ele>691</ele>
        <time>2022-11-05T09:45:57Z</time>
      </trkpt>
      <trkpt lat="48.39546" lon="7.09404">
        <ele>692</ele>
        <time>2022-11-05T09:46:03Z</time>
      </trkpt>
      <trkpt lat="48.39535" lon="7.09399">
        <ele>693</ele>
        <time>2022-11-05T09:46:09Z</time>
      </trkpt>
      <trkpt lat="48.39533" lon="7.09398">
        <ele>693.2</ele>
        <time>2022-11-05T09:46:10Z</time>
      </trkpt>
      <trkpt lat="48.39529" lon="7.09397">
        <ele>693.6</ele>
        <time>2022-11-05T09:46:12Z</time>
      </trkpt>
      <trkpt lat="48.39521" lon="7.09392">
        <ele>694.2</ele>
        <time>2022-11-05T09:46:16Z</time>
      </trkpt>
      <trkpt lat="48.39517" lon="7.09388">
        <ele>694.8</ele>
        <time>2022-11-05T09:46:19Z</time>
      </trkpt>
      <trkpt lat="48.39513" lon="7.09387">
        <ele>695.2</ele>
        <time>2022-11-05T09:46:21Z</time>
      </trkpt>
      <trkpt lat="48.3951" lon="7.09387">
        <ele>695.4</ele>
        <time>2022-11-05T09:46:22Z</time>
      </trkpt>
      <trkpt lat="48.39508" lon="7.09386">
        <ele>695.6</ele>
        <time>2022-11-05T09:46:23Z</time>
      </trkpt>
      <trkpt lat="48.39506" lon="7.09383">
        <ele>696</ele>
        <time>2022-11-05T09:46:25Z</time>
      </trkpt>
      <trkpt lat="48.39503" lon="7.0938">
        <ele>696.2</ele>
        <time>2022-11-05T09:46:27Z</time>
      </trkpt>
      <trkpt lat="48.39502" lon="7.09378">
        <ele>696.2</ele>
        <time>2022-11-05T09:46:28Z</time>
      </trkpt>
      <trkpt lat="48.39492" lon="7.09374">
        <ele>697.4</ele>
        <time>2022-11-05T09:46:33Z</time>
      </trkpt>
      <trkpt lat="48.39491" lon="7.09373">
        <ele>697.8</ele>
        <time>2022-11-05T09:46:34Z</time>
      </trkpt>
      <trkpt lat="48.39481" lon="7.09366">
        <ele>698.6</ele>
        <time>2022-11-05T09:46:39Z</time>
      </trkpt>
      <trkpt lat="48.39477" lon="7.09365">
        <ele>698.8</ele>
        <time>2022-11-05T09:46:41Z</time>
      </trkpt>
      <trkpt lat="48.39465" lon="7.09358">
        <ele>699.6</ele>
        <time>2022-11-05T09:46:48Z</time>
      </trkpt>
      <trkpt lat="48.3945" lon="7.0935">
        <ele>700.4</ele>
        <time>2022-11-05T09:46:56Z</time>
      </trkpt>
      <trkpt lat="48.39445" lon="7.09348">
        <ele>700.6</ele>
        <time>2022-11-05T09:47:00Z</time>
      </trkpt>
      <trkpt lat="48.39445" lon="7.09348">
        <ele>700.2</ele>
        <time>2022-11-05T09:48:35Z</time>
      </trkpt>
      <trkpt lat="48.39445" lon="7.09348">
        <ele>700.2</ele>
        <time>2022-11-05T09:48:36Z</time>
      </trkpt>
      <trkpt lat="48.39443" lon="7.09348">
        <ele>700.2</ele>
        <time>2022-11-05T09:48:41Z</time>
      </trkpt>
      <trkpt lat="48.39439" lon="7.09346">
        <ele>700.4</ele>
        <time>2022-11-05T09:48:43Z</time>
      </trkpt>
      <trkpt lat="48.39424" lon="7.09332">
        <ele>700.6</ele>
        <time>2022-11-05T09:48:50Z</time>
      </trkpt>
      <trkpt lat="48.39412" lon="7.09315">
        <ele>701.2</ele>
        <time>2022-11-05T09:48:57Z</time>
      </trkpt>
      <trkpt lat="48.39411" lon="7.09312">
        <ele>701.4</ele>
        <time>2022-11-05T09:48:58Z</time>
      </trkpt>
      <trkpt lat="48.39402" lon="7.09294">
        <ele>702</ele>
        <time>2022-11-05T09:49:05Z</time>
      </trkpt>
      <trkpt lat="48.394" lon="7.09288">
        <ele>702.4</ele>
        <time>2022-11-05T09:49:07Z</time>
      </trkpt>
      <trkpt lat="48.39391" lon="7.09267">
        <ele>703.2</ele>
        <time>2022-11-05T09:49:15Z</time>
      </trkpt>
      <trkpt lat="48.3939" lon="7.09264">
        <ele>703.4</ele>
        <time>2022-11-05T09:49:16Z</time>
      </trkpt>
      <trkpt lat="48.39385" lon="7.09253">
        <ele>704</ele>
        <time>2022-11-05T09:49:20Z</time>
      </trkpt>
      <trkpt lat="48.39381" lon="7.09244">
        <ele>704.6</ele>
        <time>2022-11-05T09:49:23Z</time>
      </trkpt>
      <trkpt lat="48.39373" lon="7.09229">
        <ele>705.4</ele>
        <time>2022-11-05T09:49:29Z</time>
      </trkpt>
      <trkpt lat="48.39372" lon="7.09226">
        <ele>705.4</ele>
        <time>2022-11-05T09:49:30Z</time>
      </trkpt>
      <trkpt lat="48.3937" lon="7.09219">
        <ele>705.6</ele>
        <time>2022-11-05T09:49:32Z</time>
      </trkpt>
      <trkpt lat="48.39367" lon="7.09214">
        <ele>705.8</ele>
        <time>2022-11-05T09:49:34Z</time>
      </trkpt>
      <trkpt lat="48.39363" lon="7.09206">
        <ele>706.4</ele>
        <time>2022-11-05T09:49:37Z</time>
      </trkpt>
      <trkpt lat="48.39362" lon="7.09203">
        <ele>706.4</ele>
        <time>2022-11-05T09:49:38Z</time>
      </trkpt>
      <trkpt lat="48.39358" lon="7.09195">
        <ele>706.8</ele>
        <time>2022-11-05T09:49:41Z</time>
      </trkpt>
      <trkpt lat="48.39357" lon="7.09192">
        <ele>706.8</ele>
        <time>2022-11-05T09:49:42Z</time>
      </trkpt>
      <trkpt lat="48.39354" lon="7.09186">
        <ele>707</ele>
        <time>2022-11-05T09:49:44Z</time>
      </trkpt>
      <trkpt lat="48.39342" lon="7.09156">
        <ele>707.8</ele>
        <time>2022-11-05T09:49:53Z</time>
      </trkpt>
      <trkpt lat="48.39341" lon="7.09153">
        <ele>707.8</ele>
        <time>2022-11-05T09:49:54Z</time>
      </trkpt>
      <trkpt lat="48.3933" lon="7.09131">
        <ele>708.4</ele>
        <time>2022-11-05T09:50:01Z</time>
      </trkpt>
      <trkpt lat="48.39313" lon="7.09103">
        <ele>708.8</ele>
        <time>2022-11-05T09:50:10Z</time>
      </trkpt>
      <trkpt lat="48.39301" lon="7.09082">
        <ele>709.2</ele>
        <time>2022-11-05T09:50:17Z</time>
      </trkpt>
      <trkpt lat="48.39281" lon="7.09062">
        <ele>709.8</ele>
        <time>2022-11-05T09:50:26Z</time>
      </trkpt>
      <trkpt lat="48.3926" lon="7.0905">
        <ele>710.4</ele>
        <time>2022-11-05T09:50:34Z</time>
      </trkpt>
      <trkpt lat="48.39243" lon="7.09038">
        <ele>710.8</ele>
        <time>2022-11-05T09:50:39Z</time>
      </trkpt>
      <trkpt lat="48.3922" lon="7.09032">
        <ele>711.2</ele>
        <time>2022-11-05T09:50:46Z</time>
      </trkpt>
      <trkpt lat="48.392" lon="7.09032">
        <ele>711.6</ele>
        <time>2022-11-05T09:50:52Z</time>
      </trkpt>
      <trkpt lat="48.39194" lon="7.09033">
        <ele>711.6</ele>
        <time>2022-11-05T09:50:54Z</time>
      </trkpt>
      <trkpt lat="48.39184" lon="7.09038">
        <ele>711.8</ele>
        <time>2022-11-05T09:50:57Z</time>
      </trkpt>
      <trkpt lat="48.39179" lon="7.09041">
        <ele>712</ele>
        <time>2022-11-05T09:50:59Z</time>
      </trkpt>
      <trkpt lat="48.3917" lon="7.09044">
        <ele>712.2</ele>
        <time>2022-11-05T09:51:03Z</time>
      </trkpt>
      <trkpt lat="48.39163" lon="7.09049">
        <ele>712.4</ele>
        <time>2022-11-05T09:51:06Z</time>
      </trkpt>
      <trkpt lat="48.39156" lon="7.09052">
        <ele>712.4</ele>
        <time>2022-11-05T09:51:09Z</time>
      </trkpt>
      <trkpt lat="48.39149" lon="7.09055">
        <ele>712.4</ele>
        <time>2022-11-05T09:51:11Z</time>
      </trkpt>
      <trkpt lat="48.39142" lon="7.09057">
        <ele>712.2</ele>
        <time>2022-11-05T09:51:13Z</time>
      </trkpt>
      <trkpt lat="48.39134" lon="7.09061">
        <ele>712.2</ele>
        <time>2022-11-05T09:51:15Z</time>
      </trkpt>
      <trkpt lat="48.39118" lon="7.09073">
        <ele>712</ele>
        <time>2022-11-05T09:51:18Z</time>
      </trkpt>
      <trkpt lat="48.3911" lon="7.09079">
        <ele>711.8</ele>
        <time>2022-11-05T09:51:20Z</time>
      </trkpt>
      <trkpt lat="48.39072" lon="7.09107">
        <ele>711.6</ele>
        <time>2022-11-05T09:51:28Z</time>
      </trkpt>
      <trkpt lat="48.39068" lon="7.09112">
        <ele>711.6</ele>
        <time>2022-11-05T09:51:29Z</time>
      </trkpt>
      <trkpt lat="48.39062" lon="7.09117">
        <ele>711.4</ele>
        <time>2022-11-05T09:51:30Z</time>
      </trkpt>
      <trkpt lat="48.39048" lon="7.0913">
        <ele>711.2</ele>
        <time>2022-11-05T09:51:33Z</time>
      </trkpt>
      <trkpt lat="48.39039" lon="7.0914">
        <ele>711</ele>
        <time>2022-11-05T09:51:35Z</time>
      </trkpt>
      <trkpt lat="48.39034" lon="7.09145">
        <ele>710.8</ele>
        <time>2022-11-05T09:51:36Z</time>
      </trkpt>
      <trkpt lat="48.3902" lon="7.09163">
        <ele>710.6</ele>
        <time>2022-11-05T09:51:39Z</time>
      </trkpt>
      <trkpt lat="48.39015" lon="7.09168">
        <ele>710.4</ele>
        <time>2022-11-05T09:51:40Z</time>
      </trkpt>
      <trkpt lat="48.39004" lon="7.09179">
        <ele>710.4</ele>
        <time>2022-11-05T09:51:42Z</time>
      </trkpt>
      <trkpt lat="48.3899" lon="7.09191">
        <ele>710.2</ele>
        <time>2022-11-05T09:51:45Z</time>
      </trkpt>
      <trkpt lat="48.38974" lon="7.09206">
        <ele>710.2</ele>
        <time>2022-11-05T09:51:49Z</time>
      </trkpt>
      <trkpt lat="48.38962" lon="7.09217">
        <ele>710.2</ele>
        <time>2022-11-05T09:51:52Z</time>
      </trkpt>
      <trkpt lat="48.38946" lon="7.09231">
        <ele>710.2</ele>
        <time>2022-11-05T09:51:56Z</time>
      </trkpt>
      <trkpt lat="48.3894" lon="7.09238">
        <ele>710.4</ele>
        <time>2022-11-05T09:51:58Z</time>
      </trkpt>
      <trkpt lat="48.38927" lon="7.09258">
        <ele>710.6</ele>
        <time>2022-11-05T09:52:03Z</time>
      </trkpt>
      <trkpt lat="48.38917" lon="7.09286">
        <ele>711.4</ele>
        <time>2022-11-05T09:52:09Z</time>
      </trkpt>
      <trkpt lat="48.38916" lon="7.09291">
        <ele>711.6</ele>
        <time>2022-11-05T09:52:10Z</time>
      </trkpt>
      <trkpt lat="48.38906" lon="7.09324">
        <ele>712.4</ele>
        <time>2022-11-05T09:52:18Z</time>
      </trkpt>
      <trkpt lat="48.38895" lon="7.09357">
        <ele>713.2</ele>
        <time>2022-11-05T09:52:27Z</time>
      </trkpt>
      <trkpt lat="48.38892" lon="7.09365">
        <ele>713.6</ele>
        <time>2022-11-05T09:52:29Z</time>
      </trkpt>
      <trkpt lat="48.38886" lon="7.09383">
        <ele>714.4</ele>
        <time>2022-11-05T09:52:34Z</time>
      </trkpt>
      <trkpt lat="48.38884" lon="7.09391">
        <ele>714.6</ele>
        <time>2022-11-05T09:52:36Z</time>
      </trkpt>
      <trkpt lat="48.38883" lon="7.09395">
        <ele>714.6</ele>
        <time>2022-11-05T09:52:37Z</time>
      </trkpt>
      <trkpt lat="48.38878" lon="7.09408">
        <ele>715</ele>
        <time>2022-11-05T09:52:41Z</time>
      </trkpt>
      <trkpt lat="48.38874" lon="7.09424">
        <ele>715.4</ele>
        <time>2022-11-05T09:52:45Z</time>
      </trkpt>
      <trkpt lat="48.3887" lon="7.09433">
        <ele>715.4</ele>
        <time>2022-11-05T09:52:48Z</time>
      </trkpt>
      <trkpt lat="48.38865" lon="7.09432">
        <ele>715.8</ele>
        <time>2022-11-05T09:52:50Z</time>
      </trkpt>
      <trkpt lat="48.38859" lon="7.09418">
        <ele>716.4</ele>
        <time>2022-11-05T09:52:55Z</time>
      </trkpt>
      <trkpt lat="48.38859" lon="7.09416">
        <ele>716.6</ele>
        <time>2022-11-05T09:52:56Z</time>
      </trkpt>
      <trkpt lat="48.38855" lon="7.094">
        <ele>717.2</ele>
        <time>2022-11-05T09:53:01Z</time>
      </trkpt>
      <trkpt lat="48.38853" lon="7.09394">
        <ele>717.2</ele>
        <time>2022-11-05T09:53:03Z</time>
      </trkpt>
      <trkpt lat="48.3885" lon="7.09385">
        <ele>717.8</ele>
        <time>2022-11-05T09:53:06Z</time>
      </trkpt>
      <trkpt lat="48.38848" lon="7.09378">
        <ele>718.2</ele>
        <time>2022-11-05T09:53:09Z</time>
      </trkpt>
      <trkpt lat="48.38845" lon="7.0937">
        <ele>718.8</ele>
        <time>2022-11-05T09:53:12Z</time>
      </trkpt>
      <trkpt lat="48.38844" lon="7.09367">
        <ele>718.8</ele>
        <time>2022-11-05T09:53:13Z</time>
      </trkpt>
      <trkpt lat="48.38844" lon="7.09366">
        <ele>718.8</ele>
        <time>2022-11-05T09:53:14Z</time>
      </trkpt>
      <trkpt lat="48.38839" lon="7.09356">
        <ele>720</ele>
        <time>2022-11-05T09:53:19Z</time>
      </trkpt>
      <trkpt lat="48.38836" lon="7.09354">
        <ele>720.2</ele>
        <time>2022-11-05T09:53:20Z</time>
      </trkpt>
      <trkpt lat="48.38831" lon="7.0935">
        <ele>721</ele>
        <time>2022-11-05T09:53:23Z</time>
      </trkpt>
      <trkpt lat="48.3883" lon="7.09348">
        <ele>721.2</ele>
        <time>2022-11-05T09:53:24Z</time>
      </trkpt>
      <trkpt lat="48.38826" lon="7.09343">
        <ele>721.6</ele>
        <time>2022-11-05T09:53:27Z</time>
      </trkpt>
      <trkpt lat="48.38825" lon="7.09341">
        <ele>721.8</ele>
        <time>2022-11-05T09:53:28Z</time>
      </trkpt>
      <trkpt lat="48.3882" lon="7.09335">
        <ele>722.2</ele>
        <time>2022-11-05T09:53:31Z</time>
      </trkpt>
      <trkpt lat="48.38814" lon="7.09328">
        <ele>722.8</ele>
        <time>2022-11-05T09:53:35Z</time>
      </trkpt>
      <trkpt lat="48.3881" lon="7.09325">
        <ele>723</ele>
        <time>2022-11-05T09:53:38Z</time>
      </trkpt>
      <trkpt lat="48.38801" lon="7.09325">
        <ele>723.2</ele>
        <time>2022-11-05T09:53:42Z</time>
      </trkpt>
      <trkpt lat="48.38793" lon="7.09326">
        <ele>723.4</ele>
        <time>2022-11-05T09:53:46Z</time>
      </trkpt>
      <trkpt lat="48.38789" lon="7.09328">
        <ele>723.8</ele>
        <time>2022-11-05T09:53:49Z</time>
      </trkpt>
      <trkpt lat="48.3878" lon="7.09335">
        <ele>724.2</ele>
        <time>2022-11-05T09:53:55Z</time>
      </trkpt>
      <trkpt lat="48.38776" lon="7.09335">
        <ele>724.6</ele>
        <time>2022-11-05T09:53:57Z</time>
      </trkpt>
      <trkpt lat="48.38767" lon="7.09332">
        <ele>725</ele>
        <time>2022-11-05T09:54:02Z</time>
      </trkpt>
      <trkpt lat="48.38755" lon="7.09326">
        <ele>725.6</ele>
        <time>2022-11-05T09:54:08Z</time>
      </trkpt>
      <trkpt lat="48.38751" lon="7.09323">
        <ele>725.8</ele>
        <time>2022-11-05T09:54:10Z</time>
      </trkpt>
      <trkpt lat="48.38744" lon="7.09319">
        <ele>725.6</ele>
        <time>2022-11-05T09:54:13Z</time>
      </trkpt>
      <trkpt lat="48.38736" lon="7.0931">
        <ele>726</ele>
        <time>2022-11-05T09:54:17Z</time>
      </trkpt>
      <trkpt lat="48.38721" lon="7.09293">
        <ele>726.4</ele>
        <time>2022-11-05T09:54:24Z</time>
      </trkpt>
      <trkpt lat="48.38718" lon="7.09291">
        <ele>726.4</ele>
        <time>2022-11-05T09:54:25Z</time>
      </trkpt>
      <trkpt lat="48.38703" lon="7.09279">
        <ele>726.6</ele>
        <time>2022-11-05T09:54:32Z</time>
      </trkpt>
      <trkpt lat="48.38702" lon="7.09278">
        <ele>726.8</ele>
        <time>2022-11-05T09:54:33Z</time>
      </trkpt>
      <trkpt lat="48.387" lon="7.09277">
        <ele>726.8</ele>
        <time>2022-11-05T09:54:34Z</time>
      </trkpt>
      <trkpt lat="48.38694" lon="7.09271">
        <ele>726.8</ele>
        <time>2022-11-05T09:54:38Z</time>
      </trkpt>
      <trkpt lat="48.38687" lon="7.09263">
        <ele>727.2</ele>
        <time>2022-11-05T09:54:42Z</time>
      </trkpt>
      <trkpt lat="48.3868" lon="7.09256">
        <ele>727.2</ele>
        <time>2022-11-05T09:54:46Z</time>
      </trkpt>
      <trkpt lat="48.38672" lon="7.09246">
        <ele>727.2</ele>
        <time>2022-11-05T09:54:50Z</time>
      </trkpt>
      <trkpt lat="48.38668" lon="7.09239">
        <ele>727.2</ele>
        <time>2022-11-05T09:54:52Z</time>
      </trkpt>
      <trkpt lat="48.38651" lon="7.09211">
        <ele>727</ele>
        <time>2022-11-05T09:55:00Z</time>
      </trkpt>
      <trkpt lat="48.38644" lon="7.09188">
        <ele>726.6</ele>
        <time>2022-11-05T09:55:05Z</time>
      </trkpt>
      <trkpt lat="48.38642" lon="7.09175">
        <ele>726.4</ele>
        <time>2022-11-05T09:55:07Z</time>
      </trkpt>
      <trkpt lat="48.38641" lon="7.09151">
        <ele>725.6</ele>
        <time>2022-11-05T09:55:12Z</time>
      </trkpt>
      <trkpt lat="48.38641" lon="7.09148">
        <ele>724.6</ele>
        <time>2022-11-05T09:55:15Z</time>
      </trkpt>
      <trkpt lat="48.38641" lon="7.09147">
        <ele>724.4</ele>
        <time>2022-11-05T09:55:16Z</time>
      </trkpt>
      <trkpt lat="48.3864" lon="7.09145">
        <ele>724</ele>
        <time>2022-11-05T09:55:17Z</time>
      </trkpt>
      <trkpt lat="48.38637" lon="7.09133">
        <ele>723.8</ele>
        <time>2022-11-05T09:55:21Z</time>
      </trkpt>
      <trkpt lat="48.38634" lon="7.09114">
        <ele>723.4</ele>
        <time>2022-11-05T09:55:25Z</time>
      </trkpt>
      <trkpt lat="48.38633" lon="7.0911">
        <ele>723.4</ele>
        <time>2022-11-05T09:55:26Z</time>
      </trkpt>
      <trkpt lat="48.38627" lon="7.09089">
        <ele>722.4</ele>
        <time>2022-11-05T09:55:31Z</time>
      </trkpt>
      <trkpt lat="48.38626" lon="7.09084">
        <ele>722</ele>
        <time>2022-11-05T09:55:32Z</time>
      </trkpt>
      <trkpt lat="48.38621" lon="7.0907">
        <ele>720.8</ele>
        <time>2022-11-05T09:55:35Z</time>
      </trkpt>
      <trkpt lat="48.38615" lon="7.09049">
        <ele>719.8</ele>
        <time>2022-11-05T09:55:39Z</time>
      </trkpt>
      <trkpt lat="48.38609" lon="7.09027">
        <ele>719.2</ele>
        <time>2022-11-05T09:55:43Z</time>
      </trkpt>
      <trkpt lat="48.38603" lon="7.0901">
        <ele>718.6</ele>
        <time>2022-11-05T09:55:46Z</time>
      </trkpt>
      <trkpt lat="48.38598" lon="7.09001">
        <ele>718.2</ele>
        <time>2022-11-05T09:55:48Z</time>
      </trkpt>
      <trkpt lat="48.38593" lon="7.08991">
        <ele>717.6</ele>
        <time>2022-11-05T09:55:50Z</time>
      </trkpt>
      <trkpt lat="48.38583" lon="7.08978">
        <ele>716.6</ele>
        <time>2022-11-05T09:55:53Z</time>
      </trkpt>
      <trkpt lat="48.38581" lon="7.08974">
        <ele>716.4</ele>
        <time>2022-11-05T09:55:54Z</time>
      </trkpt>
      <trkpt lat="48.38574" lon="7.08965">
        <ele>715.8</ele>
        <time>2022-11-05T09:55:57Z</time>
      </trkpt>
      <trkpt lat="48.38572" lon="7.08963">
        <ele>715.6</ele>
        <time>2022-11-05T09:55:58Z</time>
      </trkpt>
      <trkpt lat="48.38569" lon="7.08961">
        <ele>715</ele>
        <time>2022-11-05T09:55:59Z</time>
      </trkpt>
      <trkpt lat="48.38556" lon="7.08945">
        <ele>714.4</ele>
        <time>2022-11-05T09:56:05Z</time>
      </trkpt>
      <trkpt lat="48.38551" lon="7.08939">
        <ele>714</ele>
        <time>2022-11-05T09:56:07Z</time>
      </trkpt>
      <trkpt lat="48.38542" lon="7.08928">
        <ele>712.8</ele>
        <time>2022-11-05T09:56:11Z</time>
      </trkpt>
      <trkpt lat="48.38535" lon="7.08918">
        <ele>711.8</ele>
        <time>2022-11-05T09:56:15Z</time>
      </trkpt>
      <trkpt lat="48.38528" lon="7.0891">
        <ele>710.4</ele>
        <time>2022-11-05T09:56:18Z</time>
      </trkpt>
      <trkpt lat="48.38522" lon="7.08901">
        <ele>709.4</ele>
        <time>2022-11-05T09:56:21Z</time>
      </trkpt>
      <trkpt lat="48.38513" lon="7.0889">
        <ele>708</ele>
        <time>2022-11-05T09:56:25Z</time>
      </trkpt>
      <trkpt lat="48.38509" lon="7.08883">
        <ele>707.8</ele>
        <time>2022-11-05T09:56:27Z</time>
      </trkpt>
      <trkpt lat="48.38503" lon="7.08879">
        <ele>707.2</ele>
        <time>2022-11-05T09:56:29Z</time>
      </trkpt>
      <trkpt lat="48.38501" lon="7.08877">
        <ele>707</ele>
        <time>2022-11-05T09:56:30Z</time>
      </trkpt>
      <trkpt lat="48.38497" lon="7.08873">
        <ele>706.4</ele>
        <time>2022-11-05T09:56:32Z</time>
      </trkpt>
      <trkpt lat="48.38494" lon="7.0887">
        <ele>705.8</ele>
        <time>2022-11-05T09:56:33Z</time>
      </trkpt>
      <trkpt lat="48.38484" lon="7.0886">
        <ele>704.8</ele>
        <time>2022-11-05T09:56:36Z</time>
      </trkpt>
      <trkpt lat="48.38481" lon="7.08858">
        <ele>704.4</ele>
        <time>2022-11-05T09:56:37Z</time>
      </trkpt>
      <trkpt lat="48.38476" lon="7.08855">
        <ele>704.4</ele>
        <time>2022-11-05T09:56:38Z</time>
      </trkpt>
      <trkpt lat="48.38464" lon="7.08851">
        <ele>703.4</ele>
        <time>2022-11-05T09:56:40Z</time>
      </trkpt>
      <trkpt lat="48.38457" lon="7.0885">
        <ele>702.8</ele>
        <time>2022-11-05T09:56:41Z</time>
      </trkpt>
      <trkpt lat="48.38443" lon="7.08846">
        <ele>701.8</ele>
        <time>2022-11-05T09:56:43Z</time>
      </trkpt>
      <trkpt lat="48.38437" lon="7.08843">
        <ele>701.2</ele>
        <time>2022-11-05T09:56:44Z</time>
      </trkpt>
      <trkpt lat="48.38431" lon="7.08841">
        <ele>700.2</ele>
        <time>2022-11-05T09:56:45Z</time>
      </trkpt>
      <trkpt lat="48.38426" lon="7.08838">
        <ele>700</ele>
        <time>2022-11-05T09:56:46Z</time>
      </trkpt>
      <trkpt lat="48.38421" lon="7.08833">
        <ele>699.2</ele>
        <time>2022-11-05T09:56:47Z</time>
      </trkpt>
      <trkpt lat="48.38413" lon="7.08823">
        <ele>698.8</ele>
        <time>2022-11-05T09:56:49Z</time>
      </trkpt>
      <trkpt lat="48.3841" lon="7.08818">
        <ele>698.8</ele>
        <time>2022-11-05T09:56:50Z</time>
      </trkpt>
      <trkpt lat="48.384" lon="7.08801">
        <ele>698.6</ele>
        <time>2022-11-05T09:56:54Z</time>
      </trkpt>
      <trkpt lat="48.38389" lon="7.08779">
        <ele>698.8</ele>
        <time>2022-11-05T09:57:00Z</time>
      </trkpt>
      <trkpt lat="48.3838" lon="7.08749">
        <ele>698.8</ele>
        <time>2022-11-05T09:57:06Z</time>
      </trkpt>
      <trkpt lat="48.38376" lon="7.08721">
        <ele>698.8</ele>
        <time>2022-11-05T09:57:12Z</time>
      </trkpt>
      <trkpt lat="48.38374" lon="7.08681">
        <ele>699.2</ele>
        <time>2022-11-05T09:57:20Z</time>
      </trkpt>
      <trkpt lat="48.3837" lon="7.0865">
        <ele>699</ele>
        <time>2022-11-05T09:57:26Z</time>
      </trkpt>
      <trkpt lat="48.38367" lon="7.08606">
        <ele>698.8</ele>
        <time>2022-11-05T09:57:34Z</time>
      </trkpt>
      <trkpt lat="48.38368" lon="7.0857">
        <ele>699</ele>
        <time>2022-11-05T09:57:41Z</time>
      </trkpt>
      <trkpt lat="48.38368" lon="7.08544">
        <ele>699.2</ele>
        <time>2022-11-05T09:57:46Z</time>
      </trkpt>
      <trkpt lat="48.38367" lon="7.08535">
        <ele>699.4</ele>
        <time>2022-11-05T09:57:48Z</time>
      </trkpt>
      <trkpt lat="48.38365" lon="7.08527">
        <ele>699.8</ele>
        <time>2022-11-05T09:57:50Z</time>
      </trkpt>
      <trkpt lat="48.38363" lon="7.08521">
        <ele>700</ele>
        <time>2022-11-05T09:57:53Z</time>
      </trkpt>
      <trkpt lat="48.38363" lon="7.08521">
        <ele>700.8</ele>
        <time>2022-11-05T09:57:56Z</time>
      </trkpt>
      <trkpt lat="48.38363" lon="7.08521">
        <ele>701</ele>
        <time>2022-11-05T09:58:04Z</time>
      </trkpt>
      <trkpt lat="48.38358" lon="7.08515">
        <ele>701.2</ele>
        <time>2022-11-05T09:58:16Z</time>
      </trkpt>
      <trkpt lat="48.38354" lon="7.0851">
        <ele>701.8</ele>
        <time>2022-11-05T09:58:19Z</time>
      </trkpt>
      <trkpt lat="48.38347" lon="7.08505">
        <ele>702.6</ele>
        <time>2022-11-05T09:58:23Z</time>
      </trkpt>
      <trkpt lat="48.38344" lon="7.08504">
        <ele>702.8</ele>
        <time>2022-11-05T09:58:25Z</time>
      </trkpt>
      <trkpt lat="48.38337" lon="7.08499">
        <ele>703.8</ele>
        <time>2022-11-05T09:58:29Z</time>
      </trkpt>
      <trkpt lat="48.38334" lon="7.08498">
        <ele>704.2</ele>
        <time>2022-11-05T09:58:30Z</time>
      </trkpt>
      <trkpt lat="48.38332" lon="7.08496">
        <ele>704.4</ele>
        <time>2022-11-05T09:58:31Z</time>
      </trkpt>
      <trkpt lat="48.38327" lon="7.08496">
        <ele>705</ele>
        <time>2022-11-05T09:58:33Z</time>
      </trkpt>
      <trkpt lat="48.38323" lon="7.0849">
        <ele>706</ele>
        <time>2022-11-05T09:58:37Z</time>
      </trkpt>
      <trkpt lat="48.3832" lon="7.08487">
        <ele>706.2</ele>
        <time>2022-11-05T09:58:39Z</time>
      </trkpt>
      <trkpt lat="48.38316" lon="7.08486">
        <ele>706.8</ele>
        <time>2022-11-05T09:58:42Z</time>
      </trkpt>
      <trkpt lat="48.38314" lon="7.08485">
        <ele>707</ele>
        <time>2022-11-05T09:58:43Z</time>
      </trkpt>
      <trkpt lat="48.38308" lon="7.08481">
        <ele>707.6</ele>
        <time>2022-11-05T09:58:47Z</time>
      </trkpt>
      <trkpt lat="48.38304" lon="7.08479">
        <ele>708.2</ele>
        <time>2022-11-05T09:58:50Z</time>
      </trkpt>
      <trkpt lat="48.38295" lon="7.08475">
        <ele>709.2</ele>
        <time>2022-11-05T09:58:56Z</time>
      </trkpt>
      <trkpt lat="48.38294" lon="7.08474">
        <ele>709.2</ele>
        <time>2022-11-05T09:58:57Z</time>
      </trkpt>
      <trkpt lat="48.38287" lon="7.08468">
        <ele>709.8</ele>
        <time>2022-11-05T09:59:03Z</time>
      </trkpt>
      <trkpt lat="48.38282" lon="7.08461">
        <ele>710.4</ele>
        <time>2022-11-05T09:59:07Z</time>
      </trkpt>
      <trkpt lat="48.38277" lon="7.08459">
        <ele>710.6</ele>
        <time>2022-11-05T09:59:10Z</time>
      </trkpt>
      <trkpt lat="48.38269" lon="7.08455">
        <ele>710.8</ele>
        <time>2022-11-05T09:59:15Z</time>
      </trkpt>
      <trkpt lat="48.38266" lon="7.08453">
        <ele>711</ele>
        <time>2022-11-05T09:59:17Z</time>
      </trkpt>
      <trkpt lat="48.38262" lon="7.08451">
        <ele>711.2</ele>
        <time>2022-11-05T09:59:19Z</time>
      </trkpt>
      <trkpt lat="48.38261" lon="7.0845">
        <ele>711.8</ele>
        <time>2022-11-05T09:59:20Z</time>
      </trkpt>
      <trkpt lat="48.38254" lon="7.08442">
        <ele>712.2</ele>
        <time>2022-11-05T09:59:23Z</time>
      </trkpt>
      <trkpt lat="48.38253" lon="7.0844">
        <ele>712.2</ele>
        <time>2022-11-05T09:59:24Z</time>
      </trkpt>
      <trkpt lat="48.38248" lon="7.08434">
        <ele>712.4</ele>
        <time>2022-11-05T09:59:27Z</time>
      </trkpt>
      <trkpt lat="48.38245" lon="7.08432">
        <ele>712.6</ele>
        <time>2022-11-05T09:59:29Z</time>
      </trkpt>
      <trkpt lat="48.38241" lon="7.08432">
        <ele>712.8</ele>
        <time>2022-11-05T09:59:30Z</time>
      </trkpt>
      <trkpt lat="48.3823" lon="7.08424">
        <ele>713.2</ele>
        <time>2022-11-05T09:59:34Z</time>
      </trkpt>
      <trkpt lat="48.38224" lon="7.08412">
        <ele>713.6</ele>
        <time>2022-11-05T09:59:40Z</time>
      </trkpt>
      <trkpt lat="48.38224" lon="7.08409">
        <ele>713.8</ele>
        <time>2022-11-05T09:59:41Z</time>
      </trkpt>
      <trkpt lat="48.38224" lon="7.08382">
        <ele>713.8</ele>
        <time>2022-11-05T09:59:49Z</time>
      </trkpt>
      <trkpt lat="48.38226" lon="7.08355">
        <ele>713.6</ele>
        <time>2022-11-05T09:59:55Z</time>
      </trkpt>
      <trkpt lat="48.38227" lon="7.08326">
        <ele>713.4</ele>
        <time>2022-11-05T10:00:01Z</time>
      </trkpt>
      <trkpt lat="48.38226" lon="7.08313">
        <ele>712.6</ele>
        <time>2022-11-05T10:00:04Z</time>
      </trkpt>
      <trkpt lat="48.38228" lon="7.08297">
        <ele>712</ele>
        <time>2022-11-05T10:00:08Z</time>
      </trkpt>
      <trkpt lat="48.3823" lon="7.08283">
        <ele>711.6</ele>
        <time>2022-11-05T10:00:12Z</time>
      </trkpt>
      <trkpt lat="48.38231" lon="7.08279">
        <ele>711.4</ele>
        <time>2022-11-05T10:00:13Z</time>
      </trkpt>
      <trkpt lat="48.38233" lon="7.08265">
        <ele>710.4</ele>
        <time>2022-11-05T10:00:17Z</time>
      </trkpt>
      <trkpt lat="48.38233" lon="7.08257">
        <ele>710</ele>
        <time>2022-11-05T10:00:19Z</time>
      </trkpt>
      <trkpt lat="48.38233" lon="7.08253">
        <ele>709.8</ele>
        <time>2022-11-05T10:00:20Z</time>
      </trkpt>
      <trkpt lat="48.38233" lon="7.08245">
        <ele>709.4</ele>
        <time>2022-11-05T10:00:22Z</time>
      </trkpt>
      <trkpt lat="48.38234" lon="7.08241">
        <ele>709.4</ele>
        <time>2022-11-05T10:00:24Z</time>
      </trkpt>
      <trkpt lat="48.38235" lon="7.08231">
        <ele>708.4</ele>
        <time>2022-11-05T10:00:27Z</time>
      </trkpt>
      <trkpt lat="48.38234" lon="7.08218">
        <ele>708</ele>
        <time>2022-11-05T10:00:30Z</time>
      </trkpt>
      <trkpt lat="48.38234" lon="7.08214">
        <ele>707.8</ele>
        <time>2022-11-05T10:00:31Z</time>
      </trkpt>
      <trkpt lat="48.38235" lon="7.08211">
        <ele>707.6</ele>
        <time>2022-11-05T10:00:32Z</time>
      </trkpt>
      <trkpt lat="48.38235" lon="7.08208">
        <ele>707.4</ele>
        <time>2022-11-05T10:00:33Z</time>
      </trkpt>
      <trkpt lat="48.38237" lon="7.08203">
        <ele>707.2</ele>
        <time>2022-11-05T10:00:34Z</time>
      </trkpt>
      <trkpt lat="48.3824" lon="7.08192">
        <ele>706.4</ele>
        <time>2022-11-05T10:00:36Z</time>
      </trkpt>
      <trkpt lat="48.38241" lon="7.08188">
        <ele>706</ele>
        <time>2022-11-05T10:00:37Z</time>
      </trkpt>
      <trkpt lat="48.38245" lon="7.0816">
        <ele>705</ele>
        <time>2022-11-05T10:00:41Z</time>
      </trkpt>
      <trkpt lat="48.38241" lon="7.08153">
        <ele>704.8</ele>
        <time>2022-11-05T10:00:42Z</time>
      </trkpt>
      <trkpt lat="48.38243" lon="7.08145">
        <ele>704.6</ele>
        <time>2022-11-05T10:00:43Z</time>
      </trkpt>
      <trkpt lat="48.38245" lon="7.08128">
        <ele>704.2</ele>
        <time>2022-11-05T10:00:46Z</time>
      </trkpt>
      <trkpt lat="48.38246" lon="7.08127">
        <ele>703.8</ele>
        <time>2022-11-05T10:00:48Z</time>
      </trkpt>
      <trkpt lat="48.38246" lon="7.08127">
        <ele>703.2</ele>
        <time>2022-11-05T10:00:50Z</time>
      </trkpt>
      <trkpt lat="48.38246" lon="7.08127">
        <ele>702.6</ele>
        <time>2022-11-05T10:00:53Z</time>
      </trkpt>
      <trkpt lat="48.38246" lon="7.08127">
        <ele>702.4</ele>
        <time>2022-11-05T10:00:58Z</time>
      </trkpt>
      <trkpt lat="48.38245" lon="7.08125">
        <ele>702</ele>
        <time>2022-11-05T10:01:04Z</time>
      </trkpt>
      <trkpt lat="48.38245" lon="7.08118">
        <ele>702.2</ele>
        <time>2022-11-05T10:01:06Z</time>
      </trkpt>
      <trkpt lat="48.38245" lon="7.08096">
        <ele>701.8</ele>
        <time>2022-11-05T10:01:11Z</time>
      </trkpt>
      <trkpt lat="48.38246" lon="7.08087">
        <ele>701.8</ele>
        <time>2022-11-05T10:01:13Z</time>
      </trkpt>
      <trkpt lat="48.38246" lon="7.08082">
        <ele>701.2</ele>
        <time>2022-11-05T10:01:15Z</time>
      </trkpt>
      <trkpt lat="48.38247" lon="7.08066">
        <ele>700.8</ele>
        <time>2022-11-05T10:01:18Z</time>
      </trkpt>
      <trkpt lat="48.38248" lon="7.08057">
        <ele>700.2</ele>
        <time>2022-11-05T10:01:20Z</time>
      </trkpt>
      <trkpt lat="48.38248" lon="7.08053">
        <ele>699.8</ele>
        <time>2022-11-05T10:01:21Z</time>
      </trkpt>
      <trkpt lat="48.38249" lon="7.08037">
        <ele>698.6</ele>
        <time>2022-11-05T10:01:25Z</time>
      </trkpt>
      <trkpt lat="48.38249" lon="7.08033">
        <ele>698.6</ele>
        <time>2022-11-05T10:01:26Z</time>
      </trkpt>
      <trkpt lat="48.3825" lon="7.0801">
        <ele>697.4</ele>
        <time>2022-11-05T10:01:31Z</time>
      </trkpt>
      <trkpt lat="48.38251" lon="7.08001">
        <ele>697</ele>
        <time>2022-11-05T10:01:33Z</time>
      </trkpt>
      <trkpt lat="48.3825" lon="7.07987">
        <ele>696.4</ele>
        <time>2022-11-05T10:01:36Z</time>
      </trkpt>
      <trkpt lat="48.3825" lon="7.0797">
        <ele>695.4</ele>
        <time>2022-11-05T10:01:40Z</time>
      </trkpt>
      <trkpt lat="48.3825" lon="7.07966">
        <ele>695</ele>
        <time>2022-11-05T10:01:41Z</time>
      </trkpt>
      <trkpt lat="48.3825" lon="7.07958">
        <ele>694.6</ele>
        <time>2022-11-05T10:01:43Z</time>
      </trkpt>
      <trkpt lat="48.3825" lon="7.07957">
        <ele>694.2</ele>
        <time>2022-11-05T10:01:45Z</time>
      </trkpt>
      <trkpt lat="48.38252" lon="7.07959">
        <ele>693</ele>
        <time>2022-11-05T10:01:49Z</time>
      </trkpt>
      <trkpt lat="48.38253" lon="7.07962">
        <ele>692.8</ele>
        <time>2022-11-05T10:01:51Z</time>
      </trkpt>
      <trkpt lat="48.38253" lon="7.07965">
        <ele>692.6</ele>
        <time>2022-11-05T10:01:53Z</time>
      </trkpt>
      <trkpt lat="48.38252" lon="7.07968">
        <ele>692.6</ele>
        <time>2022-11-05T10:01:55Z</time>
      </trkpt>
      <trkpt lat="48.38251" lon="7.07971">
        <ele>692.6</ele>
        <time>2022-11-05T10:01:57Z</time>
      </trkpt>
      <trkpt lat="48.38252" lon="7.07979">
        <ele>692.8</ele>
        <time>2022-11-05T10:02:00Z</time>
      </trkpt>
      <trkpt lat="48.38251" lon="7.08002">
        <ele>694</ele>
        <time>2022-11-05T10:02:07Z</time>
      </trkpt>
      <trkpt lat="48.38251" lon="7.08006">
        <ele>694</ele>
        <time>2022-11-05T10:02:08Z</time>
      </trkpt>
      <trkpt lat="48.38248" lon="7.08021">
        <ele>695</ele>
        <time>2022-11-05T10:02:13Z</time>
      </trkpt>
      <trkpt lat="48.38247" lon="7.08026">
        <ele>695</ele>
        <time>2022-11-05T10:02:15Z</time>
      </trkpt>
      <trkpt lat="48.38248" lon="7.0803">
        <ele>695.2</ele>
        <time>2022-11-05T10:02:16Z</time>
      </trkpt>
      <trkpt lat="48.3825" lon="7.08044">
        <ele>696.2</ele>
        <time>2022-11-05T10:02:22Z</time>
      </trkpt>
      <trkpt lat="48.38249" lon="7.08047">
        <ele>696.4</ele>
        <time>2022-11-05T10:02:23Z</time>
      </trkpt>
      <trkpt lat="48.38246" lon="7.08064">
        <ele>697</ele>
        <time>2022-11-05T10:02:30Z</time>
      </trkpt>
      <trkpt lat="48.38245" lon="7.08066">
        <ele>697</ele>
        <time>2022-11-05T10:02:31Z</time>
      </trkpt>
      <trkpt lat="48.38247" lon="7.0807">
        <ele>697.6</ele>
        <time>2022-11-05T10:02:33Z</time>
      </trkpt>
      <trkpt lat="48.38248" lon="7.08071">
        <ele>697.8</ele>
        <time>2022-11-05T10:02:34Z</time>
      </trkpt>
      <trkpt lat="48.38249" lon="7.08071">
        <ele>698.2</ele>
        <time>2022-11-05T10:02:38Z</time>
      </trkpt>
      <trkpt lat="48.38257" lon="7.08058">
        <ele>698.2</ele>
        <time>2022-11-05T10:02:44Z</time>
      </trkpt>
      <trkpt lat="48.38265" lon="7.08045">
        <ele>698.2</ele>
        <time>2022-11-05T10:02:47Z</time>
      </trkpt>
      <trkpt lat="48.38268" lon="7.08041">
        <ele>698</ele>
        <time>2022-11-05T10:02:48Z</time>
      </trkpt>
      <trkpt lat="48.38271" lon="7.08036">
        <ele>698</ele>
        <time>2022-11-05T10:02:49Z</time>
      </trkpt>
      <trkpt lat="48.38277" lon="7.08024">
        <ele>697.4</ele>
        <time>2022-11-05T10:02:51Z</time>
      </trkpt>
      <trkpt lat="48.38284" lon="7.08009">
        <ele>697</ele>
        <time>2022-11-05T10:02:53Z</time>
      </trkpt>
      <trkpt lat="48.3829" lon="7.07992">
        <ele>696.8</ele>
        <time>2022-11-05T10:02:55Z</time>
      </trkpt>
      <trkpt lat="48.38292" lon="7.07983">
        <ele>696.2</ele>
        <time>2022-11-05T10:02:56Z</time>
      </trkpt>
      <trkpt lat="48.38301" lon="7.07958">
        <ele>695.4</ele>
        <time>2022-11-05T10:02:59Z</time>
      </trkpt>
      <trkpt lat="48.38304" lon="7.0795">
        <ele>695.2</ele>
        <time>2022-11-05T10:03:00Z</time>
      </trkpt>
      <trkpt lat="48.38308" lon="7.07933">
        <ele>694.6</ele>
        <time>2022-11-05T10:03:02Z</time>
      </trkpt>
      <trkpt lat="48.38312" lon="7.07915">
        <ele>693.8</ele>
        <time>2022-11-05T10:03:04Z</time>
      </trkpt>
      <trkpt lat="48.38316" lon="7.07898">
        <ele>693.2</ele>
        <time>2022-11-05T10:03:06Z</time>
      </trkpt>
      <trkpt lat="48.38317" lon="7.07889">
        <ele>692.8</ele>
        <time>2022-11-05T10:03:08Z</time>
      </trkpt>
      <trkpt lat="48.38323" lon="7.07863">
        <ele>692.6</ele>
        <time>2022-11-05T10:03:10Z</time>
      </trkpt>
      <trkpt lat="48.38331" lon="7.07835">
        <ele>691.8</ele>
        <time>2022-11-05T10:03:14Z</time>
      </trkpt>
      <trkpt lat="48.38335" lon="7.07821">
        <ele>691.6</ele>
        <time>2022-11-05T10:03:16Z</time>
      </trkpt>
      <trkpt lat="48.38335" lon="7.07795">
        <ele>691.6</ele>
        <time>2022-11-05T10:03:20Z</time>
      </trkpt>
      <trkpt lat="48.38346" lon="7.07761">
        <ele>691.2</ele>
        <time>2022-11-05T10:03:27Z</time>
      </trkpt>
      <trkpt lat="48.38351" lon="7.07714">
        <ele>690.6</ele>
        <time>2022-11-05T10:03:36Z</time>
      </trkpt>
      <trkpt lat="48.38356" lon="7.07694">
        <ele>690.6</ele>
        <time>2022-11-05T10:03:40Z</time>
      </trkpt>
      <trkpt lat="48.3836" lon="7.07681">
        <ele>690.6</ele>
        <time>2022-11-05T10:03:43Z</time>
      </trkpt>
      <trkpt lat="48.38369" lon="7.07659">
        <ele>690.4</ele>
        <time>2022-11-05T10:03:49Z</time>
      </trkpt>
      <trkpt lat="48.38377" lon="7.07625">
        <ele>691</ele>
        <time>2022-11-05T10:03:57Z</time>
      </trkpt>
      <trkpt lat="48.38379" lon="7.07608">
        <ele>691.6</ele>
        <time>2022-11-05T10:04:01Z</time>
      </trkpt>
      <trkpt lat="48.3838" lon="7.07595">
        <ele>692.4</ele>
        <time>2022-11-05T10:04:04Z</time>
      </trkpt>
      <trkpt lat="48.3838" lon="7.07587">
        <ele>692.6</ele>
        <time>2022-11-05T10:04:06Z</time>
      </trkpt>
      <trkpt lat="48.38379" lon="7.07567">
        <ele>693.4</ele>
        <time>2022-11-05T10:04:11Z</time>
      </trkpt>
      <trkpt lat="48.38379" lon="7.07553">
        <ele>693.6</ele>
        <time>2022-11-05T10:04:14Z</time>
      </trkpt>
      <trkpt lat="48.38379" lon="7.07543">
        <ele>693.8</ele>
        <time>2022-11-05T10:04:16Z</time>
      </trkpt>
      <trkpt lat="48.3838" lon="7.0751">
        <ele>694</ele>
        <time>2022-11-05T10:04:22Z</time>
      </trkpt>
      <trkpt lat="48.3838" lon="7.07488">
        <ele>694</ele>
        <time>2022-11-05T10:04:27Z</time>
      </trkpt>
      <trkpt lat="48.3838" lon="7.0747">
        <ele>694</ele>
        <time>2022-11-05T10:04:29Z</time>
      </trkpt>
      <trkpt lat="48.3838" lon="7.07465">
        <ele>694</ele>
        <time>2022-11-05T10:04:30Z</time>
      </trkpt>
      <trkpt lat="48.3838" lon="7.07441">
        <ele>693.8</ele>
        <time>2022-11-05T10:04:34Z</time>
      </trkpt>
      <trkpt lat="48.38381" lon="7.07392">
        <ele>693.4</ele>
        <time>2022-11-05T10:04:43Z</time>
      </trkpt>
      <trkpt lat="48.38387" lon="7.07353">
        <ele>693.2</ele>
        <time>2022-11-05T10:04:50Z</time>
      </trkpt>
      <trkpt lat="48.38385" lon="7.07318">
        <ele>693</ele>
        <time>2022-11-05T10:04:55Z</time>
      </trkpt>
      <trkpt lat="48.38387" lon="7.07308">
        <ele>692.6</ele>
        <time>2022-11-05T10:04:57Z</time>
      </trkpt>
      <trkpt lat="48.38388" lon="7.07303">
        <ele>692.4</ele>
        <time>2022-11-05T10:04:58Z</time>
      </trkpt>
      <trkpt lat="48.38389" lon="7.0729">
        <ele>692.2</ele>
        <time>2022-11-05T10:05:00Z</time>
      </trkpt>
      <trkpt lat="48.3839" lon="7.07284">
        <ele>691.8</ele>
        <time>2022-11-05T10:05:01Z</time>
      </trkpt>
      <trkpt lat="48.38393" lon="7.07273">
        <ele>691.6</ele>
        <time>2022-11-05T10:05:03Z</time>
      </trkpt>
      <trkpt lat="48.38395" lon="7.07267">
        <ele>691.4</ele>
        <time>2022-11-05T10:05:04Z</time>
      </trkpt>
      <trkpt lat="48.38403" lon="7.07245">
        <ele>691</ele>
        <time>2022-11-05T10:05:08Z</time>
      </trkpt>
      <trkpt lat="48.38405" lon="7.07239">
        <ele>691</ele>
        <time>2022-11-05T10:05:09Z</time>
      </trkpt>
      <trkpt lat="48.3841" lon="7.07229">
        <ele>690.8</ele>
        <time>2022-11-05T10:05:11Z</time>
      </trkpt>
      <trkpt lat="48.38419" lon="7.07211">
        <ele>690.2</ele>
        <time>2022-11-05T10:05:16Z</time>
      </trkpt>
      <trkpt lat="48.38421" lon="7.07208">
        <ele>689.8</ele>
        <time>2022-11-05T10:05:17Z</time>
      </trkpt>
      <trkpt lat="48.38428" lon="7.07195">
        <ele>688.8</ele>
        <time>2022-11-05T10:05:22Z</time>
      </trkpt>
      <trkpt lat="48.3843" lon="7.07189">
        <ele>688.6</ele>
        <time>2022-11-05T10:05:23Z</time>
      </trkpt>
      <trkpt lat="48.38438" lon="7.07169">
        <ele>687.6</ele>
        <time>2022-11-05T10:05:28Z</time>
      </trkpt>
      <trkpt lat="48.38441" lon="7.07159">
        <ele>686.8</ele>
        <time>2022-11-05T10:05:31Z</time>
      </trkpt>
      <trkpt lat="48.38444" lon="7.07151">
        <ele>686.6</ele>
        <time>2022-11-05T10:05:33Z</time>
      </trkpt>
      <trkpt lat="48.38449" lon="7.07134">
        <ele>685.6</ele>
        <time>2022-11-05T10:05:37Z</time>
      </trkpt>
      <trkpt lat="48.38455" lon="7.07117">
        <ele>684.4</ele>
        <time>2022-11-05T10:05:41Z</time>
      </trkpt>
      <trkpt lat="48.38457" lon="7.07113">
        <ele>684.2</ele>
        <time>2022-11-05T10:05:42Z</time>
      </trkpt>
      <trkpt lat="48.38464" lon="7.07096">
        <ele>683.4</ele>
        <time>2022-11-05T10:05:46Z</time>
      </trkpt>
      <trkpt lat="48.38466" lon="7.07092">
        <ele>683</ele>
        <time>2022-11-05T10:05:47Z</time>
      </trkpt>
      <trkpt lat="48.38472" lon="7.07079">
        <ele>681.8</ele>
        <time>2022-11-05T10:05:51Z</time>
      </trkpt>
      <trkpt lat="48.38473" lon="7.07076">
        <ele>681.6</ele>
        <time>2022-11-05T10:05:52Z</time>
      </trkpt>
      <trkpt lat="48.38482" lon="7.07062">
        <ele>680.6</ele>
        <time>2022-11-05T10:05:58Z</time>
      </trkpt>
      <trkpt lat="48.38483" lon="7.07062">
        <ele>679.6</ele>
        <time>2022-11-05T10:06:01Z</time>
      </trkpt>
      <trkpt lat="48.38483" lon="7.07062">
        <ele>679.2</ele>
        <time>2022-11-05T10:06:05Z</time>
      </trkpt>
      <trkpt lat="48.38483" lon="7.07062">
        <ele>679.2</ele>
        <time>2022-11-05T10:06:06Z</time>
      </trkpt>
      <trkpt lat="48.38483" lon="7.07062">
        <ele>679</ele>
        <time>2022-11-05T10:06:07Z</time>
      </trkpt>
      <trkpt lat="48.38483" lon="7.07062">
        <ele>679</ele>
        <time>2022-11-05T10:06:09Z</time>
      </trkpt>
      <trkpt lat="48.38483" lon="7.07062">
        <ele>679</ele>
        <time>2022-11-05T10:06:10Z</time>
      </trkpt>
      <trkpt lat="48.38483" lon="7.07062">
        <ele>678.8</ele>
        <time>2022-11-05T10:06:15Z</time>
      </trkpt>
      <trkpt lat="48.38486" lon="7.07056">
        <ele>678.8</ele>
        <time>2022-11-05T10:06:18Z</time>
      </trkpt>
      <trkpt lat="48.38493" lon="7.07043">
        <ele>678.4</ele>
        <time>2022-11-05T10:06:23Z</time>
      </trkpt>
      <trkpt lat="48.38498" lon="7.07033">
        <ele>678</ele>
        <time>2022-11-05T10:06:25Z</time>
      </trkpt>
      <trkpt lat="48.38507" lon="7.07013">
        <ele>677</ele>
        <time>2022-11-05T10:06:31Z</time>
      </trkpt>
      <trkpt lat="48.38513" lon="7.07003">
        <ele>675.8</ele>
        <time>2022-11-05T10:06:35Z</time>
      </trkpt>
      <trkpt lat="48.38515" lon="7.06999">
        <ele>675.6</ele>
        <time>2022-11-05T10:06:36Z</time>
      </trkpt>
      <trkpt lat="48.38523" lon="7.06986">
        <ele>674.6</ele>
        <time>2022-11-05T10:06:40Z</time>
      </trkpt>
      <trkpt lat="48.38526" lon="7.06979">
        <ele>674</ele>
        <time>2022-11-05T10:06:42Z</time>
      </trkpt>
      <trkpt lat="48.38533" lon="7.06967">
        <ele>673.4</ele>
        <time>2022-11-05T10:06:45Z</time>
      </trkpt>
      <trkpt lat="48.38543" lon="7.06949">
        <ele>672.2</ele>
        <time>2022-11-05T10:06:50Z</time>
      </trkpt>
      <trkpt lat="48.3855" lon="7.06934">
        <ele>670.8</ele>
        <time>2022-11-05T10:06:55Z</time>
      </trkpt>
      <trkpt lat="48.38556" lon="7.06927">
        <ele>669.8</ele>
        <time>2022-11-05T10:06:59Z</time>
      </trkpt>
      <trkpt lat="48.38567" lon="7.06915">
        <ele>668.8</ele>
        <time>2022-11-05T10:07:03Z</time>
      </trkpt>
      <trkpt lat="48.3857" lon="7.06912">
        <ele>668.6</ele>
        <time>2022-11-05T10:07:04Z</time>
      </trkpt>
      <trkpt lat="48.38582" lon="7.06903">
        <ele>667.6</ele>
        <time>2022-11-05T10:07:07Z</time>
      </trkpt>
      <trkpt lat="48.3859" lon="7.06898">
        <ele>667.2</ele>
        <time>2022-11-05T10:07:09Z</time>
      </trkpt>
      <trkpt lat="48.38603" lon="7.0689">
        <ele>666.6</ele>
        <time>2022-11-05T10:07:12Z</time>
      </trkpt>
      <trkpt lat="48.38615" lon="7.06883">
        <ele>665.6</ele>
        <time>2022-11-05T10:07:15Z</time>
      </trkpt>
      <trkpt lat="48.3862" lon="7.06881">
        <ele>665</ele>
        <time>2022-11-05T10:07:16Z</time>
      </trkpt>
      <trkpt lat="48.38636" lon="7.06872">
        <ele>664</ele>
        <time>2022-11-05T10:07:19Z</time>
      </trkpt>
      <trkpt lat="48.38641" lon="7.06869">
        <ele>663.8</ele>
        <time>2022-11-05T10:07:20Z</time>
      </trkpt>
      <trkpt lat="48.38657" lon="7.06862">
        <ele>662.8</ele>
        <time>2022-11-05T10:07:23Z</time>
      </trkpt>
      <trkpt lat="48.38661" lon="7.06861">
        <ele>662.6</ele>
        <time>2022-11-05T10:07:24Z</time>
      </trkpt>
      <trkpt lat="48.3867" lon="7.06857">
        <ele>662</ele>
        <time>2022-11-05T10:07:26Z</time>
      </trkpt>
      <trkpt lat="48.38672" lon="7.06856">
        <ele>661.6</ele>
        <time>2022-11-05T10:07:27Z</time>
      </trkpt>
      <trkpt lat="48.38679" lon="7.06851">
        <ele>661.2</ele>
        <time>2022-11-05T10:07:30Z</time>
      </trkpt>
      <trkpt lat="48.38683" lon="7.06849">
        <ele>660.4</ele>
        <time>2022-11-05T10:07:32Z</time>
      </trkpt>
      <trkpt lat="48.3869" lon="7.06844">
        <ele>659.2</ele>
        <time>2022-11-05T10:07:35Z</time>
      </trkpt>
      <trkpt lat="48.3869" lon="7.06844">
        <ele>659</ele>
        <time>2022-11-05T10:07:36Z</time>
      </trkpt>
      <trkpt lat="48.38699" lon="7.06834">
        <ele>658</ele>
        <time>2022-11-05T10:07:39Z</time>
      </trkpt>
      <trkpt lat="48.38702" lon="7.0683">
        <ele>657.6</ele>
        <time>2022-11-05T10:07:41Z</time>
      </trkpt>
      <trkpt lat="48.38705" lon="7.06825">
        <ele>657.2</ele>
        <time>2022-11-05T10:07:43Z</time>
      </trkpt>
      <trkpt lat="48.38707" lon="7.06822">
        <ele>657</ele>
        <time>2022-11-05T10:07:44Z</time>
      </trkpt>
      <trkpt lat="48.38712" lon="7.06815">
        <ele>656.4</ele>
        <time>2022-11-05T10:07:46Z</time>
      </trkpt>
      <trkpt lat="48.38715" lon="7.06811">
        <ele>656</ele>
        <time>2022-11-05T10:07:48Z</time>
      </trkpt>
      <trkpt lat="48.38726" lon="7.06794">
        <ele>655.4</ele>
        <time>2022-11-05T10:07:51Z</time>
      </trkpt>
      <trkpt lat="48.3873" lon="7.06787">
        <ele>654.8</ele>
        <time>2022-11-05T10:07:53Z</time>
      </trkpt>
      <trkpt lat="48.38734" lon="7.06783">
        <ele>654.2</ele>
        <time>2022-11-05T10:07:54Z</time>
      </trkpt>
      <trkpt lat="48.38744" lon="7.06769">
        <ele>653.6</ele>
        <time>2022-11-05T10:07:57Z</time>
      </trkpt>
      <trkpt lat="48.38749" lon="7.06761">
        <ele>653.4</ele>
        <time>2022-11-05T10:07:59Z</time>
      </trkpt>
      <trkpt lat="48.38757" lon="7.0675">
        <ele>652.2</ele>
        <time>2022-11-05T10:08:02Z</time>
      </trkpt>
      <trkpt lat="48.38762" lon="7.06741">
        <ele>651.2</ele>
        <time>2022-11-05T10:08:05Z</time>
      </trkpt>
      <trkpt lat="48.38764" lon="7.06736">
        <ele>650.8</ele>
        <time>2022-11-05T10:08:06Z</time>
      </trkpt>
      <trkpt lat="48.38769" lon="7.06729">
        <ele>649.8</ele>
        <time>2022-11-05T10:08:08Z</time>
      </trkpt>
      <trkpt lat="48.38773" lon="7.06724">
        <ele>649.4</ele>
        <time>2022-11-05T10:08:10Z</time>
      </trkpt>
      <trkpt lat="48.38775" lon="7.06723">
        <ele>649.2</ele>
        <time>2022-11-05T10:08:11Z</time>
      </trkpt>
      <trkpt lat="48.38777" lon="7.06719">
        <ele>648.8</ele>
        <time>2022-11-05T10:08:12Z</time>
      </trkpt>
      <trkpt lat="48.38779" lon="7.06717">
        <ele>648.6</ele>
        <time>2022-11-05T10:08:13Z</time>
      </trkpt>
      <trkpt lat="48.38781" lon="7.06714">
        <ele>648.2</ele>
        <time>2022-11-05T10:08:15Z</time>
      </trkpt>
      <trkpt lat="48.38789" lon="7.06701">
        <ele>647.2</ele>
        <time>2022-11-05T10:08:18Z</time>
      </trkpt>
      <trkpt lat="48.38797" lon="7.06689">
        <ele>646.6</ele>
        <time>2022-11-05T10:08:20Z</time>
      </trkpt>
      <trkpt lat="48.38806" lon="7.06674">
        <ele>646.2</ele>
        <time>2022-11-05T10:08:23Z</time>
      </trkpt>
      <trkpt lat="48.38811" lon="7.06664">
        <ele>645.8</ele>
        <time>2022-11-05T10:08:25Z</time>
      </trkpt>
      <trkpt lat="48.38815" lon="7.06654">
        <ele>645.2</ele>
        <time>2022-11-05T10:08:27Z</time>
      </trkpt>
      <trkpt lat="48.3882" lon="7.06636">
        <ele>644.2</ele>
        <time>2022-11-05T10:08:31Z</time>
      </trkpt>
      <trkpt lat="48.3882" lon="7.06635">
        <ele>643.2</ele>
        <time>2022-11-05T10:08:34Z</time>
      </trkpt>
      <trkpt lat="48.38821" lon="7.06636">
        <ele>640.8</ele>
        <time>2022-11-05T10:11:01Z</time>
      </trkpt>
      <trkpt lat="48.38821" lon="7.06636">
        <ele>640.8</ele>
        <time>2022-11-05T10:11:04Z</time>
      </trkpt>
      <trkpt lat="48.38817" lon="7.06623">
        <ele>640.6</ele>
        <time>2022-11-05T10:11:07Z</time>
      </trkpt>
      <trkpt lat="48.38813" lon="7.066">
        <ele>640.4</ele>
        <time>2022-11-05T10:11:10Z</time>
      </trkpt>
      <trkpt lat="48.38805" lon="7.06547">
        <ele>639.8</ele>
        <time>2022-11-05T10:11:15Z</time>
      </trkpt>
      <trkpt lat="48.38801" lon="7.06535">
        <ele>639.6</ele>
        <time>2022-11-05T10:11:16Z</time>
      </trkpt>
      <trkpt lat="48.38787" lon="7.06498">
        <ele>638.2</ele>
        <time>2022-11-05T10:11:19Z</time>
      </trkpt>
      <trkpt lat="48.38775" lon="7.06463">
        <ele>636.8</ele>
        <time>2022-11-05T10:11:22Z</time>
      </trkpt>
      <trkpt lat="48.38771" lon="7.06448">
        <ele>635.6</ele>
        <time>2022-11-05T10:11:23Z</time>
      </trkpt>
      <trkpt lat="48.38766" lon="7.06427">
        <ele>634.2</ele>
        <time>2022-11-05T10:11:25Z</time>
      </trkpt>
      <trkpt lat="48.38761" lon="7.06403">
        <ele>632.4</ele>
        <time>2022-11-05T10:11:27Z</time>
      </trkpt>
      <trkpt lat="48.38758" lon="7.06378">
        <ele>630.8</ele>
        <time>2022-11-05T10:11:29Z</time>
      </trkpt>
      <trkpt lat="48.38754" lon="7.06352">
        <ele>628.6</ele>
        <time>2022-11-05T10:11:31Z</time>
      </trkpt>
      <trkpt lat="48.38751" lon="7.06325">
        <ele>627</ele>
        <time>2022-11-05T10:11:33Z</time>
      </trkpt>
      <trkpt lat="48.38747" lon="7.06293">
        <ele>625</ele>
        <time>2022-11-05T10:11:35Z</time>
      </trkpt>
      <trkpt lat="48.38746" lon="7.06281">
        <ele>624.4</ele>
        <time>2022-11-05T10:11:36Z</time>
      </trkpt>
      <trkpt lat="48.38744" lon="7.06265">
        <ele>623.2</ele>
        <time>2022-11-05T10:11:37Z</time>
      </trkpt>
      <trkpt lat="48.38741" lon="7.06246">
        <ele>622.6</ele>
        <time>2022-11-05T10:11:38Z</time>
      </trkpt>
      <trkpt lat="48.38738" lon="7.06231">
        <ele>621.4</ele>
        <time>2022-11-05T10:11:39Z</time>
      </trkpt>
      <trkpt lat="48.38736" lon="7.06219">
        <ele>620.8</ele>
        <time>2022-11-05T10:11:40Z</time>
      </trkpt>
      <trkpt lat="48.38734" lon="7.06205">
        <ele>619.6</ele>
        <time>2022-11-05T10:11:41Z</time>
      </trkpt>
      <trkpt lat="48.38733" lon="7.06173">
        <ele>617</ele>
        <time>2022-11-05T10:11:43Z</time>
      </trkpt>
      <trkpt lat="48.38734" lon="7.06162">
        <ele>616.4</ele>
        <time>2022-11-05T10:11:44Z</time>
      </trkpt>
      <trkpt lat="48.38736" lon="7.06146">
        <ele>615.2</ele>
        <time>2022-11-05T10:11:45Z</time>
      </trkpt>
      <trkpt lat="48.3874" lon="7.06123">
        <ele>612.8</ele>
        <time>2022-11-05T10:11:47Z</time>
      </trkpt>
      <trkpt lat="48.38741" lon="7.06107">
        <ele>612</ele>
        <time>2022-11-05T10:11:48Z</time>
      </trkpt>
      <trkpt lat="48.38742" lon="7.06094">
        <ele>610.6</ele>
        <time>2022-11-05T10:11:49Z</time>
      </trkpt>
      <trkpt lat="48.38741" lon="7.06082">
        <ele>610.2</ele>
        <time>2022-11-05T10:11:50Z</time>
      </trkpt>
      <trkpt lat="48.3874" lon="7.06074">
        <ele>609.6</ele>
        <time>2022-11-05T10:11:51Z</time>
      </trkpt>
      <trkpt lat="48.38739" lon="7.06064">
        <ele>609.2</ele>
        <time>2022-11-05T10:11:52Z</time>
      </trkpt>
      <trkpt lat="48.38735" lon="7.06044">
        <ele>608.4</ele>
        <time>2022-11-05T10:11:54Z</time>
      </trkpt>
      <trkpt lat="48.38733" lon="7.06034">
        <ele>607.6</ele>
        <time>2022-11-05T10:11:55Z</time>
      </trkpt>
      <trkpt lat="48.38732" lon="7.06026">
        <ele>606.4</ele>
        <time>2022-11-05T10:11:56Z</time>
      </trkpt>
      <trkpt lat="48.38727" lon="7.06005">
        <ele>605</ele>
        <time>2022-11-05T10:11:58Z</time>
      </trkpt>
      <trkpt lat="48.38722" lon="7.05987">
        <ele>603.4</ele>
        <time>2022-11-05T10:12:00Z</time>
      </trkpt>
      <trkpt lat="48.3872" lon="7.0598">
        <ele>603</ele>
        <time>2022-11-05T10:12:01Z</time>
      </trkpt>
      <trkpt lat="48.38718" lon="7.05971">
        <ele>602.4</ele>
        <time>2022-11-05T10:12:02Z</time>
      </trkpt>
      <trkpt lat="48.38713" lon="7.05956">
        <ele>601</ele>
        <time>2022-11-05T10:12:04Z</time>
      </trkpt>
      <trkpt lat="48.38711" lon="7.05946">
        <ele>600.2</ele>
        <time>2022-11-05T10:12:05Z</time>
      </trkpt>
      <trkpt lat="48.3871" lon="7.05939">
        <ele>599.2</ele>
        <time>2022-11-05T10:12:06Z</time>
      </trkpt>
      <trkpt lat="48.38709" lon="7.05931">
        <ele>598.6</ele>
        <time>2022-11-05T10:12:07Z</time>
      </trkpt>
      <trkpt lat="48.38709" lon="7.05923">
        <ele>597.6</ele>
        <time>2022-11-05T10:12:08Z</time>
      </trkpt>
      <trkpt lat="48.38709" lon="7.05906">
        <ele>596.2</ele>
        <time>2022-11-05T10:12:10Z</time>
      </trkpt>
      <trkpt lat="48.38709" lon="7.05894">
        <ele>594.6</ele>
        <time>2022-11-05T10:12:12Z</time>
      </trkpt>
      <trkpt lat="48.38707" lon="7.05881">
        <ele>593.6</ele>
        <time>2022-11-05T10:12:14Z</time>
      </trkpt>
      <trkpt lat="48.38701" lon="7.05863">
        <ele>592.2</ele>
        <time>2022-11-05T10:12:17Z</time>
      </trkpt>
      <trkpt lat="48.38696" lon="7.05853">
        <ele>591</ele>
        <time>2022-11-05T10:12:19Z</time>
      </trkpt>
      <trkpt lat="48.38692" lon="7.05844">
        <ele>589.8</ele>
        <time>2022-11-05T10:12:21Z</time>
      </trkpt>
      <trkpt lat="48.3869" lon="7.05841">
        <ele>589</ele>
        <time>2022-11-05T10:12:22Z</time>
      </trkpt>
      <trkpt lat="48.3869" lon="7.05841">
        <ele>588.4</ele>
        <time>2022-11-05T10:12:23Z</time>
      </trkpt>
      <trkpt lat="48.38679" lon="7.05831">
        <ele>586.8</ele>
        <time>2022-11-05T10:12:26Z</time>
      </trkpt>
      <trkpt lat="48.38676" lon="7.05829">
        <ele>585.6</ele>
        <time>2022-11-05T10:12:28Z</time>
      </trkpt>
      <trkpt lat="48.38668" lon="7.05825">
        <ele>584.6</ele>
        <time>2022-11-05T10:12:30Z</time>
      </trkpt>
      <trkpt lat="48.38665" lon="7.05824">
        <ele>583.6</ele>
        <time>2022-11-05T10:12:32Z</time>
      </trkpt>
      <trkpt lat="48.38663" lon="7.05825">
        <ele>583.2</ele>
        <time>2022-11-05T10:12:33Z</time>
      </trkpt>
      <trkpt lat="48.38662" lon="7.05825">
        <ele>582.4</ele>
        <time>2022-11-05T10:12:36Z</time>
      </trkpt>
      <trkpt lat="48.38662" lon="7.05825">
        <ele>582.4</ele>
        <time>2022-11-05T10:12:37Z</time>
      </trkpt>
      <trkpt lat="48.38661" lon="7.05825">
        <ele>581.8</ele>
        <time>2022-11-05T10:12:42Z</time>
      </trkpt>
      <trkpt lat="48.38661" lon="7.05825">
        <ele>581.8</ele>
        <time>2022-11-05T10:12:46Z</time>
      </trkpt>
      <trkpt lat="48.3865" lon="7.05891">
        <ele>582.8</ele>
        <time>2022-11-05T10:14:10Z</time>
      </trkpt>
      <trkpt lat="48.3865" lon="7.05895">
        <ele>583</ele>
        <time>2022-11-05T10:14:11Z</time>
      </trkpt>
      <trkpt lat="48.38649" lon="7.05898">
        <ele>583</ele>
        <time>2022-11-05T10:14:12Z</time>
      </trkpt>
      <trkpt lat="48.38645" lon="7.0591">
        <ele>583.8</ele>
        <time>2022-11-05T10:14:16Z</time>
      </trkpt>
      <trkpt lat="48.38641" lon="7.05915">
        <ele>584.2</ele>
        <time>2022-11-05T10:14:18Z</time>
      </trkpt>
      <trkpt lat="48.38628" lon="7.05926">
        <ele>584.8</ele>
        <time>2022-11-05T10:14:23Z</time>
      </trkpt>
      <trkpt lat="48.38626" lon="7.05928">
        <ele>584.8</ele>
        <time>2022-11-05T10:14:24Z</time>
      </trkpt>
      <trkpt lat="48.38612" lon="7.05931">
        <ele>585.8</ele>
        <time>2022-11-05T10:14:29Z</time>
      </trkpt>
      <trkpt lat="48.38593" lon="7.05925">
        <ele>586.6</ele>
        <time>2022-11-05T10:14:35Z</time>
      </trkpt>
      <trkpt lat="48.3858" lon="7.05904">
        <ele>586.8</ele>
        <time>2022-11-05T10:14:41Z</time>
      </trkpt>
      <trkpt lat="48.38568" lon="7.05879">
        <ele>586.6</ele>
        <time>2022-11-05T10:14:47Z</time>
      </trkpt>
      <trkpt lat="48.38554" lon="7.05846">
        <ele>586.4</ele>
        <time>2022-11-05T10:14:54Z</time>
      </trkpt>
      <trkpt lat="48.38542" lon="7.05816">
        <ele>585.8</ele>
        <time>2022-11-05T10:15:00Z</time>
      </trkpt>
      <trkpt lat="48.38521" lon="7.05768">
        <ele>585</ele>
        <time>2022-11-05T10:15:09Z</time>
      </trkpt>
      <trkpt lat="48.38516" lon="7.05757">
        <ele>584.8</ele>
        <time>2022-11-05T10:15:11Z</time>
      </trkpt>
      <trkpt lat="48.38499" lon="7.05719">
        <ele>584</ele>
        <time>2022-11-05T10:15:17Z</time>
      </trkpt>
      <trkpt lat="48.38491" lon="7.05697">
        <ele>583.6</ele>
        <time>2022-11-05T10:15:20Z</time>
      </trkpt>
      <trkpt lat="48.38487" lon="7.05683">
        <ele>583.4</ele>
        <time>2022-11-05T10:15:22Z</time>
      </trkpt>
      <trkpt lat="48.38482" lon="7.05667">
        <ele>583</ele>
        <time>2022-11-05T10:15:24Z</time>
      </trkpt>
      <trkpt lat="48.38476" lon="7.05644">
        <ele>582.8</ele>
        <time>2022-11-05T10:15:27Z</time>
      </trkpt>
      <trkpt lat="48.38474" lon="7.05634">
        <ele>582.6</ele>
        <time>2022-11-05T10:15:28Z</time>
      </trkpt>
      <trkpt lat="48.38469" lon="7.05607">
        <ele>582.2</ele>
        <time>2022-11-05T10:15:31Z</time>
      </trkpt>
      <trkpt lat="48.38459" lon="7.05556">
        <ele>581.6</ele>
        <time>2022-11-05T10:15:37Z</time>
      </trkpt>
      <trkpt lat="48.38453" lon="7.0554">
        <ele>581.2</ele>
        <time>2022-11-05T10:15:39Z</time>
      </trkpt>
      <trkpt lat="48.38446" lon="7.05526">
        <ele>580.8</ele>
        <time>2022-11-05T10:15:41Z</time>
      </trkpt>
      <trkpt lat="48.38438" lon="7.05515">
        <ele>580.6</ele>
        <time>2022-11-05T10:15:43Z</time>
      </trkpt>
      <trkpt lat="48.38433" lon="7.0551">
        <ele>580.4</ele>
        <time>2022-11-05T10:15:44Z</time>
      </trkpt>
      <trkpt lat="48.38406" lon="7.0549">
        <ele>579.4</ele>
        <time>2022-11-05T10:15:49Z</time>
      </trkpt>
      <trkpt lat="48.384" lon="7.05486">
        <ele>579.4</ele>
        <time>2022-11-05T10:15:50Z</time>
      </trkpt>
      <trkpt lat="48.3836" lon="7.05459">
        <ele>578.6</ele>
        <time>2022-11-05T10:15:57Z</time>
      </trkpt>
      <trkpt lat="48.38342" lon="7.05449">
        <ele>578</ele>
        <time>2022-11-05T10:16:00Z</time>
      </trkpt>
      <trkpt lat="48.38317" lon="7.05437">
        <ele>577.2</ele>
        <time>2022-11-05T10:16:04Z</time>
      </trkpt>
      <trkpt lat="48.38311" lon="7.05434">
        <ele>576.8</ele>
        <time>2022-11-05T10:16:05Z</time>
      </trkpt>
      <trkpt lat="48.38276" lon="7.05407">
        <ele>576.2</ele>
        <time>2022-11-05T10:16:11Z</time>
      </trkpt>
      <trkpt lat="48.38265" lon="7.05399">
        <ele>575.8</ele>
        <time>2022-11-05T10:16:13Z</time>
      </trkpt>
      <trkpt lat="48.38259" lon="7.05395">
        <ele>575.6</ele>
        <time>2022-11-05T10:16:14Z</time>
      </trkpt>
      <trkpt lat="48.38248" lon="7.05393">
        <ele>575.4</ele>
        <time>2022-11-05T10:16:16Z</time>
      </trkpt>
      <trkpt lat="48.38237" lon="7.05396">
        <ele>575.2</ele>
        <time>2022-11-05T10:16:18Z</time>
      </trkpt>
      <trkpt lat="48.38228" lon="7.05402">
        <ele>575.2</ele>
        <time>2022-11-05T10:16:20Z</time>
      </trkpt>
      <trkpt lat="48.38212" lon="7.05415">
        <ele>575</ele>
        <time>2022-11-05T10:16:23Z</time>
      </trkpt>
      <trkpt lat="48.38203" lon="7.05427">
        <ele>574.8</ele>
        <time>2022-11-05T10:16:25Z</time>
      </trkpt>
      <trkpt lat="48.38199" lon="7.05433">
        <ele>574.6</ele>
        <time>2022-11-05T10:16:26Z</time>
      </trkpt>
      <trkpt lat="48.38194" lon="7.05443">
        <ele>574.4</ele>
        <time>2022-11-05T10:16:27Z</time>
      </trkpt>
      <trkpt lat="48.38187" lon="7.05459">
        <ele>574.2</ele>
        <time>2022-11-05T10:16:29Z</time>
      </trkpt>
      <trkpt lat="48.38176" lon="7.05486">
        <ele>573.6</ele>
        <time>2022-11-05T10:16:32Z</time>
      </trkpt>
      <trkpt lat="48.38169" lon="7.05503">
        <ele>573.4</ele>
        <time>2022-11-05T10:16:34Z</time>
      </trkpt>
      <trkpt lat="48.38162" lon="7.05519">
        <ele>573.2</ele>
        <time>2022-11-05T10:16:36Z</time>
      </trkpt>
      <trkpt lat="48.3815" lon="7.05532">
        <ele>572.6</ele>
        <time>2022-11-05T10:16:38Z</time>
      </trkpt>
      <trkpt lat="48.38144" lon="7.05536">
        <ele>572.4</ele>
        <time>2022-11-05T10:16:39Z</time>
      </trkpt>
      <trkpt lat="48.38137" lon="7.05539">
        <ele>572.2</ele>
        <time>2022-11-05T10:16:40Z</time>
      </trkpt>
      <trkpt lat="48.3813" lon="7.05541">
        <ele>572</ele>
        <time>2022-11-05T10:16:41Z</time>
      </trkpt>
      <trkpt lat="48.3809" lon="7.05543">
        <ele>571.2</ele>
        <time>2022-11-05T10:16:47Z</time>
      </trkpt>
      <trkpt lat="48.38077" lon="7.05543">
        <ele>570.4</ele>
        <time>2022-11-05T10:16:49Z</time>
      </trkpt>
      <trkpt lat="48.38065" lon="7.05543">
        <ele>570</ele>
        <time>2022-11-05T10:16:51Z</time>
      </trkpt>
      <trkpt lat="48.38047" lon="7.05544">
        <ele>569.4</ele>
        <time>2022-11-05T10:16:54Z</time>
      </trkpt>
      <trkpt lat="48.38041" lon="7.05546">
        <ele>569.2</ele>
        <time>2022-11-05T10:16:55Z</time>
      </trkpt>
      <trkpt lat="48.38035" lon="7.05547">
        <ele>569.2</ele>
        <time>2022-11-05T10:16:56Z</time>
      </trkpt>
      <trkpt lat="48.38024" lon="7.05551">
        <ele>569</ele>
        <time>2022-11-05T10:16:58Z</time>
      </trkpt>
      <trkpt lat="48.38019" lon="7.05553">
        <ele>568.8</ele>
        <time>2022-11-05T10:16:59Z</time>
      </trkpt>
      <trkpt lat="48.38008" lon="7.05558">
        <ele>568.6</ele>
        <time>2022-11-05T10:17:01Z</time>
      </trkpt>
      <trkpt lat="48.38002" lon="7.05561">
        <ele>568.6</ele>
        <time>2022-11-05T10:17:02Z</time>
      </trkpt>
      <trkpt lat="48.37991" lon="7.05567">
        <ele>568.4</ele>
        <time>2022-11-05T10:17:04Z</time>
      </trkpt>
      <trkpt lat="48.37979" lon="7.05573">
        <ele>568.2</ele>
        <time>2022-11-05T10:17:06Z</time>
      </trkpt>
      <trkpt lat="48.37967" lon="7.0558">
        <ele>567.6</ele>
        <time>2022-11-05T10:17:08Z</time>
      </trkpt>
      <trkpt lat="48.37961" lon="7.05583">
        <ele>567.4</ele>
        <time>2022-11-05T10:17:09Z</time>
      </trkpt>
      <trkpt lat="48.37934" lon="7.05598">
        <ele>567.2</ele>
        <time>2022-11-05T10:17:13Z</time>
      </trkpt>
      <trkpt lat="48.37905" lon="7.05604">
        <ele>566.6</ele>
        <time>2022-11-05T10:17:17Z</time>
      </trkpt>
      <trkpt lat="48.37897" lon="7.05604">
        <ele>566.6</ele>
        <time>2022-11-05T10:17:18Z</time>
      </trkpt>
      <trkpt lat="48.37873" lon="7.05602">
        <ele>565.6</ele>
        <time>2022-11-05T10:17:21Z</time>
      </trkpt>
      <trkpt lat="48.37858" lon="7.05594">
        <ele>565.2</ele>
        <time>2022-11-05T10:17:23Z</time>
      </trkpt>
      <trkpt lat="48.37846" lon="7.05579">
        <ele>564.2</ele>
        <time>2022-11-05T10:17:25Z</time>
      </trkpt>
      <trkpt lat="48.37842" lon="7.0557">
        <ele>563.8</ele>
        <time>2022-11-05T10:17:26Z</time>
      </trkpt>
      <trkpt lat="48.37839" lon="7.05559">
        <ele>563.6</ele>
        <time>2022-11-05T10:17:27Z</time>
      </trkpt>
      <trkpt lat="48.37837" lon="7.05536">
        <ele>563.2</ele>
        <time>2022-11-05T10:17:29Z</time>
      </trkpt>
      <trkpt lat="48.37839" lon="7.05524">
        <ele>562.8</ele>
        <time>2022-11-05T10:17:30Z</time>
      </trkpt>
      <trkpt lat="48.37846" lon="7.05481">
        <ele>562.2</ele>
        <time>2022-11-05T10:17:34Z</time>
      </trkpt>
      <trkpt lat="48.37853" lon="7.0545">
        <ele>561.8</ele>
        <time>2022-11-05T10:17:37Z</time>
      </trkpt>
      <trkpt lat="48.37858" lon="7.0543">
        <ele>561.4</ele>
        <time>2022-11-05T10:17:39Z</time>
      </trkpt>
      <trkpt lat="48.37861" lon="7.0542">
        <ele>561.2</ele>
        <time>2022-11-05T10:17:40Z</time>
      </trkpt>
      <trkpt lat="48.37865" lon="7.05402">
        <ele>560.6</ele>
        <time>2022-11-05T10:17:42Z</time>
      </trkpt>
      <trkpt lat="48.37874" lon="7.05365">
        <ele>560.2</ele>
        <time>2022-11-05T10:17:46Z</time>
      </trkpt>
      <trkpt lat="48.37875" lon="7.05355">
        <ele>560</ele>
        <time>2022-11-05T10:17:47Z</time>
      </trkpt>
      <trkpt lat="48.37877" lon="7.05345">
        <ele>559.8</ele>
        <time>2022-11-05T10:17:48Z</time>
      </trkpt>
      <trkpt lat="48.37876" lon="7.05326">
        <ele>559.6</ele>
        <time>2022-11-05T10:17:50Z</time>
      </trkpt>
      <trkpt lat="48.37875" lon="7.05318">
        <ele>559.6</ele>
        <time>2022-11-05T10:17:51Z</time>
      </trkpt>
      <trkpt lat="48.37873" lon="7.05311">
        <ele>559.2</ele>
        <time>2022-11-05T10:17:52Z</time>
      </trkpt>
      <trkpt lat="48.37865" lon="7.05293">
        <ele>558.6</ele>
        <time>2022-11-05T10:17:55Z</time>
      </trkpt>
      <trkpt lat="48.37862" lon="7.05287">
        <ele>558.4</ele>
        <time>2022-11-05T10:17:56Z</time>
      </trkpt>
      <trkpt lat="48.37858" lon="7.05281">
        <ele>558.2</ele>
        <time>2022-11-05T10:17:57Z</time>
      </trkpt>
      <trkpt lat="48.37844" lon="7.05259">
        <ele>557.6</ele>
        <time>2022-11-05T10:18:00Z</time>
      </trkpt>
      <trkpt lat="48.37838" lon="7.05252">
        <ele>557.4</ele>
        <time>2022-11-05T10:18:01Z</time>
      </trkpt>
      <trkpt lat="48.37819" lon="7.05227">
        <ele>556.6</ele>
        <time>2022-11-05T10:18:04Z</time>
      </trkpt>
      <trkpt lat="48.37803" lon="7.05213">
        <ele>555.4</ele>
        <time>2022-11-05T10:18:06Z</time>
      </trkpt>
      <trkpt lat="48.37794" lon="7.05208">
        <ele>555.2</ele>
        <time>2022-11-05T10:18:07Z</time>
      </trkpt>
      <trkpt lat="48.37774" lon="7.05203">
        <ele>554</ele>
        <time>2022-11-05T10:18:09Z</time>
      </trkpt>
      <trkpt lat="48.37764" lon="7.05203">
        <ele>553</ele>
        <time>2022-11-05T10:18:10Z</time>
      </trkpt>
      <trkpt lat="48.37743" lon="7.05203">
        <ele>551.6</ele>
        <time>2022-11-05T10:18:12Z</time>
      </trkpt>
      <trkpt lat="48.37722" lon="7.05206">
        <ele>550.8</ele>
        <time>2022-11-05T10:18:14Z</time>
      </trkpt>
      <trkpt lat="48.37712" lon="7.05209">
        <ele>550.4</ele>
        <time>2022-11-05T10:18:15Z</time>
      </trkpt>
      <trkpt lat="48.37691" lon="7.05219">
        <ele>549.2</ele>
        <time>2022-11-05T10:18:17Z</time>
      </trkpt>
      <trkpt lat="48.3768" lon="7.05225">
        <ele>548.2</ele>
        <time>2022-11-05T10:18:18Z</time>
      </trkpt>
      <trkpt lat="48.37669" lon="7.05232">
        <ele>547.6</ele>
        <time>2022-11-05T10:18:19Z</time>
      </trkpt>
      <trkpt lat="48.37659" lon="7.05239">
        <ele>546.8</ele>
        <time>2022-11-05T10:18:20Z</time>
      </trkpt>
      <trkpt lat="48.37636" lon="7.05252">
        <ele>545.6</ele>
        <time>2022-11-05T10:18:22Z</time>
      </trkpt>
      <trkpt lat="48.37614" lon="7.05264">
        <ele>544.2</ele>
        <time>2022-11-05T10:18:24Z</time>
      </trkpt>
      <trkpt lat="48.37593" lon="7.05277">
        <ele>542.4</ele>
        <time>2022-11-05T10:18:26Z</time>
      </trkpt>
      <trkpt lat="48.37574" lon="7.05293">
        <ele>541</ele>
        <time>2022-11-05T10:18:28Z</time>
      </trkpt>
      <trkpt lat="48.37555" lon="7.05311">
        <ele>539.4</ele>
        <time>2022-11-05T10:18:30Z</time>
      </trkpt>
      <trkpt lat="48.37547" lon="7.05322">
        <ele>538.6</ele>
        <time>2022-11-05T10:18:31Z</time>
      </trkpt>
      <trkpt lat="48.37539" lon="7.05334">
        <ele>537.4</ele>
        <time>2022-11-05T10:18:32Z</time>
      </trkpt>
      <trkpt lat="48.37523" lon="7.05358">
        <ele>535.6</ele>
        <time>2022-11-05T10:18:34Z</time>
      </trkpt>
      <trkpt lat="48.37516" lon="7.0537">
        <ele>535.2</ele>
        <time>2022-11-05T10:18:35Z</time>
      </trkpt>
      <trkpt lat="48.37509" lon="7.05384">
        <ele>534</ele>
        <time>2022-11-05T10:18:36Z</time>
      </trkpt>
      <trkpt lat="48.37503" lon="7.054">
        <ele>533.6</ele>
        <time>2022-11-05T10:18:37Z</time>
      </trkpt>
      <trkpt lat="48.37493" lon="7.05432">
        <ele>532.6</ele>
        <time>2022-11-05T10:18:39Z</time>
      </trkpt>
      <trkpt lat="48.3749" lon="7.05447">
        <ele>531.4</ele>
        <time>2022-11-05T10:18:40Z</time>
      </trkpt>
      <trkpt lat="48.37487" lon="7.05462">
        <ele>531</ele>
        <time>2022-11-05T10:18:41Z</time>
      </trkpt>
      <trkpt lat="48.37485" lon="7.05476">
        <ele>529.8</ele>
        <time>2022-11-05T10:18:42Z</time>
      </trkpt>
      <trkpt lat="48.37481" lon="7.05501">
        <ele>528.2</ele>
        <time>2022-11-05T10:18:44Z</time>
      </trkpt>
      <trkpt lat="48.37479" lon="7.05514">
        <ele>527.8</ele>
        <time>2022-11-05T10:18:45Z</time>
      </trkpt>
      <trkpt lat="48.37476" lon="7.05525">
        <ele>526.4</ele>
        <time>2022-11-05T10:18:46Z</time>
      </trkpt>
      <trkpt lat="48.37471" lon="7.05536">
        <ele>526</ele>
        <time>2022-11-05T10:18:47Z</time>
      </trkpt>
      <trkpt lat="48.37466" lon="7.05545">
        <ele>524.6</ele>
        <time>2022-11-05T10:18:48Z</time>
      </trkpt>
      <trkpt lat="48.37459" lon="7.05553">
        <ele>524.2</ele>
        <time>2022-11-05T10:18:49Z</time>
      </trkpt>
      <trkpt lat="48.37451" lon="7.05559">
        <ele>523.2</ele>
        <time>2022-11-05T10:18:50Z</time>
      </trkpt>
      <trkpt lat="48.37441" lon="7.05563">
        <ele>522.4</ele>
        <time>2022-11-05T10:18:51Z</time>
      </trkpt>
      <trkpt lat="48.37433" lon="7.05562">
        <ele>521.6</ele>
        <time>2022-11-05T10:18:52Z</time>
      </trkpt>
      <trkpt lat="48.37426" lon="7.0556">
        <ele>521</ele>
        <time>2022-11-05T10:18:53Z</time>
      </trkpt>
      <trkpt lat="48.37417" lon="7.05556">
        <ele>520.4</ele>
        <time>2022-11-05T10:18:54Z</time>
      </trkpt>
      <trkpt lat="48.37413" lon="7.05552">
        <ele>519.4</ele>
        <time>2022-11-05T10:18:55Z</time>
      </trkpt>
      <trkpt lat="48.37408" lon="7.05546">
        <ele>519</ele>
        <time>2022-11-05T10:18:56Z</time>
      </trkpt>
      <trkpt lat="48.37404" lon="7.0554">
        <ele>517.8</ele>
        <time>2022-11-05T10:18:57Z</time>
      </trkpt>
      <trkpt lat="48.37398" lon="7.05528">
        <ele>516</ele>
        <time>2022-11-05T10:18:59Z</time>
      </trkpt>
      <trkpt lat="48.37395" lon="7.05513">
        <ele>514.6</ele>
        <time>2022-11-05T10:19:01Z</time>
      </trkpt>
      <trkpt lat="48.37399" lon="7.05498">
        <ele>513.4</ele>
        <time>2022-11-05T10:19:03Z</time>
      </trkpt>
      <trkpt lat="48.37403" lon="7.05488">
        <ele>513</ele>
        <time>2022-11-05T10:19:04Z</time>
      </trkpt>
      <trkpt lat="48.37408" lon="7.05471">
        <ele>512.2</ele>
        <time>2022-11-05T10:19:06Z</time>
      </trkpt>
      <trkpt lat="48.37416" lon="7.05433">
        <ele>511.4</ele>
        <time>2022-11-05T10:19:10Z</time>
      </trkpt>
      <trkpt lat="48.37418" lon="7.05423">
        <ele>511.2</ele>
        <time>2022-11-05T10:19:11Z</time>
      </trkpt>
      <trkpt lat="48.37421" lon="7.05381">
        <ele>510.2</ele>
        <time>2022-11-05T10:19:15Z</time>
      </trkpt>
      <trkpt lat="48.37423" lon="7.0535">
        <ele>509.4</ele>
        <time>2022-11-05T10:19:18Z</time>
      </trkpt>
      <trkpt lat="48.37424" lon="7.05341">
        <ele>509.2</ele>
        <time>2022-11-05T10:19:19Z</time>
      </trkpt>
      <trkpt lat="48.37427" lon="7.05311">
        <ele>508.6</ele>
        <time>2022-11-05T10:19:22Z</time>
      </trkpt>
      <trkpt lat="48.37431" lon="7.05283">
        <ele>508.2</ele>
        <time>2022-11-05T10:19:25Z</time>
      </trkpt>
      <trkpt lat="48.37438" lon="7.0524">
        <ele>507.6</ele>
        <time>2022-11-05T10:19:30Z</time>
      </trkpt>
      <trkpt lat="48.37451" lon="7.05207">
        <ele>507.4</ele>
        <time>2022-11-05T10:19:35Z</time>
      </trkpt>
      <trkpt lat="48.37467" lon="7.05168">
        <ele>507.2</ele>
        <time>2022-11-05T10:19:42Z</time>
      </trkpt>
      <trkpt lat="48.37475" lon="7.05138">
        <ele>507.6</ele>
        <time>2022-11-05T10:19:48Z</time>
      </trkpt>
      <trkpt lat="48.37484" lon="7.05112">
        <ele>508.6</ele>
        <time>2022-11-05T10:19:55Z</time>
      </trkpt>
      <trkpt lat="48.37494" lon="7.05098">
        <ele>509.2</ele>
        <time>2022-11-05T10:20:00Z</time>
      </trkpt>
      <trkpt lat="48.37497" lon="7.05096">
        <ele>509.2</ele>
        <time>2022-11-05T10:20:01Z</time>
      </trkpt>
      <trkpt lat="48.37511" lon="7.05089">
        <ele>510</ele>
        <time>2022-11-05T10:20:07Z</time>
      </trkpt>
      <trkpt lat="48.37517" lon="7.05088">
        <ele>510.4</ele>
        <time>2022-11-05T10:20:09Z</time>
      </trkpt>
      <trkpt lat="48.37532" lon="7.05085">
        <ele>511.4</ele>
        <time>2022-11-05T10:20:15Z</time>
      </trkpt>
      <trkpt lat="48.37535" lon="7.05084">
        <ele>511.4</ele>
        <time>2022-11-05T10:20:16Z</time>
      </trkpt>
      <trkpt lat="48.37551" lon="7.05071">
        <ele>512</ele>
        <time>2022-11-05T10:20:23Z</time>
      </trkpt>
      <trkpt lat="48.37556" lon="7.05065">
        <ele>512.4</ele>
        <time>2022-11-05T10:20:25Z</time>
      </trkpt>
      <trkpt lat="48.37573" lon="7.05041">
        <ele>513.2</ele>
        <time>2022-11-05T10:20:34Z</time>
      </trkpt>
      <trkpt lat="48.37574" lon="7.05039">
        <ele>513.4</ele>
        <time>2022-11-05T10:20:35Z</time>
      </trkpt>
      <trkpt lat="48.37585" lon="7.05023">
        <ele>514</ele>
        <time>2022-11-05T10:20:41Z</time>
      </trkpt>
      <trkpt lat="48.37591" lon="7.0501">
        <ele>514.4</ele>
        <time>2022-11-05T10:20:45Z</time>
      </trkpt>
      <trkpt lat="48.37594" lon="7.05004">
        <ele>514.6</ele>
        <time>2022-11-05T10:20:47Z</time>
      </trkpt>
      <trkpt lat="48.37606" lon="7.04984">
        <ele>515.4</ele>
        <time>2022-11-05T10:20:54Z</time>
      </trkpt>
      <trkpt lat="48.37607" lon="7.04981">
        <ele>515.6</ele>
        <time>2022-11-05T10:20:55Z</time>
      </trkpt>
      <trkpt lat="48.3762" lon="7.04959">
        <ele>516.6</ele>
        <time>2022-11-05T10:21:03Z</time>
      </trkpt>
      <trkpt lat="48.37622" lon="7.04956">
        <ele>516.8</ele>
        <time>2022-11-05T10:21:04Z</time>
      </trkpt>
      <trkpt lat="48.37628" lon="7.0494">
        <ele>517.4</ele>
        <time>2022-11-05T10:21:10Z</time>
      </trkpt>
      <trkpt lat="48.37631" lon="7.04929">
        <ele>517.8</ele>
        <time>2022-11-05T10:21:13Z</time>
      </trkpt>
      <trkpt lat="48.37633" lon="7.04911">
        <ele>518.6</ele>
        <time>2022-11-05T10:21:18Z</time>
      </trkpt>
      <trkpt lat="48.37633" lon="7.04901">
        <ele>518.8</ele>
        <time>2022-11-05T10:21:21Z</time>
      </trkpt>
      <trkpt lat="48.37632" lon="7.04882">
        <ele>519.2</ele>
        <time>2022-11-05T10:21:26Z</time>
      </trkpt>
      <trkpt lat="48.37628" lon="7.04853">
        <ele>520</ele>
        <time>2022-11-05T10:21:34Z</time>
      </trkpt>
      <trkpt lat="48.37627" lon="7.04846">
        <ele>520.2</ele>
        <time>2022-11-05T10:21:36Z</time>
      </trkpt>
      <trkpt lat="48.37627" lon="7.04823">
        <ele>521</ele>
        <time>2022-11-05T10:21:42Z</time>
      </trkpt>
      <trkpt lat="48.37628" lon="7.04819">
        <ele>521.2</ele>
        <time>2022-11-05T10:21:43Z</time>
      </trkpt>
      <trkpt lat="48.37629" lon="7.04815">
        <ele>521.4</ele>
        <time>2022-11-05T10:21:44Z</time>
      </trkpt>
      <trkpt lat="48.3763" lon="7.04812">
        <ele>521.6</ele>
        <time>2022-11-05T10:21:45Z</time>
      </trkpt>
      <trkpt lat="48.37639" lon="7.04799">
        <ele>522.2</ele>
        <time>2022-11-05T10:21:50Z</time>
      </trkpt>
      <trkpt lat="48.37652" lon="7.04795">
        <ele>522.8</ele>
        <time>2022-11-05T10:21:55Z</time>
      </trkpt>
      <trkpt lat="48.37654" lon="7.04794">
        <ele>523</ele>
        <time>2022-11-05T10:21:56Z</time>
      </trkpt>
      <trkpt lat="48.3766" lon="7.04794">
        <ele>523.2</ele>
        <time>2022-11-05T10:21:58Z</time>
      </trkpt>
      <trkpt lat="48.37679" lon="7.04793">
        <ele>524.2</ele>
        <time>2022-11-05T10:22:05Z</time>
      </trkpt>
      <trkpt lat="48.37681" lon="7.04793">
        <ele>524.4</ele>
        <time>2022-11-05T10:22:06Z</time>
      </trkpt>
      <trkpt lat="48.37696" lon="7.04791">
        <ele>525</ele>
        <time>2022-11-05T10:22:12Z</time>
      </trkpt>
      <trkpt lat="48.37701" lon="7.0479">
        <ele>525.2</ele>
        <time>2022-11-05T10:22:14Z</time>
      </trkpt>
      <trkpt lat="48.37704" lon="7.04789">
        <ele>525.2</ele>
        <time>2022-11-05T10:22:15Z</time>
      </trkpt>
      <trkpt lat="48.37719" lon="7.04783">
        <ele>526.4</ele>
        <time>2022-11-05T10:22:21Z</time>
      </trkpt>
      <trkpt lat="48.37727" lon="7.04779">
        <ele>526.6</ele>
        <time>2022-11-05T10:22:24Z</time>
      </trkpt>
      <trkpt lat="48.37734" lon="7.04775">
        <ele>527</ele>
        <time>2022-11-05T10:22:27Z</time>
      </trkpt>
      <trkpt lat="48.37737" lon="7.04773">
        <ele>527.2</ele>
        <time>2022-11-05T10:22:28Z</time>
      </trkpt>
      <trkpt lat="48.37744" lon="7.04768">
        <ele>527.6</ele>
        <time>2022-11-05T10:22:31Z</time>
      </trkpt>
      <trkpt lat="48.37749" lon="7.04763">
        <ele>528</ele>
        <time>2022-11-05T10:22:33Z</time>
      </trkpt>
      <trkpt lat="48.37754" lon="7.04756">
        <ele>528.2</ele>
        <time>2022-11-05T10:22:36Z</time>
      </trkpt>
      <trkpt lat="48.37762" lon="7.04745">
        <ele>528.4</ele>
        <time>2022-11-05T10:22:40Z</time>
      </trkpt>
      <trkpt lat="48.37764" lon="7.04742">
        <ele>528.6</ele>
        <time>2022-11-05T10:22:41Z</time>
      </trkpt>
      <trkpt lat="48.37775" lon="7.04721">
        <ele>529.2</ele>
        <time>2022-11-05T10:22:48Z</time>
      </trkpt>
      <trkpt lat="48.37778" lon="7.04715">
        <ele>529.6</ele>
        <time>2022-11-05T10:22:50Z</time>
      </trkpt>
      <trkpt lat="48.37786" lon="7.04698">
        <ele>530.2</ele>
        <time>2022-11-05T10:22:55Z</time>
      </trkpt>
      <trkpt lat="48.37788" lon="7.04695">
        <ele>530</ele>
        <time>2022-11-05T10:22:56Z</time>
      </trkpt>
      <trkpt lat="48.37792" lon="7.0468">
        <ele>530.4</ele>
        <time>2022-11-05T10:23:00Z</time>
      </trkpt>
      <trkpt lat="48.37795" lon="7.0466">
        <ele>531.2</ele>
        <time>2022-11-05T10:23:05Z</time>
      </trkpt>
      <trkpt lat="48.37797" lon="7.04642">
        <ele>531.8</ele>
        <time>2022-11-05T10:23:09Z</time>
      </trkpt>
      <trkpt lat="48.378" lon="7.04626">
        <ele>532.2</ele>
        <time>2022-11-05T10:23:13Z</time>
      </trkpt>
      <trkpt lat="48.37806" lon="7.04612">
        <ele>532.8</ele>
        <time>2022-11-05T10:23:17Z</time>
      </trkpt>
      <trkpt lat="48.37815" lon="7.04601">
        <ele>533.2</ele>
        <time>2022-11-05T10:23:21Z</time>
      </trkpt>
      <trkpt lat="48.3782" lon="7.04596">
        <ele>533.4</ele>
        <time>2022-11-05T10:23:23Z</time>
      </trkpt>
      <trkpt lat="48.37841" lon="7.0458">
        <ele>534.2</ele>
        <time>2022-11-05T10:23:31Z</time>
      </trkpt>
      <trkpt lat="48.37852" lon="7.04561">
        <ele>535.2</ele>
        <time>2022-11-05T10:23:37Z</time>
      </trkpt>
      <trkpt lat="48.37853" lon="7.04557">
        <ele>535.4</ele>
        <time>2022-11-05T10:23:38Z</time>
      </trkpt>
      <trkpt lat="48.37853" lon="7.04533">
        <ele>536.2</ele>
        <time>2022-11-05T10:23:44Z</time>
      </trkpt>
      <trkpt lat="48.37852" lon="7.04525">
        <ele>536.6</ele>
        <time>2022-11-05T10:23:46Z</time>
      </trkpt>
      <trkpt lat="48.3785" lon="7.04514">
        <ele>537.2</ele>
        <time>2022-11-05T10:23:49Z</time>
      </trkpt>
      <trkpt lat="48.37845" lon="7.04502">
        <ele>537.8</ele>
        <time>2022-11-05T10:23:53Z</time>
      </trkpt>
      <trkpt lat="48.37841" lon="7.04493">
        <ele>538.2</ele>
        <time>2022-11-05T10:23:56Z</time>
      </trkpt>
      <trkpt lat="48.37839" lon="7.04489">
        <ele>538.4</ele>
        <time>2022-11-05T10:23:58Z</time>
      </trkpt>
      <trkpt lat="48.3783" lon="7.04472">
        <ele>539</ele>
        <time>2022-11-05T10:25:08Z</time>
      </trkpt>
      <trkpt lat="48.37828" lon="7.04469">
        <ele>539</ele>
        <time>2022-11-05T10:25:09Z</time>
      </trkpt>
      <trkpt lat="48.37823" lon="7.04458">
        <ele>539.4</ele>
        <time>2022-11-05T10:25:12Z</time>
      </trkpt>
      <trkpt lat="48.3782" lon="7.04451">
        <ele>540</ele>
        <time>2022-11-05T10:25:14Z</time>
      </trkpt>
      <trkpt lat="48.37819" lon="7.04447">
        <ele>540.2</ele>
        <time>2022-11-05T10:25:15Z</time>
      </trkpt>
      <trkpt lat="48.37817" lon="7.04438">
        <ele>540.4</ele>
        <time>2022-11-05T10:25:17Z</time>
      </trkpt>
      <trkpt lat="48.37813" lon="7.04421">
        <ele>540.4</ele>
        <time>2022-11-05T10:25:21Z</time>
      </trkpt>
      <trkpt lat="48.37812" lon="7.04402">
        <ele>540.8</ele>
        <time>2022-11-05T10:25:25Z</time>
      </trkpt>
      <trkpt lat="48.37811" lon="7.04393">
        <ele>541.2</ele>
        <time>2022-11-05T10:25:27Z</time>
      </trkpt>
      <trkpt lat="48.37811" lon="7.04383">
        <ele>541.4</ele>
        <time>2022-11-05T10:25:29Z</time>
      </trkpt>
      <trkpt lat="48.37811" lon="7.0437">
        <ele>541.8</ele>
        <time>2022-11-05T10:25:32Z</time>
      </trkpt>
      <trkpt lat="48.3781" lon="7.04357">
        <ele>542.6</ele>
        <time>2022-11-05T10:25:35Z</time>
      </trkpt>
      <trkpt lat="48.3781" lon="7.04343">
        <ele>543.2</ele>
        <time>2022-11-05T10:25:38Z</time>
      </trkpt>
      <trkpt lat="48.3781" lon="7.04334">
        <ele>543.4</ele>
        <time>2022-11-05T10:25:40Z</time>
      </trkpt>
      <trkpt lat="48.3781" lon="7.04329">
        <ele>543.6</ele>
        <time>2022-11-05T10:25:41Z</time>
      </trkpt>
      <trkpt lat="48.37809" lon="7.04314">
        <ele>544</ele>
        <time>2022-11-05T10:25:44Z</time>
      </trkpt>
      <trkpt lat="48.37808" lon="7.04305">
        <ele>544.2</ele>
        <time>2022-11-05T10:25:46Z</time>
      </trkpt>
      <trkpt lat="48.37808" lon="7.043">
        <ele>544.2</ele>
        <time>2022-11-05T10:25:47Z</time>
      </trkpt>
      <trkpt lat="48.37797" lon="7.04262">
        <ele>544.8</ele>
        <time>2022-11-05T10:25:55Z</time>
      </trkpt>
      <trkpt lat="48.3778" lon="7.04229">
        <ele>545.4</ele>
        <time>2022-11-05T10:26:03Z</time>
      </trkpt>
      <trkpt lat="48.37767" lon="7.04217">
        <ele>545.8</ele>
        <time>2022-11-05T10:26:08Z</time>
      </trkpt>
      <trkpt lat="48.37761" lon="7.04214">
        <ele>546.2</ele>
        <time>2022-11-05T10:26:10Z</time>
      </trkpt>
      <trkpt lat="48.37752" lon="7.0421">
        <ele>546.4</ele>
        <time>2022-11-05T10:26:13Z</time>
      </trkpt>
      <trkpt lat="48.37746" lon="7.04209">
        <ele>546.6</ele>
        <time>2022-11-05T10:26:15Z</time>
      </trkpt>
      <trkpt lat="48.37743" lon="7.04208">
        <ele>546.8</ele>
        <time>2022-11-05T10:26:16Z</time>
      </trkpt>
      <trkpt lat="48.3774" lon="7.04208">
        <ele>546.8</ele>
        <time>2022-11-05T10:26:17Z</time>
      </trkpt>
      <trkpt lat="48.37737" lon="7.04207">
        <ele>547</ele>
        <time>2022-11-05T10:26:18Z</time>
      </trkpt>
      <trkpt lat="48.37728" lon="7.04207">
        <ele>547.6</ele>
        <time>2022-11-05T10:26:21Z</time>
      </trkpt>
      <trkpt lat="48.37726" lon="7.04208">
        <ele>547.8</ele>
        <time>2022-11-05T10:26:22Z</time>
      </trkpt>
      <trkpt lat="48.37723" lon="7.04208">
        <ele>548</ele>
        <time>2022-11-05T10:26:23Z</time>
      </trkpt>
      <trkpt lat="48.37717" lon="7.04209">
        <ele>548.2</ele>
        <time>2022-11-05T10:26:25Z</time>
      </trkpt>
      <trkpt lat="48.37707" lon="7.04213">
        <ele>549</ele>
        <time>2022-11-05T10:26:29Z</time>
      </trkpt>
      <trkpt lat="48.37699" lon="7.04217">
        <ele>549.4</ele>
        <time>2022-11-05T10:26:32Z</time>
      </trkpt>
      <trkpt lat="48.37685" lon="7.04228">
        <ele>550</ele>
        <time>2022-11-05T10:26:38Z</time>
      </trkpt>
      <trkpt lat="48.37675" lon="7.04236">
        <ele>550.4</ele>
        <time>2022-11-05T10:26:42Z</time>
      </trkpt>
      <trkpt lat="48.3767" lon="7.04238">
        <ele>550.6</ele>
        <time>2022-11-05T10:26:44Z</time>
      </trkpt>
      <trkpt lat="48.37663" lon="7.04243">
        <ele>551</ele>
        <time>2022-11-05T10:26:47Z</time>
      </trkpt>
      <trkpt lat="48.37653" lon="7.04248">
        <ele>551.4</ele>
        <time>2022-11-05T10:26:51Z</time>
      </trkpt>
      <trkpt lat="48.37651" lon="7.04249">
        <ele>551.4</ele>
        <time>2022-11-05T10:26:52Z</time>
      </trkpt>
      <trkpt lat="48.3764" lon="7.04251">
        <ele>552</ele>
        <time>2022-11-05T10:26:56Z</time>
      </trkpt>
      <trkpt lat="48.37638" lon="7.04251">
        <ele>552.2</ele>
        <time>2022-11-05T10:26:57Z</time>
      </trkpt>
      <trkpt lat="48.37633" lon="7.04252">
        <ele>552.6</ele>
        <time>2022-11-05T10:26:59Z</time>
      </trkpt>
      <trkpt lat="48.37625" lon="7.04253">
        <ele>553.2</ele>
        <time>2022-11-05T10:27:03Z</time>
      </trkpt>
      <trkpt lat="48.37623" lon="7.04253">
        <ele>553.4</ele>
        <time>2022-11-05T10:27:04Z</time>
      </trkpt>
      <trkpt lat="48.37611" lon="7.04253">
        <ele>554.4</ele>
        <time>2022-11-05T10:27:10Z</time>
      </trkpt>
      <trkpt lat="48.37596" lon="7.04252">
        <ele>555.6</ele>
        <time>2022-11-05T10:27:17Z</time>
      </trkpt>
      <trkpt lat="48.3759" lon="7.04248">
        <ele>556</ele>
        <time>2022-11-05T10:27:20Z</time>
      </trkpt>
      <trkpt lat="48.37581" lon="7.04239">
        <ele>556.6</ele>
        <time>2022-11-05T10:27:25Z</time>
      </trkpt>
      <trkpt lat="48.37579" lon="7.04237">
        <ele>556.6</ele>
        <time>2022-11-05T10:27:26Z</time>
      </trkpt>
      <trkpt lat="48.37572" lon="7.04221">
        <ele>557.4</ele>
        <time>2022-11-05T10:27:32Z</time>
      </trkpt>
      <trkpt lat="48.37569" lon="7.04215">
        <ele>557.8</ele>
        <time>2022-11-05T10:27:34Z</time>
      </trkpt>
      <trkpt lat="48.37565" lon="7.04199">
        <ele>558.4</ele>
        <time>2022-11-05T10:27:39Z</time>
      </trkpt>
      <trkpt lat="48.37562" lon="7.04183">
        <ele>559</ele>
        <time>2022-11-05T10:27:44Z</time>
      </trkpt>
      <trkpt lat="48.37558" lon="7.04166">
        <ele>559.6</ele>
        <time>2022-11-05T10:27:49Z</time>
      </trkpt>
      <trkpt lat="48.37556" lon="7.04153">
        <ele>560.2</ele>
        <time>2022-11-05T10:27:53Z</time>
      </trkpt>
      <trkpt lat="48.37555" lon="7.04142">
        <ele>560.6</ele>
        <time>2022-11-05T10:27:56Z</time>
      </trkpt>
      <trkpt lat="48.3755" lon="7.04118">
        <ele>561.6</ele>
        <time>2022-11-05T10:28:03Z</time>
      </trkpt>
      <trkpt lat="48.37549" lon="7.04114">
        <ele>561.8</ele>
        <time>2022-11-05T10:28:04Z</time>
      </trkpt>
      <trkpt lat="48.37542" lon="7.04095">
        <ele>562.8</ele>
        <time>2022-11-05T10:28:10Z</time>
      </trkpt>
      <trkpt lat="48.37541" lon="7.04092">
        <ele>562.8</ele>
        <time>2022-11-05T10:28:11Z</time>
      </trkpt>
      <trkpt lat="48.37534" lon="7.04078">
        <ele>563.8</ele>
        <time>2022-11-05T10:28:16Z</time>
      </trkpt>
      <trkpt lat="48.37532" lon="7.04076">
        <ele>563.8</ele>
        <time>2022-11-05T10:28:17Z</time>
      </trkpt>
      <trkpt lat="48.37515" lon="7.04066">
        <ele>565</ele>
        <time>2022-11-05T10:28:24Z</time>
      </trkpt>
      <trkpt lat="48.37511" lon="7.04065">
        <ele>565.2</ele>
        <time>2022-11-05T10:28:26Z</time>
      </trkpt>
      <trkpt lat="48.37495" lon="7.04068">
        <ele>566.2</ele>
        <time>2022-11-05T10:28:32Z</time>
      </trkpt>
      <trkpt lat="48.37475" lon="7.04075">
        <ele>567</ele>
        <time>2022-11-05T10:28:40Z</time>
      </trkpt>
      <trkpt lat="48.37471" lon="7.04076">
        <ele>567.2</ele>
        <time>2022-11-05T10:28:42Z</time>
      </trkpt>
      <trkpt lat="48.37453" lon="7.04078">
        <ele>568</ele>
        <time>2022-11-05T10:28:49Z</time>
      </trkpt>
      <trkpt lat="48.37446" lon="7.04075">
        <ele>568.4</ele>
        <time>2022-11-05T10:28:52Z</time>
      </trkpt>
      <trkpt lat="48.37439" lon="7.04072">
        <ele>568.6</ele>
        <time>2022-11-05T10:28:55Z</time>
      </trkpt>
      <trkpt lat="48.37432" lon="7.04067">
        <ele>569.4</ele>
        <time>2022-11-05T10:28:58Z</time>
      </trkpt>
      <trkpt lat="48.3742" lon="7.04057">
        <ele>570</ele>
        <time>2022-11-05T10:29:03Z</time>
      </trkpt>
      <trkpt lat="48.37411" lon="7.04049">
        <ele>570.6</ele>
        <time>2022-11-05T10:29:07Z</time>
      </trkpt>
      <trkpt lat="48.37392" lon="7.04032">
        <ele>571.6</ele>
        <time>2022-11-05T10:29:15Z</time>
      </trkpt>
      <trkpt lat="48.37388" lon="7.04028">
        <ele>571.6</ele>
        <time>2022-11-05T10:29:17Z</time>
      </trkpt>
      <trkpt lat="48.37371" lon="7.04013">
        <ele>572.6</ele>
        <time>2022-11-05T10:29:24Z</time>
      </trkpt>
      <trkpt lat="48.37369" lon="7.04011">
        <ele>573</ele>
        <time>2022-11-05T10:29:25Z</time>
      </trkpt>
      <trkpt lat="48.37345" lon="7.03993">
        <ele>573.8</ele>
        <time>2022-11-05T10:29:34Z</time>
      </trkpt>
      <trkpt lat="48.37342" lon="7.03992">
        <ele>574</ele>
        <time>2022-11-05T10:29:35Z</time>
      </trkpt>
      <trkpt lat="48.37326" lon="7.03984">
        <ele>574.6</ele>
        <time>2022-11-05T10:29:41Z</time>
      </trkpt>
      <trkpt lat="48.37321" lon="7.03981">
        <ele>575</ele>
        <time>2022-11-05T10:29:43Z</time>
      </trkpt>
      <trkpt lat="48.37309" lon="7.03979">
        <ele>575.6</ele>
        <time>2022-11-05T10:29:48Z</time>
      </trkpt>
      <trkpt lat="48.373" lon="7.0398">
        <ele>576.2</ele>
        <time>2022-11-05T10:29:51Z</time>
      </trkpt>
      <trkpt lat="48.37289" lon="7.03984">
        <ele>576.8</ele>
        <time>2022-11-05T10:29:55Z</time>
      </trkpt>
      <trkpt lat="48.37279" lon="7.03988">
        <ele>577.2</ele>
        <time>2022-11-05T10:29:59Z</time>
      </trkpt>
      <trkpt lat="48.37264" lon="7.03998">
        <ele>577.8</ele>
        <time>2022-11-05T10:30:04Z</time>
      </trkpt>
      <trkpt lat="48.37254" lon="7.04006">
        <ele>578.2</ele>
        <time>2022-11-05T10:30:08Z</time>
      </trkpt>
      <trkpt lat="48.37247" lon="7.04012">
        <ele>578.8</ele>
        <time>2022-11-05T10:30:11Z</time>
      </trkpt>
      <trkpt lat="48.37238" lon="7.04018">
        <ele>579.2</ele>
        <time>2022-11-05T10:30:14Z</time>
      </trkpt>
      <trkpt lat="48.37219" lon="7.04035">
        <ele>580.4</ele>
        <time>2022-11-05T10:30:21Z</time>
      </trkpt>
      <trkpt lat="48.37216" lon="7.04037">
        <ele>580.4</ele>
        <time>2022-11-05T10:30:22Z</time>
      </trkpt>
      <trkpt lat="48.372" lon="7.04045">
        <ele>581.2</ele>
        <time>2022-11-05T10:30:28Z</time>
      </trkpt>
      <trkpt lat="48.37195" lon="7.04047">
        <ele>581.6</ele>
        <time>2022-11-05T10:30:30Z</time>
      </trkpt>
      <trkpt lat="48.37181" lon="7.04049">
        <ele>582.2</ele>
        <time>2022-11-05T10:30:35Z</time>
      </trkpt>
      <trkpt lat="48.3717" lon="7.04048">
        <ele>583</ele>
        <time>2022-11-05T10:30:39Z</time>
      </trkpt>
      <trkpt lat="48.37167" lon="7.04047">
        <ele>583</ele>
        <time>2022-11-05T10:30:40Z</time>
      </trkpt>
      <trkpt lat="48.3716" lon="7.04044">
        <ele>583.4</ele>
        <time>2022-11-05T10:30:43Z</time>
      </trkpt>
      <trkpt lat="48.3715" lon="7.04035">
        <ele>583.8</ele>
        <time>2022-11-05T10:30:47Z</time>
      </trkpt>
      <trkpt lat="48.37144" lon="7.04016">
        <ele>584.4</ele>
        <time>2022-11-05T10:30:52Z</time>
      </trkpt>
      <trkpt lat="48.37144" lon="7.04012">
        <ele>584.4</ele>
        <time>2022-11-05T10:30:53Z</time>
      </trkpt>
      <trkpt lat="48.37144" lon="7.03992">
        <ele>585.4</ele>
        <time>2022-11-05T10:30:58Z</time>
      </trkpt>
      <trkpt lat="48.37146" lon="7.03983">
        <ele>585.8</ele>
        <time>2022-11-05T10:31:00Z</time>
      </trkpt>
      <trkpt lat="48.37151" lon="7.03951">
        <ele>586.4</ele>
        <time>2022-11-05T10:31:08Z</time>
      </trkpt>
      <trkpt lat="48.37152" lon="7.03948">
        <ele>586.6</ele>
        <time>2022-11-05T10:31:09Z</time>
      </trkpt>
      <trkpt lat="48.37154" lon="7.0394">
        <ele>586.6</ele>
        <time>2022-11-05T10:31:11Z</time>
      </trkpt>
      <trkpt lat="48.37161" lon="7.03925">
        <ele>586.6</ele>
        <time>2022-11-05T10:31:15Z</time>
      </trkpt>
      <trkpt lat="48.37163" lon="7.03921">
        <ele>586.6</ele>
        <time>2022-11-05T10:31:16Z</time>
      </trkpt>
      <trkpt lat="48.37172" lon="7.03908">
        <ele>586.6</ele>
        <time>2022-11-05T10:31:19Z</time>
      </trkpt>
      <trkpt lat="48.37187" lon="7.03883">
        <ele>586.8</ele>
        <time>2022-11-05T10:31:24Z</time>
      </trkpt>
      <trkpt lat="48.37195" lon="7.03872">
        <ele>586.8</ele>
        <time>2022-11-05T10:31:26Z</time>
      </trkpt>
      <trkpt lat="48.37198" lon="7.03866">
        <ele>586.8</ele>
        <time>2022-11-05T10:31:27Z</time>
      </trkpt>
      <trkpt lat="48.37204" lon="7.03853">
        <ele>586.6</ele>
        <time>2022-11-05T10:31:29Z</time>
      </trkpt>
      <trkpt lat="48.37206" lon="7.03846">
        <ele>586.6</ele>
        <time>2022-11-05T10:31:30Z</time>
      </trkpt>
      <trkpt lat="48.37209" lon="7.03826">
        <ele>586.4</ele>
        <time>2022-11-05T10:31:33Z</time>
      </trkpt>
      <trkpt lat="48.37213" lon="7.03814">
        <ele>586.2</ele>
        <time>2022-11-05T10:31:35Z</time>
      </trkpt>
      <trkpt lat="48.37218" lon="7.03801">
        <ele>586.2</ele>
        <time>2022-11-05T10:31:37Z</time>
      </trkpt>
      <trkpt lat="48.37225" lon="7.03784">
        <ele>586</ele>
        <time>2022-11-05T10:31:40Z</time>
      </trkpt>
      <trkpt lat="48.37236" lon="7.03757">
        <ele>585.6</ele>
        <time>2022-11-05T10:31:45Z</time>
      </trkpt>
      <trkpt lat="48.37238" lon="7.03751">
        <ele>585.4</ele>
        <time>2022-11-05T10:31:46Z</time>
      </trkpt>
      <trkpt lat="48.3724" lon="7.03746">
        <ele>585.4</ele>
        <time>2022-11-05T10:31:47Z</time>
      </trkpt>
      <trkpt lat="48.37242" lon="7.0374">
        <ele>585.4</ele>
        <time>2022-11-05T10:31:48Z</time>
      </trkpt>
      <trkpt lat="48.37244" lon="7.03734">
        <ele>585.4</ele>
        <time>2022-11-05T10:31:49Z</time>
      </trkpt>
      <trkpt lat="48.37247" lon="7.03722">
        <ele>585.4</ele>
        <time>2022-11-05T10:31:51Z</time>
      </trkpt>
      <trkpt lat="48.37248" lon="7.03716">
        <ele>585.4</ele>
        <time>2022-11-05T10:31:52Z</time>
      </trkpt>
      <trkpt lat="48.37252" lon="7.03698">
        <ele>585.4</ele>
        <time>2022-11-05T10:31:55Z</time>
      </trkpt>
      <trkpt lat="48.37253" lon="7.03674">
        <ele>585.6</ele>
        <time>2022-11-05T10:31:59Z</time>
      </trkpt>
      <trkpt lat="48.37248" lon="7.03631">
        <ele>585.8</ele>
        <time>2022-11-05T10:32:06Z</time>
      </trkpt>
      <trkpt lat="48.37245" lon="7.03619">
        <ele>586</ele>
        <time>2022-11-05T10:32:08Z</time>
      </trkpt>
      <trkpt lat="48.37242" lon="7.03601">
        <ele>586</ele>
        <time>2022-11-05T10:32:11Z</time>
      </trkpt>
      <trkpt lat="48.37239" lon="7.03589">
        <ele>586</ele>
        <time>2022-11-05T10:32:13Z</time>
      </trkpt>
      <trkpt lat="48.37237" lon="7.03584">
        <ele>586</ele>
        <time>2022-11-05T10:32:14Z</time>
      </trkpt>
      <trkpt lat="48.37223" lon="7.03555">
        <ele>586</ele>
        <time>2022-11-05T10:32:19Z</time>
      </trkpt>
      <trkpt lat="48.37201" lon="7.03517">
        <ele>586</ele>
        <time>2022-11-05T10:32:26Z</time>
      </trkpt>
      <trkpt lat="48.37179" lon="7.0348">
        <ele>586</ele>
        <time>2022-11-05T10:32:33Z</time>
      </trkpt>
      <trkpt lat="48.37175" lon="7.03476">
        <ele>586</ele>
        <time>2022-11-05T10:32:34Z</time>
      </trkpt>
      <trkpt lat="48.37156" lon="7.03446">
        <ele>585.8</ele>
        <time>2022-11-05T10:32:40Z</time>
      </trkpt>
      <trkpt lat="48.37146" lon="7.0343">
        <ele>585.8</ele>
        <time>2022-11-05T10:32:43Z</time>
      </trkpt>
      <trkpt lat="48.37143" lon="7.03424">
        <ele>585.6</ele>
        <time>2022-11-05T10:32:44Z</time>
      </trkpt>
      <trkpt lat="48.37139" lon="7.03409">
        <ele>585.4</ele>
        <time>2022-11-05T10:32:46Z</time>
      </trkpt>
      <trkpt lat="48.37138" lon="7.03402">
        <ele>585.4</ele>
        <time>2022-11-05T10:32:47Z</time>
      </trkpt>
      <trkpt lat="48.37132" lon="7.03342">
        <ele>585</ele>
        <time>2022-11-05T10:32:56Z</time>
      </trkpt>
      <trkpt lat="48.37131" lon="7.03336">
        <ele>585</ele>
        <time>2022-11-05T10:32:57Z</time>
      </trkpt>
      <trkpt lat="48.37127" lon="7.03309">
        <ele>585</ele>
        <time>2022-11-05T10:33:01Z</time>
      </trkpt>
      <trkpt lat="48.3712" lon="7.03273">
        <ele>584.6</ele>
        <time>2022-11-05T10:33:07Z</time>
      </trkpt>
      <trkpt lat="48.37112" lon="7.0327">
        <ele>584.2</ele>
        <time>2022-11-05T10:33:10Z</time>
      </trkpt>
      <trkpt lat="48.37107" lon="7.03271">
        <ele>584</ele>
        <time>2022-11-05T10:33:13Z</time>
      </trkpt>
      <trkpt lat="48.37097" lon="7.03283">
        <ele>583.8</ele>
        <time>2022-11-05T10:33:19Z</time>
      </trkpt>
      <trkpt lat="48.37093" lon="7.03299">
        <ele>584</ele>
        <time>2022-11-05T10:33:25Z</time>
      </trkpt>
      <trkpt lat="48.37088" lon="7.03316">
        <ele>584.6</ele>
        <time>2022-11-05T10:33:32Z</time>
      </trkpt>
      <trkpt lat="48.37086" lon="7.0332">
        <ele>585</ele>
        <time>2022-11-05T10:33:34Z</time>
      </trkpt>
      <trkpt lat="48.37085" lon="7.03324">
        <ele>585.4</ele>
        <time>2022-11-05T10:33:36Z</time>
      </trkpt>
      <trkpt lat="48.37084" lon="7.03328">
        <ele>585.6</ele>
        <time>2022-11-05T10:33:38Z</time>
      </trkpt>
      <trkpt lat="48.3708" lon="7.03341">
        <ele>586.4</ele>
        <time>2022-11-05T10:33:43Z</time>
      </trkpt>
      <trkpt lat="48.3708" lon="7.03342">
        <ele>586.4</ele>
        <time>2022-11-05T10:33:44Z</time>
      </trkpt>
      <trkpt lat="48.37079" lon="7.03342">
        <ele>586.6</ele>
        <time>2022-11-05T10:33:45Z</time>
      </trkpt>
      <trkpt lat="48.37076" lon="7.03347">
        <ele>587</ele>
        <time>2022-11-05T10:33:49Z</time>
      </trkpt>
      <trkpt lat="48.37074" lon="7.0335">
        <ele>587.2</ele>
        <time>2022-11-05T10:33:51Z</time>
      </trkpt>
      <trkpt lat="48.37072" lon="7.03354">
        <ele>587.4</ele>
        <time>2022-11-05T10:33:53Z</time>
      </trkpt>
      <trkpt lat="48.37069" lon="7.03361">
        <ele>587.8</ele>
        <time>2022-11-05T10:33:57Z</time>
      </trkpt>
      <trkpt lat="48.37068" lon="7.03363">
        <ele>587.8</ele>
        <time>2022-11-05T10:33:58Z</time>
      </trkpt>
      <trkpt lat="48.37066" lon="7.03368">
        <ele>588.4</ele>
        <time>2022-11-05T10:34:01Z</time>
      </trkpt>
      <trkpt lat="48.37065" lon="7.03371">
        <ele>588.6</ele>
        <time>2022-11-05T10:34:03Z</time>
      </trkpt>
      <trkpt lat="48.37064" lon="7.03372">
        <ele>588.6</ele>
        <time>2022-11-05T10:34:04Z</time>
      </trkpt>
      <trkpt lat="48.37062" lon="7.03376">
        <ele>589</ele>
        <time>2022-11-05T10:34:07Z</time>
      </trkpt>
      <trkpt lat="48.3706" lon="7.0338">
        <ele>589.2</ele>
        <time>2022-11-05T10:34:09Z</time>
      </trkpt>
      <trkpt lat="48.37058" lon="7.03384">
        <ele>589.6</ele>
        <time>2022-11-05T10:34:11Z</time>
      </trkpt>
      <trkpt lat="48.37055" lon="7.03387">
        <ele>590.2</ele>
        <time>2022-11-05T10:34:13Z</time>
      </trkpt>
      <trkpt lat="48.37051" lon="7.03391">
        <ele>590.4</ele>
        <time>2022-11-05T10:34:15Z</time>
      </trkpt>
      <trkpt lat="48.37048" lon="7.03395">
        <ele>590.6</ele>
        <time>2022-11-05T10:34:17Z</time>
      </trkpt>
      <trkpt lat="48.37047" lon="7.03397">
        <ele>590.8</ele>
        <time>2022-11-05T10:34:18Z</time>
      </trkpt>
      <trkpt lat="48.37043" lon="7.03401">
        <ele>591</ele>
        <time>2022-11-05T10:34:21Z</time>
      </trkpt>
      <trkpt lat="48.3704" lon="7.03406">
        <ele>591.8</ele>
        <time>2022-11-05T10:34:24Z</time>
      </trkpt>
      <trkpt lat="48.37037" lon="7.03407">
        <ele>592</ele>
        <time>2022-11-05T10:34:25Z</time>
      </trkpt>
      <trkpt lat="48.37034" lon="7.03409">
        <ele>592.2</ele>
        <time>2022-11-05T10:34:27Z</time>
      </trkpt>
      <trkpt lat="48.37032" lon="7.0341">
        <ele>592.4</ele>
        <time>2022-11-05T10:34:28Z</time>
      </trkpt>
      <trkpt lat="48.3703" lon="7.0341">
        <ele>592.8</ele>
        <time>2022-11-05T10:34:29Z</time>
      </trkpt>
      <trkpt lat="48.37024" lon="7.03412">
        <ele>593</ele>
        <time>2022-11-05T10:34:33Z</time>
      </trkpt>
      <trkpt lat="48.37021" lon="7.03413">
        <ele>593.2</ele>
        <time>2022-11-05T10:34:35Z</time>
      </trkpt>
      <trkpt lat="48.37015" lon="7.03414">
        <ele>593.6</ele>
        <time>2022-11-05T10:34:39Z</time>
      </trkpt>
      <trkpt lat="48.37014" lon="7.03414">
        <ele>593.8</ele>
        <time>2022-11-05T10:34:40Z</time>
      </trkpt>
      <trkpt lat="48.37012" lon="7.03413">
        <ele>594</ele>
        <time>2022-11-05T10:34:41Z</time>
      </trkpt>
      <trkpt lat="48.37011" lon="7.03413">
        <ele>594</ele>
        <time>2022-11-05T10:34:42Z</time>
      </trkpt>
      <trkpt lat="48.3701" lon="7.03414">
        <ele>594</ele>
        <time>2022-11-05T10:34:43Z</time>
      </trkpt>
      <trkpt lat="48.3701" lon="7.03415">
        <ele>594</ele>
        <time>2022-11-05T10:34:44Z</time>
      </trkpt>
      <trkpt lat="48.36994" lon="7.03402">
        <ele>595</ele>
        <time>2022-11-05T10:36:28Z</time>
      </trkpt>
      <trkpt lat="48.36992" lon="7.034">
        <ele>595.2</ele>
        <time>2022-11-05T10:36:29Z</time>
      </trkpt>
      <trkpt lat="48.3699" lon="7.03398">
        <ele>595.2</ele>
        <time>2022-11-05T10:36:30Z</time>
      </trkpt>
      <trkpt lat="48.36983" lon="7.03389">
        <ele>596.2</ele>
        <time>2022-11-05T10:36:35Z</time>
      </trkpt>
      <trkpt lat="48.36976" lon="7.03378">
        <ele>596.4</ele>
        <time>2022-11-05T10:36:40Z</time>
      </trkpt>
      <trkpt lat="48.36963" lon="7.03364">
        <ele>597</ele>
        <time>2022-11-05T10:36:49Z</time>
      </trkpt>
      <trkpt lat="48.36961" lon="7.03361">
        <ele>597.2</ele>
        <time>2022-11-05T10:36:51Z</time>
      </trkpt>
      <trkpt lat="48.36952" lon="7.03351">
        <ele>598.2</ele>
        <time>2022-11-05T10:36:58Z</time>
      </trkpt>
      <trkpt lat="48.36949" lon="7.03349">
        <ele>598.4</ele>
        <time>2022-11-05T10:37:00Z</time>
      </trkpt>
      <trkpt lat="48.36939" lon="7.03347">
        <ele>599.4</ele>
        <time>2022-11-05T10:37:07Z</time>
      </trkpt>
      <trkpt lat="48.36937" lon="7.03347">
        <ele>599.6</ele>
        <time>2022-11-05T10:37:08Z</time>
      </trkpt>
      <trkpt lat="48.36929" lon="7.0335">
        <ele>600</ele>
        <time>2022-11-05T10:37:13Z</time>
      </trkpt>
      <trkpt lat="48.36928" lon="7.03351">
        <ele>600.4</ele>
        <time>2022-11-05T10:37:14Z</time>
      </trkpt>
      <trkpt lat="48.36925" lon="7.03352">
        <ele>600.6</ele>
        <time>2022-11-05T10:37:16Z</time>
      </trkpt>
      <trkpt lat="48.36916" lon="7.03356">
        <ele>601.4</ele>
        <time>2022-11-05T10:37:22Z</time>
      </trkpt>
      <trkpt lat="48.36913" lon="7.0336">
        <ele>601.8</ele>
        <time>2022-11-05T10:37:25Z</time>
      </trkpt>
      <trkpt lat="48.36909" lon="7.03365">
        <ele>602.6</ele>
        <time>2022-11-05T10:37:29Z</time>
      </trkpt>
      <trkpt lat="48.36907" lon="7.03367">
        <ele>602.8</ele>
        <time>2022-11-05T10:37:30Z</time>
      </trkpt>
      <trkpt lat="48.36906" lon="7.0337">
        <ele>603</ele>
        <time>2022-11-05T10:37:32Z</time>
      </trkpt>
      <trkpt lat="48.36904" lon="7.03376">
        <ele>603.4</ele>
        <time>2022-11-05T10:37:35Z</time>
      </trkpt>
      <trkpt lat="48.36902" lon="7.03382">
        <ele>603.8</ele>
        <time>2022-11-05T10:37:38Z</time>
      </trkpt>
      <trkpt lat="48.36901" lon="7.03383">
        <ele>604</ele>
        <time>2022-11-05T10:37:39Z</time>
      </trkpt>
      <trkpt lat="48.36899" lon="7.03386">
        <ele>604.2</ele>
        <time>2022-11-05T10:37:41Z</time>
      </trkpt>
      <trkpt lat="48.36898" lon="7.03395">
        <ele>605.2</ele>
        <time>2022-11-05T10:37:46Z</time>
      </trkpt>
      <trkpt lat="48.36898" lon="7.03401">
        <ele>605.6</ele>
        <time>2022-11-05T10:37:49Z</time>
      </trkpt>
      <trkpt lat="48.36897" lon="7.03411">
        <ele>606.2</ele>
        <time>2022-11-05T10:37:54Z</time>
      </trkpt>
      <trkpt lat="48.36897" lon="7.03417">
        <ele>606.6</ele>
        <time>2022-11-05T10:37:57Z</time>
      </trkpt>
      <trkpt lat="48.36898" lon="7.03426">
        <ele>607.2</ele>
        <time>2022-11-05T10:38:01Z</time>
      </trkpt>
      <trkpt lat="48.36898" lon="7.03433">
        <ele>607.6</ele>
        <time>2022-11-05T10:38:04Z</time>
      </trkpt>
      <trkpt lat="48.36897" lon="7.03442">
        <ele>608.4</ele>
        <time>2022-11-05T10:38:09Z</time>
      </trkpt>
      <trkpt lat="48.36896" lon="7.03449">
        <ele>609</ele>
        <time>2022-11-05T10:38:12Z</time>
      </trkpt>
      <trkpt lat="48.36895" lon="7.03458">
        <ele>609.2</ele>
        <time>2022-11-05T10:38:16Z</time>
      </trkpt>
      <trkpt lat="48.36894" lon="7.0346">
        <ele>609.6</ele>
        <time>2022-11-05T10:38:17Z</time>
      </trkpt>
      <trkpt lat="48.36894" lon="7.03463">
        <ele>609.8</ele>
        <time>2022-11-05T10:38:18Z</time>
      </trkpt>
      <trkpt lat="48.36894" lon="7.03468">
        <ele>610</ele>
        <time>2022-11-05T10:38:20Z</time>
      </trkpt>
      <trkpt lat="48.36893" lon="7.03469">
        <ele>610.2</ele>
        <time>2022-11-05T10:38:21Z</time>
      </trkpt>
      <trkpt lat="48.36891" lon="7.03476">
        <ele>610.4</ele>
        <time>2022-11-05T10:38:24Z</time>
      </trkpt>
      <trkpt lat="48.3689" lon="7.03478">
        <ele>610.6</ele>
        <time>2022-11-05T10:38:25Z</time>
      </trkpt>
      <trkpt lat="48.36886" lon="7.03486">
        <ele>611.2</ele>
        <time>2022-11-05T10:38:30Z</time>
      </trkpt>
      <trkpt lat="48.3688" lon="7.03493">
        <ele>611.6</ele>
        <time>2022-11-05T10:38:35Z</time>
      </trkpt>
      <trkpt lat="48.36877" lon="7.035">
        <ele>612.6</ele>
        <time>2022-11-05T10:38:39Z</time>
      </trkpt>
      <trkpt lat="48.36874" lon="7.03506">
        <ele>613</ele>
        <time>2022-11-05T10:38:43Z</time>
      </trkpt>
      <trkpt lat="48.36874" lon="7.03508">
        <ele>613</ele>
        <time>2022-11-05T10:38:44Z</time>
      </trkpt>
      <trkpt lat="48.36873" lon="7.03513">
        <ele>613.2</ele>
        <time>2022-11-05T10:38:46Z</time>
      </trkpt>
      <trkpt lat="48.36868" lon="7.03522">
        <ele>613.8</ele>
        <time>2022-11-05T10:38:52Z</time>
      </trkpt>
      <trkpt lat="48.36867" lon="7.03524">
        <ele>614</ele>
        <time>2022-11-05T10:38:53Z</time>
      </trkpt>
      <trkpt lat="48.36864" lon="7.03537">
        <ele>614.8</ele>
        <time>2022-11-05T10:38:59Z</time>
      </trkpt>
      <trkpt lat="48.36862" lon="7.03544">
        <ele>615</ele>
        <time>2022-11-05T10:39:02Z</time>
      </trkpt>
      <trkpt lat="48.3686" lon="7.03551">
        <ele>615</ele>
        <time>2022-11-05T10:39:05Z</time>
      </trkpt>
      <trkpt lat="48.3686" lon="7.03554">
        <ele>615.2</ele>
        <time>2022-11-05T10:39:06Z</time>
      </trkpt>
      <trkpt lat="48.36859" lon="7.03563">
        <ele>615.2</ele>
        <time>2022-11-05T10:39:09Z</time>
      </trkpt>
      <trkpt lat="48.36859" lon="7.03577">
        <ele>616</ele>
        <time>2022-11-05T10:39:14Z</time>
      </trkpt>
      <trkpt lat="48.36858" lon="7.03582">
        <ele>616.4</ele>
        <time>2022-11-05T10:39:16Z</time>
      </trkpt>
      <trkpt lat="48.36859" lon="7.03584">
        <ele>616.6</ele>
        <time>2022-11-05T10:39:17Z</time>
      </trkpt>
      <trkpt lat="48.3686" lon="7.03589">
        <ele>617.2</ele>
        <time>2022-11-05T10:39:19Z</time>
      </trkpt>
      <trkpt lat="48.36865" lon="7.03603">
        <ele>617.8</ele>
        <time>2022-11-05T10:39:25Z</time>
      </trkpt>
      <trkpt lat="48.36868" lon="7.03609">
        <ele>618.2</ele>
        <time>2022-11-05T10:39:28Z</time>
      </trkpt>
      <trkpt lat="48.36873" lon="7.03619">
        <ele>618.4</ele>
        <time>2022-11-05T10:39:33Z</time>
      </trkpt>
      <trkpt lat="48.36877" lon="7.03627">
        <ele>618.8</ele>
        <time>2022-11-05T10:39:37Z</time>
      </trkpt>
      <trkpt lat="48.3688" lon="7.03633">
        <ele>619.2</ele>
        <time>2022-11-05T10:39:40Z</time>
      </trkpt>
      <trkpt lat="48.36882" lon="7.03637">
        <ele>619.4</ele>
        <time>2022-11-05T10:39:42Z</time>
      </trkpt>
      <trkpt lat="48.3689" lon="7.03647">
        <ele>620.2</ele>
        <time>2022-11-05T10:39:48Z</time>
      </trkpt>
      <trkpt lat="48.36901" lon="7.03658">
        <ele>620.6</ele>
        <time>2022-11-05T10:39:55Z</time>
      </trkpt>
      <trkpt lat="48.36907" lon="7.03669">
        <ele>621.2</ele>
        <time>2022-11-05T10:40:01Z</time>
      </trkpt>
      <trkpt lat="48.36909" lon="7.03673">
        <ele>621.4</ele>
        <time>2022-11-05T10:40:03Z</time>
      </trkpt>
      <trkpt lat="48.36917" lon="7.0369">
        <ele>622</ele>
        <time>2022-11-05T10:40:11Z</time>
      </trkpt>
      <trkpt lat="48.36918" lon="7.03694">
        <ele>622.2</ele>
        <time>2022-11-05T10:40:13Z</time>
      </trkpt>
      <trkpt lat="48.36923" lon="7.03703">
        <ele>623.2</ele>
        <time>2022-11-05T10:40:18Z</time>
      </trkpt>
      <trkpt lat="48.36932" lon="7.03718">
        <ele>624.4</ele>
        <time>2022-11-05T10:40:26Z</time>
      </trkpt>
      <trkpt lat="48.36932" lon="7.0372">
        <ele>624.4</ele>
        <time>2022-11-05T10:40:27Z</time>
      </trkpt>
      <trkpt lat="48.36943" lon="7.03741">
        <ele>625</ele>
        <time>2022-11-05T10:40:37Z</time>
      </trkpt>
      <trkpt lat="48.3695" lon="7.03755">
        <ele>625.4</ele>
        <time>2022-11-05T10:40:43Z</time>
      </trkpt>
      <trkpt lat="48.36951" lon="7.03758">
        <ele>625.4</ele>
        <time>2022-11-05T10:40:44Z</time>
      </trkpt>
      <trkpt lat="48.36961" lon="7.03778">
        <ele>626.2</ele>
        <time>2022-11-05T10:40:53Z</time>
      </trkpt>
      <trkpt lat="48.36963" lon="7.03782">
        <ele>626.4</ele>
        <time>2022-11-05T10:40:55Z</time>
      </trkpt>
      <trkpt lat="48.36969" lon="7.03794">
        <ele>627.2</ele>
        <time>2022-11-05T10:41:01Z</time>
      </trkpt>
      <trkpt lat="48.3697" lon="7.03798">
        <ele>627.4</ele>
        <time>2022-11-05T10:41:03Z</time>
      </trkpt>
      <trkpt lat="48.36971" lon="7.03799">
        <ele>627.6</ele>
        <time>2022-11-05T10:41:04Z</time>
      </trkpt>
      <trkpt lat="48.36975" lon="7.03803">
        <ele>628</ele>
        <time>2022-11-05T10:41:07Z</time>
      </trkpt>
      <trkpt lat="48.36978" lon="7.03806">
        <ele>628.4</ele>
        <time>2022-11-05T10:41:10Z</time>
      </trkpt>
      <trkpt lat="48.3698" lon="7.03807">
        <ele>628.4</ele>
        <time>2022-11-05T10:41:11Z</time>
      </trkpt>
      <trkpt lat="48.36984" lon="7.0381">
        <ele>628.8</ele>
        <time>2022-11-05T10:41:14Z</time>
      </trkpt>
      <trkpt lat="48.36991" lon="7.03813">
        <ele>629.4</ele>
        <time>2022-11-05T10:41:19Z</time>
      </trkpt>
      <trkpt lat="48.36993" lon="7.03814">
        <ele>629.6</ele>
        <time>2022-11-05T10:41:20Z</time>
      </trkpt>
      <trkpt lat="48.37005" lon="7.0382">
        <ele>630.2</ele>
        <time>2022-11-05T10:41:27Z</time>
      </trkpt>
      <trkpt lat="48.37006" lon="7.03821">
        <ele>630.2</ele>
        <time>2022-11-05T10:41:28Z</time>
      </trkpt>
      <trkpt lat="48.37008" lon="7.03826">
        <ele>630.8</ele>
        <time>2022-11-05T10:41:30Z</time>
      </trkpt>
      <trkpt lat="48.3701" lon="7.03829">
        <ele>631.2</ele>
        <time>2022-11-05T10:41:32Z</time>
      </trkpt>
      <trkpt lat="48.37013" lon="7.03834">
        <ele>632</ele>
        <time>2022-11-05T10:41:34Z</time>
      </trkpt>
      <trkpt lat="48.37018" lon="7.03843">
        <ele>632.8</ele>
        <time>2022-11-05T10:41:39Z</time>
      </trkpt>
      <trkpt lat="48.37018" lon="7.03844">
        <ele>632.8</ele>
        <time>2022-11-05T10:41:40Z</time>
      </trkpt>
      <trkpt lat="48.37018" lon="7.03847">
        <ele>633</ele>
        <time>2022-11-05T10:41:41Z</time>
      </trkpt>
      <trkpt lat="48.37016" lon="7.03851">
        <ele>633.4</ele>
        <time>2022-11-05T10:41:43Z</time>
      </trkpt>
      <trkpt lat="48.37016" lon="7.03853">
        <ele>633.6</ele>
        <time>2022-11-05T10:41:44Z</time>
      </trkpt>
      <trkpt lat="48.37014" lon="7.03859">
        <ele>633.8</ele>
        <time>2022-11-05T10:41:47Z</time>
      </trkpt>
      <trkpt lat="48.37012" lon="7.03861">
        <ele>634</ele>
        <time>2022-11-05T10:41:49Z</time>
      </trkpt>
      <trkpt lat="48.37009" lon="7.03863">
        <ele>634.4</ele>
        <time>2022-11-05T10:41:51Z</time>
      </trkpt>
      <trkpt lat="48.37006" lon="7.03867">
        <ele>634.8</ele>
        <time>2022-11-05T10:41:54Z</time>
      </trkpt>
      <trkpt lat="48.37002" lon="7.03867">
        <ele>635</ele>
        <time>2022-11-05T10:41:57Z</time>
      </trkpt>
      <trkpt lat="48.37" lon="7.03868">
        <ele>635.2</ele>
        <time>2022-11-05T10:41:58Z</time>
      </trkpt>
      <trkpt lat="48.36994" lon="7.0387">
        <ele>636.2</ele>
        <time>2022-11-05T10:42:04Z</time>
      </trkpt>
      <trkpt lat="48.36992" lon="7.0387">
        <ele>636.4</ele>
        <time>2022-11-05T10:42:05Z</time>
      </trkpt>
      <trkpt lat="48.36988" lon="7.03871">
        <ele>636.8</ele>
        <time>2022-11-05T10:42:08Z</time>
      </trkpt>
      <trkpt lat="48.36985" lon="7.03872">
        <ele>637</ele>
        <time>2022-11-05T10:42:10Z</time>
      </trkpt>
      <trkpt lat="48.36982" lon="7.03874">
        <ele>637.4</ele>
        <time>2022-11-05T10:42:12Z</time>
      </trkpt>
      <trkpt lat="48.36973" lon="7.0388">
        <ele>638.4</ele>
        <time>2022-11-05T10:42:18Z</time>
      </trkpt>
      <trkpt lat="48.36969" lon="7.03882">
        <ele>638.6</ele>
        <time>2022-11-05T10:42:20Z</time>
      </trkpt>
      <trkpt lat="48.36966" lon="7.03883">
        <ele>638.6</ele>
        <time>2022-11-05T10:42:21Z</time>
      </trkpt>
      <trkpt lat="48.36957" lon="7.0389">
        <ele>639</ele>
        <time>2022-11-05T10:42:25Z</time>
      </trkpt>
      <trkpt lat="48.36951" lon="7.03897">
        <ele>639.4</ele>
        <time>2022-11-05T10:42:29Z</time>
      </trkpt>
      <trkpt lat="48.36946" lon="7.03902">
        <ele>639.8</ele>
        <time>2022-11-05T10:42:32Z</time>
      </trkpt>
      <trkpt lat="48.36942" lon="7.03907">
        <ele>640</ele>
        <time>2022-11-05T10:42:35Z</time>
      </trkpt>
      <trkpt lat="48.36939" lon="7.03914">
        <ele>640.2</ele>
        <time>2022-11-05T10:42:38Z</time>
      </trkpt>
      <trkpt lat="48.36938" lon="7.03916">
        <ele>640.4</ele>
        <time>2022-11-05T10:42:39Z</time>
      </trkpt>
      <trkpt lat="48.36936" lon="7.0392">
        <ele>640.4</ele>
        <time>2022-11-05T10:42:41Z</time>
      </trkpt>
      <trkpt lat="48.36933" lon="7.03925">
        <ele>640.6</ele>
        <time>2022-11-05T10:42:44Z</time>
      </trkpt>
      <trkpt lat="48.36932" lon="7.03926">
        <ele>640.8</ele>
        <time>2022-11-05T10:42:45Z</time>
      </trkpt>
      <trkpt lat="48.36927" lon="7.03932">
        <ele>641.2</ele>
        <time>2022-11-05T10:42:49Z</time>
      </trkpt>
      <trkpt lat="48.36924" lon="7.03936">
        <ele>641.6</ele>
        <time>2022-11-05T10:42:51Z</time>
      </trkpt>
      <trkpt lat="48.36918" lon="7.03943">
        <ele>642</ele>
        <time>2022-11-05T10:42:56Z</time>
      </trkpt>
      <trkpt lat="48.36912" lon="7.0395">
        <ele>642.6</ele>
        <time>2022-11-05T10:43:00Z</time>
      </trkpt>
      <trkpt lat="48.36906" lon="7.03957">
        <ele>642.8</ele>
        <time>2022-11-05T10:43:04Z</time>
      </trkpt>
      <trkpt lat="48.36899" lon="7.03967">
        <ele>643.2</ele>
        <time>2022-11-05T10:43:09Z</time>
      </trkpt>
      <trkpt lat="48.36898" lon="7.03968">
        <ele>643.2</ele>
        <time>2022-11-05T10:43:10Z</time>
      </trkpt>
      <trkpt lat="48.36896" lon="7.03969">
        <ele>643.2</ele>
        <time>2022-11-05T10:43:11Z</time>
      </trkpt>
      <trkpt lat="48.36891" lon="7.03975">
        <ele>643.6</ele>
        <time>2022-11-05T10:43:15Z</time>
      </trkpt>
      <trkpt lat="48.36888" lon="7.03977">
        <ele>643.6</ele>
        <time>2022-11-05T10:43:17Z</time>
      </trkpt>
      <trkpt lat="48.36882" lon="7.03981">
        <ele>644.6</ele>
        <time>2022-11-05T10:43:21Z</time>
      </trkpt>
      <trkpt lat="48.36881" lon="7.03983">
        <ele>644.8</ele>
        <time>2022-11-05T10:43:22Z</time>
      </trkpt>
      <trkpt lat="48.36876" lon="7.03987">
        <ele>645</ele>
        <time>2022-11-05T10:43:25Z</time>
      </trkpt>
      <trkpt lat="48.36873" lon="7.03991">
        <ele>645</ele>
        <time>2022-11-05T10:43:27Z</time>
      </trkpt>
      <trkpt lat="48.36864" lon="7.03997">
        <ele>645.6</ele>
        <time>2022-11-05T10:43:32Z</time>
      </trkpt>
      <trkpt lat="48.36862" lon="7.03999">
        <ele>645.6</ele>
        <time>2022-11-05T10:43:33Z</time>
      </trkpt>
      <trkpt lat="48.36851" lon="7.04009">
        <ele>646.6</ele>
        <time>2022-11-05T10:43:39Z</time>
      </trkpt>
      <trkpt lat="48.36835" lon="7.04021">
        <ele>647.6</ele>
        <time>2022-11-05T10:43:46Z</time>
      </trkpt>
      <trkpt lat="48.36829" lon="7.04028">
        <ele>647.6</ele>
        <time>2022-11-05T10:43:49Z</time>
      </trkpt>
      <trkpt lat="48.36824" lon="7.04033">
        <ele>648.4</ele>
        <time>2022-11-05T10:43:52Z</time>
      </trkpt>
      <trkpt lat="48.36816" lon="7.04043">
        <ele>648.8</ele>
        <time>2022-11-05T10:43:58Z</time>
      </trkpt>
      <trkpt lat="48.36803" lon="7.04057">
        <ele>649.2</ele>
        <time>2022-11-05T10:44:05Z</time>
      </trkpt>
      <trkpt lat="48.36793" lon="7.04069">
        <ele>649.6</ele>
        <time>2022-11-05T10:44:10Z</time>
      </trkpt>
      <trkpt lat="48.3678" lon="7.04083">
        <ele>649.8</ele>
        <time>2022-11-05T10:44:16Z</time>
      </trkpt>
      <trkpt lat="48.36776" lon="7.04088">
        <ele>650</ele>
        <time>2022-11-05T10:44:18Z</time>
      </trkpt>
      <trkpt lat="48.36769" lon="7.04095">
        <ele>650</ele>
        <time>2022-11-05T10:44:21Z</time>
      </trkpt>
      <trkpt lat="48.36762" lon="7.04104">
        <ele>650</ele>
        <time>2022-11-05T10:44:24Z</time>
      </trkpt>
      <trkpt lat="48.3676" lon="7.04105">
        <ele>650</ele>
        <time>2022-11-05T10:44:25Z</time>
      </trkpt>
      <trkpt lat="48.36748" lon="7.04114">
        <ele>650.2</ele>
        <time>2022-11-05T10:44:31Z</time>
      </trkpt>
      <trkpt lat="48.36744" lon="7.04118">
        <ele>650.2</ele>
        <time>2022-11-05T10:44:34Z</time>
      </trkpt>
      <trkpt lat="48.36742" lon="7.04121">
        <ele>650.2</ele>
        <time>2022-11-05T10:44:36Z</time>
      </trkpt>
      <trkpt lat="48.36728" lon="7.04143">
        <ele>651</ele>
        <time>2022-11-05T10:44:44Z</time>
      </trkpt>
      <trkpt lat="48.36722" lon="7.04152">
        <ele>651.2</ele>
        <time>2022-11-05T10:44:47Z</time>
      </trkpt>
      <trkpt lat="48.36716" lon="7.04162">
        <ele>651.6</ele>
        <time>2022-11-05T10:44:51Z</time>
      </trkpt>
      <trkpt lat="48.36707" lon="7.04175">
        <ele>651.8</ele>
        <time>2022-11-05T10:44:57Z</time>
      </trkpt>
      <trkpt lat="48.36701" lon="7.0418">
        <ele>652.4</ele>
        <time>2022-11-05T10:45:01Z</time>
      </trkpt>
      <trkpt lat="48.36698" lon="7.04184">
        <ele>652.6</ele>
        <time>2022-11-05T10:45:03Z</time>
      </trkpt>
      <trkpt lat="48.36684" lon="7.04206">
        <ele>653.4</ele>
        <time>2022-11-05T10:45:11Z</time>
      </trkpt>
      <trkpt lat="48.36673" lon="7.04221">
        <ele>654.2</ele>
        <time>2022-11-05T10:45:16Z</time>
      </trkpt>
      <trkpt lat="48.36669" lon="7.04228">
        <ele>654.6</ele>
        <time>2022-11-05T10:45:18Z</time>
      </trkpt>
      <trkpt lat="48.36664" lon="7.04237">
        <ele>655</ele>
        <time>2022-11-05T10:45:21Z</time>
      </trkpt>
      <trkpt lat="48.36659" lon="7.04243">
        <ele>655.4</ele>
        <time>2022-11-05T10:45:24Z</time>
      </trkpt>
      <trkpt lat="48.36653" lon="7.04248">
        <ele>655.8</ele>
        <time>2022-11-05T10:45:28Z</time>
      </trkpt>
      <trkpt lat="48.36646" lon="7.04257">
        <ele>657.2</ele>
        <time>2022-11-05T10:45:34Z</time>
      </trkpt>
      <trkpt lat="48.36639" lon="7.04271">
        <ele>657.8</ele>
        <time>2022-11-05T10:45:40Z</time>
      </trkpt>
      <trkpt lat="48.36638" lon="7.04273">
        <ele>658</ele>
        <time>2022-11-05T10:45:41Z</time>
      </trkpt>
      <trkpt lat="48.36635" lon="7.0428">
        <ele>658.4</ele>
        <time>2022-11-05T10:45:44Z</time>
      </trkpt>
      <trkpt lat="48.36632" lon="7.04285">
        <ele>659</ele>
        <time>2022-11-05T10:45:46Z</time>
      </trkpt>
      <trkpt lat="48.3663" lon="7.04287">
        <ele>659</ele>
        <time>2022-11-05T10:45:47Z</time>
      </trkpt>
      <trkpt lat="48.36624" lon="7.04295">
        <ele>660.2</ele>
        <time>2022-11-05T10:45:52Z</time>
      </trkpt>
      <trkpt lat="48.36623" lon="7.04297">
        <ele>660.4</ele>
        <time>2022-11-05T10:45:53Z</time>
      </trkpt>
      <trkpt lat="48.36614" lon="7.0431">
        <ele>661.2</ele>
        <time>2022-11-05T10:45:59Z</time>
      </trkpt>
      <trkpt lat="48.36605" lon="7.04321">
        <ele>662.4</ele>
        <time>2022-11-05T10:46:05Z</time>
      </trkpt>
      <trkpt lat="48.36604" lon="7.04323">
        <ele>662.4</ele>
        <time>2022-11-05T10:46:06Z</time>
      </trkpt>
      <trkpt lat="48.36597" lon="7.04331">
        <ele>663.6</ele>
        <time>2022-11-05T10:46:10Z</time>
      </trkpt>
      <trkpt lat="48.36593" lon="7.04336">
        <ele>663.8</ele>
        <time>2022-11-05T10:46:12Z</time>
      </trkpt>
      <trkpt lat="48.36589" lon="7.04342">
        <ele>664.8</ele>
        <time>2022-11-05T10:46:15Z</time>
      </trkpt>
      <trkpt lat="48.36585" lon="7.04347">
        <ele>665.4</ele>
        <time>2022-11-05T10:46:18Z</time>
      </trkpt>
      <trkpt lat="48.36569" lon="7.04368">
        <ele>665.6</ele>
        <time>2022-11-05T10:46:28Z</time>
      </trkpt>
      <trkpt lat="48.36562" lon="7.0438">
        <ele>666.2</ele>
        <time>2022-11-05T10:46:33Z</time>
      </trkpt>
      <trkpt lat="48.3655" lon="7.044">
        <ele>666.2</ele>
        <time>2022-11-05T10:46:42Z</time>
      </trkpt>
      <trkpt lat="48.36544" lon="7.04407">
        <ele>666.6</ele>
        <time>2022-11-05T10:46:46Z</time>
      </trkpt>
      <trkpt lat="48.36541" lon="7.0441">
        <ele>666.8</ele>
        <time>2022-11-05T10:46:48Z</time>
      </trkpt>
      <trkpt lat="48.36536" lon="7.04422">
        <ele>667</ele>
        <time>2022-11-05T10:46:52Z</time>
      </trkpt>
      <trkpt lat="48.36534" lon="7.04428">
        <ele>667</ele>
        <time>2022-11-05T10:46:54Z</time>
      </trkpt>
      <trkpt lat="48.3653" lon="7.04441">
        <ele>667.2</ele>
        <time>2022-11-05T10:46:58Z</time>
      </trkpt>
      <trkpt lat="48.36527" lon="7.04452">
        <ele>667.4</ele>
        <time>2022-11-05T10:47:01Z</time>
      </trkpt>
      <trkpt lat="48.36521" lon="7.04478">
        <ele>667.6</ele>
        <time>2022-11-05T10:47:07Z</time>
      </trkpt>
      <trkpt lat="48.3652" lon="7.04484">
        <ele>668</ele>
        <time>2022-11-05T10:47:09Z</time>
      </trkpt>
      <trkpt lat="48.36517" lon="7.04496">
        <ele>668.6</ele>
        <time>2022-11-05T10:47:13Z</time>
      </trkpt>
      <trkpt lat="48.36514" lon="7.04515">
        <ele>669</ele>
        <time>2022-11-05T10:47:17Z</time>
      </trkpt>
      <trkpt lat="48.36513" lon="7.04523">
        <ele>669.2</ele>
        <time>2022-11-05T10:47:19Z</time>
      </trkpt>
      <trkpt lat="48.3651" lon="7.04543">
        <ele>669.8</ele>
        <time>2022-11-05T10:47:25Z</time>
      </trkpt>
      <trkpt lat="48.36509" lon="7.04549">
        <ele>670</ele>
        <time>2022-11-05T10:47:27Z</time>
      </trkpt>
      <trkpt lat="48.36504" lon="7.04566">
        <ele>670.6</ele>
        <time>2022-11-05T10:47:33Z</time>
      </trkpt>
      <trkpt lat="48.36496" lon="7.0458">
        <ele>671.2</ele>
        <time>2022-11-05T10:50:40Z</time>
      </trkpt>
      <trkpt lat="48.36495" lon="7.04581">
        <ele>671.2</ele>
        <time>2022-11-05T10:50:45Z</time>
      </trkpt>
      <trkpt lat="48.36492" lon="7.04586">
        <ele>671.4</ele>
        <time>2022-11-05T10:50:48Z</time>
      </trkpt>
      <trkpt lat="48.3649" lon="7.0459">
        <ele>671.4</ele>
        <time>2022-11-05T10:50:50Z</time>
      </trkpt>
      <trkpt lat="48.36488" lon="7.04595">
        <ele>671.6</ele>
        <time>2022-11-05T10:50:52Z</time>
      </trkpt>
      <trkpt lat="48.36486" lon="7.04599">
        <ele>671.6</ele>
        <time>2022-11-05T10:50:54Z</time>
      </trkpt>
      <trkpt lat="48.36478" lon="7.04609">
        <ele>672.2</ele>
        <time>2022-11-05T10:50:59Z</time>
      </trkpt>
      <trkpt lat="48.36472" lon="7.04616">
        <ele>672.6</ele>
        <time>2022-11-05T10:51:03Z</time>
      </trkpt>
      <trkpt lat="48.36462" lon="7.04628">
        <ele>673</ele>
        <time>2022-11-05T10:51:09Z</time>
      </trkpt>
      <trkpt lat="48.3646" lon="7.04632">
        <ele>673.2</ele>
        <time>2022-11-05T10:51:11Z</time>
      </trkpt>
      <trkpt lat="48.36456" lon="7.04636">
        <ele>673.4</ele>
        <time>2022-11-05T10:51:13Z</time>
      </trkpt>
      <trkpt lat="48.36451" lon="7.04643">
        <ele>673.8</ele>
        <time>2022-11-05T10:51:16Z</time>
      </trkpt>
      <trkpt lat="48.36446" lon="7.04649">
        <ele>674.2</ele>
        <time>2022-11-05T10:51:19Z</time>
      </trkpt>
      <trkpt lat="48.36446" lon="7.04652">
        <ele>674.2</ele>
        <time>2022-11-05T10:51:21Z</time>
      </trkpt>
      <trkpt lat="48.36442" lon="7.0466">
        <ele>674.6</ele>
        <time>2022-11-05T10:51:25Z</time>
      </trkpt>
      <trkpt lat="48.36436" lon="7.0467">
        <ele>675</ele>
        <time>2022-11-05T10:51:30Z</time>
      </trkpt>
      <trkpt lat="48.36434" lon="7.04677">
        <ele>675.2</ele>
        <time>2022-11-05T10:51:33Z</time>
      </trkpt>
      <trkpt lat="48.36432" lon="7.04682">
        <ele>675.6</ele>
        <time>2022-11-05T10:51:36Z</time>
      </trkpt>
      <trkpt lat="48.3643" lon="7.04686">
        <ele>676</ele>
        <time>2022-11-05T10:51:39Z</time>
      </trkpt>
      <trkpt lat="48.36428" lon="7.04691">
        <ele>676.4</ele>
        <time>2022-11-05T10:51:42Z</time>
      </trkpt>
      <trkpt lat="48.36428" lon="7.04692">
        <ele>676.4</ele>
        <time>2022-11-05T10:51:43Z</time>
      </trkpt>
      <trkpt lat="48.36426" lon="7.04694">
        <ele>676.8</ele>
        <time>2022-11-05T10:51:45Z</time>
      </trkpt>
      <trkpt lat="48.36425" lon="7.04698">
        <ele>677.4</ele>
        <time>2022-11-05T10:51:48Z</time>
      </trkpt>
      <trkpt lat="48.36424" lon="7.04699">
        <ele>677.6</ele>
        <time>2022-11-05T10:51:49Z</time>
      </trkpt>
      <trkpt lat="48.36422" lon="7.04703">
        <ele>678.2</ele>
        <time>2022-11-05T10:51:52Z</time>
      </trkpt>
      <trkpt lat="48.3642" lon="7.04706">
        <ele>678.4</ele>
        <time>2022-11-05T10:51:54Z</time>
      </trkpt>
      <trkpt lat="48.36419" lon="7.04708">
        <ele>678.8</ele>
        <time>2022-11-05T10:51:56Z</time>
      </trkpt>
      <trkpt lat="48.36416" lon="7.04715">
        <ele>679.4</ele>
        <time>2022-11-05T10:52:00Z</time>
      </trkpt>
      <trkpt lat="48.36415" lon="7.04716">
        <ele>679.6</ele>
        <time>2022-11-05T10:52:01Z</time>
      </trkpt>
      <trkpt lat="48.36414" lon="7.04717">
        <ele>679.8</ele>
        <time>2022-11-05T10:52:02Z</time>
      </trkpt>
      <trkpt lat="48.36413" lon="7.04721">
        <ele>680.2</ele>
        <time>2022-11-05T10:52:06Z</time>
      </trkpt>
      <trkpt lat="48.36412" lon="7.04725">
        <ele>680.6</ele>
        <time>2022-11-05T10:52:08Z</time>
      </trkpt>
      <trkpt lat="48.36412" lon="7.04725">
        <ele>680.6</ele>
        <time>2022-11-05T10:52:09Z</time>
      </trkpt>
      <trkpt lat="48.36408" lon="7.04731">
        <ele>681</ele>
        <time>2022-11-05T10:52:11Z</time>
      </trkpt>
      <trkpt lat="48.36405" lon="7.04736">
        <ele>681.4</ele>
        <time>2022-11-05T10:52:15Z</time>
      </trkpt>
      <trkpt lat="48.36401" lon="7.04743">
        <ele>681.6</ele>
        <time>2022-11-05T10:52:18Z</time>
      </trkpt>
      <trkpt lat="48.364" lon="7.04746">
        <ele>681.6</ele>
        <time>2022-11-05T10:52:19Z</time>
      </trkpt>
      <trkpt lat="48.36392" lon="7.04765">
        <ele>682.2</ele>
        <time>2022-11-05T10:52:25Z</time>
      </trkpt>
      <trkpt lat="48.36387" lon="7.04776">
        <ele>682.8</ele>
        <time>2022-11-05T10:52:30Z</time>
      </trkpt>
      <trkpt lat="48.36386" lon="7.04778">
        <ele>682.8</ele>
        <time>2022-11-05T10:52:31Z</time>
      </trkpt>
      <trkpt lat="48.36383" lon="7.04784">
        <ele>683.2</ele>
        <time>2022-11-05T10:52:34Z</time>
      </trkpt>
      <trkpt lat="48.36379" lon="7.04789">
        <ele>683.4</ele>
        <time>2022-11-05T10:52:37Z</time>
      </trkpt>
      <trkpt lat="48.36377" lon="7.04795">
        <ele>683.8</ele>
        <time>2022-11-05T10:52:40Z</time>
      </trkpt>
      <trkpt lat="48.36372" lon="7.04806">
        <ele>684.8</ele>
        <time>2022-11-05T10:52:46Z</time>
      </trkpt>
      <trkpt lat="48.36367" lon="7.04819">
        <ele>686</ele>
        <time>2022-11-05T10:52:53Z</time>
      </trkpt>
      <trkpt lat="48.36362" lon="7.04832">
        <ele>686.8</ele>
        <time>2022-11-05T10:52:59Z</time>
      </trkpt>
      <trkpt lat="48.36362" lon="7.04834">
        <ele>686.8</ele>
        <time>2022-11-05T10:53:00Z</time>
      </trkpt>
      <trkpt lat="48.36362" lon="7.04837">
        <ele>687</ele>
        <time>2022-11-05T10:53:01Z</time>
      </trkpt>
      <trkpt lat="48.36362" lon="7.04839">
        <ele>687.2</ele>
        <time>2022-11-05T10:53:02Z</time>
      </trkpt>
      <trkpt lat="48.36361" lon="7.04844">
        <ele>687.4</ele>
        <time>2022-11-05T10:53:04Z</time>
      </trkpt>
      <trkpt lat="48.36361" lon="7.04849">
        <ele>687.6</ele>
        <time>2022-11-05T10:53:06Z</time>
      </trkpt>
      <trkpt lat="48.3636" lon="7.04859">
        <ele>688.2</ele>
        <time>2022-11-05T10:53:10Z</time>
      </trkpt>
      <trkpt lat="48.36359" lon="7.0487">
        <ele>688.8</ele>
        <time>2022-11-05T10:53:14Z</time>
      </trkpt>
      <trkpt lat="48.36359" lon="7.04876">
        <ele>689</ele>
        <time>2022-11-05T10:53:16Z</time>
      </trkpt>
      <trkpt lat="48.36357" lon="7.04888">
        <ele>689.4</ele>
        <time>2022-11-05T10:53:21Z</time>
      </trkpt>
      <trkpt lat="48.36357" lon="7.04893">
        <ele>689.4</ele>
        <time>2022-11-05T10:53:23Z</time>
      </trkpt>
      <trkpt lat="48.36356" lon="7.04905">
        <ele>689.8</ele>
        <time>2022-11-05T10:53:29Z</time>
      </trkpt>
      <trkpt lat="48.36355" lon="7.04915">
        <ele>690.4</ele>
        <time>2022-11-05T10:53:33Z</time>
      </trkpt>
      <trkpt lat="48.36355" lon="7.04917">
        <ele>690.6</ele>
        <time>2022-11-05T10:53:34Z</time>
      </trkpt>
      <trkpt lat="48.36355" lon="7.04922">
        <ele>690.6</ele>
        <time>2022-11-05T10:53:36Z</time>
      </trkpt>
      <trkpt lat="48.36353" lon="7.04936">
        <ele>691</ele>
        <time>2022-11-05T10:53:42Z</time>
      </trkpt>
      <trkpt lat="48.36351" lon="7.04951">
        <ele>691.4</ele>
        <time>2022-11-05T10:53:48Z</time>
      </trkpt>
      <trkpt lat="48.3635" lon="7.04953">
        <ele>691.4</ele>
        <time>2022-11-05T10:53:49Z</time>
      </trkpt>
      <trkpt lat="48.3635" lon="7.04956">
        <ele>691.4</ele>
        <time>2022-11-05T10:53:50Z</time>
      </trkpt>
      <trkpt lat="48.36349" lon="7.04966">
        <ele>692</ele>
        <time>2022-11-05T10:53:54Z</time>
      </trkpt>
      <trkpt lat="48.36348" lon="7.04969">
        <ele>692</ele>
        <time>2022-11-05T10:53:55Z</time>
      </trkpt>
      <trkpt lat="48.36346" lon="7.04975">
        <ele>692.6</ele>
        <time>2022-11-05T10:53:58Z</time>
      </trkpt>
      <trkpt lat="48.36343" lon="7.04985">
        <ele>692.8</ele>
        <time>2022-11-05T10:54:02Z</time>
      </trkpt>
      <trkpt lat="48.36342" lon="7.0499">
        <ele>693</ele>
        <time>2022-11-05T10:54:05Z</time>
      </trkpt>
      <trkpt lat="48.36343" lon="7.04991">
        <ele>693.2</ele>
        <time>2022-11-05T10:54:07Z</time>
      </trkpt>
      <trkpt lat="48.36343" lon="7.04991">
        <ele>693.4</ele>
        <time>2022-11-05T10:54:10Z</time>
      </trkpt>
      <trkpt lat="48.36342" lon="7.04993">
        <ele>693.4</ele>
        <time>2022-11-05T10:55:49Z</time>
      </trkpt>
      <trkpt lat="48.36342" lon="7.04995">
        <ele>693.4</ele>
        <time>2022-11-05T10:55:50Z</time>
      </trkpt>
      <trkpt lat="48.36342" lon="7.04998">
        <ele>693.4</ele>
        <time>2022-11-05T10:55:51Z</time>
      </trkpt>
      <trkpt lat="48.36342" lon="7.05001">
        <ele>693.6</ele>
        <time>2022-11-05T10:55:52Z</time>
      </trkpt>
      <trkpt lat="48.36337" lon="7.05014">
        <ele>694.2</ele>
        <time>2022-11-05T10:55:57Z</time>
      </trkpt>
      <trkpt lat="48.36334" lon="7.05028">
        <ele>694.8</ele>
        <time>2022-11-05T10:56:02Z</time>
      </trkpt>
      <trkpt lat="48.36333" lon="7.0503">
        <ele>694.6</ele>
        <time>2022-11-05T10:56:03Z</time>
      </trkpt>
      <trkpt lat="48.36332" lon="7.05035">
        <ele>694.8</ele>
        <time>2022-11-05T10:56:05Z</time>
      </trkpt>
      <trkpt lat="48.36328" lon="7.05047">
        <ele>695.2</ele>
        <time>2022-11-05T10:56:10Z</time>
      </trkpt>
      <trkpt lat="48.36326" lon="7.05048">
        <ele>695.6</ele>
        <time>2022-11-05T10:56:11Z</time>
      </trkpt>
      <trkpt lat="48.36322" lon="7.05054">
        <ele>696</ele>
        <time>2022-11-05T10:56:14Z</time>
      </trkpt>
      <trkpt lat="48.3632" lon="7.0506">
        <ele>696.2</ele>
        <time>2022-11-05T10:56:17Z</time>
      </trkpt>
      <trkpt lat="48.36318" lon="7.05065">
        <ele>696.4</ele>
        <time>2022-11-05T10:56:19Z</time>
      </trkpt>
      <trkpt lat="48.36314" lon="7.05072">
        <ele>696.8</ele>
        <time>2022-11-05T10:56:23Z</time>
      </trkpt>
      <trkpt lat="48.36311" lon="7.05077">
        <ele>697</ele>
        <time>2022-11-05T10:56:25Z</time>
      </trkpt>
      <trkpt lat="48.36307" lon="7.05083">
        <ele>697.4</ele>
        <time>2022-11-05T10:56:28Z</time>
      </trkpt>
      <trkpt lat="48.36303" lon="7.05089">
        <ele>697.6</ele>
        <time>2022-11-05T10:56:31Z</time>
      </trkpt>
      <trkpt lat="48.36297" lon="7.05099">
        <ele>698.2</ele>
        <time>2022-11-05T10:56:36Z</time>
      </trkpt>
      <trkpt lat="48.36294" lon="7.05104">
        <ele>698.4</ele>
        <time>2022-11-05T10:56:39Z</time>
      </trkpt>
      <trkpt lat="48.36286" lon="7.05115">
        <ele>699.2</ele>
        <time>2022-11-05T10:56:46Z</time>
      </trkpt>
      <trkpt lat="48.36283" lon="7.05118">
        <ele>699.6</ele>
        <time>2022-11-05T10:56:48Z</time>
      </trkpt>
      <trkpt lat="48.36276" lon="7.05127">
        <ele>700.2</ele>
        <time>2022-11-05T10:56:55Z</time>
      </trkpt>
      <trkpt lat="48.36274" lon="7.05129">
        <ele>700.4</ele>
        <time>2022-11-05T10:56:56Z</time>
      </trkpt>
      <trkpt lat="48.36266" lon="7.05138">
        <ele>701</ele>
        <time>2022-11-05T10:57:02Z</time>
      </trkpt>
      <trkpt lat="48.36264" lon="7.05141">
        <ele>701.4</ele>
        <time>2022-11-05T10:57:04Z</time>
      </trkpt>
      <trkpt lat="48.36261" lon="7.05145">
        <ele>701.4</ele>
        <time>2022-11-05T10:57:06Z</time>
      </trkpt>
      <trkpt lat="48.36258" lon="7.05149">
        <ele>701.6</ele>
        <time>2022-11-05T10:57:08Z</time>
      </trkpt>
      <trkpt lat="48.36246" lon="7.0516">
        <ele>702.4</ele>
        <time>2022-11-05T10:57:16Z</time>
      </trkpt>
      <trkpt lat="48.36244" lon="7.05161">
        <ele>702.4</ele>
        <time>2022-11-05T10:57:17Z</time>
      </trkpt>
      <trkpt lat="48.36236" lon="7.05171">
        <ele>703.2</ele>
        <time>2022-11-05T10:57:23Z</time>
      </trkpt>
      <trkpt lat="48.36232" lon="7.05176">
        <ele>703.6</ele>
        <time>2022-11-05T10:57:26Z</time>
      </trkpt>
      <trkpt lat="48.36226" lon="7.05184">
        <ele>704</ele>
        <time>2022-11-05T10:57:31Z</time>
      </trkpt>
      <trkpt lat="48.36221" lon="7.0519">
        <ele>704.6</ele>
        <time>2022-11-05T10:57:34Z</time>
      </trkpt>
      <trkpt lat="48.36217" lon="7.05196">
        <ele>705</ele>
        <time>2022-11-05T10:57:38Z</time>
      </trkpt>
      <trkpt lat="48.36207" lon="7.0521">
        <ele>705.8</ele>
        <time>2022-11-05T10:57:46Z</time>
      </trkpt>
      <trkpt lat="48.36205" lon="7.05211">
        <ele>705.8</ele>
        <time>2022-11-05T10:57:47Z</time>
      </trkpt>
      <trkpt lat="48.36197" lon="7.05218">
        <ele>706.4</ele>
        <time>2022-11-05T10:57:53Z</time>
      </trkpt>
      <trkpt lat="48.36192" lon="7.05225">
        <ele>706.8</ele>
        <time>2022-11-05T10:57:57Z</time>
      </trkpt>
      <trkpt lat="48.36191" lon="7.05226">
        <ele>707</ele>
        <time>2022-11-05T10:57:58Z</time>
      </trkpt>
      <trkpt lat="48.36188" lon="7.05229">
        <ele>707.2</ele>
        <time>2022-11-05T10:58:00Z</time>
      </trkpt>
      <trkpt lat="48.36183" lon="7.05236">
        <ele>707.8</ele>
        <time>2022-11-05T10:58:04Z</time>
      </trkpt>
      <trkpt lat="48.36182" lon="7.05238">
        <ele>708</ele>
        <time>2022-11-05T10:58:05Z</time>
      </trkpt>
      <trkpt lat="48.36182" lon="7.05239">
        <ele>708</ele>
        <time>2022-11-05T10:58:06Z</time>
      </trkpt>
      <trkpt lat="48.36177" lon="7.05246">
        <ele>708.8</ele>
        <time>2022-11-05T10:58:11Z</time>
      </trkpt>
      <trkpt lat="48.36172" lon="7.05253">
        <ele>709.4</ele>
        <time>2022-11-05T10:58:16Z</time>
      </trkpt>
      <trkpt lat="48.36169" lon="7.0526">
        <ele>710</ele>
        <time>2022-11-05T10:58:20Z</time>
      </trkpt>
      <trkpt lat="48.36167" lon="7.05263">
        <ele>710.4</ele>
        <time>2022-11-05T10:58:22Z</time>
      </trkpt>
      <trkpt lat="48.36167" lon="7.05266">
        <ele>710.6</ele>
        <time>2022-11-05T10:58:23Z</time>
      </trkpt>
      <trkpt lat="48.36164" lon="7.05275">
        <ele>711.2</ele>
        <time>2022-11-05T10:58:27Z</time>
      </trkpt>
      <trkpt lat="48.36163" lon="7.05277">
        <ele>711.4</ele>
        <time>2022-11-05T10:58:28Z</time>
      </trkpt>
      <trkpt lat="48.36158" lon="7.05284">
        <ele>711.8</ele>
        <time>2022-11-05T10:58:32Z</time>
      </trkpt>
      <trkpt lat="48.36152" lon="7.05297">
        <ele>712.2</ele>
        <time>2022-11-05T10:58:38Z</time>
      </trkpt>
      <trkpt lat="48.36152" lon="7.05299">
        <ele>712.4</ele>
        <time>2022-11-05T10:58:39Z</time>
      </trkpt>
      <trkpt lat="48.36151" lon="7.05302">
        <ele>712.6</ele>
        <time>2022-11-05T10:58:40Z</time>
      </trkpt>
      <trkpt lat="48.36146" lon="7.05313">
        <ele>713</ele>
        <time>2022-11-05T10:58:45Z</time>
      </trkpt>
      <trkpt lat="48.36144" lon="7.0532">
        <ele>713.4</ele>
        <time>2022-11-05T10:58:48Z</time>
      </trkpt>
      <trkpt lat="48.36138" lon="7.05329">
        <ele>714</ele>
        <time>2022-11-05T10:58:53Z</time>
      </trkpt>
      <trkpt lat="48.36133" lon="7.05342">
        <ele>714.6</ele>
        <time>2022-11-05T10:59:00Z</time>
      </trkpt>
      <trkpt lat="48.36133" lon="7.05344">
        <ele>714.8</ele>
        <time>2022-11-05T10:59:01Z</time>
      </trkpt>
      <trkpt lat="48.36126" lon="7.05358">
        <ele>715.6</ele>
        <time>2022-11-05T10:59:08Z</time>
      </trkpt>
      <trkpt lat="48.36126" lon="7.05359">
        <ele>715.6</ele>
        <time>2022-11-05T10:59:09Z</time>
      </trkpt>
      <trkpt lat="48.36119" lon="7.05373">
        <ele>716.6</ele>
        <time>2022-11-05T10:59:16Z</time>
      </trkpt>
      <trkpt lat="48.36112" lon="7.05384">
        <ele>717.6</ele>
        <time>2022-11-05T10:59:23Z</time>
      </trkpt>
      <trkpt lat="48.36112" lon="7.05386">
        <ele>717.8</ele>
        <time>2022-11-05T10:59:24Z</time>
      </trkpt>
      <trkpt lat="48.36111" lon="7.05387">
        <ele>717.8</ele>
        <time>2022-11-05T10:59:25Z</time>
      </trkpt>
      <trkpt lat="48.36105" lon="7.05396">
        <ele>718.4</ele>
        <time>2022-11-05T10:59:30Z</time>
      </trkpt>
      <trkpt lat="48.36103" lon="7.05399">
        <ele>718.8</ele>
        <time>2022-11-05T10:59:32Z</time>
      </trkpt>
      <trkpt lat="48.36097" lon="7.05406">
        <ele>719.6</ele>
        <time>2022-11-05T10:59:37Z</time>
      </trkpt>
      <trkpt lat="48.36092" lon="7.05412">
        <ele>720</ele>
        <time>2022-11-05T10:59:41Z</time>
      </trkpt>
      <trkpt lat="48.36085" lon="7.0542">
        <ele>720.8</ele>
        <time>2022-11-05T10:59:47Z</time>
      </trkpt>
      <trkpt lat="48.36082" lon="7.05424">
        <ele>721</ele>
        <time>2022-11-05T10:59:50Z</time>
      </trkpt>
      <trkpt lat="48.36075" lon="7.05433">
        <ele>721.8</ele>
        <time>2022-11-05T10:59:56Z</time>
      </trkpt>
      <trkpt lat="48.36069" lon="7.05439">
        <ele>722.2</ele>
        <time>2022-11-05T11:00:01Z</time>
      </trkpt>
      <trkpt lat="48.36067" lon="7.0544">
        <ele>722.2</ele>
        <time>2022-11-05T11:00:02Z</time>
      </trkpt>
      <trkpt lat="48.36056" lon="7.05451">
        <ele>723.4</ele>
        <time>2022-11-05T11:00:11Z</time>
      </trkpt>
      <trkpt lat="48.36052" lon="7.05453">
        <ele>723.6</ele>
        <time>2022-11-05T11:00:14Z</time>
      </trkpt>
      <trkpt lat="48.36046" lon="7.05456">
        <ele>724.2</ele>
        <time>2022-11-05T11:00:18Z</time>
      </trkpt>
      <trkpt lat="48.36045" lon="7.05457">
        <ele>724.4</ele>
        <time>2022-11-05T11:00:19Z</time>
      </trkpt>
      <trkpt lat="48.36034" lon="7.05466">
        <ele>725.6</ele>
        <time>2022-11-05T11:00:27Z</time>
      </trkpt>
      <trkpt lat="48.36026" lon="7.05472">
        <ele>726.2</ele>
        <time>2022-11-05T11:00:34Z</time>
      </trkpt>
      <trkpt lat="48.36019" lon="7.05477">
        <ele>726.6</ele>
        <time>2022-11-05T11:00:39Z</time>
      </trkpt>
      <trkpt lat="48.36011" lon="7.05484">
        <ele>727.2</ele>
        <time>2022-11-05T11:00:44Z</time>
      </trkpt>
      <trkpt lat="48.36005" lon="7.05488">
        <ele>727.6</ele>
        <time>2022-11-05T11:00:48Z</time>
      </trkpt>
      <trkpt lat="48.35994" lon="7.05496">
        <ele>728.4</ele>
        <time>2022-11-05T11:00:55Z</time>
      </trkpt>
      <trkpt lat="48.3599" lon="7.05499">
        <ele>728.8</ele>
        <time>2022-11-05T11:00:58Z</time>
      </trkpt>
      <trkpt lat="48.35981" lon="7.05506">
        <ele>729.6</ele>
        <time>2022-11-05T11:01:04Z</time>
      </trkpt>
      <trkpt lat="48.35976" lon="7.05512">
        <ele>730</ele>
        <time>2022-11-05T11:01:08Z</time>
      </trkpt>
      <trkpt lat="48.35973" lon="7.05514">
        <ele>730.4</ele>
        <time>2022-11-05T11:01:10Z</time>
      </trkpt>
      <trkpt lat="48.3597" lon="7.05516">
        <ele>730.8</ele>
        <time>2022-11-05T11:01:12Z</time>
      </trkpt>
      <trkpt lat="48.35968" lon="7.05518">
        <ele>731</ele>
        <time>2022-11-05T11:01:14Z</time>
      </trkpt>
      <trkpt lat="48.35967" lon="7.0552">
        <ele>731.2</ele>
        <time>2022-11-05T11:01:15Z</time>
      </trkpt>
      <trkpt lat="48.3596" lon="7.05523">
        <ele>732</ele>
        <time>2022-11-05T11:01:20Z</time>
      </trkpt>
      <trkpt lat="48.35959" lon="7.05524">
        <ele>732.2</ele>
        <time>2022-11-05T11:01:21Z</time>
      </trkpt>
      <trkpt lat="48.35958" lon="7.05525">
        <ele>732.4</ele>
        <time>2022-11-05T11:01:22Z</time>
      </trkpt>
      <trkpt lat="48.35955" lon="7.05528">
        <ele>732.8</ele>
        <time>2022-11-05T11:01:25Z</time>
      </trkpt>
      <trkpt lat="48.35951" lon="7.05532">
        <ele>733.2</ele>
        <time>2022-11-05T11:01:28Z</time>
      </trkpt>
      <trkpt lat="48.35949" lon="7.05534">
        <ele>733.6</ele>
        <time>2022-11-05T11:01:30Z</time>
      </trkpt>
      <trkpt lat="48.35947" lon="7.05536">
        <ele>733.8</ele>
        <time>2022-11-05T11:01:32Z</time>
      </trkpt>
      <trkpt lat="48.35944" lon="7.05539">
        <ele>734.2</ele>
        <time>2022-11-05T11:01:34Z</time>
      </trkpt>
      <trkpt lat="48.35942" lon="7.05541">
        <ele>734.4</ele>
        <time>2022-11-05T11:01:36Z</time>
      </trkpt>
      <trkpt lat="48.35937" lon="7.05543">
        <ele>734.8</ele>
        <time>2022-11-05T11:01:40Z</time>
      </trkpt>
      <trkpt lat="48.35935" lon="7.05547">
        <ele>735.4</ele>
        <time>2022-11-05T11:01:42Z</time>
      </trkpt>
      <trkpt lat="48.35928" lon="7.05554">
        <ele>736.2</ele>
        <time>2022-11-05T11:01:46Z</time>
      </trkpt>
      <trkpt lat="48.35925" lon="7.05557">
        <ele>736.6</ele>
        <time>2022-11-05T11:01:48Z</time>
      </trkpt>
      <trkpt lat="48.35922" lon="7.05561">
        <ele>737.2</ele>
        <time>2022-11-05T11:01:50Z</time>
      </trkpt>
      <trkpt lat="48.3592" lon="7.05565">
        <ele>737.4</ele>
        <time>2022-11-05T11:01:52Z</time>
      </trkpt>
      <trkpt lat="48.35917" lon="7.05568">
        <ele>737.6</ele>
        <time>2022-11-05T11:01:53Z</time>
      </trkpt>
      <trkpt lat="48.35911" lon="7.05576">
        <ele>738.6</ele>
        <time>2022-11-05T11:01:59Z</time>
      </trkpt>
      <trkpt lat="48.3591" lon="7.05578">
        <ele>738.6</ele>
        <time>2022-11-05T11:02:00Z</time>
      </trkpt>
      <trkpt lat="48.35895" lon="7.05591">
        <ele>739.8</ele>
        <time>2022-11-05T11:02:11Z</time>
      </trkpt>
      <trkpt lat="48.35894" lon="7.05593">
        <ele>739.8</ele>
        <time>2022-11-05T11:02:12Z</time>
      </trkpt>
      <trkpt lat="48.35884" lon="7.056">
        <ele>740.8</ele>
        <time>2022-11-05T11:02:19Z</time>
      </trkpt>
      <trkpt lat="48.35879" lon="7.05602">
        <ele>741</ele>
        <time>2022-11-05T11:02:22Z</time>
      </trkpt>
      <trkpt lat="48.35868" lon="7.05612">
        <ele>742</ele>
        <time>2022-11-05T11:02:29Z</time>
      </trkpt>
      <trkpt lat="48.35856" lon="7.05623">
        <ele>743.2</ele>
        <time>2022-11-05T11:02:38Z</time>
      </trkpt>
      <trkpt lat="48.35843" lon="7.05638">
        <ele>744</ele>
        <time>2022-11-05T11:02:47Z</time>
      </trkpt>
      <trkpt lat="48.35838" lon="7.05645">
        <ele>744.4</ele>
        <time>2022-11-05T11:02:51Z</time>
      </trkpt>
      <trkpt lat="48.35831" lon="7.05652">
        <ele>744.8</ele>
        <time>2022-11-05T11:02:56Z</time>
      </trkpt>
      <trkpt lat="48.35821" lon="7.05667">
        <ele>745.2</ele>
        <time>2022-11-05T11:03:04Z</time>
      </trkpt>
      <trkpt lat="48.35819" lon="7.05669">
        <ele>745.4</ele>
        <time>2022-11-05T11:03:05Z</time>
      </trkpt>
      <trkpt lat="48.35818" lon="7.05672">
        <ele>745.4</ele>
        <time>2022-11-05T11:03:06Z</time>
      </trkpt>
      <trkpt lat="48.35813" lon="7.05683">
        <ele>745.6</ele>
        <time>2022-11-05T11:03:10Z</time>
      </trkpt>
      <trkpt lat="48.35811" lon="7.05685">
        <ele>745.6</ele>
        <time>2022-11-05T11:03:11Z</time>
      </trkpt>
      <trkpt lat="48.35807" lon="7.05694">
        <ele>745.8</ele>
        <time>2022-11-05T11:03:14Z</time>
      </trkpt>
      <trkpt lat="48.35796" lon="7.05719">
        <ele>746.4</ele>
        <time>2022-11-05T11:03:24Z</time>
      </trkpt>
      <trkpt lat="48.35794" lon="7.05722">
        <ele>746.4</ele>
        <time>2022-11-05T11:03:25Z</time>
      </trkpt>
      <trkpt lat="48.35788" lon="7.05739">
        <ele>747.2</ele>
        <time>2022-11-05T11:03:32Z</time>
      </trkpt>
      <trkpt lat="48.35783" lon="7.05747">
        <ele>747.6</ele>
        <time>2022-11-05T11:03:36Z</time>
      </trkpt>
      <trkpt lat="48.35777" lon="7.05756">
        <ele>748.2</ele>
        <time>2022-11-05T11:03:40Z</time>
      </trkpt>
      <trkpt lat="48.35776" lon="7.05758">
        <ele>748.2</ele>
        <time>2022-11-05T11:03:41Z</time>
      </trkpt>
      <trkpt lat="48.35772" lon="7.05766">
        <ele>748.6</ele>
        <time>2022-11-05T11:03:45Z</time>
      </trkpt>
      <trkpt lat="48.3577" lon="7.05768">
        <ele>748.8</ele>
        <time>2022-11-05T11:03:46Z</time>
      </trkpt>
      <trkpt lat="48.35765" lon="7.05774">
        <ele>749.6</ele>
        <time>2022-11-05T11:03:50Z</time>
      </trkpt>
      <trkpt lat="48.35764" lon="7.05776">
        <ele>749.6</ele>
        <time>2022-11-05T11:03:51Z</time>
      </trkpt>
      <trkpt lat="48.35763" lon="7.05777">
        <ele>750</ele>
        <time>2022-11-05T11:03:52Z</time>
      </trkpt>
      <trkpt lat="48.35754" lon="7.05787">
        <ele>751</ele>
        <time>2022-11-05T11:03:59Z</time>
      </trkpt>
      <trkpt lat="48.35751" lon="7.05789">
        <ele>751.4</ele>
        <time>2022-11-05T11:04:01Z</time>
      </trkpt>
      <trkpt lat="48.35747" lon="7.05791">
        <ele>751.8</ele>
        <time>2022-11-05T11:04:04Z</time>
      </trkpt>
      <trkpt lat="48.35745" lon="7.05792">
        <ele>752</ele>
        <time>2022-11-05T11:04:05Z</time>
      </trkpt>
      <trkpt lat="48.35743" lon="7.05793">
        <ele>752</ele>
        <time>2022-11-05T11:04:06Z</time>
      </trkpt>
      <trkpt lat="48.35731" lon="7.058">
        <ele>753.2</ele>
        <time>2022-11-05T11:04:13Z</time>
      </trkpt>
      <trkpt lat="48.35726" lon="7.05803">
        <ele>753.6</ele>
        <time>2022-11-05T11:04:16Z</time>
      </trkpt>
      <trkpt lat="48.35714" lon="7.05812">
        <ele>754.4</ele>
        <time>2022-11-05T11:04:23Z</time>
      </trkpt>
      <trkpt lat="48.35711" lon="7.05814">
        <ele>754.6</ele>
        <time>2022-11-05T11:04:25Z</time>
      </trkpt>
      <trkpt lat="48.357" lon="7.05821">
        <ele>755.4</ele>
        <time>2022-11-05T11:04:31Z</time>
      </trkpt>
      <trkpt lat="48.35698" lon="7.05822">
        <ele>755.6</ele>
        <time>2022-11-05T11:04:32Z</time>
      </trkpt>
      <trkpt lat="48.35688" lon="7.0583">
        <ele>756.2</ele>
        <time>2022-11-05T11:04:38Z</time>
      </trkpt>
      <trkpt lat="48.35684" lon="7.05834">
        <ele>756.8</ele>
        <time>2022-11-05T11:04:41Z</time>
      </trkpt>
      <trkpt lat="48.35677" lon="7.0584">
        <ele>757.2</ele>
        <time>2022-11-05T11:04:46Z</time>
      </trkpt>
      <trkpt lat="48.35671" lon="7.05848">
        <ele>757.6</ele>
        <time>2022-11-05T11:04:51Z</time>
      </trkpt>
      <trkpt lat="48.35669" lon="7.05851">
        <ele>757.6</ele>
        <time>2022-11-05T11:04:52Z</time>
      </trkpt>
      <trkpt lat="48.35667" lon="7.05853">
        <ele>757.8</ele>
        <time>2022-11-05T11:04:53Z</time>
      </trkpt>
      <trkpt lat="48.35658" lon="7.05864">
        <ele>758.4</ele>
        <time>2022-11-05T11:04:59Z</time>
      </trkpt>
      <trkpt lat="48.35655" lon="7.0587">
        <ele>758.6</ele>
        <time>2022-11-05T11:05:02Z</time>
      </trkpt>
      <trkpt lat="48.35653" lon="7.05871">
        <ele>758.8</ele>
        <time>2022-11-05T11:05:03Z</time>
      </trkpt>
      <trkpt lat="48.35649" lon="7.05878">
        <ele>759.2</ele>
        <time>2022-11-05T11:05:06Z</time>
      </trkpt>
      <trkpt lat="48.3564" lon="7.05887">
        <ele>759.8</ele>
        <time>2022-11-05T11:05:11Z</time>
      </trkpt>
      <trkpt lat="48.35639" lon="7.05892">
        <ele>760.4</ele>
        <time>2022-11-05T11:05:14Z</time>
      </trkpt>
      <trkpt lat="48.35638" lon="7.05893">
        <ele>760.6</ele>
        <time>2022-11-05T11:05:15Z</time>
      </trkpt>
      <trkpt lat="48.35633" lon="7.059">
        <ele>761</ele>
        <time>2022-11-05T11:05:19Z</time>
      </trkpt>
      <trkpt lat="48.35629" lon="7.05906">
        <ele>761.6</ele>
        <time>2022-11-05T11:05:22Z</time>
      </trkpt>
      <trkpt lat="48.35628" lon="7.05907">
        <ele>761.6</ele>
        <time>2022-11-05T11:05:23Z</time>
      </trkpt>
      <trkpt lat="48.35627" lon="7.0591">
        <ele>762</ele>
        <time>2022-11-05T11:05:25Z</time>
      </trkpt>
      <trkpt lat="48.35624" lon="7.05914">
        <ele>762.2</ele>
        <time>2022-11-05T11:05:27Z</time>
      </trkpt>
      <trkpt lat="48.35616" lon="7.05926">
        <ele>762.8</ele>
        <time>2022-11-05T11:05:35Z</time>
      </trkpt>
      <trkpt lat="48.35611" lon="7.05934">
        <ele>763.4</ele>
        <time>2022-11-05T11:05:40Z</time>
      </trkpt>
      <trkpt lat="48.35607" lon="7.05942">
        <ele>763.8</ele>
        <time>2022-11-05T11:05:43Z</time>
      </trkpt>
      <trkpt lat="48.35599" lon="7.05954">
        <ele>764.6</ele>
        <time>2022-11-05T11:05:50Z</time>
      </trkpt>
      <trkpt lat="48.35597" lon="7.05958">
        <ele>765</ele>
        <time>2022-11-05T11:05:52Z</time>
      </trkpt>
      <trkpt lat="48.3559" lon="7.05972">
        <ele>765.6</ele>
        <time>2022-11-05T11:05:59Z</time>
      </trkpt>
      <trkpt lat="48.35588" lon="7.05975">
        <ele>766</ele>
        <time>2022-11-05T11:06:01Z</time>
      </trkpt>
      <trkpt lat="48.35579" lon="7.05989">
        <ele>767</ele>
        <time>2022-11-05T11:06:09Z</time>
      </trkpt>
      <trkpt lat="48.3557" lon="7.05999">
        <ele>768.2</ele>
        <time>2022-11-05T11:06:16Z</time>
      </trkpt>
      <trkpt lat="48.35569" lon="7.06001">
        <ele>768.4</ele>
        <time>2022-11-05T11:06:17Z</time>
      </trkpt>
      <trkpt lat="48.35562" lon="7.06011">
        <ele>769.2</ele>
        <time>2022-11-05T11:06:23Z</time>
      </trkpt>
      <trkpt lat="48.35561" lon="7.06013">
        <ele>769.4</ele>
        <time>2022-11-05T11:06:24Z</time>
      </trkpt>
      <trkpt lat="48.35556" lon="7.06018">
        <ele>770.4</ele>
        <time>2022-11-05T11:06:28Z</time>
      </trkpt>
      <trkpt lat="48.3555" lon="7.06023">
        <ele>771</ele>
        <time>2022-11-05T11:06:32Z</time>
      </trkpt>
      <trkpt lat="48.35547" lon="7.06026">
        <ele>771.6</ele>
        <time>2022-11-05T11:06:35Z</time>
      </trkpt>
      <trkpt lat="48.35539" lon="7.06033">
        <ele>772.4</ele>
        <time>2022-11-05T11:06:41Z</time>
      </trkpt>
      <trkpt lat="48.35538" lon="7.06034">
        <ele>772.6</ele>
        <time>2022-11-05T11:06:42Z</time>
      </trkpt>
      <trkpt lat="48.35531" lon="7.06038">
        <ele>773.6</ele>
        <time>2022-11-05T11:06:47Z</time>
      </trkpt>
      <trkpt lat="48.35526" lon="7.06041">
        <ele>774.2</ele>
        <time>2022-11-05T11:06:50Z</time>
      </trkpt>
      <trkpt lat="48.3552" lon="7.06043">
        <ele>774.8</ele>
        <time>2022-11-05T11:06:53Z</time>
      </trkpt>
      <trkpt lat="48.35512" lon="7.06044">
        <ele>776</ele>
        <time>2022-11-05T11:06:59Z</time>
      </trkpt>
      <trkpt lat="48.35508" lon="7.06046">
        <ele>776</ele>
        <time>2022-11-05T11:07:00Z</time>
      </trkpt>
      <trkpt lat="48.35496" lon="7.06051">
        <ele>777</ele>
        <time>2022-11-05T11:07:08Z</time>
      </trkpt>
      <trkpt lat="48.35492" lon="7.06053">
        <ele>777.2</ele>
        <time>2022-11-05T11:07:10Z</time>
      </trkpt>
      <trkpt lat="48.35481" lon="7.06062">
        <ele>777.8</ele>
        <time>2022-11-05T11:07:16Z</time>
      </trkpt>
      <trkpt lat="48.35479" lon="7.06063">
        <ele>778</ele>
        <time>2022-11-05T11:07:18Z</time>
      </trkpt>
      <trkpt lat="48.3547" lon="7.06074">
        <ele>778.8</ele>
        <time>2022-11-05T11:07:24Z</time>
      </trkpt>
      <trkpt lat="48.35467" lon="7.06079">
        <ele>778.8</ele>
        <time>2022-11-05T11:07:25Z</time>
      </trkpt>
      <trkpt lat="48.3546" lon="7.061">
        <ele>779.4</ele>
        <time>2022-11-05T11:07:34Z</time>
      </trkpt>
      <trkpt lat="48.35456" lon="7.06113">
        <ele>780</ele>
        <time>2022-11-05T11:07:39Z</time>
      </trkpt>
      <trkpt lat="48.35454" lon="7.06118">
        <ele>780.2</ele>
        <time>2022-11-05T11:07:41Z</time>
      </trkpt>
      <trkpt lat="48.35452" lon="7.06125">
        <ele>780.4</ele>
        <time>2022-11-05T11:07:43Z</time>
      </trkpt>
      <trkpt lat="48.35451" lon="7.0613">
        <ele>780.6</ele>
        <time>2022-11-05T11:07:46Z</time>
      </trkpt>
      <trkpt lat="48.3545" lon="7.06138">
        <ele>781</ele>
        <time>2022-11-05T11:07:49Z</time>
      </trkpt>
      <trkpt lat="48.35448" lon="7.06162">
        <ele>782.2</ele>
        <time>2022-11-05T11:07:56Z</time>
      </trkpt>
      <trkpt lat="48.35447" lon="7.06173">
        <ele>782.4</ele>
        <time>2022-11-05T11:07:58Z</time>
      </trkpt>
      <trkpt lat="48.35448" lon="7.06183">
        <ele>783</ele>
        <time>2022-11-05T11:08:01Z</time>
      </trkpt>
      <trkpt lat="48.35448" lon="7.06187">
        <ele>783</ele>
        <time>2022-11-05T11:08:02Z</time>
      </trkpt>
      <trkpt lat="48.35448" lon="7.06192">
        <ele>783</ele>
        <time>2022-11-05T11:08:03Z</time>
      </trkpt>
      <trkpt lat="48.35449" lon="7.06195">
        <ele>783</ele>
        <time>2022-11-05T11:08:04Z</time>
      </trkpt>
      <trkpt lat="48.3545" lon="7.06217">
        <ele>784</ele>
        <time>2022-11-05T11:08:09Z</time>
      </trkpt>
      <trkpt lat="48.35451" lon="7.06221">
        <ele>784</ele>
        <time>2022-11-05T11:08:10Z</time>
      </trkpt>
      <trkpt lat="48.35455" lon="7.06236">
        <ele>784.8</ele>
        <time>2022-11-05T11:08:14Z</time>
      </trkpt>
      <trkpt lat="48.35456" lon="7.06239">
        <ele>785</ele>
        <time>2022-11-05T11:08:15Z</time>
      </trkpt>
      <trkpt lat="48.35456" lon="7.06242">
        <ele>785.8</ele>
        <time>2022-11-05T11:08:16Z</time>
      </trkpt>
      <trkpt lat="48.3546" lon="7.06255">
        <ele>786.2</ele>
        <time>2022-11-05T11:08:20Z</time>
      </trkpt>
      <trkpt lat="48.35464" lon="7.06267">
        <ele>786.8</ele>
        <time>2022-11-05T11:08:24Z</time>
      </trkpt>
      <trkpt lat="48.35467" lon="7.06278">
        <ele>787.2</ele>
        <time>2022-11-05T11:08:28Z</time>
      </trkpt>
      <trkpt lat="48.35469" lon="7.06287">
        <ele>788</ele>
        <time>2022-11-05T11:08:32Z</time>
      </trkpt>
      <trkpt lat="48.35471" lon="7.06299">
        <ele>788.4</ele>
        <time>2022-11-05T11:08:37Z</time>
      </trkpt>
      <trkpt lat="48.35475" lon="7.06311">
        <ele>789</ele>
        <time>2022-11-05T11:08:42Z</time>
      </trkpt>
      <trkpt lat="48.35476" lon="7.06317">
        <ele>789.2</ele>
        <time>2022-11-05T11:08:44Z</time>
      </trkpt>
      <trkpt lat="48.35478" lon="7.06328">
        <ele>789.6</ele>
        <time>2022-11-05T11:08:48Z</time>
      </trkpt>
      <trkpt lat="48.35478" lon="7.06333">
        <ele>789.8</ele>
        <time>2022-11-05T11:08:51Z</time>
      </trkpt>
      <trkpt lat="48.3548" lon="7.06339">
        <ele>790</ele>
        <time>2022-11-05T11:08:52Z</time>
      </trkpt>
      <trkpt lat="48.35485" lon="7.06358">
        <ele>791</ele>
        <time>2022-11-05T11:08:59Z</time>
      </trkpt>
      <trkpt lat="48.35486" lon="7.06361">
        <ele>791.2</ele>
        <time>2022-11-05T11:09:00Z</time>
      </trkpt>
      <trkpt lat="48.35494" lon="7.06384">
        <ele>791.6</ele>
        <time>2022-11-05T11:09:08Z</time>
      </trkpt>
      <trkpt lat="48.35502" lon="7.06407">
        <ele>791.8</ele>
        <time>2022-11-05T11:09:15Z</time>
      </trkpt>
      <trkpt lat="48.35506" lon="7.06417">
        <ele>792.2</ele>
        <time>2022-11-05T11:09:18Z</time>
      </trkpt>
      <trkpt lat="48.35508" lon="7.06425">
        <ele>792.2</ele>
        <time>2022-11-05T11:09:20Z</time>
      </trkpt>
      <trkpt lat="48.35509" lon="7.06435">
        <ele>792.4</ele>
        <time>2022-11-05T11:09:22Z</time>
      </trkpt>
      <trkpt lat="48.35515" lon="7.06461">
        <ele>792.4</ele>
        <time>2022-11-05T11:09:27Z</time>
      </trkpt>
      <trkpt lat="48.35515" lon="7.06465">
        <ele>792.4</ele>
        <time>2022-11-05T11:09:28Z</time>
      </trkpt>
      <trkpt lat="48.35515" lon="7.06476">
        <ele>792.2</ele>
        <time>2022-11-05T11:09:30Z</time>
      </trkpt>
      <trkpt lat="48.35514" lon="7.06481">
        <ele>792</ele>
        <time>2022-11-05T11:09:31Z</time>
      </trkpt>
      <trkpt lat="48.35513" lon="7.06487">
        <ele>792</ele>
        <time>2022-11-05T11:09:32Z</time>
      </trkpt>
      <trkpt lat="48.35514" lon="7.06505">
        <ele>792</ele>
        <time>2022-11-05T11:09:35Z</time>
      </trkpt>
      <trkpt lat="48.35513" lon="7.06515">
        <ele>792</ele>
        <time>2022-11-05T11:09:37Z</time>
      </trkpt>
      <trkpt lat="48.35512" lon="7.06519">
        <ele>792</ele>
        <time>2022-11-05T11:09:38Z</time>
      </trkpt>
      <trkpt lat="48.35509" lon="7.06527">
        <ele>792</ele>
        <time>2022-11-05T11:09:40Z</time>
      </trkpt>
      <trkpt lat="48.35503" lon="7.06544">
        <ele>792</ele>
        <time>2022-11-05T11:09:42Z</time>
      </trkpt>
      <trkpt lat="48.35503" lon="7.0656">
        <ele>791.8</ele>
        <time>2022-11-05T11:09:44Z</time>
      </trkpt>
      <trkpt lat="48.35497" lon="7.06573">
        <ele>791.8</ele>
        <time>2022-11-05T11:09:46Z</time>
      </trkpt>
      <trkpt lat="48.35494" lon="7.06583">
        <ele>791.8</ele>
        <time>2022-11-05T11:09:48Z</time>
      </trkpt>
      <trkpt lat="48.35492" lon="7.06595">
        <ele>791.8</ele>
        <time>2022-11-05T11:09:50Z</time>
      </trkpt>
      <trkpt lat="48.35482" lon="7.06626">
        <ele>791.6</ele>
        <time>2022-11-05T11:09:54Z</time>
      </trkpt>
      <trkpt lat="48.35479" lon="7.06647">
        <ele>791.2</ele>
        <time>2022-11-05T11:09:57Z</time>
      </trkpt>
      <trkpt lat="48.35479" lon="7.06661">
        <ele>791</ele>
        <time>2022-11-05T11:09:59Z</time>
      </trkpt>
      <trkpt lat="48.35478" lon="7.06671">
        <ele>790.8</ele>
        <time>2022-11-05T11:10:00Z</time>
      </trkpt>
      <trkpt lat="48.35476" lon="7.06677">
        <ele>790.8</ele>
        <time>2022-11-05T11:10:01Z</time>
      </trkpt>
      <trkpt lat="48.35473" lon="7.06691">
        <ele>790.4</ele>
        <time>2022-11-05T11:10:03Z</time>
      </trkpt>
      <trkpt lat="48.35473" lon="7.06699">
        <ele>790.4</ele>
        <time>2022-11-05T11:10:04Z</time>
      </trkpt>
      <trkpt lat="48.35473" lon="7.06721">
        <ele>790.2</ele>
        <time>2022-11-05T11:10:06Z</time>
      </trkpt>
      <trkpt lat="48.35474" lon="7.06751">
        <ele>790</ele>
        <time>2022-11-05T11:10:08Z</time>
      </trkpt>
      <trkpt lat="48.35474" lon="7.06769">
        <ele>790</ele>
        <time>2022-11-05T11:10:09Z</time>
      </trkpt>
      <trkpt lat="48.35473" lon="7.06782">
        <ele>790</ele>
        <time>2022-11-05T11:10:10Z</time>
      </trkpt>
      <trkpt lat="48.35474" lon="7.06805">
        <ele>789.8</ele>
        <time>2022-11-05T11:10:12Z</time>
      </trkpt>
      <trkpt lat="48.35475" lon="7.06815">
        <ele>789.6</ele>
        <time>2022-11-05T11:10:13Z</time>
      </trkpt>
      <trkpt lat="48.35477" lon="7.06861">
        <ele>789.2</ele>
        <time>2022-11-05T11:10:18Z</time>
      </trkpt>
      <trkpt lat="48.35477" lon="7.06876">
        <ele>789</ele>
        <time>2022-11-05T11:10:20Z</time>
      </trkpt>
      <trkpt lat="48.35478" lon="7.06881">
        <ele>788.8</ele>
        <time>2022-11-05T11:10:21Z</time>
      </trkpt>
      <trkpt lat="48.35477" lon="7.06888">
        <ele>788.8</ele>
        <time>2022-11-05T11:10:22Z</time>
      </trkpt>
      <trkpt lat="48.35474" lon="7.06901">
        <ele>788.6</ele>
        <time>2022-11-05T11:10:24Z</time>
      </trkpt>
      <trkpt lat="48.35469" lon="7.0692">
        <ele>788.2</ele>
        <time>2022-11-05T11:10:27Z</time>
      </trkpt>
      <trkpt lat="48.35467" lon="7.06927">
        <ele>788.2</ele>
        <time>2022-11-05T11:10:28Z</time>
      </trkpt>
      <trkpt lat="48.3546" lon="7.06951">
        <ele>788</ele>
        <time>2022-11-05T11:10:30Z</time>
      </trkpt>
      <trkpt lat="48.3546" lon="7.0696">
        <ele>788</ele>
        <time>2022-11-05T11:10:31Z</time>
      </trkpt>
      <trkpt lat="48.3546" lon="7.06972">
        <ele>788</ele>
        <time>2022-11-05T11:10:32Z</time>
      </trkpt>
      <trkpt lat="48.35462" lon="7.06992">
        <ele>787.4</ele>
        <time>2022-11-05T11:10:34Z</time>
      </trkpt>
      <trkpt lat="48.35464" lon="7.07001">
        <ele>786.8</ele>
        <time>2022-11-05T11:10:35Z</time>
      </trkpt>
      <trkpt lat="48.35467" lon="7.0701">
        <ele>786.4</ele>
        <time>2022-11-05T11:10:36Z</time>
      </trkpt>
      <trkpt lat="48.35471" lon="7.07022">
        <ele>785.6</ele>
        <time>2022-11-05T11:10:38Z</time>
      </trkpt>
      <trkpt lat="48.35473" lon="7.07027">
        <ele>785.6</ele>
        <time>2022-11-05T11:10:39Z</time>
      </trkpt>
      <trkpt lat="48.35484" lon="7.07048">
        <ele>785.2</ele>
        <time>2022-11-05T11:10:44Z</time>
      </trkpt>
      <trkpt lat="48.35486" lon="7.07051">
        <ele>785.2</ele>
        <time>2022-11-05T11:10:45Z</time>
      </trkpt>
      <trkpt lat="48.355" lon="7.07074">
        <ele>785.4</ele>
        <time>2022-11-05T11:10:50Z</time>
      </trkpt>
      <trkpt lat="48.35502" lon="7.0708">
        <ele>785.4</ele>
        <time>2022-11-05T11:10:54Z</time>
      </trkpt>
      <trkpt lat="48.35502" lon="7.0708">
        <ele>786</ele>
        <time>2022-11-05T11:11:55Z</time>
      </trkpt>
      <trkpt lat="48.35502" lon="7.0708">
        <ele>786</ele>
        <time>2022-11-05T11:11:56Z</time>
      </trkpt>
      <trkpt lat="48.35503" lon="7.07081">
        <ele>786.4</ele>
        <time>2022-11-05T11:12:03Z</time>
      </trkpt>
      <trkpt lat="48.35505" lon="7.07083">
        <ele>786.6</ele>
        <time>2022-11-05T11:12:04Z</time>
      </trkpt>
      <trkpt lat="48.35509" lon="7.07089">
        <ele>786.6</ele>
        <time>2022-11-05T11:12:06Z</time>
      </trkpt>
      <trkpt lat="48.35511" lon="7.07092">
        <ele>786.8</ele>
        <time>2022-11-05T11:12:07Z</time>
      </trkpt>
      <trkpt lat="48.3552" lon="7.07105">
        <ele>787.2</ele>
        <time>2022-11-05T11:12:11Z</time>
      </trkpt>
      <trkpt lat="48.35524" lon="7.07112">
        <ele>787.4</ele>
        <time>2022-11-05T11:12:13Z</time>
      </trkpt>
      <trkpt lat="48.35528" lon="7.07118">
        <ele>787.8</ele>
        <time>2022-11-05T11:12:15Z</time>
      </trkpt>
      <trkpt lat="48.35532" lon="7.0713">
        <ele>788.4</ele>
        <time>2022-11-05T11:12:18Z</time>
      </trkpt>
      <trkpt lat="48.35533" lon="7.07134">
        <ele>788.6</ele>
        <time>2022-11-05T11:12:19Z</time>
      </trkpt>
      <trkpt lat="48.35536" lon="7.07145">
        <ele>788.8</ele>
        <time>2022-11-05T11:12:22Z</time>
      </trkpt>
      <trkpt lat="48.35538" lon="7.07158">
        <ele>790</ele>
        <time>2022-11-05T11:12:25Z</time>
      </trkpt>
      <trkpt lat="48.3554" lon="7.07168">
        <ele>790.4</ele>
        <time>2022-11-05T11:12:27Z</time>
      </trkpt>
      <trkpt lat="48.35545" lon="7.07186">
        <ele>791</ele>
        <time>2022-11-05T11:12:31Z</time>
      </trkpt>
      <trkpt lat="48.35548" lon="7.072">
        <ele>791</ele>
        <time>2022-11-05T11:12:34Z</time>
      </trkpt>
      <trkpt lat="48.35548" lon="7.07202">
        <ele>791.2</ele>
        <time>2022-11-05T11:12:35Z</time>
      </trkpt>
      <trkpt lat="48.35549" lon="7.07213">
        <ele>791.6</ele>
        <time>2022-11-05T11:12:38Z</time>
      </trkpt>
      <trkpt lat="48.35549" lon="7.07217">
        <ele>792</ele>
        <time>2022-11-05T11:12:39Z</time>
      </trkpt>
      <trkpt lat="48.35549" lon="7.07233">
        <ele>792.6</ele>
        <time>2022-11-05T11:12:43Z</time>
      </trkpt>
      <trkpt lat="48.35549" lon="7.07237">
        <ele>792.6</ele>
        <time>2022-11-05T11:12:44Z</time>
      </trkpt>
      <trkpt lat="48.35552" lon="7.07256">
        <ele>793</ele>
        <time>2022-11-05T11:12:48Z</time>
      </trkpt>
      <trkpt lat="48.35552" lon="7.07261">
        <ele>793</ele>
        <time>2022-11-05T11:12:49Z</time>
      </trkpt>
      <trkpt lat="48.35556" lon="7.07294">
        <ele>793.4</ele>
        <time>2022-11-05T11:12:56Z</time>
      </trkpt>
      <trkpt lat="48.35557" lon="7.07305">
        <ele>793.4</ele>
        <time>2022-11-05T11:12:58Z</time>
      </trkpt>
      <trkpt lat="48.35558" lon="7.07318">
        <ele>793.4</ele>
        <time>2022-11-05T11:13:00Z</time>
      </trkpt>
      <trkpt lat="48.3556" lon="7.0733">
        <ele>793.4</ele>
        <time>2022-11-05T11:13:02Z</time>
      </trkpt>
      <trkpt lat="48.35563" lon="7.07342">
        <ele>793.2</ele>
        <time>2022-11-05T11:13:04Z</time>
      </trkpt>
      <trkpt lat="48.35564" lon="7.0735">
        <ele>793.2</ele>
        <time>2022-11-05T11:13:05Z</time>
      </trkpt>
      <trkpt lat="48.35567" lon="7.07373">
        <ele>792.2</ele>
        <time>2022-11-05T11:13:08Z</time>
      </trkpt>
      <trkpt lat="48.35567" lon="7.07379">
        <ele>792</ele>
        <time>2022-11-05T11:13:09Z</time>
      </trkpt>
      <trkpt lat="48.35568" lon="7.07387">
        <ele>791.6</ele>
        <time>2022-11-05T11:13:10Z</time>
      </trkpt>
      <trkpt lat="48.35565" lon="7.07418">
        <ele>791</ele>
        <time>2022-11-05T11:13:13Z</time>
      </trkpt>
      <trkpt lat="48.35564" lon="7.07428">
        <ele>790.4</ele>
        <time>2022-11-05T11:13:14Z</time>
      </trkpt>
      <trkpt lat="48.35561" lon="7.07459">
        <ele>789.6</ele>
        <time>2022-11-05T11:13:17Z</time>
      </trkpt>
      <trkpt lat="48.35561" lon="7.0747">
        <ele>789</ele>
        <time>2022-11-05T11:13:18Z</time>
      </trkpt>
      <trkpt lat="48.3556" lon="7.0748">
        <ele>788.8</ele>
        <time>2022-11-05T11:13:19Z</time>
      </trkpt>
      <trkpt lat="48.35557" lon="7.0751">
        <ele>787.4</ele>
        <time>2022-11-05T11:13:22Z</time>
      </trkpt>
      <trkpt lat="48.35554" lon="7.07532">
        <ele>786.2</ele>
        <time>2022-11-05T11:13:24Z</time>
      </trkpt>
      <trkpt lat="48.35552" lon="7.07543">
        <ele>785.8</ele>
        <time>2022-11-05T11:13:25Z</time>
      </trkpt>
      <trkpt lat="48.35549" lon="7.07555">
        <ele>785</ele>
        <time>2022-11-05T11:13:26Z</time>
      </trkpt>
      <trkpt lat="48.35537" lon="7.07603">
        <ele>783.6</ele>
        <time>2022-11-05T11:13:30Z</time>
      </trkpt>
      <trkpt lat="48.35534" lon="7.07612">
        <ele>783.2</ele>
        <time>2022-11-05T11:13:31Z</time>
      </trkpt>
      <trkpt lat="48.35531" lon="7.07618">
        <ele>782.6</ele>
        <time>2022-11-05T11:13:32Z</time>
      </trkpt>
      <trkpt lat="48.35528" lon="7.07624">
        <ele>781.8</ele>
        <time>2022-11-05T11:13:33Z</time>
      </trkpt>
      <trkpt lat="48.35526" lon="7.0763">
        <ele>781.2</ele>
        <time>2022-11-05T11:13:34Z</time>
      </trkpt>
      <trkpt lat="48.35524" lon="7.07638">
        <ele>779.8</ele>
        <time>2022-11-05T11:13:36Z</time>
      </trkpt>
      <trkpt lat="48.35522" lon="7.07646">
        <ele>779.4</ele>
        <time>2022-11-05T11:13:38Z</time>
      </trkpt>
      <trkpt lat="48.35517" lon="7.07664">
        <ele>779</ele>
        <time>2022-11-05T11:13:43Z</time>
      </trkpt>
      <trkpt lat="48.35515" lon="7.07676">
        <ele>778.8</ele>
        <time>2022-11-05T11:13:46Z</time>
      </trkpt>
      <trkpt lat="48.35514" lon="7.07685">
        <ele>778.8</ele>
        <time>2022-11-05T11:13:49Z</time>
      </trkpt>
      <trkpt lat="48.35514" lon="7.0769">
        <ele>779</ele>
        <time>2022-11-05T11:13:53Z</time>
      </trkpt>
      <trkpt lat="48.35514" lon="7.0769">
        <ele>779</ele>
        <time>2022-11-05T11:13:55Z</time>
      </trkpt>
      <trkpt lat="48.35512" lon="7.07693">
        <ele>778.6</ele>
        <time>2022-11-05T11:14:47Z</time>
      </trkpt>
      <trkpt lat="48.35511" lon="7.07696">
        <ele>778.6</ele>
        <time>2022-11-05T11:14:48Z</time>
      </trkpt>
      <trkpt lat="48.35511" lon="7.07699">
        <ele>778.6</ele>
        <time>2022-11-05T11:14:49Z</time>
      </trkpt>
      <trkpt lat="48.3551" lon="7.07702">
        <ele>778.6</ele>
        <time>2022-11-05T11:14:50Z</time>
      </trkpt>
      <trkpt lat="48.35511" lon="7.07719">
        <ele>778.8</ele>
        <time>2022-11-05T11:14:55Z</time>
      </trkpt>
      <trkpt lat="48.35505" lon="7.07751">
        <ele>779.8</ele>
        <time>2022-11-05T11:15:02Z</time>
      </trkpt>
      <trkpt lat="48.35502" lon="7.07766">
        <ele>780.2</ele>
        <time>2022-11-05T11:15:06Z</time>
      </trkpt>
      <trkpt lat="48.35495" lon="7.07786">
        <ele>780.8</ele>
        <time>2022-11-05T11:15:11Z</time>
      </trkpt>
      <trkpt lat="48.35489" lon="7.07795">
        <ele>781.2</ele>
        <time>2022-11-05T11:15:14Z</time>
      </trkpt>
      <trkpt lat="48.35482" lon="7.07804">
        <ele>781.8</ele>
        <time>2022-11-05T11:15:18Z</time>
      </trkpt>
      <trkpt lat="48.35478" lon="7.07808">
        <ele>782.2</ele>
        <time>2022-11-05T11:15:20Z</time>
      </trkpt>
      <trkpt lat="48.35466" lon="7.07817">
        <ele>783.2</ele>
        <time>2022-11-05T11:15:25Z</time>
      </trkpt>
      <trkpt lat="48.35454" lon="7.07821">
        <ele>783.8</ele>
        <time>2022-11-05T11:15:30Z</time>
      </trkpt>
      <trkpt lat="48.35445" lon="7.07821">
        <ele>784.2</ele>
        <time>2022-11-05T11:15:33Z</time>
      </trkpt>
      <trkpt lat="48.35443" lon="7.07821">
        <ele>784.4</ele>
        <time>2022-11-05T11:15:34Z</time>
      </trkpt>
      <trkpt lat="48.35424" lon="7.07819">
        <ele>785</ele>
        <time>2022-11-05T11:15:40Z</time>
      </trkpt>
      <trkpt lat="48.35417" lon="7.07819">
        <ele>784.8</ele>
        <time>2022-11-05T11:15:42Z</time>
      </trkpt>
      <trkpt lat="48.35394" lon="7.07815">
        <ele>784.6</ele>
        <time>2022-11-05T11:15:48Z</time>
      </trkpt>
      <trkpt lat="48.3539" lon="7.07813">
        <ele>784.4</ele>
        <time>2022-11-05T11:15:49Z</time>
      </trkpt>
      <trkpt lat="48.35382" lon="7.07808">
        <ele>784.2</ele>
        <time>2022-11-05T11:15:51Z</time>
      </trkpt>
      <trkpt lat="48.35369" lon="7.07793">
        <ele>784.2</ele>
        <time>2022-11-05T11:15:55Z</time>
      </trkpt>
      <trkpt lat="48.35363" lon="7.07785">
        <ele>784</ele>
        <time>2022-11-05T11:15:57Z</time>
      </trkpt>
      <trkpt lat="48.35358" lon="7.07776">
        <ele>783.8</ele>
        <time>2022-11-05T11:15:59Z</time>
      </trkpt>
      <trkpt lat="48.35353" lon="7.07767">
        <ele>783.8</ele>
        <time>2022-11-05T11:16:01Z</time>
      </trkpt>
      <trkpt lat="48.35345" lon="7.07748">
        <ele>783.8</ele>
        <time>2022-11-05T11:16:06Z</time>
      </trkpt>
      <trkpt lat="48.35333" lon="7.07722">
        <ele>784.2</ele>
        <time>2022-11-05T11:16:11Z</time>
      </trkpt>
      <trkpt lat="48.35329" lon="7.07714">
        <ele>784.4</ele>
        <time>2022-11-05T11:16:13Z</time>
      </trkpt>
      <trkpt lat="48.3532" lon="7.07694">
        <ele>785.2</ele>
        <time>2022-11-05T11:16:18Z</time>
      </trkpt>
      <trkpt lat="48.35308" lon="7.07671">
        <ele>786</ele>
        <time>2022-11-05T11:16:24Z</time>
      </trkpt>
      <trkpt lat="48.35299" lon="7.07655">
        <ele>787</ele>
        <time>2022-11-05T11:16:28Z</time>
      </trkpt>
      <trkpt lat="48.35291" lon="7.0764">
        <ele>787.2</ele>
        <time>2022-11-05T11:16:32Z</time>
      </trkpt>
      <trkpt lat="48.35286" lon="7.07633">
        <ele>787.6</ele>
        <time>2022-11-05T11:16:34Z</time>
      </trkpt>
      <trkpt lat="48.35276" lon="7.07617">
        <ele>788.2</ele>
        <time>2022-11-05T11:16:39Z</time>
      </trkpt>
      <trkpt lat="48.35275" lon="7.07614">
        <ele>788.4</ele>
        <time>2022-11-05T11:16:40Z</time>
      </trkpt>
      <trkpt lat="48.35269" lon="7.07603">
        <ele>788.8</ele>
        <time>2022-11-05T11:16:46Z</time>
      </trkpt>
      <trkpt lat="48.35268" lon="7.07602">
        <ele>789</ele>
        <time>2022-11-05T11:16:48Z</time>
      </trkpt>
      <trkpt lat="48.3527" lon="7.07604">
        <ele>788.8</ele>
        <time>2022-11-05T11:17:39Z</time>
      </trkpt>
      <trkpt lat="48.3527" lon="7.07604">
        <ele>789</ele>
        <time>2022-11-05T11:17:40Z</time>
      </trkpt>
      <trkpt lat="48.35268" lon="7.07601">
        <ele>789</ele>
        <time>2022-11-05T11:17:43Z</time>
      </trkpt>
      <trkpt lat="48.35267" lon="7.07597">
        <ele>789</ele>
        <time>2022-11-05T11:17:45Z</time>
      </trkpt>
      <trkpt lat="48.35263" lon="7.07584">
        <ele>789</ele>
        <time>2022-11-05T11:17:49Z</time>
      </trkpt>
      <trkpt lat="48.35262" lon="7.07576">
        <ele>788.8</ele>
        <time>2022-11-05T11:17:52Z</time>
      </trkpt>
      <trkpt lat="48.35262" lon="7.07563">
        <ele>788.8</ele>
        <time>2022-11-05T11:17:58Z</time>
      </trkpt>
      <trkpt lat="48.35262" lon="7.0755">
        <ele>788.8</ele>
        <time>2022-11-05T11:18:02Z</time>
      </trkpt>
      <trkpt lat="48.35262" lon="7.07542">
        <ele>788.8</ele>
        <time>2022-11-05T11:18:04Z</time>
      </trkpt>
      <trkpt lat="48.3526" lon="7.07509">
        <ele>788.8</ele>
        <time>2022-11-05T11:18:10Z</time>
      </trkpt>
      <trkpt lat="48.35259" lon="7.07494">
        <ele>788.8</ele>
        <time>2022-11-05T11:18:14Z</time>
      </trkpt>
      <trkpt lat="48.35256" lon="7.07468">
        <ele>788.2</ele>
        <time>2022-11-05T11:18:19Z</time>
      </trkpt>
      <trkpt lat="48.35256" lon="7.07434">
        <ele>787.6</ele>
        <time>2022-11-05T11:18:25Z</time>
      </trkpt>
      <trkpt lat="48.35257" lon="7.0743">
        <ele>787.4</ele>
        <time>2022-11-05T11:18:26Z</time>
      </trkpt>
      <trkpt lat="48.35263" lon="7.07421">
        <ele>787.4</ele>
        <time>2022-11-05T11:18:28Z</time>
      </trkpt>
      <trkpt lat="48.35264" lon="7.07417">
        <ele>787</ele>
        <time>2022-11-05T11:18:29Z</time>
      </trkpt>
      <trkpt lat="48.35263" lon="7.0741">
        <ele>786.8</ele>
        <time>2022-11-05T11:18:30Z</time>
      </trkpt>
      <trkpt lat="48.35259" lon="7.07394">
        <ele>786.2</ele>
        <time>2022-11-05T11:18:33Z</time>
      </trkpt>
      <trkpt lat="48.35262" lon="7.07379">
        <ele>785.6</ele>
        <time>2022-11-05T11:18:35Z</time>
      </trkpt>
      <trkpt lat="48.3526" lon="7.07368">
        <ele>784.8</ele>
        <time>2022-11-05T11:18:37Z</time>
      </trkpt>
      <trkpt lat="48.35258" lon="7.07359">
        <ele>784.6</ele>
        <time>2022-11-05T11:18:38Z</time>
      </trkpt>
      <trkpt lat="48.35252" lon="7.07332">
        <ele>783.6</ele>
        <time>2022-11-05T11:18:41Z</time>
      </trkpt>
      <trkpt lat="48.35251" lon="7.07326">
        <ele>783.6</ele>
        <time>2022-11-05T11:18:42Z</time>
      </trkpt>
      <trkpt lat="48.3525" lon="7.0732">
        <ele>783.4</ele>
        <time>2022-11-05T11:18:43Z</time>
      </trkpt>
      <trkpt lat="48.35249" lon="7.0729">
        <ele>783</ele>
        <time>2022-11-05T11:18:46Z</time>
      </trkpt>
      <trkpt lat="48.35247" lon="7.07269">
        <ele>782.6</ele>
        <time>2022-11-05T11:18:48Z</time>
      </trkpt>
      <trkpt lat="48.35245" lon="7.07262">
        <ele>782.4</ele>
        <time>2022-11-05T11:18:49Z</time>
      </trkpt>
      <trkpt lat="48.35241" lon="7.07256">
        <ele>782.2</ele>
        <time>2022-11-05T11:18:50Z</time>
      </trkpt>
      <trkpt lat="48.35239" lon="7.07238">
        <ele>781.6</ele>
        <time>2022-11-05T11:18:53Z</time>
      </trkpt>
      <trkpt lat="48.35238" lon="7.07233">
        <ele>781.4</ele>
        <time>2022-11-05T11:18:54Z</time>
      </trkpt>
      <trkpt lat="48.35236" lon="7.07228">
        <ele>781.2</ele>
        <time>2022-11-05T11:18:55Z</time>
      </trkpt>
      <trkpt lat="48.35237" lon="7.0722">
        <ele>781</ele>
        <time>2022-11-05T11:18:57Z</time>
      </trkpt>
      <trkpt lat="48.35231" lon="7.07196">
        <ele>781</ele>
        <time>2022-11-05T11:19:00Z</time>
      </trkpt>
      <trkpt lat="48.35227" lon="7.07182">
        <ele>781</ele>
        <time>2022-11-05T11:19:02Z</time>
      </trkpt>
      <trkpt lat="48.35228" lon="7.07167">
        <ele>780.8</ele>
        <time>2022-11-05T11:19:06Z</time>
      </trkpt>
      <trkpt lat="48.35237" lon="7.07157">
        <ele>780.4</ele>
        <time>2022-11-05T11:19:11Z</time>
      </trkpt>
      <trkpt lat="48.35238" lon="7.0715">
        <ele>781.4</ele>
        <time>2022-11-05T11:19:16Z</time>
      </trkpt>
      <trkpt lat="48.3524" lon="7.07145">
        <ele>782.2</ele>
        <time>2022-11-05T11:19:19Z</time>
      </trkpt>
      <trkpt lat="48.35243" lon="7.07141">
        <ele>782.8</ele>
        <time>2022-11-05T11:19:22Z</time>
      </trkpt>
      <trkpt lat="48.35244" lon="7.07134">
        <ele>783.2</ele>
        <time>2022-11-05T11:19:25Z</time>
      </trkpt>
      <trkpt lat="48.35245" lon="7.07123">
        <ele>783.6</ele>
        <time>2022-11-05T11:19:28Z</time>
      </trkpt>
      <trkpt lat="48.35245" lon="7.07121">
        <ele>783.8</ele>
        <time>2022-11-05T11:19:29Z</time>
      </trkpt>
      <trkpt lat="48.35245" lon="7.07115">
        <ele>784</ele>
        <time>2022-11-05T11:19:31Z</time>
      </trkpt>
      <trkpt lat="48.35242" lon="7.07105">
        <ele>784</ele>
        <time>2022-11-05T11:19:33Z</time>
      </trkpt>
      <trkpt lat="48.3524" lon="7.07096">
        <ele>784.2</ele>
        <time>2022-11-05T11:19:35Z</time>
      </trkpt>
      <trkpt lat="48.3524" lon="7.07085">
        <ele>784.4</ele>
        <time>2022-11-05T11:19:39Z</time>
      </trkpt>
      <trkpt lat="48.35241" lon="7.0708">
        <ele>784.6</ele>
        <time>2022-11-05T11:19:40Z</time>
      </trkpt>
      <trkpt lat="48.3524" lon="7.07065">
        <ele>784.8</ele>
        <time>2022-11-05T11:19:43Z</time>
      </trkpt>
      <trkpt lat="48.35239" lon="7.0706">
        <ele>784.8</ele>
        <time>2022-11-05T11:19:44Z</time>
      </trkpt>
      <trkpt lat="48.3524" lon="7.07052">
        <ele>785</ele>
        <time>2022-11-05T11:19:46Z</time>
      </trkpt>
      <trkpt lat="48.35242" lon="7.0703">
        <ele>785.4</ele>
        <time>2022-11-05T11:19:50Z</time>
      </trkpt>
      <trkpt lat="48.35241" lon="7.07019">
        <ele>785.4</ele>
        <time>2022-11-05T11:19:52Z</time>
      </trkpt>
      <trkpt lat="48.35236" lon="7.06983">
        <ele>786.2</ele>
        <time>2022-11-05T11:20:00Z</time>
      </trkpt>
      <trkpt lat="48.35235" lon="7.06979">
        <ele>786.4</ele>
        <time>2022-11-05T11:20:01Z</time>
      </trkpt>
      <trkpt lat="48.35238" lon="7.06967">
        <ele>786.8</ele>
        <time>2022-11-05T11:20:04Z</time>
      </trkpt>
      <trkpt lat="48.35233" lon="7.06951">
        <ele>787.2</ele>
        <time>2022-11-05T11:20:08Z</time>
      </trkpt>
      <trkpt lat="48.35232" lon="7.06938">
        <ele>787.6</ele>
        <time>2022-11-05T11:20:10Z</time>
      </trkpt>
      <trkpt lat="48.35233" lon="7.06924">
        <ele>787.8</ele>
        <time>2022-11-05T11:20:12Z</time>
      </trkpt>
      <trkpt lat="48.35232" lon="7.06915">
        <ele>787.8</ele>
        <time>2022-11-05T11:20:14Z</time>
      </trkpt>
      <trkpt lat="48.35232" lon="7.06877">
        <ele>788.2</ele>
        <time>2022-11-05T11:20:22Z</time>
      </trkpt>
      <trkpt lat="48.3523" lon="7.06867">
        <ele>788.6</ele>
        <time>2022-11-05T11:20:25Z</time>
      </trkpt>
      <trkpt lat="48.35227" lon="7.06858">
        <ele>789.2</ele>
        <time>2022-11-05T11:20:27Z</time>
      </trkpt>
      <trkpt lat="48.35222" lon="7.06841">
        <ele>789.6</ele>
        <time>2022-11-05T11:20:31Z</time>
      </trkpt>
      <trkpt lat="48.35219" lon="7.06827">
        <ele>790</ele>
        <time>2022-11-05T11:20:34Z</time>
      </trkpt>
      <trkpt lat="48.35213" lon="7.06806">
        <ele>790.2</ele>
        <time>2022-11-05T11:20:39Z</time>
      </trkpt>
      <trkpt lat="48.35211" lon="7.06793">
        <ele>790.4</ele>
        <time>2022-11-05T11:20:42Z</time>
      </trkpt>
      <trkpt lat="48.3521" lon="7.06781">
        <ele>791.2</ele>
        <time>2022-11-05T11:20:45Z</time>
      </trkpt>
      <trkpt lat="48.35209" lon="7.06767">
        <ele>791.4</ele>
        <time>2022-11-05T11:20:49Z</time>
      </trkpt>
      <trkpt lat="48.35205" lon="7.06748">
        <ele>791.4</ele>
        <time>2022-11-05T11:20:54Z</time>
      </trkpt>
      <trkpt lat="48.35203" lon="7.0673">
        <ele>791.6</ele>
        <time>2022-11-05T11:20:59Z</time>
      </trkpt>
      <trkpt lat="48.35196" lon="7.06693">
        <ele>792</ele>
        <time>2022-11-05T11:21:06Z</time>
      </trkpt>
      <trkpt lat="48.35193" lon="7.06677">
        <ele>792.2</ele>
        <time>2022-11-05T11:21:09Z</time>
      </trkpt>
      <trkpt lat="48.35192" lon="7.06666">
        <ele>792.2</ele>
        <time>2022-11-05T11:21:11Z</time>
      </trkpt>
      <trkpt lat="48.35192" lon="7.06639">
        <ele>792.2</ele>
        <time>2022-11-05T11:21:16Z</time>
      </trkpt>
      <trkpt lat="48.35193" lon="7.06626">
        <ele>792.2</ele>
        <time>2022-11-05T11:21:18Z</time>
      </trkpt>
      <trkpt lat="48.35193" lon="7.06614">
        <ele>792.2</ele>
        <time>2022-11-05T11:21:20Z</time>
      </trkpt>
      <trkpt lat="48.35191" lon="7.066">
        <ele>792.2</ele>
        <time>2022-11-05T11:21:22Z</time>
      </trkpt>
      <trkpt lat="48.3519" lon="7.06588">
        <ele>792.2</ele>
        <time>2022-11-05T11:21:24Z</time>
      </trkpt>
      <trkpt lat="48.35189" lon="7.06581">
        <ele>792</ele>
        <time>2022-11-05T11:21:25Z</time>
      </trkpt>
      <trkpt lat="48.35184" lon="7.06565">
        <ele>792</ele>
        <time>2022-11-05T11:21:27Z</time>
      </trkpt>
      <trkpt lat="48.35182" lon="7.06559">
        <ele>792</ele>
        <time>2022-11-05T11:21:28Z</time>
      </trkpt>
      <trkpt lat="48.35164" lon="7.06515">
        <ele>791.6</ele>
        <time>2022-11-05T11:21:34Z</time>
      </trkpt>
      <trkpt lat="48.35162" lon="7.0651">
        <ele>791.8</ele>
        <time>2022-11-05T11:21:35Z</time>
      </trkpt>
      <trkpt lat="48.35143" lon="7.06473">
        <ele>791</ele>
        <time>2022-11-05T11:21:41Z</time>
      </trkpt>
      <trkpt lat="48.3514" lon="7.06468">
        <ele>791</ele>
        <time>2022-11-05T11:21:42Z</time>
      </trkpt>
      <trkpt lat="48.3512" lon="7.06443">
        <ele>791.6</ele>
        <time>2022-11-05T11:21:48Z</time>
      </trkpt>
      <trkpt lat="48.35106" lon="7.0643">
        <ele>792</ele>
        <time>2022-11-05T11:21:53Z</time>
      </trkpt>
      <trkpt lat="48.35092" lon="7.0642">
        <ele>793.2</ele>
        <time>2022-11-05T11:21:58Z</time>
      </trkpt>
      <trkpt lat="48.35084" lon="7.06414">
        <ele>794.4</ele>
        <time>2022-11-05T11:22:01Z</time>
      </trkpt>
      <trkpt lat="48.35071" lon="7.06403">
        <ele>795.6</ele>
        <time>2022-11-05T11:22:06Z</time>
      </trkpt>
      <trkpt lat="48.35057" lon="7.0639">
        <ele>796.4</ele>
        <time>2022-11-05T11:22:11Z</time>
      </trkpt>
      <trkpt lat="48.35051" lon="7.06384">
        <ele>796.8</ele>
        <time>2022-11-05T11:22:13Z</time>
      </trkpt>
      <trkpt lat="48.3504" lon="7.06374">
        <ele>797.4</ele>
        <time>2022-11-05T11:22:17Z</time>
      </trkpt>
      <trkpt lat="48.35037" lon="7.06371">
        <ele>797.6</ele>
        <time>2022-11-05T11:22:18Z</time>
      </trkpt>
      <trkpt lat="48.35033" lon="7.06365">
        <ele>797.6</ele>
        <time>2022-11-05T11:22:20Z</time>
      </trkpt>
      <trkpt lat="48.35031" lon="7.06363">
        <ele>797.8</ele>
        <time>2022-11-05T11:22:21Z</time>
      </trkpt>
      <trkpt lat="48.35029" lon="7.06361">
        <ele>798.2</ele>
        <time>2022-11-05T11:22:22Z</time>
      </trkpt>
      <trkpt lat="48.35026" lon="7.06359">
        <ele>798.2</ele>
        <time>2022-11-05T11:22:23Z</time>
      </trkpt>
      <trkpt lat="48.35013" lon="7.06345">
        <ele>798.6</ele>
        <time>2022-11-05T11:22:28Z</time>
      </trkpt>
      <trkpt lat="48.35006" lon="7.06337">
        <ele>799</ele>
        <time>2022-11-05T11:22:31Z</time>
      </trkpt>
      <trkpt lat="48.34993" lon="7.06323">
        <ele>800</ele>
        <time>2022-11-05T11:22:36Z</time>
      </trkpt>
      <trkpt lat="48.34988" lon="7.06319">
        <ele>800.2</ele>
        <time>2022-11-05T11:22:38Z</time>
      </trkpt>
      <trkpt lat="48.34972" lon="7.06305">
        <ele>801</ele>
        <time>2022-11-05T11:22:44Z</time>
      </trkpt>
      <trkpt lat="48.34967" lon="7.06299">
        <ele>801.2</ele>
        <time>2022-11-05T11:22:46Z</time>
      </trkpt>
      <trkpt lat="48.34954" lon="7.06283">
        <ele>801.6</ele>
        <time>2022-11-05T11:22:51Z</time>
      </trkpt>
      <trkpt lat="48.34953" lon="7.06279">
        <ele>801.6</ele>
        <time>2022-11-05T11:22:52Z</time>
      </trkpt>
      <trkpt lat="48.3494" lon="7.0626">
        <ele>802.2</ele>
        <time>2022-11-05T11:22:58Z</time>
      </trkpt>
      <trkpt lat="48.34937" lon="7.06255">
        <ele>802.2</ele>
        <time>2022-11-05T11:22:59Z</time>
      </trkpt>
      <trkpt lat="48.34924" lon="7.06236">
        <ele>802.2</ele>
        <time>2022-11-05T11:23:04Z</time>
      </trkpt>
      <trkpt lat="48.34916" lon="7.06228">
        <ele>802.4</ele>
        <time>2022-11-05T11:23:07Z</time>
      </trkpt>
      <trkpt lat="48.34908" lon="7.06219">
        <ele>802.2</ele>
        <time>2022-11-05T11:23:10Z</time>
      </trkpt>
      <trkpt lat="48.34884" lon="7.06187">
        <ele>802</ele>
        <time>2022-11-05T11:23:17Z</time>
      </trkpt>
      <trkpt lat="48.3488" lon="7.06182">
        <ele>801.8</ele>
        <time>2022-11-05T11:23:18Z</time>
      </trkpt>
      <trkpt lat="48.34873" lon="7.0617">
        <ele>801.6</ele>
        <time>2022-11-05T11:23:20Z</time>
      </trkpt>
      <trkpt lat="48.3487" lon="7.06165">
        <ele>801.4</ele>
        <time>2022-11-05T11:23:21Z</time>
      </trkpt>
      <trkpt lat="48.34868" lon="7.06158">
        <ele>801.2</ele>
        <time>2022-11-05T11:23:22Z</time>
      </trkpt>
      <trkpt lat="48.34863" lon="7.06147">
        <ele>800.4</ele>
        <time>2022-11-05T11:23:24Z</time>
      </trkpt>
      <trkpt lat="48.34859" lon="7.06139">
        <ele>800</ele>
        <time>2022-11-05T11:23:25Z</time>
      </trkpt>
      <trkpt lat="48.34839" lon="7.06111">
        <ele>799</ele>
        <time>2022-11-05T11:23:29Z</time>
      </trkpt>
      <trkpt lat="48.34834" lon="7.06106">
        <ele>798.6</ele>
        <time>2022-11-05T11:23:30Z</time>
      </trkpt>
      <trkpt lat="48.34828" lon="7.06098">
        <ele>798.4</ele>
        <time>2022-11-05T11:23:31Z</time>
      </trkpt>
      <trkpt lat="48.34818" lon="7.06079">
        <ele>798.2</ele>
        <time>2022-11-05T11:23:34Z</time>
      </trkpt>
      <trkpt lat="48.34814" lon="7.06072">
        <ele>797.8</ele>
        <time>2022-11-05T11:23:35Z</time>
      </trkpt>
      <trkpt lat="48.34807" lon="7.06059">
        <ele>797.6</ele>
        <time>2022-11-05T11:23:37Z</time>
      </trkpt>
      <trkpt lat="48.34794" lon="7.06041">
        <ele>797.2</ele>
        <time>2022-11-05T11:23:41Z</time>
      </trkpt>
      <trkpt lat="48.34785" lon="7.06026">
        <ele>797</ele>
        <time>2022-11-05T11:23:45Z</time>
      </trkpt>
      <trkpt lat="48.34779" lon="7.06017">
        <ele>797.4</ele>
        <time>2022-11-05T11:23:50Z</time>
      </trkpt>
      <trkpt lat="48.34777" lon="7.06007">
        <ele>797.6</ele>
        <time>2022-11-05T11:23:55Z</time>
      </trkpt>
      <trkpt lat="48.34773" lon="7.06003">
        <ele>797.8</ele>
        <time>2022-11-05T11:23:57Z</time>
      </trkpt>
      <trkpt lat="48.3477" lon="7.06003">
        <ele>798</ele>
        <time>2022-11-05T11:23:59Z</time>
      </trkpt>
      <trkpt lat="48.34767" lon="7.06002">
        <ele>798</ele>
        <time>2022-11-05T11:24:01Z</time>
      </trkpt>
      <trkpt lat="48.34763" lon="7.05998">
        <ele>798.2</ele>
        <time>2022-11-05T11:24:04Z</time>
      </trkpt>
      <trkpt lat="48.34762" lon="7.05997">
        <ele>798.2</ele>
        <time>2022-11-05T11:24:05Z</time>
      </trkpt>
      <trkpt lat="48.34757" lon="7.05991">
        <ele>798.6</ele>
        <time>2022-11-05T11:24:09Z</time>
      </trkpt>
      <trkpt lat="48.34753" lon="7.05986">
        <ele>799.6</ele>
        <time>2022-11-05T11:24:12Z</time>
      </trkpt>
      <trkpt lat="48.34751" lon="7.05985">
        <ele>799.8</ele>
        <time>2022-11-05T11:24:13Z</time>
      </trkpt>
      <trkpt lat="48.34747" lon="7.0598">
        <ele>800.4</ele>
        <time>2022-11-05T11:24:16Z</time>
      </trkpt>
      <trkpt lat="48.34743" lon="7.05973">
        <ele>801</ele>
        <time>2022-11-05T11:24:19Z</time>
      </trkpt>
      <trkpt lat="48.34739" lon="7.05968">
        <ele>801.2</ele>
        <time>2022-11-05T11:24:22Z</time>
      </trkpt>
      <trkpt lat="48.34732" lon="7.05961">
        <ele>801.8</ele>
        <time>2022-11-05T11:24:26Z</time>
      </trkpt>
      <trkpt lat="48.34732" lon="7.0596">
        <ele>802.2</ele>
        <time>2022-11-05T11:24:27Z</time>
      </trkpt>
      <trkpt lat="48.3473" lon="7.05957">
        <ele>802.6</ele>
        <time>2022-11-05T11:24:30Z</time>
      </trkpt>
      <trkpt lat="48.34729" lon="7.05956">
        <ele>802.8</ele>
        <time>2022-11-05T11:24:31Z</time>
      </trkpt>
      <trkpt lat="48.34727" lon="7.05953">
        <ele>803.2</ele>
        <time>2022-11-05T11:24:35Z</time>
      </trkpt>
      <trkpt lat="48.34724" lon="7.05946">
        <ele>803.6</ele>
        <time>2022-11-05T11:24:38Z</time>
      </trkpt>
      <trkpt lat="48.34722" lon="7.0594">
        <ele>803.6</ele>
        <time>2022-11-05T11:24:40Z</time>
      </trkpt>
      <trkpt lat="48.3472" lon="7.05935">
        <ele>804</ele>
        <time>2022-11-05T11:24:42Z</time>
      </trkpt>
      <trkpt lat="48.34719" lon="7.05932">
        <ele>804.2</ele>
        <time>2022-11-05T11:24:43Z</time>
      </trkpt>
      <trkpt lat="48.34717" lon="7.05928">
        <ele>804.4</ele>
        <time>2022-11-05T11:24:45Z</time>
      </trkpt>
      <trkpt lat="48.34709" lon="7.05916">
        <ele>804.6</ele>
        <time>2022-11-05T11:24:50Z</time>
      </trkpt>
      <trkpt lat="48.34706" lon="7.05912">
        <ele>805</ele>
        <time>2022-11-05T11:24:55Z</time>
      </trkpt>
      <trkpt lat="48.34703" lon="7.05906">
        <ele>805.4</ele>
        <time>2022-11-05T11:24:57Z</time>
      </trkpt>
      <trkpt lat="48.34702" lon="7.05902">
        <ele>805.6</ele>
        <time>2022-11-05T11:25:01Z</time>
      </trkpt>
      <trkpt lat="48.34699" lon="7.05895">
        <ele>806</ele>
        <time>2022-11-05T11:25:05Z</time>
      </trkpt>
      <trkpt lat="48.34698" lon="7.05893">
        <ele>806.2</ele>
        <time>2022-11-05T11:25:06Z</time>
      </trkpt>
      <trkpt lat="48.3469" lon="7.0588">
        <ele>806.4</ele>
        <time>2022-11-05T11:25:11Z</time>
      </trkpt>
      <trkpt lat="48.34685" lon="7.05871">
        <ele>806.6</ele>
        <time>2022-11-05T11:25:15Z</time>
      </trkpt>
      <trkpt lat="48.34684" lon="7.05868">
        <ele>806.6</ele>
        <time>2022-11-05T11:25:16Z</time>
      </trkpt>
      <trkpt lat="48.34684" lon="7.05866">
        <ele>806.8</ele>
        <time>2022-11-05T11:25:17Z</time>
      </trkpt>
      <trkpt lat="48.34679" lon="7.05856">
        <ele>806.8</ele>
        <time>2022-11-05T11:25:19Z</time>
      </trkpt>
      <trkpt lat="48.34677" lon="7.05852">
        <ele>806.8</ele>
        <time>2022-11-05T11:25:20Z</time>
      </trkpt>
      <trkpt lat="48.34674" lon="7.05843">
        <ele>806.8</ele>
        <time>2022-11-05T11:25:22Z</time>
      </trkpt>
      <trkpt lat="48.34667" lon="7.05827">
        <ele>807</ele>
        <time>2022-11-05T11:25:26Z</time>
      </trkpt>
      <trkpt lat="48.34661" lon="7.05815">
        <ele>807.6</ele>
        <time>2022-11-05T11:25:33Z</time>
      </trkpt>
      <trkpt lat="48.34661" lon="7.05815">
        <ele>807.6</ele>
        <time>2022-11-05T11:25:34Z</time>
      </trkpt>
      <trkpt lat="48.34661" lon="7.05815">
        <ele>807.8</ele>
        <time>2022-11-05T11:25:35Z</time>
      </trkpt>
      <trkpt lat="48.34661" lon="7.05815">
        <ele>808</ele>
        <time>2022-11-05T11:25:43Z</time>
      </trkpt>
      <trkpt lat="48.34661" lon="7.05815">
        <ele>808</ele>
        <time>2022-11-05T11:25:46Z</time>
      </trkpt>
      <trkpt lat="48.34669" lon="7.05837">
        <ele>806.8</ele>
        <time>2022-11-05T11:27:35Z</time>
      </trkpt>
      <trkpt lat="48.34669" lon="7.05837">
        <ele>806.8</ele>
        <time>2022-11-05T11:27:36Z</time>
      </trkpt>
      <trkpt lat="48.34669" lon="7.05837">
        <ele>806.8</ele>
        <time>2022-11-05T11:27:44Z</time>
      </trkpt>
      <trkpt lat="48.34669" lon="7.05837">
        <ele>806.8</ele>
        <time>2022-11-05T11:27:46Z</time>
      </trkpt>
      <trkpt lat="48.34666" lon="7.05841">
        <ele>806.2</ele>
        <time>2022-11-05T11:29:27Z</time>
      </trkpt>
      <trkpt lat="48.34666" lon="7.05841">
        <ele>806.4</ele>
        <time>2022-11-05T11:29:33Z</time>
      </trkpt>
      <trkpt lat="48.34665" lon="7.05844">
        <ele>806.2</ele>
        <time>2022-11-05T11:29:43Z</time>
      </trkpt>
      <trkpt lat="48.34662" lon="7.05851">
        <ele>806.2</ele>
        <time>2022-11-05T11:29:46Z</time>
      </trkpt>
      <trkpt lat="48.34656" lon="7.0586">
        <ele>805.2</ele>
        <time>2022-11-05T11:29:51Z</time>
      </trkpt>
      <trkpt lat="48.34654" lon="7.05864">
        <ele>804.6</ele>
        <time>2022-11-05T11:29:53Z</time>
      </trkpt>
      <trkpt lat="48.34653" lon="7.05866">
        <ele>803.6</ele>
        <time>2022-11-05T11:29:56Z</time>
      </trkpt>
      <trkpt lat="48.34653" lon="7.05866">
        <ele>802.8</ele>
        <time>2022-11-05T11:29:59Z</time>
      </trkpt>
      <trkpt lat="48.34653" lon="7.05866">
        <ele>802.6</ele>
        <time>2022-11-05T11:30:01Z</time>
      </trkpt>
      <trkpt lat="48.34653" lon="7.05866">
        <ele>802.2</ele>
        <time>2022-11-05T11:30:07Z</time>
      </trkpt>
      <trkpt lat="48.34653" lon="7.05866">
        <ele>802.2</ele>
        <time>2022-11-05T11:30:19Z</time>
      </trkpt>
      <trkpt lat="48.34653" lon="7.05866">
        <ele>802.2</ele>
        <time>2022-11-05T11:30:20Z</time>
      </trkpt>
      <trkpt lat="48.3465" lon="7.05872">
        <ele>802</ele>
        <time>2022-11-05T11:30:27Z</time>
      </trkpt>
      <trkpt lat="48.34648" lon="7.05875">
        <ele>802</ele>
        <time>2022-11-05T11:30:28Z</time>
      </trkpt>
      <trkpt lat="48.34642" lon="7.05885">
        <ele>801.2</ele>
        <time>2022-11-05T11:30:31Z</time>
      </trkpt>
      <trkpt lat="48.34639" lon="7.05891">
        <ele>800</ele>
        <time>2022-11-05T11:30:33Z</time>
      </trkpt>
      <trkpt lat="48.34636" lon="7.05897">
        <ele>798.6</ele>
        <time>2022-11-05T11:30:36Z</time>
      </trkpt>
      <trkpt lat="48.34636" lon="7.05897">
        <ele>798.4</ele>
        <time>2022-11-05T11:30:37Z</time>
      </trkpt>
      <trkpt lat="48.34632" lon="7.05905">
        <ele>797.6</ele>
        <time>2022-11-05T11:30:41Z</time>
      </trkpt>
      <trkpt lat="48.34623" lon="7.05921">
        <ele>796.8</ele>
        <time>2022-11-05T11:30:46Z</time>
      </trkpt>
      <trkpt lat="48.34619" lon="7.05927">
        <ele>796.6</ele>
        <time>2022-11-05T11:30:48Z</time>
      </trkpt>
      <trkpt lat="48.34618" lon="7.0593">
        <ele>796.4</ele>
        <time>2022-11-05T11:30:49Z</time>
      </trkpt>
      <trkpt lat="48.34614" lon="7.05934">
        <ele>795.8</ele>
        <time>2022-11-05T11:30:51Z</time>
      </trkpt>
      <trkpt lat="48.34608" lon="7.05942">
        <ele>795.2</ele>
        <time>2022-11-05T11:30:53Z</time>
      </trkpt>
      <trkpt lat="48.34598" lon="7.05957">
        <ele>794</ele>
        <time>2022-11-05T11:30:58Z</time>
      </trkpt>
      <trkpt lat="48.34593" lon="7.0596">
        <ele>793.8</ele>
        <time>2022-11-05T11:30:59Z</time>
      </trkpt>
      <trkpt lat="48.34587" lon="7.0597">
        <ele>793</ele>
        <time>2022-11-05T11:31:02Z</time>
      </trkpt>
      <trkpt lat="48.34584" lon="7.05973">
        <ele>792.6</ele>
        <time>2022-11-05T11:31:04Z</time>
      </trkpt>
      <trkpt lat="48.34582" lon="7.05975">
        <ele>792.4</ele>
        <time>2022-11-05T11:31:05Z</time>
      </trkpt>
      <trkpt lat="48.34578" lon="7.05982">
        <ele>791.6</ele>
        <time>2022-11-05T11:31:07Z</time>
      </trkpt>
      <trkpt lat="48.34571" lon="7.05988">
        <ele>791</ele>
        <time>2022-11-05T11:31:10Z</time>
      </trkpt>
      <trkpt lat="48.3457" lon="7.05989">
        <ele>790.4</ele>
        <time>2022-11-05T11:31:11Z</time>
      </trkpt>
      <trkpt lat="48.34564" lon="7.05998">
        <ele>789.4</ele>
        <time>2022-11-05T11:31:14Z</time>
      </trkpt>
      <trkpt lat="48.34562" lon="7.06003">
        <ele>788.2</ele>
        <time>2022-11-05T11:31:17Z</time>
      </trkpt>
      <trkpt lat="48.34559" lon="7.06004">
        <ele>788.2</ele>
        <time>2022-11-05T11:31:18Z</time>
      </trkpt>
      <trkpt lat="48.34552" lon="7.06008">
        <ele>787.2</ele>
        <time>2022-11-05T11:31:21Z</time>
      </trkpt>
      <trkpt lat="48.34544" lon="7.06021">
        <ele>786.4</ele>
        <time>2022-11-05T11:31:25Z</time>
      </trkpt>
      <trkpt lat="48.34543" lon="7.06024">
        <ele>786.2</ele>
        <time>2022-11-05T11:31:26Z</time>
      </trkpt>
      <trkpt lat="48.3454" lon="7.0603">
        <ele>785</ele>
        <time>2022-11-05T11:31:29Z</time>
      </trkpt>
      <trkpt lat="48.34538" lon="7.06039">
        <ele>784.4</ele>
        <time>2022-11-05T11:31:31Z</time>
      </trkpt>
      <trkpt lat="48.34534" lon="7.06051">
        <ele>783.6</ele>
        <time>2022-11-05T11:31:34Z</time>
      </trkpt>
      <trkpt lat="48.34531" lon="7.06054">
        <ele>783</ele>
        <time>2022-11-05T11:31:36Z</time>
      </trkpt>
      <trkpt lat="48.3453" lon="7.06057">
        <ele>783</ele>
        <time>2022-11-05T11:31:37Z</time>
      </trkpt>
      <trkpt lat="48.34528" lon="7.06061">
        <ele>782.4</ele>
        <time>2022-11-05T11:31:38Z</time>
      </trkpt>
      <trkpt lat="48.3452" lon="7.06076">
        <ele>781.2</ele>
        <time>2022-11-05T11:31:42Z</time>
      </trkpt>
      <trkpt lat="48.34516" lon="7.06077">
        <ele>780.4</ele>
        <time>2022-11-05T11:31:44Z</time>
      </trkpt>
      <trkpt lat="48.34515" lon="7.06076">
        <ele>780.2</ele>
        <time>2022-11-05T11:31:45Z</time>
      </trkpt>
      <trkpt lat="48.34507" lon="7.06069">
        <ele>779.4</ele>
        <time>2022-11-05T11:31:49Z</time>
      </trkpt>
      <trkpt lat="48.34505" lon="7.06068">
        <ele>779</ele>
        <time>2022-11-05T11:31:51Z</time>
      </trkpt>
      <trkpt lat="48.34497" lon="7.06065">
        <ele>778.2</ele>
        <time>2022-11-05T11:31:54Z</time>
      </trkpt>
      <trkpt lat="48.34496" lon="7.06065">
        <ele>778</ele>
        <time>2022-11-05T11:31:55Z</time>
      </trkpt>
      <trkpt lat="48.34484" lon="7.06065">
        <ele>776.6</ele>
        <time>2022-11-05T11:32:00Z</time>
      </trkpt>
      <trkpt lat="48.34478" lon="7.06062">
        <ele>776</ele>
        <time>2022-11-05T11:32:02Z</time>
      </trkpt>
      <trkpt lat="48.34473" lon="7.0606">
        <ele>775.2</ele>
        <time>2022-11-05T11:32:04Z</time>
      </trkpt>
      <trkpt lat="48.3447" lon="7.06056">
        <ele>774.6</ele>
        <time>2022-11-05T11:32:06Z</time>
      </trkpt>
      <trkpt lat="48.34466" lon="7.06051">
        <ele>773.8</ele>
        <time>2022-11-05T11:32:08Z</time>
      </trkpt>
      <trkpt lat="48.34464" lon="7.06042">
        <ele>772.6</ele>
        <time>2022-11-05T11:32:11Z</time>
      </trkpt>
      <trkpt lat="48.34462" lon="7.06035">
        <ele>772</ele>
        <time>2022-11-05T11:32:13Z</time>
      </trkpt>
      <trkpt lat="48.34461" lon="7.06033">
        <ele>771.6</ele>
        <time>2022-11-05T11:32:14Z</time>
      </trkpt>
      <trkpt lat="48.34459" lon="7.06024">
        <ele>771</ele>
        <time>2022-11-05T11:32:17Z</time>
      </trkpt>
      <trkpt lat="48.34457" lon="7.06014">
        <ele>770.6</ele>
        <time>2022-11-05T11:32:19Z</time>
      </trkpt>
      <trkpt lat="48.34456" lon="7.0601">
        <ele>770.2</ele>
        <time>2022-11-05T11:32:20Z</time>
      </trkpt>
      <trkpt lat="48.34454" lon="7.05999">
        <ele>769.4</ele>
        <time>2022-11-05T11:32:23Z</time>
      </trkpt>
      <trkpt lat="48.34446" lon="7.05994">
        <ele>768.4</ele>
        <time>2022-11-05T11:32:27Z</time>
      </trkpt>
      <trkpt lat="48.34442" lon="7.05991">
        <ele>767.6</ele>
        <time>2022-11-05T11:32:29Z</time>
      </trkpt>
      <trkpt lat="48.34438" lon="7.05984">
        <ele>767.2</ele>
        <time>2022-11-05T11:32:31Z</time>
      </trkpt>
      <trkpt lat="48.34432" lon="7.05971">
        <ele>766</ele>
        <time>2022-11-05T11:32:36Z</time>
      </trkpt>
      <trkpt lat="48.34431" lon="7.05968">
        <ele>765.8</ele>
        <time>2022-11-05T11:32:37Z</time>
      </trkpt>
      <trkpt lat="48.3443" lon="7.05965">
        <ele>765.2</ele>
        <time>2022-11-05T11:32:38Z</time>
      </trkpt>
      <trkpt lat="48.34428" lon="7.05962">
        <ele>764.4</ele>
        <time>2022-11-05T11:32:40Z</time>
      </trkpt>
      <trkpt lat="48.34428" lon="7.05956">
        <ele>763.8</ele>
        <time>2022-11-05T11:32:42Z</time>
      </trkpt>
      <trkpt lat="48.34426" lon="7.05951">
        <ele>763.4</ele>
        <time>2022-11-05T11:32:44Z</time>
      </trkpt>
      <trkpt lat="48.34424" lon="7.05948">
        <ele>763.4</ele>
        <time>2022-11-05T11:32:45Z</time>
      </trkpt>
      <trkpt lat="48.34421" lon="7.05941">
        <ele>763</ele>
        <time>2022-11-05T11:32:47Z</time>
      </trkpt>
      <trkpt lat="48.34415" lon="7.05929">
        <ele>762.4</ele>
        <time>2022-11-05T11:32:49Z</time>
      </trkpt>
      <trkpt lat="48.34405" lon="7.05908">
        <ele>761</ele>
        <time>2022-11-05T11:32:53Z</time>
      </trkpt>
      <trkpt lat="48.34403" lon="7.05902">
        <ele>760.8</ele>
        <time>2022-11-05T11:32:54Z</time>
      </trkpt>
      <trkpt lat="48.34401" lon="7.05892">
        <ele>760.2</ele>
        <time>2022-11-05T11:32:56Z</time>
      </trkpt>
      <trkpt lat="48.344" lon="7.05888">
        <ele>759.2</ele>
        <time>2022-11-05T11:32:58Z</time>
      </trkpt>
      <trkpt lat="48.344" lon="7.05887">
        <ele>758.8</ele>
        <time>2022-11-05T11:32:59Z</time>
      </trkpt>
      <trkpt lat="48.344" lon="7.05887">
        <ele>758</ele>
        <time>2022-11-05T11:33:04Z</time>
      </trkpt>
      <trkpt lat="48.344" lon="7.05887">
        <ele>757.8</ele>
        <time>2022-11-05T11:33:09Z</time>
      </trkpt>
      <trkpt lat="48.34399" lon="7.0588">
        <ele>757.6</ele>
        <time>2022-11-05T11:33:18Z</time>
      </trkpt>
      <trkpt lat="48.34399" lon="7.05877">
        <ele>757.6</ele>
        <time>2022-11-05T11:33:19Z</time>
      </trkpt>
      <trkpt lat="48.34399" lon="7.05866">
        <ele>757.2</ele>
        <time>2022-11-05T11:33:23Z</time>
      </trkpt>
      <trkpt lat="48.34397" lon="7.0586">
        <ele>756.8</ele>
        <time>2022-11-05T11:33:25Z</time>
      </trkpt>
      <trkpt lat="48.34396" lon="7.05857">
        <ele>756.6</ele>
        <time>2022-11-05T11:33:26Z</time>
      </trkpt>
      <trkpt lat="48.34393" lon="7.05848">
        <ele>756.4</ele>
        <time>2022-11-05T11:33:28Z</time>
      </trkpt>
      <trkpt lat="48.34389" lon="7.05839">
        <ele>756.2</ele>
        <time>2022-11-05T11:33:30Z</time>
      </trkpt>
      <trkpt lat="48.34386" lon="7.05835">
        <ele>756.2</ele>
        <time>2022-11-05T11:33:31Z</time>
      </trkpt>
      <trkpt lat="48.34381" lon="7.05831">
        <ele>756</ele>
        <time>2022-11-05T11:33:32Z</time>
      </trkpt>
      <trkpt lat="48.34368" lon="7.05811">
        <ele>755.4</ele>
        <time>2022-11-05T11:33:35Z</time>
      </trkpt>
      <trkpt lat="48.34365" lon="7.05804">
        <ele>755.2</ele>
        <time>2022-11-05T11:33:36Z</time>
      </trkpt>
      <trkpt lat="48.34361" lon="7.05799">
        <ele>754.4</ele>
        <time>2022-11-05T11:33:37Z</time>
      </trkpt>
      <trkpt lat="48.34358" lon="7.0579">
        <ele>753.4</ele>
        <time>2022-11-05T11:33:39Z</time>
      </trkpt>
      <trkpt lat="48.34355" lon="7.05784">
        <ele>753.2</ele>
        <time>2022-11-05T11:33:40Z</time>
      </trkpt>
      <trkpt lat="48.34352" lon="7.05777">
        <ele>752.2</ele>
        <time>2022-11-05T11:33:42Z</time>
      </trkpt>
      <trkpt lat="48.34347" lon="7.05762">
        <ele>751.4</ele>
        <time>2022-11-05T11:33:45Z</time>
      </trkpt>
      <trkpt lat="48.34345" lon="7.05754">
        <ele>751</ele>
        <time>2022-11-05T11:33:47Z</time>
      </trkpt>
      <trkpt lat="48.3434" lon="7.0574">
        <ele>750.6</ele>
        <time>2022-11-05T11:33:50Z</time>
      </trkpt>
      <trkpt lat="48.34332" lon="7.05715">
        <ele>750</ele>
        <time>2022-11-05T11:33:53Z</time>
      </trkpt>
      <trkpt lat="48.34325" lon="7.0567">
        <ele>748.6</ele>
        <time>2022-11-05T11:33:58Z</time>
      </trkpt>
      <trkpt lat="48.3432" lon="7.05648">
        <ele>747.6</ele>
        <time>2022-11-05T11:34:01Z</time>
      </trkpt>
      <trkpt lat="48.34318" lon="7.05639">
        <ele>747</ele>
        <time>2022-11-05T11:34:02Z</time>
      </trkpt>
      <trkpt lat="48.34311" lon="7.05619">
        <ele>745.8</ele>
        <time>2022-11-05T11:34:04Z</time>
      </trkpt>
      <trkpt lat="48.34306" lon="7.05606">
        <ele>744.6</ele>
        <time>2022-11-05T11:34:06Z</time>
      </trkpt>
      <trkpt lat="48.34293" lon="7.05571">
        <ele>742.8</ele>
        <time>2022-11-05T11:34:10Z</time>
      </trkpt>
      <trkpt lat="48.34289" lon="7.05558">
        <ele>742.6</ele>
        <time>2022-11-05T11:34:11Z</time>
      </trkpt>
      <trkpt lat="48.34278" lon="7.05527">
        <ele>741.6</ele>
        <time>2022-11-05T11:34:13Z</time>
      </trkpt>
      <trkpt lat="48.34269" lon="7.05503">
        <ele>740.4</ele>
        <time>2022-11-05T11:34:15Z</time>
      </trkpt>
      <trkpt lat="48.34265" lon="7.05492">
        <ele>739.6</ele>
        <time>2022-11-05T11:34:16Z</time>
      </trkpt>
      <trkpt lat="48.3426" lon="7.05481">
        <ele>739.2</ele>
        <time>2022-11-05T11:34:17Z</time>
      </trkpt>
      <trkpt lat="48.34253" lon="7.05472">
        <ele>738.8</ele>
        <time>2022-11-05T11:34:18Z</time>
      </trkpt>
      <trkpt lat="48.34249" lon="7.05466">
        <ele>738.6</ele>
        <time>2022-11-05T11:34:19Z</time>
      </trkpt>
      <trkpt lat="48.34236" lon="7.05454">
        <ele>738.2</ele>
        <time>2022-11-05T11:34:21Z</time>
      </trkpt>
      <trkpt lat="48.34219" lon="7.05446">
        <ele>737.6</ele>
        <time>2022-11-05T11:34:23Z</time>
      </trkpt>
      <trkpt lat="48.34205" lon="7.05443">
        <ele>737.6</ele>
        <time>2022-11-05T11:34:25Z</time>
      </trkpt>
      <trkpt lat="48.34173" lon="7.05436">
        <ele>736.8</ele>
        <time>2022-11-05T11:34:29Z</time>
      </trkpt>
      <trkpt lat="48.34157" lon="7.05434">
        <ele>736.4</ele>
        <time>2022-11-05T11:34:31Z</time>
      </trkpt>
      <trkpt lat="48.34149" lon="7.05431">
        <ele>736</ele>
        <time>2022-11-05T11:34:32Z</time>
      </trkpt>
      <trkpt lat="48.34129" lon="7.05434">
        <ele>735.6</ele>
        <time>2022-11-05T11:34:34Z</time>
      </trkpt>
      <trkpt lat="48.34121" lon="7.05433">
        <ele>735.4</ele>
        <time>2022-11-05T11:34:35Z</time>
      </trkpt>
      <trkpt lat="48.34096" lon="7.05425">
        <ele>734.4</ele>
        <time>2022-11-05T11:34:38Z</time>
      </trkpt>
      <trkpt lat="48.34087" lon="7.0542">
        <ele>734.2</ele>
        <time>2022-11-05T11:34:39Z</time>
      </trkpt>
      <trkpt lat="48.3408" lon="7.05415">
        <ele>733.8</ele>
        <time>2022-11-05T11:34:40Z</time>
      </trkpt>
      <trkpt lat="48.34066" lon="7.05405">
        <ele>733.2</ele>
        <time>2022-11-05T11:34:42Z</time>
      </trkpt>
      <trkpt lat="48.34048" lon="7.05395">
        <ele>733</ele>
        <time>2022-11-05T11:34:44Z</time>
      </trkpt>
      <trkpt lat="48.34027" lon="7.05384">
        <ele>732</ele>
        <time>2022-11-05T11:34:47Z</time>
      </trkpt>
      <trkpt lat="48.3401" lon="7.05376">
        <ele>730.8</ele>
        <time>2022-11-05T11:34:49Z</time>
      </trkpt>
      <trkpt lat="48.34003" lon="7.05374">
        <ele>729.8</ele>
        <time>2022-11-05T11:34:50Z</time>
      </trkpt>
      <trkpt lat="48.33995" lon="7.05369">
        <ele>729.4</ele>
        <time>2022-11-05T11:34:51Z</time>
      </trkpt>
      <trkpt lat="48.3398" lon="7.05356">
        <ele>728.4</ele>
        <time>2022-11-05T11:34:53Z</time>
      </trkpt>
      <trkpt lat="48.33967" lon="7.05342">
        <ele>727</ele>
        <time>2022-11-05T11:34:55Z</time>
      </trkpt>
      <trkpt lat="48.33959" lon="7.05337">
        <ele>726</ele>
        <time>2022-11-05T11:34:56Z</time>
      </trkpt>
      <trkpt lat="48.33951" lon="7.05334">
        <ele>725.4</ele>
        <time>2022-11-05T11:34:57Z</time>
      </trkpt>
      <trkpt lat="48.3394" lon="7.05332">
        <ele>724.2</ele>
        <time>2022-11-05T11:34:58Z</time>
      </trkpt>
      <trkpt lat="48.33925" lon="7.05332">
        <ele>722.8</ele>
        <time>2022-11-05T11:35:00Z</time>
      </trkpt>
      <trkpt lat="48.33917" lon="7.05332">
        <ele>722.2</ele>
        <time>2022-11-05T11:35:01Z</time>
      </trkpt>
      <trkpt lat="48.33908" lon="7.05333">
        <ele>721.4</ele>
        <time>2022-11-05T11:35:02Z</time>
      </trkpt>
      <trkpt lat="48.33882" lon="7.05329">
        <ele>720</ele>
        <time>2022-11-05T11:35:05Z</time>
      </trkpt>
      <trkpt lat="48.33874" lon="7.05326">
        <ele>719.4</ele>
        <time>2022-11-05T11:35:06Z</time>
      </trkpt>
      <trkpt lat="48.33865" lon="7.05322">
        <ele>718.8</ele>
        <time>2022-11-05T11:35:07Z</time>
      </trkpt>
      <trkpt lat="48.33847" lon="7.05315">
        <ele>717.8</ele>
        <time>2022-11-05T11:35:09Z</time>
      </trkpt>
      <trkpt lat="48.33839" lon="7.05311">
        <ele>717.4</ele>
        <time>2022-11-05T11:35:10Z</time>
      </trkpt>
      <trkpt lat="48.33831" lon="7.05305">
        <ele>715.6</ele>
        <time>2022-11-05T11:35:11Z</time>
      </trkpt>
      <trkpt lat="48.33816" lon="7.05295">
        <ele>713.8</ele>
        <time>2022-11-05T11:35:13Z</time>
      </trkpt>
      <trkpt lat="48.338" lon="7.05286">
        <ele>711.8</ele>
        <time>2022-11-05T11:35:15Z</time>
      </trkpt>
      <trkpt lat="48.33793" lon="7.05284">
        <ele>711</ele>
        <time>2022-11-05T11:35:16Z</time>
      </trkpt>
      <trkpt lat="48.33785" lon="7.05281">
        <ele>709.8</ele>
        <time>2022-11-05T11:35:17Z</time>
      </trkpt>
      <trkpt lat="48.3377" lon="7.05275">
        <ele>707.6</ele>
        <time>2022-11-05T11:35:19Z</time>
      </trkpt>
      <trkpt lat="48.33765" lon="7.05273">
        <ele>706.8</ele>
        <time>2022-11-05T11:35:20Z</time>
      </trkpt>
      <trkpt lat="48.33759" lon="7.05272">
        <ele>705.6</ele>
        <time>2022-11-05T11:35:21Z</time>
      </trkpt>
      <trkpt lat="48.33748" lon="7.0527">
        <ele>704.2</ele>
        <time>2022-11-05T11:35:23Z</time>
      </trkpt>
      <trkpt lat="48.3374" lon="7.05268">
        <ele>703</ele>
        <time>2022-11-05T11:35:25Z</time>
      </trkpt>
      <trkpt lat="48.33737" lon="7.05266">
        <ele>702.8</ele>
        <time>2022-11-05T11:35:26Z</time>
      </trkpt>
      <trkpt lat="48.33731" lon="7.05267">
        <ele>701.8</ele>
        <time>2022-11-05T11:35:28Z</time>
      </trkpt>
      <trkpt lat="48.33727" lon="7.05271">
        <ele>701</ele>
        <time>2022-11-05T11:35:30Z</time>
      </trkpt>
      <trkpt lat="48.33726" lon="7.05274">
        <ele>700.8</ele>
        <time>2022-11-05T11:35:31Z</time>
      </trkpt>
      <trkpt lat="48.33725" lon="7.05289">
        <ele>700.4</ele>
        <time>2022-11-05T11:35:34Z</time>
      </trkpt>
      <trkpt lat="48.33728" lon="7.05324">
        <ele>700</ele>
        <time>2022-11-05T11:35:39Z</time>
      </trkpt>
      <trkpt lat="48.33732" lon="7.0536">
        <ele>699.6</ele>
        <time>2022-11-05T11:35:43Z</time>
      </trkpt>
      <trkpt lat="48.33736" lon="7.0538">
        <ele>699.2</ele>
        <time>2022-11-05T11:35:45Z</time>
      </trkpt>
      <trkpt lat="48.33745" lon="7.05411">
        <ele>698.4</ele>
        <time>2022-11-05T11:35:48Z</time>
      </trkpt>
      <trkpt lat="48.3375" lon="7.0542">
        <ele>698</ele>
        <time>2022-11-05T11:35:49Z</time>
      </trkpt>
      <trkpt lat="48.33756" lon="7.0543">
        <ele>697.8</ele>
        <time>2022-11-05T11:35:50Z</time>
      </trkpt>
      <trkpt lat="48.33763" lon="7.0544">
        <ele>697.2</ele>
        <time>2022-11-05T11:35:51Z</time>
      </trkpt>
      <trkpt lat="48.33768" lon="7.05447">
        <ele>697</ele>
        <time>2022-11-05T11:35:52Z</time>
      </trkpt>
      <trkpt lat="48.33774" lon="7.05454">
        <ele>696.6</ele>
        <time>2022-11-05T11:35:53Z</time>
      </trkpt>
      <trkpt lat="48.33784" lon="7.05466">
        <ele>695.8</ele>
        <time>2022-11-05T11:35:55Z</time>
      </trkpt>
      <trkpt lat="48.33791" lon="7.05476">
        <ele>695.2</ele>
        <time>2022-11-05T11:35:57Z</time>
      </trkpt>
      <trkpt lat="48.33795" lon="7.05483">
        <ele>694.4</ele>
        <time>2022-11-05T11:35:59Z</time>
      </trkpt>
      <trkpt lat="48.33794" lon="7.05486">
        <ele>694</ele>
        <time>2022-11-05T11:36:00Z</time>
      </trkpt>
      <trkpt lat="48.33792" lon="7.05487">
        <ele>693.6</ele>
        <time>2022-11-05T11:36:01Z</time>
      </trkpt>
      <trkpt lat="48.33789" lon="7.05486">
        <ele>693.4</ele>
        <time>2022-11-05T11:36:02Z</time>
      </trkpt>
      <trkpt lat="48.33787" lon="7.05483">
        <ele>692.8</ele>
        <time>2022-11-05T11:36:03Z</time>
      </trkpt>
      <trkpt lat="48.33782" lon="7.05475">
        <ele>692.2</ele>
        <time>2022-11-05T11:36:05Z</time>
      </trkpt>
      <trkpt lat="48.33767" lon="7.05461">
        <ele>691.6</ele>
        <time>2022-11-05T11:36:09Z</time>
      </trkpt>
      <trkpt lat="48.33742" lon="7.05445">
        <ele>691.6</ele>
        <time>2022-11-05T11:36:14Z</time>
      </trkpt>
      <trkpt lat="48.33731" lon="7.0544">
        <ele>691.6</ele>
        <time>2022-11-05T11:36:16Z</time>
      </trkpt>
      <trkpt lat="48.33725" lon="7.05438">
        <ele>691.4</ele>
        <time>2022-11-05T11:36:17Z</time>
      </trkpt>
      <trkpt lat="48.33712" lon="7.05439">
        <ele>691.4</ele>
        <time>2022-11-05T11:36:19Z</time>
      </trkpt>
      <trkpt lat="48.33705" lon="7.05441">
        <ele>691.2</ele>
        <time>2022-11-05T11:36:20Z</time>
      </trkpt>
      <trkpt lat="48.33698" lon="7.05443">
        <ele>691.2</ele>
        <time>2022-11-05T11:36:21Z</time>
      </trkpt>
      <trkpt lat="48.33671" lon="7.05456">
        <ele>690.8</ele>
        <time>2022-11-05T11:36:25Z</time>
      </trkpt>
      <trkpt lat="48.33652" lon="7.0547">
        <ele>690.2</ele>
        <time>2022-11-05T11:36:28Z</time>
      </trkpt>
      <trkpt lat="48.3364" lon="7.05481">
        <ele>689.8</ele>
        <time>2022-11-05T11:36:30Z</time>
      </trkpt>
      <trkpt lat="48.33631" lon="7.05498">
        <ele>689.4</ele>
        <time>2022-11-05T11:36:32Z</time>
      </trkpt>
      <trkpt lat="48.33629" lon="7.0551">
        <ele>689.2</ele>
        <time>2022-11-05T11:36:33Z</time>
      </trkpt>
      <trkpt lat="48.33627" lon="7.05523">
        <ele>689</ele>
        <time>2022-11-05T11:36:34Z</time>
      </trkpt>
      <trkpt lat="48.33626" lon="7.05549">
        <ele>688.8</ele>
        <time>2022-11-05T11:36:36Z</time>
      </trkpt>
      <trkpt lat="48.33623" lon="7.05587">
        <ele>687.6</ele>
        <time>2022-11-05T11:36:39Z</time>
      </trkpt>
      <trkpt lat="48.33619" lon="7.05611">
        <ele>687</ele>
        <time>2022-11-05T11:36:41Z</time>
      </trkpt>
      <trkpt lat="48.33615" lon="7.05638">
        <ele>686.4</ele>
        <time>2022-11-05T11:36:43Z</time>
      </trkpt>
      <trkpt lat="48.33601" lon="7.05702">
        <ele>685.4</ele>
        <time>2022-11-05T11:36:48Z</time>
      </trkpt>
      <trkpt lat="48.33578" lon="7.05767">
        <ele>684</ele>
        <time>2022-11-05T11:36:53Z</time>
      </trkpt>
      <trkpt lat="48.33562" lon="7.05805">
        <ele>683.4</ele>
        <time>2022-11-05T11:36:56Z</time>
      </trkpt>
      <trkpt lat="48.33555" lon="7.05821">
        <ele>682.8</ele>
        <time>2022-11-05T11:36:57Z</time>
      </trkpt>
      <trkpt lat="48.3354" lon="7.05866">
        <ele>681.4</ele>
        <time>2022-11-05T11:37:00Z</time>
      </trkpt>
      <trkpt lat="48.33536" lon="7.05884">
        <ele>680</ele>
        <time>2022-11-05T11:37:01Z</time>
      </trkpt>
      <trkpt lat="48.33528" lon="7.05915">
        <ele>678.4</ele>
        <time>2022-11-05T11:37:03Z</time>
      </trkpt>
      <trkpt lat="48.33523" lon="7.05943">
        <ele>677</ele>
        <time>2022-11-05T11:37:05Z</time>
      </trkpt>
      <trkpt lat="48.33509" lon="7.05972">
        <ele>676.4</ele>
        <time>2022-11-05T11:37:07Z</time>
      </trkpt>
      <trkpt lat="48.33493" lon="7.06002">
        <ele>675.6</ele>
        <time>2022-11-05T11:37:09Z</time>
      </trkpt>
      <trkpt lat="48.3348" lon="7.06022">
        <ele>675</ele>
        <time>2022-11-05T11:37:11Z</time>
      </trkpt>
      <trkpt lat="48.33472" lon="7.06034">
        <ele>674.2</ele>
        <time>2022-11-05T11:37:12Z</time>
      </trkpt>
      <trkpt lat="48.33466" lon="7.06043">
        <ele>674</ele>
        <time>2022-11-05T11:37:13Z</time>
      </trkpt>
      <trkpt lat="48.33453" lon="7.06056">
        <ele>673</ele>
        <time>2022-11-05T11:37:15Z</time>
      </trkpt>
      <trkpt lat="48.33438" lon="7.06068">
        <ele>671.8</ele>
        <time>2022-11-05T11:37:17Z</time>
      </trkpt>
      <trkpt lat="48.33424" lon="7.06079">
        <ele>670.6</ele>
        <time>2022-11-05T11:37:19Z</time>
      </trkpt>
      <trkpt lat="48.33417" lon="7.06085">
        <ele>669.6</ele>
        <time>2022-11-05T11:37:20Z</time>
      </trkpt>
      <trkpt lat="48.3341" lon="7.0609">
        <ele>669</ele>
        <time>2022-11-05T11:37:21Z</time>
      </trkpt>
      <trkpt lat="48.33403" lon="7.06096">
        <ele>667.8</ele>
        <time>2022-11-05T11:37:22Z</time>
      </trkpt>
      <trkpt lat="48.33397" lon="7.06103">
        <ele>667.4</ele>
        <time>2022-11-05T11:37:23Z</time>
      </trkpt>
      <trkpt lat="48.3339" lon="7.0611">
        <ele>666.4</ele>
        <time>2022-11-05T11:37:24Z</time>
      </trkpt>
      <trkpt lat="48.33384" lon="7.06115">
        <ele>665.8</ele>
        <time>2022-11-05T11:37:25Z</time>
      </trkpt>
      <trkpt lat="48.33377" lon="7.06121">
        <ele>664.4</ele>
        <time>2022-11-05T11:37:26Z</time>
      </trkpt>
      <trkpt lat="48.3337" lon="7.06129">
        <ele>664</ele>
        <time>2022-11-05T11:37:27Z</time>
      </trkpt>
      <trkpt lat="48.33366" lon="7.06134">
        <ele>663</ele>
        <time>2022-11-05T11:37:28Z</time>
      </trkpt>
      <trkpt lat="48.33358" lon="7.06143">
        <ele>662.6</ele>
        <time>2022-11-05T11:37:29Z</time>
      </trkpt>
      <trkpt lat="48.33353" lon="7.0615">
        <ele>661.8</ele>
        <time>2022-11-05T11:37:30Z</time>
      </trkpt>
      <trkpt lat="48.3334" lon="7.06164">
        <ele>661</ele>
        <time>2022-11-05T11:37:32Z</time>
      </trkpt>
      <trkpt lat="48.33328" lon="7.06179">
        <ele>660.2</ele>
        <time>2022-11-05T11:37:34Z</time>
      </trkpt>
      <trkpt lat="48.33319" lon="7.06193">
        <ele>659.2</ele>
        <time>2022-11-05T11:37:36Z</time>
      </trkpt>
      <trkpt lat="48.33306" lon="7.06221">
        <ele>657.8</ele>
        <time>2022-11-05T11:37:39Z</time>
      </trkpt>
      <trkpt lat="48.33298" lon="7.06238">
        <ele>657.4</ele>
        <time>2022-11-05T11:37:41Z</time>
      </trkpt>
      <trkpt lat="48.33283" lon="7.06281">
        <ele>657</ele>
        <time>2022-11-05T11:37:45Z</time>
      </trkpt>
      <trkpt lat="48.33281" lon="7.06289">
        <ele>656.6</ele>
        <time>2022-11-05T11:37:46Z</time>
      </trkpt>
      <trkpt lat="48.33256" lon="7.06357">
        <ele>655.4</ele>
        <time>2022-11-05T11:37:53Z</time>
      </trkpt>
      <trkpt lat="48.33248" lon="7.06383">
        <ele>655</ele>
        <time>2022-11-05T11:37:56Z</time>
      </trkpt>
      <trkpt lat="48.33246" lon="7.06392">
        <ele>654.8</ele>
        <time>2022-11-05T11:37:57Z</time>
      </trkpt>
      <trkpt lat="48.33241" lon="7.06418">
        <ele>654.4</ele>
        <time>2022-11-05T11:38:00Z</time>
      </trkpt>
      <trkpt lat="48.3324" lon="7.06435">
        <ele>654.2</ele>
        <time>2022-11-05T11:38:02Z</time>
      </trkpt>
      <trkpt lat="48.33239" lon="7.06469">
        <ele>654</ele>
        <time>2022-11-05T11:38:07Z</time>
      </trkpt>
      <trkpt lat="48.33239" lon="7.0649">
        <ele>654.2</ele>
        <time>2022-11-05T11:38:12Z</time>
      </trkpt>
      <trkpt lat="48.33241" lon="7.06499">
        <ele>654.2</ele>
        <time>2022-11-05T11:38:15Z</time>
      </trkpt>
      <trkpt lat="48.33244" lon="7.06501">
        <ele>654.4</ele>
        <time>2022-11-05T11:38:17Z</time>
      </trkpt>
      <trkpt lat="48.33253" lon="7.06506">
        <ele>654.6</ele>
        <time>2022-11-05T11:38:23Z</time>
      </trkpt>
      <trkpt lat="48.33263" lon="7.06519">
        <ele>654.6</ele>
        <time>2022-11-05T11:38:30Z</time>
      </trkpt>
      <trkpt lat="48.33265" lon="7.06522">
        <ele>654.6</ele>
        <time>2022-11-05T11:38:32Z</time>
      </trkpt>
      <trkpt lat="48.33266" lon="7.06523">
        <ele>654.6</ele>
        <time>2022-11-05T11:38:33Z</time>
      </trkpt>
      <trkpt lat="48.33268" lon="7.06524">
        <ele>654.6</ele>
        <time>2022-11-05T11:38:34Z</time>
      </trkpt>
      <trkpt lat="48.33274" lon="7.06526">
        <ele>654.6</ele>
        <time>2022-11-05T11:38:38Z</time>
      </trkpt>
      <trkpt lat="48.33276" lon="7.06527">
        <ele>654.6</ele>
        <time>2022-11-05T11:38:39Z</time>
      </trkpt>
      <trkpt lat="48.33282" lon="7.06532">
        <ele>653.8</ele>
        <time>2022-11-05T11:38:43Z</time>
      </trkpt>
      <trkpt lat="48.33284" lon="7.06533">
        <ele>653.2</ele>
        <time>2022-11-05T11:38:44Z</time>
      </trkpt>
      <trkpt lat="48.3329" lon="7.06538">
        <ele>651.6</ele>
        <time>2022-11-05T11:38:48Z</time>
      </trkpt>
      <trkpt lat="48.33296" lon="7.0654">
        <ele>650.6</ele>
        <time>2022-11-05T11:38:51Z</time>
      </trkpt>
      <trkpt lat="48.33298" lon="7.0654">
        <ele>650.2</ele>
        <time>2022-11-05T11:38:52Z</time>
      </trkpt>
      <trkpt lat="48.33309" lon="7.0654">
        <ele>648.8</ele>
        <time>2022-11-05T11:38:56Z</time>
      </trkpt>
      <trkpt lat="48.33311" lon="7.06542">
        <ele>648.6</ele>
        <time>2022-11-05T11:38:57Z</time>
      </trkpt>
      <trkpt lat="48.33313" lon="7.06542">
        <ele>647.6</ele>
        <time>2022-11-05T11:38:58Z</time>
      </trkpt>
      <trkpt lat="48.33319" lon="7.06546">
        <ele>646.6</ele>
        <time>2022-11-05T11:39:01Z</time>
      </trkpt>
      <trkpt lat="48.33324" lon="7.06549">
        <ele>645.6</ele>
        <time>2022-11-05T11:39:05Z</time>
      </trkpt>
      <trkpt lat="48.3333" lon="7.06552">
        <ele>644.4</ele>
        <time>2022-11-05T11:39:08Z</time>
      </trkpt>
      <trkpt lat="48.33333" lon="7.06554">
        <ele>643.6</ele>
        <time>2022-11-05T11:39:10Z</time>
      </trkpt>
      <trkpt lat="48.33334" lon="7.06554">
        <ele>643.4</ele>
        <time>2022-11-05T11:39:11Z</time>
      </trkpt>
      <trkpt lat="48.33339" lon="7.06556">
        <ele>641.8</ele>
        <time>2022-11-05T11:39:14Z</time>
      </trkpt>
      <trkpt lat="48.33342" lon="7.06558">
        <ele>641.4</ele>
        <time>2022-11-05T11:39:16Z</time>
      </trkpt>
      <trkpt lat="48.33343" lon="7.06559">
        <ele>641.2</ele>
        <time>2022-11-05T11:39:17Z</time>
      </trkpt>
      <trkpt lat="48.33349" lon="7.06561">
        <ele>640.6</ele>
        <time>2022-11-05T11:39:20Z</time>
      </trkpt>
      <trkpt lat="48.33353" lon="7.06562">
        <ele>639.4</ele>
        <time>2022-11-05T11:39:22Z</time>
      </trkpt>
      <trkpt lat="48.33358" lon="7.06561">
        <ele>638.2</ele>
        <time>2022-11-05T11:39:24Z</time>
      </trkpt>
      <trkpt lat="48.3336" lon="7.0656">
        <ele>637.8</ele>
        <time>2022-11-05T11:39:25Z</time>
      </trkpt>
      <trkpt lat="48.33366" lon="7.06557">
        <ele>637</ele>
        <time>2022-11-05T11:39:28Z</time>
      </trkpt>
      <trkpt lat="48.33369" lon="7.06555">
        <ele>635.8</ele>
        <time>2022-11-05T11:39:30Z</time>
      </trkpt>
      <trkpt lat="48.33376" lon="7.06551">
        <ele>634.8</ele>
        <time>2022-11-05T11:39:33Z</time>
      </trkpt>
      <trkpt lat="48.33378" lon="7.0655">
        <ele>633.8</ele>
        <time>2022-11-05T11:39:34Z</time>
      </trkpt>
      <trkpt lat="48.33386" lon="7.06544">
        <ele>632.6</ele>
        <time>2022-11-05T11:39:37Z</time>
      </trkpt>
      <trkpt lat="48.33392" lon="7.0654">
        <ele>631.4</ele>
        <time>2022-11-05T11:39:40Z</time>
      </trkpt>
      <trkpt lat="48.334" lon="7.06535">
        <ele>630.2</ele>
        <time>2022-11-05T11:39:43Z</time>
      </trkpt>
      <trkpt lat="48.33406" lon="7.06532">
        <ele>629</ele>
        <time>2022-11-05T11:39:46Z</time>
      </trkpt>
      <trkpt lat="48.33412" lon="7.06529">
        <ele>628</ele>
        <time>2022-11-05T11:39:48Z</time>
      </trkpt>
      <trkpt lat="48.33415" lon="7.06528">
        <ele>626.6</ele>
        <time>2022-11-05T11:39:50Z</time>
      </trkpt>
      <trkpt lat="48.33422" lon="7.06526">
        <ele>626</ele>
        <time>2022-11-05T11:39:53Z</time>
      </trkpt>
      <trkpt lat="48.33424" lon="7.06525">
        <ele>625.4</ele>
        <time>2022-11-05T11:39:54Z</time>
      </trkpt>
      <trkpt lat="48.33431" lon="7.06523">
        <ele>623.8</ele>
        <time>2022-11-05T11:39:57Z</time>
      </trkpt>
      <trkpt lat="48.33435" lon="7.06522">
        <ele>622.8</ele>
        <time>2022-11-05T11:39:59Z</time>
      </trkpt>
      <trkpt lat="48.33437" lon="7.06521">
        <ele>622.6</ele>
        <time>2022-11-05T11:40:00Z</time>
      </trkpt>
      <trkpt lat="48.33441" lon="7.0652">
        <ele>621.2</ele>
        <time>2022-11-05T11:40:02Z</time>
      </trkpt>
      <trkpt lat="48.33446" lon="7.06517">
        <ele>620</ele>
        <time>2022-11-05T11:40:05Z</time>
      </trkpt>
      <trkpt lat="48.33449" lon="7.06516">
        <ele>619.8</ele>
        <time>2022-11-05T11:40:06Z</time>
      </trkpt>
      <trkpt lat="48.33454" lon="7.06513">
        <ele>618.4</ele>
        <time>2022-11-05T11:40:09Z</time>
      </trkpt>
      <trkpt lat="48.33459" lon="7.06509">
        <ele>617.2</ele>
        <time>2022-11-05T11:40:12Z</time>
      </trkpt>
      <trkpt lat="48.33465" lon="7.06505">
        <ele>616</ele>
        <time>2022-11-05T11:40:15Z</time>
      </trkpt>
      <trkpt lat="48.33467" lon="7.06503">
        <ele>615.8</ele>
        <time>2022-11-05T11:40:16Z</time>
      </trkpt>
      <trkpt lat="48.33473" lon="7.06498">
        <ele>614.8</ele>
        <time>2022-11-05T11:40:19Z</time>
      </trkpt>
      <trkpt lat="48.33476" lon="7.06491">
        <ele>613.6</ele>
        <time>2022-11-05T11:40:22Z</time>
      </trkpt>
      <trkpt lat="48.33478" lon="7.06489">
        <ele>613</ele>
        <time>2022-11-05T11:40:23Z</time>
      </trkpt>
      <trkpt lat="48.33479" lon="7.06485">
        <ele>612.2</ele>
        <time>2022-11-05T11:40:25Z</time>
      </trkpt>
      <trkpt lat="48.3348" lon="7.06483">
        <ele>611.2</ele>
        <time>2022-11-05T11:40:28Z</time>
      </trkpt>
      <trkpt lat="48.33481" lon="7.06483">
        <ele>610.6</ele>
        <time>2022-11-05T11:40:29Z</time>
      </trkpt>
      <trkpt lat="48.33484" lon="7.06474">
        <ele>609.4</ele>
        <time>2022-11-05T11:40:35Z</time>
      </trkpt>
      <trkpt lat="48.33497" lon="7.06464">
        <ele>608.8</ele>
        <time>2022-11-05T11:40:39Z</time>
      </trkpt>
      <trkpt lat="48.335" lon="7.06464">
        <ele>608.6</ele>
        <time>2022-11-05T11:40:40Z</time>
      </trkpt>
      <trkpt lat="48.33505" lon="7.06471">
        <ele>608.2</ele>
        <time>2022-11-05T11:40:42Z</time>
      </trkpt>
      <trkpt lat="48.33507" lon="7.06478">
        <ele>607.8</ele>
        <time>2022-11-05T11:40:43Z</time>
      </trkpt>
      <trkpt lat="48.33511" lon="7.06494">
        <ele>606.6</ele>
        <time>2022-11-05T11:40:45Z</time>
      </trkpt>
      <trkpt lat="48.33513" lon="7.06503">
        <ele>606.2</ele>
        <time>2022-11-05T11:40:46Z</time>
      </trkpt>
      <trkpt lat="48.33514" lon="7.06512">
        <ele>605.4</ele>
        <time>2022-11-05T11:40:47Z</time>
      </trkpt>
      <trkpt lat="48.33519" lon="7.06529">
        <ele>604.4</ele>
        <time>2022-11-05T11:40:49Z</time>
      </trkpt>
      <trkpt lat="48.33521" lon="7.06548">
        <ele>603</ele>
        <time>2022-11-05T11:40:51Z</time>
      </trkpt>
      <trkpt lat="48.3352" lon="7.0657">
        <ele>601.8</ele>
        <time>2022-11-05T11:40:53Z</time>
      </trkpt>
      <trkpt lat="48.33519" lon="7.06589">
        <ele>600.4</ele>
        <time>2022-11-05T11:40:55Z</time>
      </trkpt>
      <trkpt lat="48.3352" lon="7.06596">
        <ele>600</ele>
        <time>2022-11-05T11:40:56Z</time>
      </trkpt>
      <trkpt lat="48.33524" lon="7.06605">
        <ele>599.2</ele>
        <time>2022-11-05T11:40:57Z</time>
      </trkpt>
      <trkpt lat="48.33535" lon="7.06617">
        <ele>598.2</ele>
        <time>2022-11-05T11:40:59Z</time>
      </trkpt>
      <trkpt lat="48.33547" lon="7.06629">
        <ele>597.4</ele>
        <time>2022-11-05T11:41:01Z</time>
      </trkpt>
      <trkpt lat="48.33552" lon="7.06633">
        <ele>597</ele>
        <time>2022-11-05T11:41:02Z</time>
      </trkpt>
      <trkpt lat="48.33559" lon="7.06638">
        <ele>596.2</ele>
        <time>2022-11-05T11:41:03Z</time>
      </trkpt>
      <trkpt lat="48.33566" lon="7.06641">
        <ele>595.8</ele>
        <time>2022-11-05T11:41:04Z</time>
      </trkpt>
      <trkpt lat="48.33572" lon="7.06643">
        <ele>594.2</ele>
        <time>2022-11-05T11:41:05Z</time>
      </trkpt>
      <trkpt lat="48.33585" lon="7.06646">
        <ele>592.2</ele>
        <time>2022-11-05T11:41:07Z</time>
      </trkpt>
      <trkpt lat="48.33595" lon="7.06649">
        <ele>589.8</ele>
        <time>2022-11-05T11:41:09Z</time>
      </trkpt>
      <trkpt lat="48.33604" lon="7.0665">
        <ele>587.2</ele>
        <time>2022-11-05T11:41:11Z</time>
      </trkpt>
      <trkpt lat="48.33613" lon="7.06651">
        <ele>584.6</ele>
        <time>2022-11-05T11:41:13Z</time>
      </trkpt>
      <trkpt lat="48.33617" lon="7.0665">
        <ele>583.8</ele>
        <time>2022-11-05T11:41:14Z</time>
      </trkpt>
      <trkpt lat="48.33621" lon="7.0665">
        <ele>582</ele>
        <time>2022-11-05T11:41:15Z</time>
      </trkpt>
      <trkpt lat="48.33628" lon="7.0665">
        <ele>580</ele>
        <time>2022-11-05T11:41:17Z</time>
      </trkpt>
      <trkpt lat="48.33635" lon="7.06649">
        <ele>578.4</ele>
        <time>2022-11-05T11:41:19Z</time>
      </trkpt>
      <trkpt lat="48.33638" lon="7.06646">
        <ele>578.2</ele>
        <time>2022-11-05T11:41:20Z</time>
      </trkpt>
      <trkpt lat="48.33641" lon="7.06643">
        <ele>577</ele>
        <time>2022-11-05T11:41:21Z</time>
      </trkpt>
      <trkpt lat="48.33645" lon="7.06634">
        <ele>576</ele>
        <time>2022-11-05T11:41:23Z</time>
      </trkpt>
      <trkpt lat="48.33645" lon="7.0663">
        <ele>575.6</ele>
        <time>2022-11-05T11:41:24Z</time>
      </trkpt>
      <trkpt lat="48.33652" lon="7.06599">
        <ele>575.4</ele>
        <time>2022-11-05T11:41:31Z</time>
      </trkpt>
      <trkpt lat="48.33658" lon="7.0657">
        <ele>577.2</ele>
        <time>2022-11-05T11:41:39Z</time>
      </trkpt>
      <trkpt lat="48.33662" lon="7.06551">
        <ele>578.2</ele>
        <time>2022-11-05T11:41:44Z</time>
      </trkpt>
      <trkpt lat="48.33663" lon="7.06548">
        <ele>578.4</ele>
        <time>2022-11-05T11:41:45Z</time>
      </trkpt>
      <trkpt lat="48.33668" lon="7.06529">
        <ele>579.4</ele>
        <time>2022-11-05T11:41:50Z</time>
      </trkpt>
      <trkpt lat="48.33668" lon="7.06526">
        <ele>579.6</ele>
        <time>2022-11-05T11:41:51Z</time>
      </trkpt>
      <trkpt lat="48.33671" lon="7.06512">
        <ele>580.2</ele>
        <time>2022-11-05T11:41:55Z</time>
      </trkpt>
      <trkpt lat="48.33676" lon="7.06498">
        <ele>581.4</ele>
        <time>2022-11-05T11:41:59Z</time>
      </trkpt>
      <trkpt lat="48.33679" lon="7.06493">
        <ele>581.6</ele>
        <time>2022-11-05T11:42:01Z</time>
      </trkpt>
      <trkpt lat="48.33685" lon="7.06486">
        <ele>582.2</ele>
        <time>2022-11-05T11:42:04Z</time>
      </trkpt>
      <trkpt lat="48.3369" lon="7.06483">
        <ele>582.8</ele>
        <time>2022-11-05T11:42:06Z</time>
      </trkpt>
      <trkpt lat="48.337" lon="7.06485">
        <ele>583.2</ele>
        <time>2022-11-05T11:42:10Z</time>
      </trkpt>
      <trkpt lat="48.33701" lon="7.06488">
        <ele>583.4</ele>
        <time>2022-11-05T11:42:11Z</time>
      </trkpt>
      <trkpt lat="48.33705" lon="7.06502">
        <ele>584.4</ele>
        <time>2022-11-05T11:42:15Z</time>
      </trkpt>
      <trkpt lat="48.33706" lon="7.06508">
        <ele>584.8</ele>
        <time>2022-11-05T11:42:17Z</time>
      </trkpt>
      <trkpt lat="48.33704" lon="7.06523">
        <ele>585.8</ele>
        <time>2022-11-05T11:42:21Z</time>
      </trkpt>
      <trkpt lat="48.33703" lon="7.06527">
        <ele>586</ele>
        <time>2022-11-05T11:42:22Z</time>
      </trkpt>
      <trkpt lat="48.33697" lon="7.06552">
        <ele>587</ele>
        <time>2022-11-05T11:42:28Z</time>
      </trkpt>
      <trkpt lat="48.33695" lon="7.06559">
        <ele>587.2</ele>
        <time>2022-11-05T11:42:30Z</time>
      </trkpt>
      <trkpt lat="48.33691" lon="7.06574">
        <ele>588.2</ele>
        <time>2022-11-05T11:42:34Z</time>
      </trkpt>
      <trkpt lat="48.33689" lon="7.06586">
        <ele>588.6</ele>
        <time>2022-11-05T11:42:37Z</time>
      </trkpt>
      <trkpt lat="48.33691" lon="7.06605">
        <ele>589.2</ele>
        <time>2022-11-05T11:42:42Z</time>
      </trkpt>
      <trkpt lat="48.33692" lon="7.06609">
        <ele>589.4</ele>
        <time>2022-11-05T11:42:43Z</time>
      </trkpt>
      <trkpt lat="48.33701" lon="7.06626">
        <ele>590.4</ele>
        <time>2022-11-05T11:42:48Z</time>
      </trkpt>
      <trkpt lat="48.33706" lon="7.0663">
        <ele>590.8</ele>
        <time>2022-11-05T11:42:50Z</time>
      </trkpt>
      <trkpt lat="48.33715" lon="7.06632">
        <ele>591.4</ele>
        <time>2022-11-05T11:42:54Z</time>
      </trkpt>
      <trkpt lat="48.33719" lon="7.06632">
        <ele>591.8</ele>
        <time>2022-11-05T11:42:56Z</time>
      </trkpt>
      <trkpt lat="48.33728" lon="7.06627">
        <ele>592.6</ele>
        <time>2022-11-05T11:43:00Z</time>
      </trkpt>
      <trkpt lat="48.33736" lon="7.06618">
        <ele>593.6</ele>
        <time>2022-11-05T11:43:04Z</time>
      </trkpt>
      <trkpt lat="48.3374" lon="7.06613">
        <ele>593.8</ele>
        <time>2022-11-05T11:43:06Z</time>
      </trkpt>
      <trkpt lat="48.3375" lon="7.06601">
        <ele>594.6</ele>
        <time>2022-11-05T11:43:11Z</time>
      </trkpt>
      <trkpt lat="48.33752" lon="7.06599">
        <ele>594.6</ele>
        <time>2022-11-05T11:43:13Z</time>
      </trkpt>
      <trkpt lat="48.33757" lon="7.06594">
        <ele>595</ele>
        <time>2022-11-05T11:43:14Z</time>
      </trkpt>
      <trkpt lat="48.33766" lon="7.06585">
        <ele>595.4</ele>
        <time>2022-11-05T11:43:18Z</time>
      </trkpt>
      <trkpt lat="48.33768" lon="7.06583">
        <ele>595.4</ele>
        <time>2022-11-05T11:43:19Z</time>
      </trkpt>
      <trkpt lat="48.33778" lon="7.06572">
        <ele>596.2</ele>
        <time>2022-11-05T11:43:24Z</time>
      </trkpt>
      <trkpt lat="48.33787" lon="7.06562">
        <ele>596.6</ele>
        <time>2022-11-05T11:43:28Z</time>
      </trkpt>
      <trkpt lat="48.33796" lon="7.06553">
        <ele>597.2</ele>
        <time>2022-11-05T11:43:32Z</time>
      </trkpt>
      <trkpt lat="48.33806" lon="7.06542">
        <ele>598.2</ele>
        <time>2022-11-05T11:43:37Z</time>
      </trkpt>
      <trkpt lat="48.33811" lon="7.06538">
        <ele>598.2</ele>
        <time>2022-11-05T11:43:38Z</time>
      </trkpt>
      <trkpt lat="48.3383" lon="7.0653">
        <ele>598.6</ele>
        <time>2022-11-05T11:43:44Z</time>
      </trkpt>
      <trkpt lat="48.33834" lon="7.0653">
        <ele>598.6</ele>
        <time>2022-11-05T11:43:45Z</time>
      </trkpt>
      <trkpt lat="48.33857" lon="7.06533">
        <ele>598.8</ele>
        <time>2022-11-05T11:43:51Z</time>
      </trkpt>
      <trkpt lat="48.33867" lon="7.06537">
        <ele>598.8</ele>
        <time>2022-11-05T11:43:54Z</time>
      </trkpt>
      <trkpt lat="48.33883" lon="7.06546">
        <ele>599</ele>
        <time>2022-11-05T11:43:59Z</time>
      </trkpt>
      <trkpt lat="48.3389" lon="7.0655">
        <ele>599.2</ele>
        <time>2022-11-05T11:44:01Z</time>
      </trkpt>
      <trkpt lat="48.33896" lon="7.06553">
        <ele>599.4</ele>
        <time>2022-11-05T11:44:03Z</time>
      </trkpt>
      <trkpt lat="48.33902" lon="7.06556">
        <ele>599.8</ele>
        <time>2022-11-05T11:44:05Z</time>
      </trkpt>
      <trkpt lat="48.33911" lon="7.0656">
        <ele>600.4</ele>
        <time>2022-11-05T11:44:08Z</time>
      </trkpt>
      <trkpt lat="48.33926" lon="7.06564">
        <ele>601.4</ele>
        <time>2022-11-05T11:44:13Z</time>
      </trkpt>
      <trkpt lat="48.3393" lon="7.06566">
        <ele>601.8</ele>
        <time>2022-11-05T11:44:14Z</time>
      </trkpt>
      <trkpt lat="48.33944" lon="7.06575">
        <ele>602.6</ele>
        <time>2022-11-05T11:44:19Z</time>
      </trkpt>
      <trkpt lat="48.33947" lon="7.06578">
        <ele>602.8</ele>
        <time>2022-11-05T11:44:20Z</time>
      </trkpt>
      <trkpt lat="48.33949" lon="7.06581">
        <ele>603</ele>
        <time>2022-11-05T11:44:21Z</time>
      </trkpt>
      <trkpt lat="48.33955" lon="7.06594">
        <ele>603.4</ele>
        <time>2022-11-05T11:44:24Z</time>
      </trkpt>
      <trkpt lat="48.33956" lon="7.06621">
        <ele>603.6</ele>
        <time>2022-11-05T11:44:29Z</time>
      </trkpt>
      <trkpt lat="48.3395" lon="7.06637">
        <ele>603.6</ele>
        <time>2022-11-05T11:44:32Z</time>
      </trkpt>
      <trkpt lat="48.33944" lon="7.06646">
        <ele>603.6</ele>
        <time>2022-11-05T11:44:34Z</time>
      </trkpt>
      <trkpt lat="48.33915" lon="7.06681">
        <ele>603.8</ele>
        <time>2022-11-05T11:44:43Z</time>
      </trkpt>
      <trkpt lat="48.33912" lon="7.06684">
        <ele>603.8</ele>
        <time>2022-11-05T11:44:45Z</time>
      </trkpt>
      <trkpt lat="48.33894" lon="7.06705">
        <ele>604.2</ele>
        <time>2022-11-05T11:44:50Z</time>
      </trkpt>
      <trkpt lat="48.33884" lon="7.06733">
        <ele>605</ele>
        <time>2022-11-05T11:44:56Z</time>
      </trkpt>
      <trkpt lat="48.33887" lon="7.06762">
        <ele>606</ele>
        <time>2022-11-05T11:45:02Z</time>
      </trkpt>
      <trkpt lat="48.33889" lon="7.0677">
        <ele>606.4</ele>
        <time>2022-11-05T11:45:04Z</time>
      </trkpt>
      <trkpt lat="48.33893" lon="7.06783">
        <ele>607.4</ele>
        <time>2022-11-05T11:45:08Z</time>
      </trkpt>
      <trkpt lat="48.33894" lon="7.06786">
        <ele>607.8</ele>
        <time>2022-11-05T11:45:09Z</time>
      </trkpt>
      <trkpt lat="48.33902" lon="7.06801">
        <ele>609</ele>
        <time>2022-11-05T11:45:15Z</time>
      </trkpt>
      <trkpt lat="48.33903" lon="7.06803">
        <ele>609.2</ele>
        <time>2022-11-05T11:45:16Z</time>
      </trkpt>
      <trkpt lat="48.33905" lon="7.06809">
        <ele>609.8</ele>
        <time>2022-11-05T11:45:18Z</time>
      </trkpt>
      <trkpt lat="48.33905" lon="7.06812">
        <ele>610</ele>
        <time>2022-11-05T11:45:19Z</time>
      </trkpt>
      <trkpt lat="48.33906" lon="7.06818">
        <ele>610.8</ele>
        <time>2022-11-05T11:45:21Z</time>
      </trkpt>
      <trkpt lat="48.33905" lon="7.06821">
        <ele>611</ele>
        <time>2022-11-05T11:45:22Z</time>
      </trkpt>
      <trkpt lat="48.33904" lon="7.06824">
        <ele>611.6</ele>
        <time>2022-11-05T11:45:23Z</time>
      </trkpt>
      <trkpt lat="48.33901" lon="7.06835">
        <ele>612.4</ele>
        <time>2022-11-05T11:45:27Z</time>
      </trkpt>
      <trkpt lat="48.339" lon="7.06837">
        <ele>612.6</ele>
        <time>2022-11-05T11:45:28Z</time>
      </trkpt>
      <trkpt lat="48.33895" lon="7.06859">
        <ele>613.6</ele>
        <time>2022-11-05T11:45:34Z</time>
      </trkpt>
      <trkpt lat="48.33894" lon="7.06865">
        <ele>613.8</ele>
        <time>2022-11-05T11:45:35Z</time>
      </trkpt>
      <trkpt lat="48.33893" lon="7.06878">
        <ele>613.8</ele>
        <time>2022-11-05T11:45:38Z</time>
      </trkpt>
      <trkpt lat="48.33893" lon="7.06888">
        <ele>614</ele>
        <time>2022-11-05T11:45:40Z</time>
      </trkpt>
      <trkpt lat="48.33894" lon="7.06897">
        <ele>614</ele>
        <time>2022-11-05T11:45:42Z</time>
      </trkpt>
      <trkpt lat="48.33901" lon="7.06929">
        <ele>614.6</ele>
        <time>2022-11-05T11:45:49Z</time>
      </trkpt>
      <trkpt lat="48.33909" lon="7.06963">
        <ele>615.2</ele>
        <time>2022-11-05T11:45:56Z</time>
      </trkpt>
      <trkpt lat="48.33914" lon="7.06977">
        <ele>615.4</ele>
        <time>2022-11-05T11:45:59Z</time>
      </trkpt>
      <trkpt lat="48.3392" lon="7.06991">
        <ele>615.4</ele>
        <time>2022-11-05T11:46:02Z</time>
      </trkpt>
      <trkpt lat="48.33927" lon="7.07005">
        <ele>615.6</ele>
        <time>2022-11-05T11:46:05Z</time>
      </trkpt>
      <trkpt lat="48.33934" lon="7.0702">
        <ele>615.4</ele>
        <time>2022-11-05T11:46:08Z</time>
      </trkpt>
      <trkpt lat="48.33949" lon="7.07052">
        <ele>615.2</ele>
        <time>2022-11-05T11:46:13Z</time>
      </trkpt>
      <trkpt lat="48.33961" lon="7.07073">
        <ele>614.8</ele>
        <time>2022-11-05T11:46:16Z</time>
      </trkpt>
      <trkpt lat="48.33971" lon="7.07085">
        <ele>614.4</ele>
        <time>2022-11-05T11:46:18Z</time>
      </trkpt>
      <trkpt lat="48.33976" lon="7.0709">
        <ele>614</ele>
        <time>2022-11-05T11:46:19Z</time>
      </trkpt>
      <trkpt lat="48.33989" lon="7.07099">
        <ele>613.6</ele>
        <time>2022-11-05T11:46:21Z</time>
      </trkpt>
      <trkpt lat="48.33996" lon="7.07103">
        <ele>613.6</ele>
        <time>2022-11-05T11:46:22Z</time>
      </trkpt>
      <trkpt lat="48.34016" lon="7.07111">
        <ele>612.6</ele>
        <time>2022-11-05T11:46:25Z</time>
      </trkpt>
      <trkpt lat="48.3404" lon="7.07121">
        <ele>611.6</ele>
        <time>2022-11-05T11:46:28Z</time>
      </trkpt>
      <trkpt lat="48.34046" lon="7.07124">
        <ele>611.2</ele>
        <time>2022-11-05T11:46:29Z</time>
      </trkpt>
      <trkpt lat="48.34087" lon="7.07142">
        <ele>610</ele>
        <time>2022-11-05T11:46:34Z</time>
      </trkpt>
      <trkpt lat="48.34114" lon="7.07156">
        <ele>608.6</ele>
        <time>2022-11-05T11:46:37Z</time>
      </trkpt>
      <trkpt lat="48.34123" lon="7.07161">
        <ele>608.2</ele>
        <time>2022-11-05T11:46:38Z</time>
      </trkpt>
      <trkpt lat="48.3414" lon="7.07171">
        <ele>607.6</ele>
        <time>2022-11-05T11:46:40Z</time>
      </trkpt>
      <trkpt lat="48.34165" lon="7.07184">
        <ele>606.8</ele>
        <time>2022-11-05T11:46:43Z</time>
      </trkpt>
      <trkpt lat="48.3418" lon="7.07193">
        <ele>606.4</ele>
        <time>2022-11-05T11:46:45Z</time>
      </trkpt>
      <trkpt lat="48.34201" lon="7.07205">
        <ele>606.2</ele>
        <time>2022-11-05T11:46:48Z</time>
      </trkpt>
      <trkpt lat="48.34207" lon="7.0721">
        <ele>606.2</ele>
        <time>2022-11-05T11:46:49Z</time>
      </trkpt>
      <trkpt lat="48.34217" lon="7.07224">
        <ele>606.4</ele>
        <time>2022-11-05T11:46:51Z</time>
      </trkpt>
      <trkpt lat="48.34222" lon="7.0724">
        <ele>606.4</ele>
        <time>2022-11-05T11:46:53Z</time>
      </trkpt>
      <trkpt lat="48.34224" lon="7.07249">
        <ele>606.4</ele>
        <time>2022-11-05T11:46:54Z</time>
      </trkpt>
      <trkpt lat="48.34224" lon="7.07257">
        <ele>606.6</ele>
        <time>2022-11-05T11:46:55Z</time>
      </trkpt>
      <trkpt lat="48.34222" lon="7.07274">
        <ele>606.6</ele>
        <time>2022-11-05T11:46:57Z</time>
      </trkpt>
      <trkpt lat="48.3422" lon="7.07283">
        <ele>606.8</ele>
        <time>2022-11-05T11:46:58Z</time>
      </trkpt>
      <trkpt lat="48.34217" lon="7.07299">
        <ele>606.8</ele>
        <time>2022-11-05T11:47:00Z</time>
      </trkpt>
      <trkpt lat="48.34211" lon="7.07327">
        <ele>607.2</ele>
        <time>2022-11-05T11:47:04Z</time>
      </trkpt>
      <trkpt lat="48.3421" lon="7.07333">
        <ele>607.8</ele>
        <time>2022-11-05T11:47:05Z</time>
      </trkpt>
      <trkpt lat="48.34206" lon="7.07353">
        <ele>608.8</ele>
        <time>2022-11-05T11:47:08Z</time>
      </trkpt>
      <trkpt lat="48.34204" lon="7.07364">
        <ele>609.4</ele>
        <time>2022-11-05T11:47:10Z</time>
      </trkpt>
      <trkpt lat="48.34202" lon="7.07375">
        <ele>609.8</ele>
        <time>2022-11-05T11:47:12Z</time>
      </trkpt>
      <trkpt lat="48.34199" lon="7.07401">
        <ele>611</ele>
        <time>2022-11-05T11:47:17Z</time>
      </trkpt>
      <trkpt lat="48.34198" lon="7.07428">
        <ele>611.8</ele>
        <time>2022-11-05T11:47:22Z</time>
      </trkpt>
      <trkpt lat="48.34199" lon="7.07438">
        <ele>612.2</ele>
        <time>2022-11-05T11:47:24Z</time>
      </trkpt>
      <trkpt lat="48.34199" lon="7.07449">
        <ele>612.6</ele>
        <time>2022-11-05T11:47:26Z</time>
      </trkpt>
      <trkpt lat="48.34199" lon="7.07454">
        <ele>612.6</ele>
        <time>2022-11-05T11:47:27Z</time>
      </trkpt>
      <trkpt lat="48.34199" lon="7.0747">
        <ele>613.2</ele>
        <time>2022-11-05T11:47:30Z</time>
      </trkpt>
      <trkpt lat="48.34196" lon="7.07507">
        <ele>614</ele>
        <time>2022-11-05T11:47:37Z</time>
      </trkpt>
      <trkpt lat="48.34194" lon="7.07522">
        <ele>614.4</ele>
        <time>2022-11-05T11:47:40Z</time>
      </trkpt>
      <trkpt lat="48.34189" lon="7.07553">
        <ele>615.2</ele>
        <time>2022-11-05T11:47:46Z</time>
      </trkpt>
      <trkpt lat="48.34188" lon="7.07563">
        <ele>615.4</ele>
        <time>2022-11-05T11:47:48Z</time>
      </trkpt>
      <trkpt lat="48.34184" lon="7.07581">
        <ele>616.4</ele>
        <time>2022-11-05T11:47:52Z</time>
      </trkpt>
      <trkpt lat="48.34183" lon="7.07591">
        <ele>616.6</ele>
        <time>2022-11-05T11:47:54Z</time>
      </trkpt>
      <trkpt lat="48.34182" lon="7.07601">
        <ele>617</ele>
        <time>2022-11-05T11:47:56Z</time>
      </trkpt>
      <trkpt lat="48.34181" lon="7.07621">
        <ele>617.6</ele>
        <time>2022-11-05T11:48:00Z</time>
      </trkpt>
      <trkpt lat="48.34181" lon="7.07631">
        <ele>617.8</ele>
        <time>2022-11-05T11:48:02Z</time>
      </trkpt>
      <trkpt lat="48.34185" lon="7.07652">
        <ele>618.8</ele>
        <time>2022-11-05T11:48:06Z</time>
      </trkpt>
      <trkpt lat="48.34188" lon="7.07676">
        <ele>619.8</ele>
        <time>2022-11-05T11:48:11Z</time>
      </trkpt>
      <trkpt lat="48.34189" lon="7.07681">
        <ele>620</ele>
        <time>2022-11-05T11:48:12Z</time>
      </trkpt>
      <trkpt lat="48.34192" lon="7.07696">
        <ele>620.4</ele>
        <time>2022-11-05T11:48:15Z</time>
      </trkpt>
      <trkpt lat="48.34194" lon="7.07711">
        <ele>621.2</ele>
        <time>2022-11-05T11:48:18Z</time>
      </trkpt>
      <trkpt lat="48.34195" lon="7.07721">
        <ele>621.6</ele>
        <time>2022-11-05T11:48:20Z</time>
      </trkpt>
      <trkpt lat="48.34197" lon="7.07741">
        <ele>622.2</ele>
        <time>2022-11-05T11:48:24Z</time>
      </trkpt>
      <trkpt lat="48.34199" lon="7.07756">
        <ele>623</ele>
        <time>2022-11-05T11:48:27Z</time>
      </trkpt>
      <trkpt lat="48.34201" lon="7.07771">
        <ele>623.4</ele>
        <time>2022-11-05T11:48:30Z</time>
      </trkpt>
      <trkpt lat="48.34206" lon="7.07799">
        <ele>624.6</ele>
        <time>2022-11-05T11:48:36Z</time>
      </trkpt>
      <trkpt lat="48.34217" lon="7.07828">
        <ele>625.2</ele>
        <time>2022-11-05T11:48:43Z</time>
      </trkpt>
      <trkpt lat="48.34232" lon="7.07849">
        <ele>625.4</ele>
        <time>2022-11-05T11:48:49Z</time>
      </trkpt>
      <trkpt lat="48.34244" lon="7.07864">
        <ele>625.2</ele>
        <time>2022-11-05T11:48:51Z</time>
      </trkpt>
      <trkpt lat="48.34257" lon="7.07879">
        <ele>625.2</ele>
        <time>2022-11-05T11:48:54Z</time>
      </trkpt>
      <trkpt lat="48.3428" lon="7.07908">
        <ele>624.8</ele>
        <time>2022-11-05T11:48:59Z</time>
      </trkpt>
      <trkpt lat="48.34302" lon="7.07932">
        <ele>624.4</ele>
        <time>2022-11-05T11:49:03Z</time>
      </trkpt>
      <trkpt lat="48.34309" lon="7.07936">
        <ele>624</ele>
        <time>2022-11-05T11:49:04Z</time>
      </trkpt>
      <trkpt lat="48.34324" lon="7.07943">
        <ele>623.8</ele>
        <time>2022-11-05T11:49:06Z</time>
      </trkpt>
      <trkpt lat="48.34335" lon="7.07944">
        <ele>623.4</ele>
        <time>2022-11-05T11:49:08Z</time>
      </trkpt>
      <trkpt lat="48.3437" lon="7.07952">
        <ele>622.6</ele>
        <time>2022-11-05T11:49:13Z</time>
      </trkpt>
      <trkpt lat="48.34377" lon="7.07956">
        <ele>622.2</ele>
        <time>2022-11-05T11:49:14Z</time>
      </trkpt>
      <trkpt lat="48.34385" lon="7.07973">
        <ele>621.8</ele>
        <time>2022-11-05T11:49:16Z</time>
      </trkpt>
      <trkpt lat="48.34384" lon="7.07996">
        <ele>621.4</ele>
        <time>2022-11-05T11:49:18Z</time>
      </trkpt>
      <trkpt lat="48.3438" lon="7.08006">
        <ele>621.2</ele>
        <time>2022-11-05T11:49:19Z</time>
      </trkpt>
      <trkpt lat="48.34375" lon="7.08015">
        <ele>620.4</ele>
        <time>2022-11-05T11:49:20Z</time>
      </trkpt>
      <trkpt lat="48.3437" lon="7.08023">
        <ele>620.2</ele>
        <time>2022-11-05T11:49:21Z</time>
      </trkpt>
      <trkpt lat="48.34354" lon="7.08046">
        <ele>619.6</ele>
        <time>2022-11-05T11:49:24Z</time>
      </trkpt>
      <trkpt lat="48.34344" lon="7.08063">
        <ele>619</ele>
        <time>2022-11-05T11:49:26Z</time>
      </trkpt>
      <trkpt lat="48.34329" lon="7.08107">
        <ele>618.4</ele>
        <time>2022-11-05T11:49:30Z</time>
      </trkpt>
      <trkpt lat="48.3431" lon="7.0815">
        <ele>617.8</ele>
        <time>2022-11-05T11:49:34Z</time>
      </trkpt>
      <trkpt lat="48.34284" lon="7.08183">
        <ele>617</ele>
        <time>2022-11-05T11:49:38Z</time>
      </trkpt>
      <trkpt lat="48.34278" lon="7.08192">
        <ele>616.8</ele>
        <time>2022-11-05T11:49:39Z</time>
      </trkpt>
      <trkpt lat="48.34272" lon="7.08201">
        <ele>616.6</ele>
        <time>2022-11-05T11:49:40Z</time>
      </trkpt>
      <trkpt lat="48.3426" lon="7.08222">
        <ele>616</ele>
        <time>2022-11-05T11:49:42Z</time>
      </trkpt>
      <trkpt lat="48.34236" lon="7.08264">
        <ele>615.2</ele>
        <time>2022-11-05T11:49:46Z</time>
      </trkpt>
      <trkpt lat="48.34224" lon="7.08285">
        <ele>614.6</ele>
        <time>2022-11-05T11:49:48Z</time>
      </trkpt>
      <trkpt lat="48.34218" lon="7.08295">
        <ele>614.2</ele>
        <time>2022-11-05T11:49:49Z</time>
      </trkpt>
      <trkpt lat="48.34212" lon="7.08306">
        <ele>614.2</ele>
        <time>2022-11-05T11:49:50Z</time>
      </trkpt>
      <trkpt lat="48.34206" lon="7.08316">
        <ele>614</ele>
        <time>2022-11-05T11:49:51Z</time>
      </trkpt>
      <trkpt lat="48.34199" lon="7.0833">
        <ele>613.8</ele>
        <time>2022-11-05T11:49:52Z</time>
      </trkpt>
      <trkpt lat="48.3419" lon="7.0835">
        <ele>613</ele>
        <time>2022-11-05T11:49:54Z</time>
      </trkpt>
      <trkpt lat="48.34171" lon="7.08394">
        <ele>612.2</ele>
        <time>2022-11-05T11:49:58Z</time>
      </trkpt>
      <trkpt lat="48.34168" lon="7.08406">
        <ele>611.8</ele>
        <time>2022-11-05T11:49:59Z</time>
      </trkpt>
      <trkpt lat="48.34166" lon="7.08419">
        <ele>611.6</ele>
        <time>2022-11-05T11:50:00Z</time>
      </trkpt>
      <trkpt lat="48.34165" lon="7.08433">
        <ele>611.4</ele>
        <time>2022-11-05T11:50:01Z</time>
      </trkpt>
      <trkpt lat="48.34164" lon="7.08462">
        <ele>611</ele>
        <time>2022-11-05T11:50:03Z</time>
      </trkpt>
      <trkpt lat="48.34168" lon="7.08506">
        <ele>610.8</ele>
        <time>2022-11-05T11:50:06Z</time>
      </trkpt>
      <trkpt lat="48.3417" lon="7.08519">
        <ele>610.4</ele>
        <time>2022-11-05T11:50:07Z</time>
      </trkpt>
      <trkpt lat="48.34183" lon="7.086">
        <ele>609.4</ele>
        <time>2022-11-05T11:50:13Z</time>
      </trkpt>
      <trkpt lat="48.34186" lon="7.08613">
        <ele>609.2</ele>
        <time>2022-11-05T11:50:14Z</time>
      </trkpt>
      <trkpt lat="48.34191" lon="7.08625">
        <ele>609</ele>
        <time>2022-11-05T11:50:15Z</time>
      </trkpt>
      <trkpt lat="48.34205" lon="7.08659">
        <ele>608.6</ele>
        <time>2022-11-05T11:50:18Z</time>
      </trkpt>
      <trkpt lat="48.34211" lon="7.0867">
        <ele>608.4</ele>
        <time>2022-11-05T11:50:19Z</time>
      </trkpt>
      <trkpt lat="48.34239" lon="7.08724">
        <ele>607.6</ele>
        <time>2022-11-05T11:50:24Z</time>
      </trkpt>
      <trkpt lat="48.34245" lon="7.08735">
        <ele>607</ele>
        <time>2022-11-05T11:50:25Z</time>
      </trkpt>
      <trkpt lat="48.34268" lon="7.08778">
        <ele>606</ele>
        <time>2022-11-05T11:50:29Z</time>
      </trkpt>
      <trkpt lat="48.34285" lon="7.08813">
        <ele>605.6</ele>
        <time>2022-11-05T11:50:32Z</time>
      </trkpt>
      <trkpt lat="48.34296" lon="7.08845">
        <ele>605</ele>
        <time>2022-11-05T11:50:35Z</time>
      </trkpt>
      <trkpt lat="48.343" lon="7.08857">
        <ele>605</ele>
        <time>2022-11-05T11:50:36Z</time>
      </trkpt>
      <trkpt lat="48.34309" lon="7.0888">
        <ele>604.6</ele>
        <time>2022-11-05T11:50:38Z</time>
      </trkpt>
      <trkpt lat="48.34324" lon="7.08917">
        <ele>603.8</ele>
        <time>2022-11-05T11:50:41Z</time>
      </trkpt>
      <trkpt lat="48.34346" lon="7.08973">
        <ele>602.6</ele>
        <time>2022-11-05T11:50:46Z</time>
      </trkpt>
      <trkpt lat="48.34365" lon="7.09018">
        <ele>601.8</ele>
        <time>2022-11-05T11:50:50Z</time>
      </trkpt>
      <trkpt lat="48.3437" lon="7.09032">
        <ele>601.2</ele>
        <time>2022-11-05T11:50:51Z</time>
      </trkpt>
      <trkpt lat="48.34373" lon="7.09042">
        <ele>601</ele>
        <time>2022-11-05T11:50:52Z</time>
      </trkpt>
      <trkpt lat="48.34377" lon="7.09068">
        <ele>600.6</ele>
        <time>2022-11-05T11:50:54Z</time>
      </trkpt>
      <trkpt lat="48.34379" lon="7.0908">
        <ele>600.2</ele>
        <time>2022-11-05T11:50:55Z</time>
      </trkpt>
      <trkpt lat="48.34383" lon="7.09132">
        <ele>599.4</ele>
        <time>2022-11-05T11:50:59Z</time>
      </trkpt>
      <trkpt lat="48.34384" lon="7.09144">
        <ele>599.2</ele>
        <time>2022-11-05T11:51:00Z</time>
      </trkpt>
      <trkpt lat="48.34392" lon="7.09169">
        <ele>599</ele>
        <time>2022-11-05T11:51:02Z</time>
      </trkpt>
      <trkpt lat="48.34401" lon="7.09189">
        <ele>598.6</ele>
        <time>2022-11-05T11:51:04Z</time>
      </trkpt>
      <trkpt lat="48.34417" lon="7.09222">
        <ele>598.2</ele>
        <time>2022-11-05T11:51:07Z</time>
      </trkpt>
      <trkpt lat="48.34426" lon="7.09235">
        <ele>598</ele>
        <time>2022-11-05T11:51:08Z</time>
      </trkpt>
      <trkpt lat="48.34443" lon="7.09261">
        <ele>597.2</ele>
        <time>2022-11-05T11:51:11Z</time>
      </trkpt>
      <trkpt lat="48.3445" lon="7.09272">
        <ele>597</ele>
        <time>2022-11-05T11:51:12Z</time>
      </trkpt>
      <trkpt lat="48.34485" lon="7.09319">
        <ele>595.8</ele>
        <time>2022-11-05T11:51:17Z</time>
      </trkpt>
      <trkpt lat="48.34527" lon="7.09368">
        <ele>594.6</ele>
        <time>2022-11-05T11:51:23Z</time>
      </trkpt>
      <trkpt lat="48.34534" lon="7.09375">
        <ele>594.2</ele>
        <time>2022-11-05T11:51:24Z</time>
      </trkpt>
      <trkpt lat="48.34561" lon="7.09406">
        <ele>593.4</ele>
        <time>2022-11-05T11:51:28Z</time>
      </trkpt>
      <trkpt lat="48.34573" lon="7.0942">
        <ele>593</ele>
        <time>2022-11-05T11:51:30Z</time>
      </trkpt>
      <trkpt lat="48.34591" lon="7.09449">
        <ele>592</ele>
        <time>2022-11-05T11:51:33Z</time>
      </trkpt>
      <trkpt lat="48.346" lon="7.09467">
        <ele>591.6</ele>
        <time>2022-11-05T11:51:35Z</time>
      </trkpt>
      <trkpt lat="48.34619" lon="7.09507">
        <ele>590.8</ele>
        <time>2022-11-05T11:51:39Z</time>
      </trkpt>
      <trkpt lat="48.34636" lon="7.09547">
        <ele>590</ele>
        <time>2022-11-05T11:51:43Z</time>
      </trkpt>
      <trkpt lat="48.34645" lon="7.09568">
        <ele>589.6</ele>
        <time>2022-11-05T11:51:45Z</time>
      </trkpt>
      <trkpt lat="48.3466" lon="7.09602">
        <ele>588.6</ele>
        <time>2022-11-05T11:51:48Z</time>
      </trkpt>
      <trkpt lat="48.34664" lon="7.09611">
        <ele>588.4</ele>
        <time>2022-11-05T11:51:49Z</time>
      </trkpt>
      <trkpt lat="48.3467" lon="7.09625">
        <ele>588</ele>
        <time>2022-11-05T11:51:50Z</time>
      </trkpt>
      <trkpt lat="48.34682" lon="7.09663">
        <ele>587.4</ele>
        <time>2022-11-05T11:51:53Z</time>
      </trkpt>
      <trkpt lat="48.34684" lon="7.09673">
        <ele>587.2</ele>
        <time>2022-11-05T11:51:54Z</time>
      </trkpt>
      <trkpt lat="48.34695" lon="7.09728">
        <ele>586.2</ele>
        <time>2022-11-05T11:51:58Z</time>
      </trkpt>
      <trkpt lat="48.34707" lon="7.09787">
        <ele>585.2</ele>
        <time>2022-11-05T11:52:03Z</time>
      </trkpt>
      <trkpt lat="48.34716" lon="7.09834">
        <ele>584.2</ele>
        <time>2022-11-05T11:52:07Z</time>
      </trkpt>
      <trkpt lat="48.34723" lon="7.09883">
        <ele>583.4</ele>
        <time>2022-11-05T11:52:11Z</time>
      </trkpt>
      <trkpt lat="48.34725" lon="7.09895">
        <ele>583.4</ele>
        <time>2022-11-05T11:52:12Z</time>
      </trkpt>
      <trkpt lat="48.34731" lon="7.09975">
        <ele>581.8</ele>
        <time>2022-11-05T11:52:18Z</time>
      </trkpt>
      <trkpt lat="48.34734" lon="7.10019">
        <ele>580.4</ele>
        <time>2022-11-05T11:52:21Z</time>
      </trkpt>
      <trkpt lat="48.34737" lon="7.10065">
        <ele>579</ele>
        <time>2022-11-05T11:52:24Z</time>
      </trkpt>
      <trkpt lat="48.34738" lon="7.10081">
        <ele>578.6</ele>
        <time>2022-11-05T11:52:25Z</time>
      </trkpt>
      <trkpt lat="48.3474" lon="7.10097">
        <ele>577.6</ele>
        <time>2022-11-05T11:52:26Z</time>
      </trkpt>
      <trkpt lat="48.34743" lon="7.10128">
        <ele>576.6</ele>
        <time>2022-11-05T11:52:28Z</time>
      </trkpt>
      <trkpt lat="48.34746" lon="7.1016">
        <ele>575.2</ele>
        <time>2022-11-05T11:52:30Z</time>
      </trkpt>
      <trkpt lat="48.34749" lon="7.10191">
        <ele>574.2</ele>
        <time>2022-11-05T11:52:32Z</time>
      </trkpt>
      <trkpt lat="48.34751" lon="7.10206">
        <ele>573.6</ele>
        <time>2022-11-05T11:52:33Z</time>
      </trkpt>
      <trkpt lat="48.34753" lon="7.10222">
        <ele>572.4</ele>
        <time>2022-11-05T11:52:34Z</time>
      </trkpt>
      <trkpt lat="48.34757" lon="7.10253">
        <ele>571</ele>
        <time>2022-11-05T11:52:36Z</time>
      </trkpt>
      <trkpt lat="48.34762" lon="7.10285">
        <ele>569.6</ele>
        <time>2022-11-05T11:52:38Z</time>
      </trkpt>
      <trkpt lat="48.34768" lon="7.10318">
        <ele>568.4</ele>
        <time>2022-11-05T11:52:40Z</time>
      </trkpt>
      <trkpt lat="48.34771" lon="7.10333">
        <ele>568</ele>
        <time>2022-11-05T11:52:41Z</time>
      </trkpt>
      <trkpt lat="48.34778" lon="7.10363">
        <ele>566.8</ele>
        <time>2022-11-05T11:52:43Z</time>
      </trkpt>
      <trkpt lat="48.34784" lon="7.1039">
        <ele>565.4</ele>
        <time>2022-11-05T11:52:45Z</time>
      </trkpt>
      <trkpt lat="48.34789" lon="7.10413">
        <ele>564</ele>
        <time>2022-11-05T11:52:47Z</time>
      </trkpt>
      <trkpt lat="48.34793" lon="7.10432">
        <ele>562.6</ele>
        <time>2022-11-05T11:52:49Z</time>
      </trkpt>
      <trkpt lat="48.34796" lon="7.10451">
        <ele>561.4</ele>
        <time>2022-11-05T11:52:51Z</time>
      </trkpt>
      <trkpt lat="48.34799" lon="7.10471">
        <ele>560.2</ele>
        <time>2022-11-05T11:52:53Z</time>
      </trkpt>
      <trkpt lat="48.34806" lon="7.10492">
        <ele>559.2</ele>
        <time>2022-11-05T11:52:55Z</time>
      </trkpt>
      <trkpt lat="48.34811" lon="7.10512">
        <ele>558.2</ele>
        <time>2022-11-05T11:52:57Z</time>
      </trkpt>
      <trkpt lat="48.34813" lon="7.10531">
        <ele>557.4</ele>
        <time>2022-11-05T11:52:59Z</time>
      </trkpt>
      <trkpt lat="48.34813" lon="7.10539">
        <ele>557</ele>
        <time>2022-11-05T11:53:00Z</time>
      </trkpt>
      <trkpt lat="48.34813" lon="7.10567">
        <ele>556</ele>
        <time>2022-11-05T11:53:04Z</time>
      </trkpt>
      <trkpt lat="48.34816" lon="7.10579">
        <ele>555.8</ele>
        <time>2022-11-05T11:53:06Z</time>
      </trkpt>
      <trkpt lat="48.34822" lon="7.10589">
        <ele>555.6</ele>
        <time>2022-11-05T11:53:08Z</time>
      </trkpt>
      <trkpt lat="48.3483" lon="7.10593">
        <ele>555.4</ele>
        <time>2022-11-05T11:53:10Z</time>
      </trkpt>
      <trkpt lat="48.34837" lon="7.10595">
        <ele>555.2</ele>
        <time>2022-11-05T11:53:12Z</time>
      </trkpt>
      <trkpt lat="48.34845" lon="7.10595">
        <ele>555.2</ele>
        <time>2022-11-05T11:53:14Z</time>
      </trkpt>
      <trkpt lat="48.34857" lon="7.10596">
        <ele>555.4</ele>
        <time>2022-11-05T11:53:18Z</time>
      </trkpt>
      <trkpt lat="48.3487" lon="7.10598">
        <ele>555.6</ele>
        <time>2022-11-05T11:53:22Z</time>
      </trkpt>
      <trkpt lat="48.34875" lon="7.10602">
        <ele>555.8</ele>
        <time>2022-11-05T11:53:24Z</time>
      </trkpt>
      <trkpt lat="48.34893" lon="7.10615">
        <ele>555.6</ele>
        <time>2022-11-05T11:53:30Z</time>
      </trkpt>
      <trkpt lat="48.34924" lon="7.10639">
        <ele>555</ele>
        <time>2022-11-05T11:53:37Z</time>
      </trkpt>
      <trkpt lat="48.3494" lon="7.10651">
        <ele>554.8</ele>
        <time>2022-11-05T11:53:40Z</time>
      </trkpt>
      <trkpt lat="48.34951" lon="7.10661">
        <ele>554.6</ele>
        <time>2022-11-05T11:53:43Z</time>
      </trkpt>
      <trkpt lat="48.34984" lon="7.1069">
        <ele>554.2</ele>
        <time>2022-11-05T11:53:48Z</time>
      </trkpt>
      <trkpt lat="48.34995" lon="7.107">
        <ele>554</ele>
        <time>2022-11-05T11:53:50Z</time>
      </trkpt>
      <trkpt lat="48.35015" lon="7.10718">
        <ele>553.6</ele>
        <time>2022-11-05T11:53:54Z</time>
      </trkpt>
      <trkpt lat="48.35025" lon="7.10726">
        <ele>553.4</ele>
        <time>2022-11-05T11:53:56Z</time>
      </trkpt>
      <trkpt lat="48.35058" lon="7.10742">
        <ele>553.2</ele>
        <time>2022-11-05T11:54:02Z</time>
      </trkpt>
      <trkpt lat="48.35058" lon="7.10742">
        <ele>553.2</ele>
        <time>2022-11-05T11:54:03Z</time>
      </trkpt>
      <trkpt lat="48.35067" lon="7.10749">
        <ele>553.2</ele>
        <time>2022-11-05T11:54:04Z</time>
      </trkpt>
      <trkpt lat="48.35074" lon="7.10758">
        <ele>553.2</ele>
        <time>2022-11-05T11:54:06Z</time>
      </trkpt>
      <trkpt lat="48.3508" lon="7.10769">
        <ele>553.2</ele>
        <time>2022-11-05T11:54:08Z</time>
      </trkpt>
      <trkpt lat="48.35087" lon="7.10778">
        <ele>553.2</ele>
        <time>2022-11-05T11:54:10Z</time>
      </trkpt>
      <trkpt lat="48.35092" lon="7.10781">
        <ele>553.2</ele>
        <time>2022-11-05T11:54:11Z</time>
      </trkpt>
      <trkpt lat="48.35113" lon="7.10791">
        <ele>552.8</ele>
        <time>2022-11-05T11:54:15Z</time>
      </trkpt>
      <trkpt lat="48.35125" lon="7.10795">
        <ele>552.8</ele>
        <time>2022-11-05T11:54:17Z</time>
      </trkpt>
      <trkpt lat="48.35143" lon="7.10799">
        <ele>552.4</ele>
        <time>2022-11-05T11:54:20Z</time>
      </trkpt>
      <trkpt lat="48.35161" lon="7.10799">
        <ele>552</ele>
        <time>2022-11-05T11:54:23Z</time>
      </trkpt>
      <trkpt lat="48.35173" lon="7.10796">
        <ele>551.8</ele>
        <time>2022-11-05T11:54:25Z</time>
      </trkpt>
      <trkpt lat="48.35209" lon="7.10787">
        <ele>551</ele>
        <time>2022-11-05T11:54:31Z</time>
      </trkpt>
      <trkpt lat="48.35227" lon="7.10785">
        <ele>550.8</ele>
        <time>2022-11-05T11:54:34Z</time>
      </trkpt>
      <trkpt lat="48.35251" lon="7.10779">
        <ele>550.4</ele>
        <time>2022-11-05T11:54:38Z</time>
      </trkpt>
      <trkpt lat="48.35285" lon="7.10764">
        <ele>550</ele>
        <time>2022-11-05T11:54:44Z</time>
      </trkpt>
      <trkpt lat="48.35302" lon="7.1076">
        <ele>549.8</ele>
        <time>2022-11-05T11:54:47Z</time>
      </trkpt>
      <trkpt lat="48.35314" lon="7.1076">
        <ele>549.6</ele>
        <time>2022-11-05T11:54:49Z</time>
      </trkpt>
      <trkpt lat="48.35351" lon="7.10764">
        <ele>549.6</ele>
        <time>2022-11-05T11:54:56Z</time>
      </trkpt>
      <trkpt lat="48.35356" lon="7.10766">
        <ele>549.8</ele>
        <time>2022-11-05T11:54:57Z</time>
      </trkpt>
      <trkpt lat="48.35374" lon="7.10777">
        <ele>549.8</ele>
        <time>2022-11-05T11:55:01Z</time>
      </trkpt>
      <trkpt lat="48.3539" lon="7.1079">
        <ele>550</ele>
        <time>2022-11-05T11:55:05Z</time>
      </trkpt>
      <trkpt lat="48.35409" lon="7.10803">
        <ele>550.2</ele>
        <time>2022-11-05T11:55:09Z</time>
      </trkpt>
      <trkpt lat="48.35423" lon="7.10812">
        <ele>550.2</ele>
        <time>2022-11-05T11:55:12Z</time>
      </trkpt>
      <trkpt lat="48.35443" lon="7.10822">
        <ele>550.2</ele>
        <time>2022-11-05T11:55:16Z</time>
      </trkpt>
      <trkpt lat="48.35452" lon="7.10824">
        <ele>550.2</ele>
        <time>2022-11-05T11:55:18Z</time>
      </trkpt>
      <trkpt lat="48.35472" lon="7.10826">
        <ele>550</ele>
        <time>2022-11-05T11:55:22Z</time>
      </trkpt>
      <trkpt lat="48.35482" lon="7.10829">
        <ele>549.8</ele>
        <time>2022-11-05T11:55:24Z</time>
      </trkpt>
      <trkpt lat="48.3549" lon="7.10836">
        <ele>549.8</ele>
        <time>2022-11-05T11:55:26Z</time>
      </trkpt>
      <trkpt lat="48.35494" lon="7.1084">
        <ele>549.6</ele>
        <time>2022-11-05T11:55:27Z</time>
      </trkpt>
      <trkpt lat="48.35521" lon="7.10876">
        <ele>549.6</ele>
        <time>2022-11-05T11:55:35Z</time>
      </trkpt>
      <trkpt lat="48.35536" lon="7.10892">
        <ele>549.6</ele>
        <time>2022-11-05T11:55:39Z</time>
      </trkpt>
      <trkpt lat="48.3555" lon="7.10901">
        <ele>549.8</ele>
        <time>2022-11-05T11:55:43Z</time>
      </trkpt>
      <trkpt lat="48.35562" lon="7.10903">
        <ele>550.2</ele>
        <time>2022-11-05T11:55:46Z</time>
      </trkpt>
      <trkpt lat="48.35566" lon="7.10903">
        <ele>550.4</ele>
        <time>2022-11-05T11:55:47Z</time>
      </trkpt>
      <trkpt lat="48.35578" lon="7.10901">
        <ele>550.6</ele>
        <time>2022-11-05T11:55:50Z</time>
      </trkpt>
      <trkpt lat="48.35586" lon="7.109">
        <ele>551</ele>
        <time>2022-11-05T11:55:52Z</time>
      </trkpt>
      <trkpt lat="48.35607" lon="7.10891">
        <ele>551.6</ele>
        <time>2022-11-05T11:55:58Z</time>
      </trkpt>
      <trkpt lat="48.35624" lon="7.10888">
        <ele>552</ele>
        <time>2022-11-05T11:56:03Z</time>
      </trkpt>
      <trkpt lat="48.35627" lon="7.10889">
        <ele>552.2</ele>
        <time>2022-11-05T11:56:04Z</time>
      </trkpt>
      <trkpt lat="48.35644" lon="7.10891">
        <ele>552.8</ele>
        <time>2022-11-05T11:56:10Z</time>
      </trkpt>
      <trkpt lat="48.35655" lon="7.10892">
        <ele>553</ele>
        <time>2022-11-05T11:56:13Z</time>
      </trkpt>
      <trkpt lat="48.35663" lon="7.10894">
        <ele>553.6</ele>
        <time>2022-11-05T11:56:16Z</time>
      </trkpt>
      <trkpt lat="48.35665" lon="7.10894">
        <ele>553.8</ele>
        <time>2022-11-05T11:56:17Z</time>
      </trkpt>
      <trkpt lat="48.35673" lon="7.10892">
        <ele>554.2</ele>
        <time>2022-11-05T11:56:20Z</time>
      </trkpt>
      <trkpt lat="48.35686" lon="7.10888">
        <ele>554.8</ele>
        <time>2022-11-05T11:56:25Z</time>
      </trkpt>
      <trkpt lat="48.35696" lon="7.10887">
        <ele>555.2</ele>
        <time>2022-11-05T11:56:29Z</time>
      </trkpt>
      <trkpt lat="48.35704" lon="7.10885">
        <ele>555.6</ele>
        <time>2022-11-05T11:56:32Z</time>
      </trkpt>
      <trkpt lat="48.35715" lon="7.10885">
        <ele>556.4</ele>
        <time>2022-11-05T11:56:36Z</time>
      </trkpt>
      <trkpt lat="48.35724" lon="7.10889">
        <ele>557.2</ele>
        <time>2022-11-05T11:56:40Z</time>
      </trkpt>
      <trkpt lat="48.35729" lon="7.10892">
        <ele>557.4</ele>
        <time>2022-11-05T11:56:42Z</time>
      </trkpt>
      <trkpt lat="48.3574" lon="7.10901">
        <ele>558</ele>
        <time>2022-11-05T11:56:47Z</time>
      </trkpt>
      <trkpt lat="48.35743" lon="7.10902">
        <ele>558.2</ele>
        <time>2022-11-05T11:56:48Z</time>
      </trkpt>
      <trkpt lat="48.35745" lon="7.10904">
        <ele>558.4</ele>
        <time>2022-11-05T11:56:49Z</time>
      </trkpt>
      <trkpt lat="48.35754" lon="7.10914">
        <ele>559.4</ele>
        <time>2022-11-05T11:56:54Z</time>
      </trkpt>
      <trkpt lat="48.35755" lon="7.10916">
        <ele>560</ele>
        <time>2022-11-05T11:56:55Z</time>
      </trkpt>
      <trkpt lat="48.35761" lon="7.10922">
        <ele>560.4</ele>
        <time>2022-11-05T11:56:58Z</time>
      </trkpt>
      <trkpt lat="48.35767" lon="7.10929">
        <ele>561.4</ele>
        <time>2022-11-05T11:57:01Z</time>
      </trkpt>
      <trkpt lat="48.3577" lon="7.10932">
        <ele>561.8</ele>
        <time>2022-11-05T11:57:03Z</time>
      </trkpt>
      <trkpt lat="48.35777" lon="7.10937">
        <ele>562.4</ele>
        <time>2022-11-05T11:57:06Z</time>
      </trkpt>
      <trkpt lat="48.35783" lon="7.10941">
        <ele>563.2</ele>
        <time>2022-11-05T11:57:09Z</time>
      </trkpt>
      <trkpt lat="48.35787" lon="7.10943">
        <ele>563.6</ele>
        <time>2022-11-05T11:57:11Z</time>
      </trkpt>
      <trkpt lat="48.35804" lon="7.10946">
        <ele>564.4</ele>
        <time>2022-11-05T11:57:18Z</time>
      </trkpt>
      <trkpt lat="48.35817" lon="7.10951">
        <ele>564.6</ele>
        <time>2022-11-05T11:57:24Z</time>
      </trkpt>
      <trkpt lat="48.35826" lon="7.10955">
        <ele>564</ele>
        <time>2022-11-05T11:57:29Z</time>
      </trkpt>
      <trkpt lat="48.35835" lon="7.1096">
        <ele>564</ele>
        <time>2022-11-05T11:57:33Z</time>
      </trkpt>
      <trkpt lat="48.3584" lon="7.10963">
        <ele>564</ele>
        <time>2022-11-05T11:57:35Z</time>
      </trkpt>
      <trkpt lat="48.35851" lon="7.10973">
        <ele>564</ele>
        <time>2022-11-05T11:57:40Z</time>
      </trkpt>
      <trkpt lat="48.35858" lon="7.10983">
        <ele>564</ele>
        <time>2022-11-05T11:57:44Z</time>
      </trkpt>
      <trkpt lat="48.35868" lon="7.11002">
        <ele>564.4</ele>
        <time>2022-11-05T11:57:50Z</time>
      </trkpt>
      <trkpt lat="48.35873" lon="7.11016">
        <ele>564.6</ele>
        <time>2022-11-05T11:57:53Z</time>
      </trkpt>
      <trkpt lat="48.35874" lon="7.1102">
        <ele>564.6</ele>
        <time>2022-11-05T11:57:54Z</time>
      </trkpt>
      <trkpt lat="48.35877" lon="7.1103">
        <ele>564.6</ele>
        <time>2022-11-05T11:57:56Z</time>
      </trkpt>
      <trkpt lat="48.3588" lon="7.1104">
        <ele>564.6</ele>
        <time>2022-11-05T11:57:58Z</time>
      </trkpt>
      <trkpt lat="48.35882" lon="7.11046">
        <ele>564.6</ele>
        <time>2022-11-05T11:57:59Z</time>
      </trkpt>
      <trkpt lat="48.35887" lon="7.1107">
        <ele>564.6</ele>
        <time>2022-11-05T11:58:04Z</time>
      </trkpt>
      <trkpt lat="48.35889" lon="7.11075">
        <ele>564.6</ele>
        <time>2022-11-05T11:58:05Z</time>
      </trkpt>
      <trkpt lat="48.35889" lon="7.11107">
        <ele>564.4</ele>
        <time>2022-11-05T11:58:11Z</time>
      </trkpt>
      <trkpt lat="48.35892" lon="7.11118">
        <ele>564.4</ele>
        <time>2022-11-05T11:58:14Z</time>
      </trkpt>
      <trkpt lat="48.35892" lon="7.11128">
        <ele>564</ele>
        <time>2022-11-05T11:58:16Z</time>
      </trkpt>
      <trkpt lat="48.35897" lon="7.11145">
        <ele>563.4</ele>
        <time>2022-11-05T11:58:19Z</time>
      </trkpt>
      <trkpt lat="48.35898" lon="7.11158">
        <ele>562.8</ele>
        <time>2022-11-05T11:58:22Z</time>
      </trkpt>
      <trkpt lat="48.35898" lon="7.11169">
        <ele>562.4</ele>
        <time>2022-11-05T11:58:24Z</time>
      </trkpt>
      <trkpt lat="48.35899" lon="7.11173">
        <ele>562</ele>
        <time>2022-11-05T11:58:25Z</time>
      </trkpt>
      <trkpt lat="48.35902" lon="7.1118">
        <ele>561.8</ele>
        <time>2022-11-05T11:58:27Z</time>
      </trkpt>
      <trkpt lat="48.35905" lon="7.11198">
        <ele>561.6</ele>
        <time>2022-11-05T11:58:32Z</time>
      </trkpt>
      <trkpt lat="48.35904" lon="7.11209">
        <ele>561.4</ele>
        <time>2022-11-05T11:58:35Z</time>
      </trkpt>
      <trkpt lat="48.35904" lon="7.11211">
        <ele>561.2</ele>
        <time>2022-11-05T11:58:36Z</time>
      </trkpt>
      <trkpt lat="48.35903" lon="7.11219">
        <ele>561.2</ele>
        <time>2022-11-05T11:58:38Z</time>
      </trkpt>
      <trkpt lat="48.35902" lon="7.11226">
        <ele>560.6</ele>
        <time>2022-11-05T11:58:41Z</time>
      </trkpt>
      <trkpt lat="48.35898" lon="7.11233">
        <ele>560</ele>
        <time>2022-11-05T11:58:44Z</time>
      </trkpt>
      <trkpt lat="48.35897" lon="7.1124">
        <ele>559.8</ele>
        <time>2022-11-05T11:58:46Z</time>
      </trkpt>
      <trkpt lat="48.35895" lon="7.11249">
        <ele>559.6</ele>
        <time>2022-11-05T11:58:48Z</time>
      </trkpt>
      <trkpt lat="48.35891" lon="7.11259">
        <ele>559</ele>
        <time>2022-11-05T11:58:51Z</time>
      </trkpt>
      <trkpt lat="48.3589" lon="7.11261">
        <ele>559</ele>
        <time>2022-11-05T11:58:52Z</time>
      </trkpt>
      <trkpt lat="48.35885" lon="7.11271">
        <ele>557.8</ele>
        <time>2022-11-05T11:58:56Z</time>
      </trkpt>
      <trkpt lat="48.35883" lon="7.11273">
        <ele>557.6</ele>
        <time>2022-11-05T11:58:57Z</time>
      </trkpt>
      <trkpt lat="48.3588" lon="7.11279">
        <ele>556.6</ele>
        <time>2022-11-05T11:59:00Z</time>
      </trkpt>
      <trkpt lat="48.35879" lon="7.1128">
        <ele>556.4</ele>
        <time>2022-11-05T11:59:01Z</time>
      </trkpt>
      <trkpt lat="48.35867" lon="7.11299">
        <ele>555.6</ele>
        <time>2022-11-05T11:59:07Z</time>
      </trkpt>
      <trkpt lat="48.35864" lon="7.11305">
        <ele>555.4</ele>
        <time>2022-11-05T11:59:08Z</time>
      </trkpt>
      <trkpt lat="48.3586" lon="7.1131">
        <ele>555.4</ele>
        <time>2022-11-05T11:59:09Z</time>
      </trkpt>
      <trkpt lat="48.35857" lon="7.11316">
        <ele>555.2</ele>
        <time>2022-11-05T11:59:10Z</time>
      </trkpt>
      <trkpt lat="48.35854" lon="7.11322">
        <ele>555.2</ele>
        <time>2022-11-05T11:59:11Z</time>
      </trkpt>
      <trkpt lat="48.35852" lon="7.11328">
        <ele>555.2</ele>
        <time>2022-11-05T11:59:12Z</time>
      </trkpt>
      <trkpt lat="48.35839" lon="7.11346">
        <ele>554.6</ele>
        <time>2022-11-05T11:59:16Z</time>
      </trkpt>
      <trkpt lat="48.35833" lon="7.11351">
        <ele>554.2</ele>
        <time>2022-11-05T11:59:18Z</time>
      </trkpt>
      <trkpt lat="48.35827" lon="7.11357">
        <ele>553.8</ele>
        <time>2022-11-05T11:59:20Z</time>
      </trkpt>
      <trkpt lat="48.35824" lon="7.11362">
        <ele>553.6</ele>
        <time>2022-11-05T11:59:21Z</time>
      </trkpt>
      <trkpt lat="48.35817" lon="7.11375">
        <ele>553.2</ele>
        <time>2022-11-05T11:59:23Z</time>
      </trkpt>
      <trkpt lat="48.35813" lon="7.11388">
        <ele>552.6</ele>
        <time>2022-11-05T11:59:25Z</time>
      </trkpt>
      <trkpt lat="48.3581" lon="7.11405">
        <ele>552</ele>
        <time>2022-11-05T11:59:27Z</time>
      </trkpt>
      <trkpt lat="48.35805" lon="7.11439">
        <ele>551.6</ele>
        <time>2022-11-05T11:59:31Z</time>
      </trkpt>
      <trkpt lat="48.35804" lon="7.11447">
        <ele>551.4</ele>
        <time>2022-11-05T11:59:32Z</time>
      </trkpt>
      <trkpt lat="48.35802" lon="7.11463">
        <ele>551.4</ele>
        <time>2022-11-05T11:59:34Z</time>
      </trkpt>
      <trkpt lat="48.358" lon="7.11471">
        <ele>551.4</ele>
        <time>2022-11-05T11:59:35Z</time>
      </trkpt>
      <trkpt lat="48.35796" lon="7.11486">
        <ele>551.2</ele>
        <time>2022-11-05T11:59:37Z</time>
      </trkpt>
      <trkpt lat="48.35792" lon="7.115">
        <ele>551.2</ele>
        <time>2022-11-05T11:59:39Z</time>
      </trkpt>
      <trkpt lat="48.35788" lon="7.11518">
        <ele>550.8</ele>
        <time>2022-11-05T11:59:42Z</time>
      </trkpt>
      <trkpt lat="48.35784" lon="7.1154">
        <ele>550.8</ele>
        <time>2022-11-05T11:59:46Z</time>
      </trkpt>
      <trkpt lat="48.35784" lon="7.11545">
        <ele>550.8</ele>
        <time>2022-11-05T11:59:47Z</time>
      </trkpt>
      <trkpt lat="48.35784" lon="7.11558">
        <ele>551</ele>
        <time>2022-11-05T11:59:50Z</time>
      </trkpt>
      <trkpt lat="48.35786" lon="7.11581">
        <ele>551.2</ele>
        <time>2022-11-05T11:59:54Z</time>
      </trkpt>
      <trkpt lat="48.35787" lon="7.11587">
        <ele>551.2</ele>
        <time>2022-11-05T11:59:55Z</time>
      </trkpt>
      <trkpt lat="48.35788" lon="7.11615">
        <ele>551.2</ele>
        <time>2022-11-05T12:00:00Z</time>
      </trkpt>
      <trkpt lat="48.35788" lon="7.11642">
        <ele>551.2</ele>
        <time>2022-11-05T12:00:06Z</time>
      </trkpt>
      <trkpt lat="48.35787" lon="7.11652">
        <ele>551.4</ele>
        <time>2022-11-05T12:00:08Z</time>
      </trkpt>
      <trkpt lat="48.35787" lon="7.11656">
        <ele>551.4</ele>
        <time>2022-11-05T12:00:09Z</time>
      </trkpt>
      <trkpt lat="48.35786" lon="7.11685">
        <ele>551.8</ele>
        <time>2022-11-05T12:00:16Z</time>
      </trkpt>
      <trkpt lat="48.35782" lon="7.11729">
        <ele>551.4</ele>
        <time>2022-11-05T12:00:26Z</time>
      </trkpt>
      <trkpt lat="48.35783" lon="7.1175">
        <ele>551.4</ele>
        <time>2022-11-05T12:00:31Z</time>
      </trkpt>
      <trkpt lat="48.35786" lon="7.11772">
        <ele>551.4</ele>
        <time>2022-11-05T12:00:36Z</time>
      </trkpt>
      <trkpt lat="48.35789" lon="7.11802">
        <ele>551</ele>
        <time>2022-11-05T12:00:42Z</time>
      </trkpt>
      <trkpt lat="48.35792" lon="7.11822">
        <ele>550.4</ele>
        <time>2022-11-05T12:00:47Z</time>
      </trkpt>
      <trkpt lat="48.35795" lon="7.11843">
        <ele>550.2</ele>
        <time>2022-11-05T12:00:51Z</time>
      </trkpt>
      <trkpt lat="48.35796" lon="7.11853">
        <ele>550</ele>
        <time>2022-11-05T12:00:53Z</time>
      </trkpt>
      <trkpt lat="48.35796" lon="7.11866">
        <ele>549.8</ele>
        <time>2022-11-05T12:00:55Z</time>
      </trkpt>
      <trkpt lat="48.35797" lon="7.11871">
        <ele>549.8</ele>
        <time>2022-11-05T12:00:56Z</time>
      </trkpt>
      <trkpt lat="48.358" lon="7.11883">
        <ele>549.8</ele>
        <time>2022-11-05T12:00:58Z</time>
      </trkpt>
      <trkpt lat="48.35801" lon="7.11895">
        <ele>549.6</ele>
        <time>2022-11-05T12:01:00Z</time>
      </trkpt>
      <trkpt lat="48.358" lon="7.11917">
        <ele>549.4</ele>
        <time>2022-11-05T12:01:03Z</time>
      </trkpt>
      <trkpt lat="48.35799" lon="7.11939">
        <ele>548.8</ele>
        <time>2022-11-05T12:01:06Z</time>
      </trkpt>
      <trkpt lat="48.35801" lon="7.11945">
        <ele>548.6</ele>
        <time>2022-11-05T12:01:07Z</time>
      </trkpt>
      <trkpt lat="48.35803" lon="7.11951">
        <ele>548.4</ele>
        <time>2022-11-05T12:01:08Z</time>
      </trkpt>
      <trkpt lat="48.35804" lon="7.11964">
        <ele>548.2</ele>
        <time>2022-11-05T12:01:10Z</time>
      </trkpt>
      <trkpt lat="48.35805" lon="7.11971">
        <ele>548</ele>
        <time>2022-11-05T12:01:11Z</time>
      </trkpt>
      <trkpt lat="48.35808" lon="7.11984">
        <ele>548</ele>
        <time>2022-11-05T12:01:13Z</time>
      </trkpt>
      <trkpt lat="48.35811" lon="7.11995">
        <ele>547.6</ele>
        <time>2022-11-05T12:01:15Z</time>
      </trkpt>
      <trkpt lat="48.35812" lon="7.12002">
        <ele>547.8</ele>
        <time>2022-11-05T12:01:16Z</time>
      </trkpt>
      <trkpt lat="48.35814" lon="7.1201">
        <ele>547.6</ele>
        <time>2022-11-05T12:01:17Z</time>
      </trkpt>
      <trkpt lat="48.35816" lon="7.12025">
        <ele>547.4</ele>
        <time>2022-11-05T12:01:19Z</time>
      </trkpt>
      <trkpt lat="48.35822" lon="7.12045">
        <ele>547.2</ele>
        <time>2022-11-05T12:01:22Z</time>
      </trkpt>
      <trkpt lat="48.35834" lon="7.12076">
        <ele>546.6</ele>
        <time>2022-11-05T12:01:27Z</time>
      </trkpt>
      <trkpt lat="48.35836" lon="7.12081">
        <ele>546.4</ele>
        <time>2022-11-05T12:01:28Z</time>
      </trkpt>
      <trkpt lat="48.35836" lon="7.12094">
        <ele>546.4</ele>
        <time>2022-11-05T12:01:30Z</time>
      </trkpt>
      <trkpt lat="48.35839" lon="7.12105">
        <ele>546.4</ele>
        <time>2022-11-05T12:01:32Z</time>
      </trkpt>
      <trkpt lat="48.35842" lon="7.12113">
        <ele>546.2</ele>
        <time>2022-11-05T12:01:34Z</time>
      </trkpt>
      <trkpt lat="48.35843" lon="7.12118">
        <ele>546.2</ele>
        <time>2022-11-05T12:01:35Z</time>
      </trkpt>
      <trkpt lat="48.35844" lon="7.12123">
        <ele>546</ele>
        <time>2022-11-05T12:01:36Z</time>
      </trkpt>
      <trkpt lat="48.3585" lon="7.12138">
        <ele>546</ele>
        <time>2022-11-05T12:01:39Z</time>
      </trkpt>
      <trkpt lat="48.35851" lon="7.12144">
        <ele>545.8</ele>
        <time>2022-11-05T12:01:40Z</time>
      </trkpt>
      <trkpt lat="48.35853" lon="7.12154">
        <ele>545.6</ele>
        <time>2022-11-05T12:01:42Z</time>
      </trkpt>
      <trkpt lat="48.35858" lon="7.12177">
        <ele>545.6</ele>
        <time>2022-11-05T12:01:45Z</time>
      </trkpt>
      <trkpt lat="48.35862" lon="7.12189">
        <ele>545</ele>
        <time>2022-11-05T12:01:47Z</time>
      </trkpt>
      <trkpt lat="48.35864" lon="7.12196">
        <ele>545</ele>
        <time>2022-11-05T12:01:48Z</time>
      </trkpt>
      <trkpt lat="48.35869" lon="7.12207">
        <ele>545</ele>
        <time>2022-11-05T12:01:50Z</time>
      </trkpt>
      <trkpt lat="48.35871" lon="7.12221">
        <ele>545</ele>
        <time>2022-11-05T12:01:52Z</time>
      </trkpt>
      <trkpt lat="48.35872" lon="7.12229">
        <ele>544.8</ele>
        <time>2022-11-05T12:01:53Z</time>
      </trkpt>
      <trkpt lat="48.35878" lon="7.12257">
        <ele>544.8</ele>
        <time>2022-11-05T12:01:57Z</time>
      </trkpt>
      <trkpt lat="48.35888" lon="7.12276">
        <ele>544.8</ele>
        <time>2022-11-05T12:02:00Z</time>
      </trkpt>
      <trkpt lat="48.35893" lon="7.12302">
        <ele>544.4</ele>
        <time>2022-11-05T12:02:03Z</time>
      </trkpt>
      <trkpt lat="48.35896" lon="7.12329">
        <ele>544.2</ele>
        <time>2022-11-05T12:02:06Z</time>
      </trkpt>
      <trkpt lat="48.35897" lon="7.12339">
        <ele>544</ele>
        <time>2022-11-05T12:02:07Z</time>
      </trkpt>
      <trkpt lat="48.35905" lon="7.12388">
        <ele>543.6</ele>
        <time>2022-11-05T12:02:12Z</time>
      </trkpt>
      <trkpt lat="48.35913" lon="7.12408">
        <ele>543.6</ele>
        <time>2022-11-05T12:02:14Z</time>
      </trkpt>
      <trkpt lat="48.35922" lon="7.12425">
        <ele>543.6</ele>
        <time>2022-11-05T12:02:16Z</time>
      </trkpt>
      <trkpt lat="48.35942" lon="7.12475">
        <ele>543.6</ele>
        <time>2022-11-05T12:02:20Z</time>
      </trkpt>
      <trkpt lat="48.35952" lon="7.12501">
        <ele>543.6</ele>
        <time>2022-11-05T12:02:22Z</time>
      </trkpt>
      <trkpt lat="48.35962" lon="7.12521">
        <ele>543.6</ele>
        <time>2022-11-05T12:02:24Z</time>
      </trkpt>
      <trkpt lat="48.35985" lon="7.12562">
        <ele>543.4</ele>
        <time>2022-11-05T12:02:28Z</time>
      </trkpt>
      <trkpt lat="48.36008" lon="7.12606">
        <ele>543.2</ele>
        <time>2022-11-05T12:02:33Z</time>
      </trkpt>
      <trkpt lat="48.36024" lon="7.12625">
        <ele>543</ele>
        <time>2022-11-05T12:02:36Z</time>
      </trkpt>
      <trkpt lat="48.3604" lon="7.12645">
        <ele>543.2</ele>
        <time>2022-11-05T12:02:39Z</time>
      </trkpt>
      <trkpt lat="48.36086" lon="7.12703">
        <ele>543.6</ele>
        <time>2022-11-05T12:02:48Z</time>
      </trkpt>
      <trkpt lat="48.36101" lon="7.1272">
        <ele>544</ele>
        <time>2022-11-05T12:02:51Z</time>
      </trkpt>
      <trkpt lat="48.36111" lon="7.12729">
        <ele>544</ele>
        <time>2022-11-05T12:02:53Z</time>
      </trkpt>
      <trkpt lat="48.36116" lon="7.12733">
        <ele>544.2</ele>
        <time>2022-11-05T12:02:54Z</time>
      </trkpt>
      <trkpt lat="48.36132" lon="7.12742">
        <ele>544.4</ele>
        <time>2022-11-05T12:02:57Z</time>
      </trkpt>
      <trkpt lat="48.36154" lon="7.12749">
        <ele>544.6</ele>
        <time>2022-11-05T12:03:00Z</time>
      </trkpt>
      <trkpt lat="48.36196" lon="7.12764">
        <ele>544.6</ele>
        <time>2022-11-05T12:03:05Z</time>
      </trkpt>
      <trkpt lat="48.36252" lon="7.12788">
        <ele>544.8</ele>
        <time>2022-11-05T12:03:11Z</time>
      </trkpt>
      <trkpt lat="48.36305" lon="7.12811">
        <ele>544.8</ele>
        <time>2022-11-05T12:03:17Z</time>
      </trkpt>
      <trkpt lat="48.36313" lon="7.12815">
        <ele>544.8</ele>
        <time>2022-11-05T12:03:18Z</time>
      </trkpt>
      <trkpt lat="48.36349" lon="7.12832">
        <ele>545.2</ele>
        <time>2022-11-05T12:03:23Z</time>
      </trkpt>
      <trkpt lat="48.36367" lon="7.12842">
        <ele>545.4</ele>
        <time>2022-11-05T12:03:27Z</time>
      </trkpt>
      <trkpt lat="48.36378" lon="7.12847">
        <ele>545.6</ele>
        <time>2022-11-05T12:03:30Z</time>
      </trkpt>
      <trkpt lat="48.36383" lon="7.1285">
        <ele>545.8</ele>
        <time>2022-11-05T12:03:32Z</time>
      </trkpt>
      <trkpt lat="48.36402" lon="7.12859">
        <ele>546</ele>
        <time>2022-11-05T12:03:39Z</time>
      </trkpt>
      <trkpt lat="48.36412" lon="7.12867">
        <ele>546</ele>
        <time>2022-11-05T12:03:43Z</time>
      </trkpt>
      <trkpt lat="48.36418" lon="7.12871">
        <ele>546.2</ele>
        <time>2022-11-05T12:03:45Z</time>
      </trkpt>
      <trkpt lat="48.36427" lon="7.12881">
        <ele>546.2</ele>
        <time>2022-11-05T12:03:49Z</time>
      </trkpt>
      <trkpt lat="48.36437" lon="7.12889">
        <ele>546.4</ele>
        <time>2022-11-05T12:03:53Z</time>
      </trkpt>
      <trkpt lat="48.36446" lon="7.12899">
        <ele>546.4</ele>
        <time>2022-11-05T12:03:57Z</time>
      </trkpt>
      <trkpt lat="48.36453" lon="7.12912">
        <ele>546.4</ele>
        <time>2022-11-05T12:04:01Z</time>
      </trkpt>
      <trkpt lat="48.36462" lon="7.12942">
        <ele>546.2</ele>
        <time>2022-11-05T12:04:08Z</time>
      </trkpt>
      <trkpt lat="48.36467" lon="7.12971">
        <ele>546</ele>
        <time>2022-11-05T12:04:13Z</time>
      </trkpt>
      <trkpt lat="48.3647" lon="7.12983">
        <ele>546</ele>
        <time>2022-11-05T12:04:15Z</time>
      </trkpt>
      <trkpt lat="48.36474" lon="7.12999">
        <ele>545.8</ele>
        <time>2022-11-05T12:04:17Z</time>
      </trkpt>
      <trkpt lat="48.3648" lon="7.13011">
        <ele>545.8</ele>
        <time>2022-11-05T12:04:19Z</time>
      </trkpt>
      <trkpt lat="48.36492" lon="7.13021">
        <ele>545.6</ele>
        <time>2022-11-05T12:04:21Z</time>
      </trkpt>
      <trkpt lat="48.36498" lon="7.13023">
        <ele>545.6</ele>
        <time>2022-11-05T12:04:22Z</time>
      </trkpt>
      <trkpt lat="48.36502" lon="7.13024">
        <ele>545.8</ele>
        <time>2022-11-05T12:04:23Z</time>
      </trkpt>
      <trkpt lat="48.36506" lon="7.13025">
        <ele>545.8</ele>
        <time>2022-11-05T12:04:24Z</time>
      </trkpt>
      <trkpt lat="48.36515" lon="7.13026">
        <ele>545.6</ele>
        <time>2022-11-05T12:04:26Z</time>
      </trkpt>
      <trkpt lat="48.36523" lon="7.13029">
        <ele>545.2</ele>
        <time>2022-11-05T12:04:28Z</time>
      </trkpt>
      <trkpt lat="48.36529" lon="7.13033">
        <ele>544.8</ele>
        <time>2022-11-05T12:04:30Z</time>
      </trkpt>
      <trkpt lat="48.36533" lon="7.13034">
        <ele>544.8</ele>
        <time>2022-11-05T12:04:31Z</time>
      </trkpt>
      <trkpt lat="48.36546" lon="7.13041">
        <ele>544.6</ele>
        <time>2022-11-05T12:04:34Z</time>
      </trkpt>
      <trkpt lat="48.36553" lon="7.13045">
        <ele>544.2</ele>
        <time>2022-11-05T12:04:36Z</time>
      </trkpt>
      <trkpt lat="48.3656" lon="7.1305">
        <ele>544</ele>
        <time>2022-11-05T12:04:38Z</time>
      </trkpt>
      <trkpt lat="48.36572" lon="7.13059">
        <ele>544</ele>
        <time>2022-11-05T12:04:41Z</time>
      </trkpt>
      <trkpt lat="48.36576" lon="7.13063">
        <ele>543.8</ele>
        <time>2022-11-05T12:04:42Z</time>
      </trkpt>
      <trkpt lat="48.36586" lon="7.13071">
        <ele>543.8</ele>
        <time>2022-11-05T12:04:44Z</time>
      </trkpt>
      <trkpt lat="48.36603" lon="7.1308">
        <ele>543.6</ele>
        <time>2022-11-05T12:04:47Z</time>
      </trkpt>
      <trkpt lat="48.36609" lon="7.13083">
        <ele>543.4</ele>
        <time>2022-11-05T12:04:48Z</time>
      </trkpt>
      <trkpt lat="48.36631" lon="7.13088">
        <ele>543.2</ele>
        <time>2022-11-05T12:04:51Z</time>
      </trkpt>
      <trkpt lat="48.36648" lon="7.13089">
        <ele>543</ele>
        <time>2022-11-05T12:04:53Z</time>
      </trkpt>
      <trkpt lat="48.36656" lon="7.13089">
        <ele>542.8</ele>
        <time>2022-11-05T12:04:54Z</time>
      </trkpt>
      <trkpt lat="48.36671" lon="7.13087">
        <ele>542.6</ele>
        <time>2022-11-05T12:04:56Z</time>
      </trkpt>
      <trkpt lat="48.36708" lon="7.13076">
        <ele>542.2</ele>
        <time>2022-11-05T12:05:01Z</time>
      </trkpt>
      <trkpt lat="48.36739" lon="7.13064">
        <ele>542</ele>
        <time>2022-11-05T12:05:05Z</time>
      </trkpt>
      <trkpt lat="48.36752" lon="7.13058">
        <ele>542</ele>
        <time>2022-11-05T12:05:07Z</time>
      </trkpt>
      <trkpt lat="48.36795" lon="7.13042">
        <ele>541.8</ele>
        <time>2022-11-05T12:05:13Z</time>
      </trkpt>
      <trkpt lat="48.36801" lon="7.1304">
        <ele>541.8</ele>
        <time>2022-11-05T12:05:14Z</time>
      </trkpt>
      <trkpt lat="48.36808" lon="7.13041">
        <ele>541.8</ele>
        <time>2022-11-05T12:05:15Z</time>
      </trkpt>
      <trkpt lat="48.36821" lon="7.13047">
        <ele>541.8</ele>
        <time>2022-11-05T12:05:18Z</time>
      </trkpt>
      <trkpt lat="48.36832" lon="7.13051">
        <ele>541.8</ele>
        <time>2022-11-05T12:05:20Z</time>
      </trkpt>
      <trkpt lat="48.36842" lon="7.13058">
        <ele>541.8</ele>
        <time>2022-11-05T12:05:23Z</time>
      </trkpt>
      <trkpt lat="48.36846" lon="7.13059">
        <ele>541.8</ele>
        <time>2022-11-05T12:05:24Z</time>
      </trkpt>
      <trkpt lat="48.3685" lon="7.13061">
        <ele>541.8</ele>
        <time>2022-11-05T12:05:25Z</time>
      </trkpt>
      <trkpt lat="48.36863" lon="7.13066">
        <ele>541.8</ele>
        <time>2022-11-05T12:05:27Z</time>
      </trkpt>
      <trkpt lat="48.36867" lon="7.13067">
        <ele>541.8</ele>
        <time>2022-11-05T12:05:28Z</time>
      </trkpt>
      <trkpt lat="48.36872" lon="7.13068">
        <ele>541.8</ele>
        <time>2022-11-05T12:05:29Z</time>
      </trkpt>
      <trkpt lat="48.36892" lon="7.13079">
        <ele>542</ele>
        <time>2022-11-05T12:05:33Z</time>
      </trkpt>
      <trkpt lat="48.36917" lon="7.13091">
        <ele>541.8</ele>
        <time>2022-11-05T12:05:38Z</time>
      </trkpt>
      <trkpt lat="48.36926" lon="7.13094">
        <ele>541.8</ele>
        <time>2022-11-05T12:05:40Z</time>
      </trkpt>
      <trkpt lat="48.36932" lon="7.13094">
        <ele>541.8</ele>
        <time>2022-11-05T12:05:41Z</time>
      </trkpt>
      <trkpt lat="48.36942" lon="7.13095">
        <ele>541.8</ele>
        <time>2022-11-05T12:05:43Z</time>
      </trkpt>
      <trkpt lat="48.36953" lon="7.13092">
        <ele>541.8</ele>
        <time>2022-11-05T12:05:46Z</time>
      </trkpt>
      <trkpt lat="48.36974" lon="7.13089">
        <ele>541.8</ele>
        <time>2022-11-05T12:05:51Z</time>
      </trkpt>
      <trkpt lat="48.36979" lon="7.13089">
        <ele>541.6</ele>
        <time>2022-11-05T12:05:52Z</time>
      </trkpt>
      <trkpt lat="48.36997" lon="7.13094">
        <ele>541.6</ele>
        <time>2022-11-05T12:05:55Z</time>
      </trkpt>
      <trkpt lat="48.37005" lon="7.13098">
        <ele>541.4</ele>
        <time>2022-11-05T12:05:56Z</time>
      </trkpt>
      <trkpt lat="48.37017" lon="7.13107">
        <ele>541.2</ele>
        <time>2022-11-05T12:05:58Z</time>
      </trkpt>
      <trkpt lat="48.37028" lon="7.13121">
        <ele>541.2</ele>
        <time>2022-11-05T12:06:00Z</time>
      </trkpt>
      <trkpt lat="48.37042" lon="7.13138">
        <ele>541</ele>
        <time>2022-11-05T12:06:03Z</time>
      </trkpt>
      <trkpt lat="48.3705" lon="7.13145">
        <ele>541</ele>
        <time>2022-11-05T12:06:05Z</time>
      </trkpt>
      <trkpt lat="48.3706" lon="7.13151">
        <ele>541</ele>
        <time>2022-11-05T12:06:07Z</time>
      </trkpt>
      <trkpt lat="48.3707" lon="7.13154">
        <ele>541</ele>
        <time>2022-11-05T12:06:09Z</time>
      </trkpt>
      <trkpt lat="48.37073" lon="7.13155">
        <ele>541</ele>
        <time>2022-11-05T12:06:10Z</time>
      </trkpt>
      <trkpt lat="48.37086" lon="7.13156">
        <ele>540.8</ele>
        <time>2022-11-05T12:06:12Z</time>
      </trkpt>
      <trkpt lat="48.37092" lon="7.13155">
        <ele>540.8</ele>
        <time>2022-11-05T12:06:13Z</time>
      </trkpt>
      <trkpt lat="48.37099" lon="7.13154">
        <ele>540.8</ele>
        <time>2022-11-05T12:06:14Z</time>
      </trkpt>
      <trkpt lat="48.37105" lon="7.13153">
        <ele>540.6</ele>
        <time>2022-11-05T12:06:15Z</time>
      </trkpt>
      <trkpt lat="48.3713" lon="7.13155">
        <ele>540.6</ele>
        <time>2022-11-05T12:06:19Z</time>
      </trkpt>
      <trkpt lat="48.37148" lon="7.13158">
        <ele>540.4</ele>
        <time>2022-11-05T12:06:22Z</time>
      </trkpt>
      <trkpt lat="48.37156" lon="7.13158">
        <ele>540.4</ele>
        <time>2022-11-05T12:06:23Z</time>
      </trkpt>
      <trkpt lat="48.3718" lon="7.13161">
        <ele>540.4</ele>
        <time>2022-11-05T12:06:27Z</time>
      </trkpt>
      <trkpt lat="48.37192" lon="7.13162">
        <ele>540.4</ele>
        <time>2022-11-05T12:06:29Z</time>
      </trkpt>
      <trkpt lat="48.3721" lon="7.13167">
        <ele>540.4</ele>
        <time>2022-11-05T12:06:32Z</time>
      </trkpt>
      <trkpt lat="48.37238" lon="7.13192">
        <ele>540.2</ele>
        <time>2022-11-05T12:06:37Z</time>
      </trkpt>
      <trkpt lat="48.37263" lon="7.13223">
        <ele>540</ele>
        <time>2022-11-05T12:06:42Z</time>
      </trkpt>
      <trkpt lat="48.3727" lon="7.1323">
        <ele>539.8</ele>
        <time>2022-11-05T12:06:43Z</time>
      </trkpt>
      <trkpt lat="48.37277" lon="7.13233">
        <ele>539.8</ele>
        <time>2022-11-05T12:06:44Z</time>
      </trkpt>
      <trkpt lat="48.37283" lon="7.13233">
        <ele>539.8</ele>
        <time>2022-11-05T12:06:45Z</time>
      </trkpt>
      <trkpt lat="48.37294" lon="7.13224">
        <ele>539.6</ele>
        <time>2022-11-05T12:06:47Z</time>
      </trkpt>
      <trkpt lat="48.37302" lon="7.13205">
        <ele>539.4</ele>
        <time>2022-11-05T12:06:49Z</time>
      </trkpt>
      <trkpt lat="48.37305" lon="7.13192">
        <ele>539.4</ele>
        <time>2022-11-05T12:06:50Z</time>
      </trkpt>
      <trkpt lat="48.37306" lon="7.1318">
        <ele>539.2</ele>
        <time>2022-11-05T12:06:51Z</time>
      </trkpt>
      <trkpt lat="48.37309" lon="7.13143">
        <ele>539</ele>
        <time>2022-11-05T12:06:54Z</time>
      </trkpt>
      <trkpt lat="48.37313" lon="7.13114">
        <ele>538.8</ele>
        <time>2022-11-05T12:06:56Z</time>
      </trkpt>
      <trkpt lat="48.37315" lon="7.13099">
        <ele>538.6</ele>
        <time>2022-11-05T12:06:57Z</time>
      </trkpt>
      <trkpt lat="48.37316" lon="7.13083">
        <ele>538.4</ele>
        <time>2022-11-05T12:06:58Z</time>
      </trkpt>
      <trkpt lat="48.37316" lon="7.13048">
        <ele>538.4</ele>
        <time>2022-11-05T12:07:00Z</time>
      </trkpt>
      <trkpt lat="48.37315" lon="7.13033">
        <ele>538.2</ele>
        <time>2022-11-05T12:07:01Z</time>
      </trkpt>
      <trkpt lat="48.37309" lon="7.1296">
        <ele>537.8</ele>
        <time>2022-11-05T12:07:06Z</time>
      </trkpt>
      <trkpt lat="48.37305" lon="7.12936">
        <ele>537.6</ele>
        <time>2022-11-05T12:07:08Z</time>
      </trkpt>
      <trkpt lat="48.37301" lon="7.12895">
        <ele>537.4</ele>
        <time>2022-11-05T12:07:11Z</time>
      </trkpt>
      <trkpt lat="48.37303" lon="7.12846">
        <ele>537.4</ele>
        <time>2022-11-05T12:07:15Z</time>
      </trkpt>
      <trkpt lat="48.37304" lon="7.12834">
        <ele>537.4</ele>
        <time>2022-11-05T12:07:16Z</time>
      </trkpt>
      <trkpt lat="48.37306" lon="7.12824">
        <ele>537.2</ele>
        <time>2022-11-05T12:07:17Z</time>
      </trkpt>
      <trkpt lat="48.37314" lon="7.12782">
        <ele>537.2</ele>
        <time>2022-11-05T12:07:21Z</time>
      </trkpt>
      <trkpt lat="48.37314" lon="7.12772">
        <ele>537.2</ele>
        <time>2022-11-05T12:07:22Z</time>
      </trkpt>
      <trkpt lat="48.37315" lon="7.12745">
        <ele>537.2</ele>
        <time>2022-11-05T12:07:25Z</time>
      </trkpt>
      <trkpt lat="48.37315" lon="7.12727">
        <ele>537.2</ele>
        <time>2022-11-05T12:07:27Z</time>
      </trkpt>
      <trkpt lat="48.37313" lon="7.12697">
        <ele>537.2</ele>
        <time>2022-11-05T12:07:31Z</time>
      </trkpt>
      <trkpt lat="48.37313" lon="7.12689">
        <ele>537.2</ele>
        <time>2022-11-05T12:07:32Z</time>
      </trkpt>
      <trkpt lat="48.37306" lon="7.12669">
        <ele>537.4</ele>
        <time>2022-11-05T12:07:34Z</time>
      </trkpt>
      <trkpt lat="48.37305" lon="7.12631">
        <ele>537.6</ele>
        <time>2022-11-05T12:07:38Z</time>
      </trkpt>
      <trkpt lat="48.37307" lon="7.12615">
        <ele>537.6</ele>
        <time>2022-11-05T12:07:40Z</time>
      </trkpt>
      <trkpt lat="48.37309" lon="7.12601">
        <ele>537.6</ele>
        <time>2022-11-05T12:07:42Z</time>
      </trkpt>
      <trkpt lat="48.3731" lon="7.12583">
        <ele>537.6</ele>
        <time>2022-11-05T12:07:44Z</time>
      </trkpt>
      <trkpt lat="48.3731" lon="7.12576">
        <ele>537.6</ele>
        <time>2022-11-05T12:07:45Z</time>
      </trkpt>
      <trkpt lat="48.37311" lon="7.12566">
        <ele>537.8</ele>
        <time>2022-11-05T12:07:46Z</time>
      </trkpt>
      <trkpt lat="48.37312" lon="7.1255">
        <ele>537.8</ele>
        <time>2022-11-05T12:07:48Z</time>
      </trkpt>
      <trkpt lat="48.37313" lon="7.12543">
        <ele>537.8</ele>
        <time>2022-11-05T12:07:49Z</time>
      </trkpt>
      <trkpt lat="48.37316" lon="7.12521">
        <ele>538.2</ele>
        <time>2022-11-05T12:07:52Z</time>
      </trkpt>
      <trkpt lat="48.37321" lon="7.125">
        <ele>538.4</ele>
        <time>2022-11-05T12:07:55Z</time>
      </trkpt>
      <trkpt lat="48.37322" lon="7.12495">
        <ele>538.4</ele>
        <time>2022-11-05T12:07:56Z</time>
      </trkpt>
      <trkpt lat="48.37324" lon="7.12487">
        <ele>538.4</ele>
        <time>2022-11-05T12:07:57Z</time>
      </trkpt>
      <trkpt lat="48.37328" lon="7.12464">
        <ele>538.4</ele>
        <time>2022-11-05T12:08:01Z</time>
      </trkpt>
      <trkpt lat="48.37332" lon="7.12451">
        <ele>538.6</ele>
        <time>2022-11-05T12:08:03Z</time>
      </trkpt>
      <trkpt lat="48.37335" lon="7.12439">
        <ele>538.6</ele>
        <time>2022-11-05T12:08:05Z</time>
      </trkpt>
      <trkpt lat="48.37338" lon="7.12434">
        <ele>538.6</ele>
        <time>2022-11-05T12:08:06Z</time>
      </trkpt>
      <trkpt lat="48.37341" lon="7.12428">
        <ele>538.6</ele>
        <time>2022-11-05T12:08:07Z</time>
      </trkpt>
      <trkpt lat="48.37348" lon="7.12419">
        <ele>538.6</ele>
        <time>2022-11-05T12:08:09Z</time>
      </trkpt>
      <trkpt lat="48.37353" lon="7.12416">
        <ele>538.4</ele>
        <time>2022-11-05T12:08:11Z</time>
      </trkpt>
      <trkpt lat="48.37364" lon="7.12422">
        <ele>538.2</ele>
        <time>2022-11-05T12:08:14Z</time>
      </trkpt>
      <trkpt lat="48.37368" lon="7.12427">
        <ele>538.2</ele>
        <time>2022-11-05T12:08:15Z</time>
      </trkpt>
      <trkpt lat="48.37371" lon="7.12433">
        <ele>538.2</ele>
        <time>2022-11-05T12:08:16Z</time>
      </trkpt>
      <trkpt lat="48.37378" lon="7.12454">
        <ele>538.2</ele>
        <time>2022-11-05T12:08:19Z</time>
      </trkpt>
      <trkpt lat="48.37383" lon="7.12478">
        <ele>538</ele>
        <time>2022-11-05T12:08:22Z</time>
      </trkpt>
      <trkpt lat="48.37386" lon="7.12501">
        <ele>537.8</ele>
        <time>2022-11-05T12:08:25Z</time>
      </trkpt>
      <trkpt lat="48.37387" lon="7.12507">
        <ele>537.8</ele>
        <time>2022-11-05T12:08:26Z</time>
      </trkpt>
      <trkpt lat="48.3739" lon="7.12519">
        <ele>537.8</ele>
        <time>2022-11-05T12:08:28Z</time>
      </trkpt>
      <trkpt lat="48.37396" lon="7.12531">
        <ele>537.8</ele>
        <time>2022-11-05T12:08:30Z</time>
      </trkpt>
      <trkpt lat="48.374" lon="7.12536">
        <ele>537.8</ele>
        <time>2022-11-05T12:08:31Z</time>
      </trkpt>
      <trkpt lat="48.37411" lon="7.12548">
        <ele>537.8</ele>
        <time>2022-11-05T12:08:33Z</time>
      </trkpt>
      <trkpt lat="48.37425" lon="7.12566">
        <ele>538</ele>
        <time>2022-11-05T12:08:36Z</time>
      </trkpt>
      <trkpt lat="48.37451" lon="7.12601">
        <ele>538</ele>
        <time>2022-11-05T12:08:42Z</time>
      </trkpt>
      <trkpt lat="48.37455" lon="7.12608">
        <ele>538</ele>
        <time>2022-11-05T12:08:43Z</time>
      </trkpt>
      <trkpt lat="48.37461" lon="7.12622">
        <ele>538</ele>
        <time>2022-11-05T12:08:45Z</time>
      </trkpt>
      <trkpt lat="48.37477" lon="7.1266">
        <ele>538</ele>
        <time>2022-11-05T12:08:50Z</time>
      </trkpt>
      <trkpt lat="48.37481" lon="7.12667">
        <ele>538</ele>
        <time>2022-11-05T12:08:51Z</time>
      </trkpt>
      <trkpt lat="48.37492" lon="7.12686">
        <ele>538</ele>
        <time>2022-11-05T12:08:54Z</time>
      </trkpt>
      <trkpt lat="48.37496" lon="7.12692">
        <ele>538</ele>
        <time>2022-11-05T12:08:55Z</time>
      </trkpt>
      <trkpt lat="48.375" lon="7.12698">
        <ele>538</ele>
        <time>2022-11-05T12:08:56Z</time>
      </trkpt>
      <trkpt lat="48.37512" lon="7.12723">
        <ele>538.2</ele>
        <time>2022-11-05T12:08:59Z</time>
      </trkpt>
      <trkpt lat="48.37516" lon="7.12733">
        <ele>538.2</ele>
        <time>2022-11-05T12:09:00Z</time>
      </trkpt>
      <trkpt lat="48.37536" lon="7.12793">
        <ele>538.2</ele>
        <time>2022-11-05T12:09:06Z</time>
      </trkpt>
      <trkpt lat="48.37542" lon="7.1281">
        <ele>538.2</ele>
        <time>2022-11-05T12:09:08Z</time>
      </trkpt>
      <trkpt lat="48.37546" lon="7.12821">
        <ele>538.2</ele>
        <time>2022-11-05T12:09:09Z</time>
      </trkpt>
      <trkpt lat="48.37557" lon="7.12846">
        <ele>538.2</ele>
        <time>2022-11-05T12:09:12Z</time>
      </trkpt>
      <trkpt lat="48.37579" lon="7.12899">
        <ele>538.2</ele>
        <time>2022-11-05T12:09:18Z</time>
      </trkpt>
      <trkpt lat="48.37604" lon="7.12958">
        <ele>538.4</ele>
        <time>2022-11-05T12:09:25Z</time>
      </trkpt>
      <trkpt lat="48.37623" lon="7.13001">
        <ele>538.4</ele>
        <time>2022-11-05T12:09:30Z</time>
      </trkpt>
      <trkpt lat="48.37627" lon="7.13011">
        <ele>538.4</ele>
        <time>2022-11-05T12:09:31Z</time>
      </trkpt>
      <trkpt lat="48.37642" lon="7.13045">
        <ele>538.6</ele>
        <time>2022-11-05T12:09:35Z</time>
      </trkpt>
      <trkpt lat="48.37676" lon="7.13115">
        <ele>538.2</ele>
        <time>2022-11-05T12:09:44Z</time>
      </trkpt>
      <trkpt lat="48.37708" lon="7.1318">
        <ele>537.8</ele>
        <time>2022-11-05T12:09:53Z</time>
      </trkpt>
      <trkpt lat="48.37738" lon="7.13245">
        <ele>537.6</ele>
        <time>2022-11-05T12:10:02Z</time>
      </trkpt>
      <trkpt lat="48.37742" lon="7.13253">
        <ele>537.6</ele>
        <time>2022-11-05T12:10:03Z</time>
      </trkpt>
      <trkpt lat="48.37775" lon="7.13306">
        <ele>537.6</ele>
        <time>2022-11-05T12:10:11Z</time>
      </trkpt>
      <trkpt lat="48.37787" lon="7.13323">
        <ele>537.4</ele>
        <time>2022-11-05T12:10:14Z</time>
      </trkpt>
      <trkpt lat="48.37806" lon="7.13343">
        <ele>537.4</ele>
        <time>2022-11-05T12:10:18Z</time>
      </trkpt>
      <trkpt lat="48.37828" lon="7.13362">
        <ele>537.2</ele>
        <time>2022-11-05T12:10:22Z</time>
      </trkpt>
      <trkpt lat="48.37833" lon="7.13365">
        <ele>537</ele>
        <time>2022-11-05T12:10:23Z</time>
      </trkpt>
      <trkpt lat="48.37845" lon="7.13372">
        <ele>537</ele>
        <time>2022-11-05T12:10:25Z</time>
      </trkpt>
      <trkpt lat="48.37852" lon="7.13374">
        <ele>536.8</ele>
        <time>2022-11-05T12:10:26Z</time>
      </trkpt>
      <trkpt lat="48.37859" lon="7.13375">
        <ele>536.8</ele>
        <time>2022-11-05T12:10:27Z</time>
      </trkpt>
      <trkpt lat="48.37867" lon="7.13375">
        <ele>536.8</ele>
        <time>2022-11-05T12:10:28Z</time>
      </trkpt>
      <trkpt lat="48.37911" lon="7.1338">
        <ele>536.6</ele>
        <time>2022-11-05T12:10:34Z</time>
      </trkpt>
      <trkpt lat="48.37932" lon="7.13385">
        <ele>536.6</ele>
        <time>2022-11-05T12:10:37Z</time>
      </trkpt>
      <trkpt lat="48.37952" lon="7.1339">
        <ele>536.4</ele>
        <time>2022-11-05T12:10:40Z</time>
      </trkpt>
      <trkpt lat="48.37971" lon="7.13398">
        <ele>536.4</ele>
        <time>2022-11-05T12:10:43Z</time>
      </trkpt>
      <trkpt lat="48.37981" lon="7.13404">
        <ele>536.4</ele>
        <time>2022-11-05T12:10:45Z</time>
      </trkpt>
      <trkpt lat="48.37986" lon="7.13407">
        <ele>536.2</ele>
        <time>2022-11-05T12:10:46Z</time>
      </trkpt>
      <trkpt lat="48.38007" lon="7.13422">
        <ele>536.2</ele>
        <time>2022-11-05T12:10:50Z</time>
      </trkpt>
      <trkpt lat="48.38042" lon="7.1345">
        <ele>535.8</ele>
        <time>2022-11-05T12:10:57Z</time>
      </trkpt>
      <trkpt lat="48.38051" lon="7.13457">
        <ele>535.8</ele>
        <time>2022-11-05T12:10:59Z</time>
      </trkpt>
      <trkpt lat="48.38061" lon="7.13466">
        <ele>535.6</ele>
        <time>2022-11-05T12:11:01Z</time>
      </trkpt>
      <trkpt lat="48.38077" lon="7.13476">
        <ele>535.6</ele>
        <time>2022-11-05T12:11:04Z</time>
      </trkpt>
      <trkpt lat="48.38087" lon="7.13483">
        <ele>535.6</ele>
        <time>2022-11-05T12:11:06Z</time>
      </trkpt>
      <trkpt lat="48.38092" lon="7.13485">
        <ele>535.6</ele>
        <time>2022-11-05T12:11:07Z</time>
      </trkpt>
      <trkpt lat="48.38108" lon="7.13493">
        <ele>535.6</ele>
        <time>2022-11-05T12:11:10Z</time>
      </trkpt>
      <trkpt lat="48.38123" lon="7.13503">
        <ele>535.2</ele>
        <time>2022-11-05T12:11:13Z</time>
      </trkpt>
      <trkpt lat="48.38158" lon="7.13525">
        <ele>535</ele>
        <time>2022-11-05T12:11:20Z</time>
      </trkpt>
      <trkpt lat="48.38164" lon="7.13528">
        <ele>535</ele>
        <time>2022-11-05T12:11:21Z</time>
      </trkpt>
      <trkpt lat="48.38183" lon="7.13531">
        <ele>535</ele>
        <time>2022-11-05T12:11:24Z</time>
      </trkpt>
      <trkpt lat="48.38217" lon="7.1353">
        <ele>535</ele>
        <time>2022-11-05T12:11:29Z</time>
      </trkpt>
      <trkpt lat="48.38223" lon="7.13528">
        <ele>535</ele>
        <time>2022-11-05T12:11:30Z</time>
      </trkpt>
      <trkpt lat="48.38229" lon="7.13522">
        <ele>535</ele>
        <time>2022-11-05T12:11:31Z</time>
      </trkpt>
      <trkpt lat="48.38245" lon="7.13505">
        <ele>535</ele>
        <time>2022-11-05T12:11:33Z</time>
      </trkpt>
      <trkpt lat="48.3828" lon="7.13465">
        <ele>534.8</ele>
        <time>2022-11-05T12:11:37Z</time>
      </trkpt>
      <trkpt lat="48.38302" lon="7.13456">
        <ele>534.6</ele>
        <time>2022-11-05T12:11:39Z</time>
      </trkpt>
      <trkpt lat="48.38311" lon="7.13455">
        <ele>534.4</ele>
        <time>2022-11-05T12:11:40Z</time>
      </trkpt>
      <trkpt lat="48.38325" lon="7.13457">
        <ele>534.4</ele>
        <time>2022-11-05T12:11:41Z</time>
      </trkpt>
      <trkpt lat="48.38344" lon="7.13467">
        <ele>534.4</ele>
        <time>2022-11-05T12:11:43Z</time>
      </trkpt>
      <trkpt lat="48.3835" lon="7.13474">
        <ele>534.2</ele>
        <time>2022-11-05T12:11:44Z</time>
      </trkpt>
      <trkpt lat="48.38366" lon="7.13496">
        <ele>534.2</ele>
        <time>2022-11-05T12:11:46Z</time>
      </trkpt>
      <trkpt lat="48.38369" lon="7.13506">
        <ele>534.2</ele>
        <time>2022-11-05T12:11:47Z</time>
      </trkpt>
      <trkpt lat="48.3838" lon="7.13523">
        <ele>534.2</ele>
        <time>2022-11-05T12:11:49Z</time>
      </trkpt>
      <trkpt lat="48.38391" lon="7.13534">
        <ele>534.2</ele>
        <time>2022-11-05T12:11:51Z</time>
      </trkpt>
      <trkpt lat="48.384" lon="7.1354">
        <ele>534.2</ele>
        <time>2022-11-05T12:11:53Z</time>
      </trkpt>
      <trkpt lat="48.38436" lon="7.13548">
        <ele>534.2</ele>
        <time>2022-11-05T12:11:59Z</time>
      </trkpt>
      <trkpt lat="48.38441" lon="7.1355">
        <ele>534.2</ele>
        <time>2022-11-05T12:12:00Z</time>
      </trkpt>
      <trkpt lat="48.38457" lon="7.13561">
        <ele>534.2</ele>
        <time>2022-11-05T12:12:03Z</time>
      </trkpt>
      <trkpt lat="48.38465" lon="7.13572">
        <ele>534.4</ele>
        <time>2022-11-05T12:12:05Z</time>
      </trkpt>
      <trkpt lat="48.3848" lon="7.13594">
        <ele>534.4</ele>
        <time>2022-11-05T12:12:10Z</time>
      </trkpt>
      <trkpt lat="48.38492" lon="7.13607">
        <ele>534.4</ele>
        <time>2022-11-05T12:12:16Z</time>
      </trkpt>
      <trkpt lat="48.38492" lon="7.13607">
        <ele>534.4</ele>
        <time>2022-11-05T12:12:18Z</time>
      </trkpt>
      <trkpt lat="48.38492" lon="7.13608">
        <ele>533.8</ele>
        <time>2022-11-05T12:12:31Z</time>
      </trkpt>
      <trkpt lat="48.38493" lon="7.13609">
        <ele>533.8</ele>
        <time>2022-11-05T12:12:32Z</time>
      </trkpt>
      <trkpt lat="48.38501" lon="7.13617">
        <ele>533.4</ele>
        <time>2022-11-05T12:12:37Z</time>
      </trkpt>
      <trkpt lat="48.38502" lon="7.13619">
        <ele>533.4</ele>
        <time>2022-11-05T12:12:38Z</time>
      </trkpt>
      <trkpt lat="48.38511" lon="7.13627">
        <ele>532.8</ele>
        <time>2022-11-05T12:12:43Z</time>
      </trkpt>
      <trkpt lat="48.38512" lon="7.13629">
        <ele>532.8</ele>
        <time>2022-11-05T12:12:44Z</time>
      </trkpt>
      <trkpt lat="48.38526" lon="7.1364">
        <ele>532.4</ele>
        <time>2022-11-05T12:12:51Z</time>
      </trkpt>
      <trkpt lat="48.38536" lon="7.13646">
        <ele>532.2</ele>
        <time>2022-11-05T12:12:55Z</time>
      </trkpt>
      <trkpt lat="48.38545" lon="7.1365">
        <ele>532.2</ele>
        <time>2022-11-05T12:12:58Z</time>
      </trkpt>
      <trkpt lat="48.38566" lon="7.13655">
        <ele>532</ele>
        <time>2022-11-05T12:13:06Z</time>
      </trkpt>
      <trkpt lat="48.38589" lon="7.13655">
        <ele>532.2</ele>
        <time>2022-11-05T12:13:12Z</time>
      </trkpt>
      <trkpt lat="48.38619" lon="7.13652">
        <ele>532.6</ele>
        <time>2022-11-05T12:13:17Z</time>
      </trkpt>
      <trkpt lat="48.38645" lon="7.13652">
        <ele>532.8</ele>
        <time>2022-11-05T12:13:20Z</time>
      </trkpt>
      <trkpt lat="48.38654" lon="7.13655">
        <ele>532.8</ele>
        <time>2022-11-05T12:13:21Z</time>
      </trkpt>
      <trkpt lat="48.38663" lon="7.1366">
        <ele>532.8</ele>
        <time>2022-11-05T12:13:22Z</time>
      </trkpt>
      <trkpt lat="48.38687" lon="7.1368">
        <ele>532.8</ele>
        <time>2022-11-05T12:13:25Z</time>
      </trkpt>
      <trkpt lat="48.38696" lon="7.13686">
        <ele>532.6</ele>
        <time>2022-11-05T12:13:26Z</time>
      </trkpt>
      <trkpt lat="48.38714" lon="7.13693">
        <ele>532.4</ele>
        <time>2022-11-05T12:13:28Z</time>
      </trkpt>
      <trkpt lat="48.38734" lon="7.13692">
        <ele>532</ele>
        <time>2022-11-05T12:13:30Z</time>
      </trkpt>
      <trkpt lat="48.38743" lon="7.13688">
        <ele>532</ele>
        <time>2022-11-05T12:13:31Z</time>
      </trkpt>
      <trkpt lat="48.38801" lon="7.13655">
        <ele>531.6</ele>
        <time>2022-11-05T12:13:37Z</time>
      </trkpt>
      <trkpt lat="48.38812" lon="7.13647">
        <ele>531.6</ele>
        <time>2022-11-05T12:13:38Z</time>
      </trkpt>
      <trkpt lat="48.38828" lon="7.13635">
        <ele>531.4</ele>
        <time>2022-11-05T12:13:40Z</time>
      </trkpt>
      <trkpt lat="48.38836" lon="7.13627">
        <ele>531.4</ele>
        <time>2022-11-05T12:13:41Z</time>
      </trkpt>
      <trkpt lat="48.38844" lon="7.13618">
        <ele>531.2</ele>
        <time>2022-11-05T12:13:42Z</time>
      </trkpt>
      <trkpt lat="48.38866" lon="7.13586">
        <ele>531.2</ele>
        <time>2022-11-05T12:13:45Z</time>
      </trkpt>
      <trkpt lat="48.38872" lon="7.13574">
        <ele>531.2</ele>
        <time>2022-11-05T12:13:46Z</time>
      </trkpt>
      <trkpt lat="48.38877" lon="7.13561">
        <ele>531.2</ele>
        <time>2022-11-05T12:13:47Z</time>
      </trkpt>
      <trkpt lat="48.38889" lon="7.1352">
        <ele>531.2</ele>
        <time>2022-11-05T12:13:50Z</time>
      </trkpt>
      <trkpt lat="48.38901" lon="7.13467">
        <ele>531.4</ele>
        <time>2022-11-05T12:13:54Z</time>
      </trkpt>
      <trkpt lat="48.38905" lon="7.13455">
        <ele>531.4</ele>
        <time>2022-11-05T12:13:55Z</time>
      </trkpt>
      <trkpt lat="48.38911" lon="7.13446">
        <ele>531.4</ele>
        <time>2022-11-05T12:13:56Z</time>
      </trkpt>
      <trkpt lat="48.38926" lon="7.13438">
        <ele>531.6</ele>
        <time>2022-11-05T12:13:58Z</time>
      </trkpt>
      <trkpt lat="48.38955" lon="7.13423">
        <ele>531.8</ele>
        <time>2022-11-05T12:14:02Z</time>
      </trkpt>
      <trkpt lat="48.38962" lon="7.13419">
        <ele>531.8</ele>
        <time>2022-11-05T12:14:03Z</time>
      </trkpt>
      <trkpt lat="48.38995" lon="7.134">
        <ele>532.2</ele>
        <time>2022-11-05T12:14:09Z</time>
      </trkpt>
      <trkpt lat="48.3902" lon="7.13381">
        <ele>532.6</ele>
        <time>2022-11-05T12:14:14Z</time>
      </trkpt>
      <trkpt lat="48.39024" lon="7.13376">
        <ele>532.6</ele>
        <time>2022-11-05T12:14:15Z</time>
      </trkpt>
      <trkpt lat="48.39037" lon="7.13354">
        <ele>532.8</ele>
        <time>2022-11-05T12:14:18Z</time>
      </trkpt>
      <trkpt lat="48.39041" lon="7.13345">
        <ele>533</ele>
        <time>2022-11-05T12:14:19Z</time>
      </trkpt>
      <trkpt lat="48.39066" lon="7.13293">
        <ele>533.2</ele>
        <time>2022-11-05T12:14:25Z</time>
      </trkpt>
      <trkpt lat="48.39106" lon="7.13246">
        <ele>533.4</ele>
        <time>2022-11-05T12:14:32Z</time>
      </trkpt>
      <trkpt lat="48.39136" lon="7.13208">
        <ele>533.6</ele>
        <time>2022-11-05T12:14:38Z</time>
      </trkpt>
      <trkpt lat="48.39151" lon="7.13188">
        <ele>533.6</ele>
        <time>2022-11-05T12:14:41Z</time>
      </trkpt>
      <trkpt lat="48.39157" lon="7.13175">
        <ele>533.8</ele>
        <time>2022-11-05T12:14:43Z</time>
      </trkpt>
      <trkpt lat="48.39164" lon="7.13158">
        <ele>533.8</ele>
        <time>2022-11-05T12:14:45Z</time>
      </trkpt>
      <trkpt lat="48.39168" lon="7.13146">
        <ele>534.2</ele>
        <time>2022-11-05T12:14:47Z</time>
      </trkpt>
      <trkpt lat="48.39171" lon="7.13135">
        <ele>534.2</ele>
        <time>2022-11-05T12:14:49Z</time>
      </trkpt>
      <trkpt lat="48.39177" lon="7.13128">
        <ele>534.2</ele>
        <time>2022-11-05T12:14:51Z</time>
      </trkpt>
      <trkpt lat="48.39181" lon="7.13124">
        <ele>534.2</ele>
        <time>2022-11-05T12:14:53Z</time>
      </trkpt>
      <trkpt lat="48.39189" lon="7.13117">
        <ele>534.2</ele>
        <time>2022-11-05T12:14:55Z</time>
      </trkpt>
      <trkpt lat="48.39196" lon="7.13104">
        <ele>534.2</ele>
        <time>2022-11-05T12:14:57Z</time>
      </trkpt>
      <trkpt lat="48.39199" lon="7.13096">
        <ele>534</ele>
        <time>2022-11-05T12:14:58Z</time>
      </trkpt>
      <trkpt lat="48.39216" lon="7.13052">
        <ele>533.4</ele>
        <time>2022-11-05T12:15:03Z</time>
      </trkpt>
      <trkpt lat="48.3922" lon="7.13045">
        <ele>533.4</ele>
        <time>2022-11-05T12:15:04Z</time>
      </trkpt>
      <trkpt lat="48.39225" lon="7.1304">
        <ele>533.2</ele>
        <time>2022-11-05T12:15:05Z</time>
      </trkpt>
      <trkpt lat="48.39236" lon="7.13035">
        <ele>533.2</ele>
        <time>2022-11-05T12:15:07Z</time>
      </trkpt>
      <trkpt lat="48.39248" lon="7.13033">
        <ele>533.2</ele>
        <time>2022-11-05T12:15:09Z</time>
      </trkpt>
      <trkpt lat="48.3926" lon="7.13022">
        <ele>533</ele>
        <time>2022-11-05T12:15:11Z</time>
      </trkpt>
      <trkpt lat="48.39271" lon="7.12993">
        <ele>533</ele>
        <time>2022-11-05T12:15:14Z</time>
      </trkpt>
      <trkpt lat="48.39274" lon="7.12983">
        <ele>532.8</ele>
        <time>2022-11-05T12:15:15Z</time>
      </trkpt>
      <trkpt lat="48.39279" lon="7.12963">
        <ele>532.4</ele>
        <time>2022-11-05T12:15:17Z</time>
      </trkpt>
      <trkpt lat="48.39283" lon="7.12954">
        <ele>532.4</ele>
        <time>2022-11-05T12:15:18Z</time>
      </trkpt>
      <trkpt lat="48.39287" lon="7.1295">
        <ele>532.2</ele>
        <time>2022-11-05T12:15:19Z</time>
      </trkpt>
      <trkpt lat="48.39299" lon="7.12943">
        <ele>532</ele>
        <time>2022-11-05T12:15:21Z</time>
      </trkpt>
      <trkpt lat="48.39312" lon="7.12941">
        <ele>532.2</ele>
        <time>2022-11-05T12:15:23Z</time>
      </trkpt>
      <trkpt lat="48.39327" lon="7.12941">
        <ele>532</ele>
        <time>2022-11-05T12:15:25Z</time>
      </trkpt>
      <trkpt lat="48.39356" lon="7.12939">
        <ele>531.8</ele>
        <time>2022-11-05T12:15:29Z</time>
      </trkpt>
      <trkpt lat="48.39362" lon="7.1294">
        <ele>531.8</ele>
        <time>2022-11-05T12:15:30Z</time>
      </trkpt>
      <trkpt lat="48.39378" lon="7.12944">
        <ele>531.6</ele>
        <time>2022-11-05T12:15:32Z</time>
      </trkpt>
      <trkpt lat="48.39407" lon="7.12955">
        <ele>531.6</ele>
        <time>2022-11-05T12:15:36Z</time>
      </trkpt>
      <trkpt lat="48.39457" lon="7.12967">
        <ele>531.8</ele>
        <time>2022-11-05T12:15:43Z</time>
      </trkpt>
      <trkpt lat="48.39482" lon="7.12971">
        <ele>531.8</ele>
        <time>2022-11-05T12:15:47Z</time>
      </trkpt>
      <trkpt lat="48.39493" lon="7.1297">
        <ele>531.6</ele>
        <time>2022-11-05T12:15:49Z</time>
      </trkpt>
      <trkpt lat="48.39501" lon="7.12975">
        <ele>531.6</ele>
        <time>2022-11-05T12:15:51Z</time>
      </trkpt>
      <trkpt lat="48.39504" lon="7.12981">
        <ele>531.6</ele>
        <time>2022-11-05T12:15:52Z</time>
      </trkpt>
      <trkpt lat="48.39507" lon="7.12991">
        <ele>531.6</ele>
        <time>2022-11-05T12:15:54Z</time>
      </trkpt>
      <trkpt lat="48.39516" lon="7.13017">
        <ele>531.6</ele>
        <time>2022-11-05T12:15:59Z</time>
      </trkpt>
      <trkpt lat="48.39525" lon="7.13043">
        <ele>531.6</ele>
        <time>2022-11-05T12:16:05Z</time>
      </trkpt>
      <trkpt lat="48.39536" lon="7.13063">
        <ele>532</ele>
        <time>2022-11-05T12:16:11Z</time>
      </trkpt>
      <trkpt lat="48.39553" lon="7.1307">
        <ele>532.4</ele>
        <time>2022-11-05T12:16:17Z</time>
      </trkpt>
      <trkpt lat="48.39559" lon="7.13072">
        <ele>532.6</ele>
        <time>2022-11-05T12:16:19Z</time>
      </trkpt>
      <trkpt lat="48.39577" lon="7.13073">
        <ele>532.8</ele>
        <time>2022-11-05T12:16:25Z</time>
      </trkpt>
      <trkpt lat="48.39593" lon="7.13076">
        <ele>533</ele>
        <time>2022-11-05T12:16:32Z</time>
      </trkpt>
      <trkpt lat="48.39596" lon="7.13076">
        <ele>533</ele>
        <time>2022-11-05T12:16:33Z</time>
      </trkpt>
      <trkpt lat="48.39599" lon="7.13077">
        <ele>533.2</ele>
        <time>2022-11-05T12:16:34Z</time>
      </trkpt>
      <trkpt lat="48.39615" lon="7.13077">
        <ele>533.2</ele>
        <time>2022-11-05T12:16:39Z</time>
      </trkpt>
      <trkpt lat="48.39618" lon="7.13076">
        <ele>533.2</ele>
        <time>2022-11-05T12:16:40Z</time>
      </trkpt>
      <trkpt lat="48.39632" lon="7.1307">
        <ele>533</ele>
        <time>2022-11-05T12:16:43Z</time>
      </trkpt>
      <trkpt lat="48.39637" lon="7.13066">
        <ele>533</ele>
        <time>2022-11-05T12:16:44Z</time>
      </trkpt>
      <trkpt lat="48.39657" lon="7.13054">
        <ele>533.2</ele>
        <time>2022-11-05T12:16:47Z</time>
      </trkpt>
      <trkpt lat="48.39665" lon="7.13051">
        <ele>533</ele>
        <time>2022-11-05T12:16:48Z</time>
      </trkpt>
      <trkpt lat="48.39693" lon="7.13047">
        <ele>533</ele>
        <time>2022-11-05T12:16:51Z</time>
      </trkpt>
      <trkpt lat="48.39703" lon="7.13048">
        <ele>532.8</ele>
        <time>2022-11-05T12:16:52Z</time>
      </trkpt>
      <trkpt lat="48.39713" lon="7.1305">
        <ele>532.8</ele>
        <time>2022-11-05T12:16:53Z</time>
      </trkpt>
      <trkpt lat="48.39729" lon="7.1306">
        <ele>532.4</ele>
        <time>2022-11-05T12:16:55Z</time>
      </trkpt>
      <trkpt lat="48.39736" lon="7.13066">
        <ele>532.4</ele>
        <time>2022-11-05T12:16:56Z</time>
      </trkpt>
      <trkpt lat="48.39747" lon="7.13081">
        <ele>532.2</ele>
        <time>2022-11-05T12:16:58Z</time>
      </trkpt>
      <trkpt lat="48.39757" lon="7.13095">
        <ele>532</ele>
        <time>2022-11-05T12:17:00Z</time>
      </trkpt>
      <trkpt lat="48.39769" lon="7.13113">
        <ele>531.8</ele>
        <time>2022-11-05T12:17:03Z</time>
      </trkpt>
      <trkpt lat="48.39783" lon="7.1313">
        <ele>531.6</ele>
        <time>2022-11-05T12:17:08Z</time>
      </trkpt>
      <trkpt lat="48.398" lon="7.13156">
        <ele>532</ele>
        <time>2022-11-05T12:17:16Z</time>
      </trkpt>
      <trkpt lat="48.39802" lon="7.13159">
        <ele>532.2</ele>
        <time>2022-11-05T12:17:17Z</time>
      </trkpt>
      <trkpt lat="48.39807" lon="7.1317">
        <ele>532.2</ele>
        <time>2022-11-05T12:17:20Z</time>
      </trkpt>
      <trkpt lat="48.39821" lon="7.13187">
        <ele>532.2</ele>
        <time>2022-11-05T12:17:27Z</time>
      </trkpt>
      <trkpt lat="48.39831" lon="7.13196">
        <ele>532</ele>
        <time>2022-11-05T12:17:32Z</time>
      </trkpt>
      <trkpt lat="48.39841" lon="7.13205">
        <ele>532.2</ele>
        <time>2022-11-05T12:17:38Z</time>
      </trkpt>
      <trkpt lat="48.3985" lon="7.13211">
        <ele>532.4</ele>
        <time>2022-11-05T12:17:44Z</time>
      </trkpt>
      <trkpt lat="48.39852" lon="7.13212">
        <ele>532.4</ele>
        <time>2022-11-05T12:17:45Z</time>
      </trkpt>
      <trkpt lat="48.39855" lon="7.13213">
        <ele>532.8</ele>
        <time>2022-11-05T12:17:47Z</time>
      </trkpt>
      <trkpt lat="48.39859" lon="7.13215">
        <ele>532.8</ele>
        <time>2022-11-05T12:17:50Z</time>
      </trkpt>
      <trkpt lat="48.39873" lon="7.13224">
        <ele>532.4</ele>
        <time>2022-11-05T12:17:58Z</time>
      </trkpt>
      <trkpt lat="48.39884" lon="7.13233">
        <ele>532.4</ele>
        <time>2022-11-05T12:18:04Z</time>
      </trkpt>
      <trkpt lat="48.39886" lon="7.13237">
        <ele>532.2</ele>
        <time>2022-11-05T12:18:06Z</time>
      </trkpt>
      <trkpt lat="48.39893" lon="7.13245">
        <ele>532</ele>
        <time>2022-11-05T12:18:10Z</time>
      </trkpt>
      <trkpt lat="48.39904" lon="7.13258">
        <ele>532</ele>
        <time>2022-11-05T12:18:18Z</time>
      </trkpt>
      <trkpt lat="48.39912" lon="7.13262">
        <ele>532</ele>
        <time>2022-11-05T12:18:22Z</time>
      </trkpt>
      <trkpt lat="48.39917" lon="7.13265">
        <ele>532</ele>
        <time>2022-11-05T12:18:25Z</time>
      </trkpt>
      <trkpt lat="48.3993" lon="7.13274">
        <ele>532.2</ele>
        <time>2022-11-05T12:18:33Z</time>
      </trkpt>
      <trkpt lat="48.39946" lon="7.13282">
        <ele>532.4</ele>
        <time>2022-11-05T12:18:42Z</time>
      </trkpt>
      <trkpt lat="48.39962" lon="7.13291">
        <ele>532.6</ele>
        <time>2022-11-05T12:18:50Z</time>
      </trkpt>
      <trkpt lat="48.39971" lon="7.13294">
        <ele>532.4</ele>
        <time>2022-11-05T12:18:56Z</time>
      </trkpt>
      <trkpt lat="48.39978" lon="7.13298">
        <ele>532.4</ele>
        <time>2022-11-05T12:18:59Z</time>
      </trkpt>
      <trkpt lat="48.39986" lon="7.133">
        <ele>532.6</ele>
        <time>2022-11-05T12:19:01Z</time>
      </trkpt>
      <trkpt lat="48.40017" lon="7.13308">
        <ele>532</ele>
        <time>2022-11-05T12:19:06Z</time>
      </trkpt>
      <trkpt lat="48.40024" lon="7.1331">
        <ele>532</ele>
        <time>2022-11-05T12:19:07Z</time>
      </trkpt>
      <trkpt lat="48.40048" lon="7.13321">
        <ele>531.8</ele>
        <time>2022-11-05T12:19:10Z</time>
      </trkpt>
      <trkpt lat="48.40074" lon="7.13334">
        <ele>531.8</ele>
        <time>2022-11-05T12:19:13Z</time>
      </trkpt>
      <trkpt lat="48.40092" lon="7.13342">
        <ele>531.8</ele>
        <time>2022-11-05T12:19:15Z</time>
      </trkpt>
      <trkpt lat="48.40141" lon="7.13359">
        <ele>531.8</ele>
        <time>2022-11-05T12:19:20Z</time>
      </trkpt>
      <trkpt lat="48.40194" lon="7.13363">
        <ele>531.8</ele>
        <time>2022-11-05T12:19:25Z</time>
      </trkpt>
      <trkpt lat="48.40256" lon="7.13369">
        <ele>531.8</ele>
        <time>2022-11-05T12:19:31Z</time>
      </trkpt>
      <trkpt lat="48.40307" lon="7.13372">
        <ele>531.8</ele>
        <time>2022-11-05T12:19:36Z</time>
      </trkpt>
      <trkpt lat="48.4033" lon="7.13374">
        <ele>531.6</ele>
        <time>2022-11-05T12:19:38Z</time>
      </trkpt>
      <trkpt lat="48.40364" lon="7.13377">
        <ele>531.6</ele>
        <time>2022-11-05T12:19:41Z</time>
      </trkpt>
      <trkpt lat="48.40386" lon="7.13379">
        <ele>531.4</ele>
        <time>2022-11-05T12:19:43Z</time>
      </trkpt>
      <trkpt lat="48.40408" lon="7.13382">
        <ele>531.4</ele>
        <time>2022-11-05T12:19:45Z</time>
      </trkpt>
      <trkpt lat="48.40419" lon="7.13383">
        <ele>531.2</ele>
        <time>2022-11-05T12:19:46Z</time>
      </trkpt>
      <trkpt lat="48.40472" lon="7.13384">
        <ele>531</ele>
        <time>2022-11-05T12:19:51Z</time>
      </trkpt>
      <trkpt lat="48.40481" lon="7.13384">
        <ele>530.8</ele>
        <time>2022-11-05T12:19:52Z</time>
      </trkpt>
      <trkpt lat="48.40535" lon="7.13389">
        <ele>530.4</ele>
        <time>2022-11-05T12:19:58Z</time>
      </trkpt>
      <trkpt lat="48.40559" lon="7.13398">
        <ele>530</ele>
        <time>2022-11-05T12:20:01Z</time>
      </trkpt>
      <trkpt lat="48.40565" lon="7.13401">
        <ele>530</ele>
        <time>2022-11-05T12:20:02Z</time>
      </trkpt>
      <trkpt lat="48.40579" lon="7.13408">
        <ele>530</ele>
        <time>2022-11-05T12:20:05Z</time>
      </trkpt>
      <trkpt lat="48.40593" lon="7.13415">
        <ele>529.8</ele>
        <time>2022-11-05T12:20:10Z</time>
      </trkpt>
      <trkpt lat="48.406" lon="7.13421">
        <ele>529.8</ele>
        <time>2022-11-05T12:20:12Z</time>
      </trkpt>
      <trkpt lat="48.40604" lon="7.13426">
        <ele>529.6</ele>
        <time>2022-11-05T12:20:13Z</time>
      </trkpt>
      <trkpt lat="48.40607" lon="7.13432">
        <ele>529.6</ele>
        <time>2022-11-05T12:20:14Z</time>
      </trkpt>
      <trkpt lat="48.40613" lon="7.13467">
        <ele>529.6</ele>
        <time>2022-11-05T12:20:19Z</time>
      </trkpt>
      <trkpt lat="48.4062" lon="7.13508">
        <ele>529.6</ele>
        <time>2022-11-05T12:20:24Z</time>
      </trkpt>
      <trkpt lat="48.40622" lon="7.13518">
        <ele>529.6</ele>
        <time>2022-11-05T12:20:25Z</time>
      </trkpt>
      <trkpt lat="48.40629" lon="7.13576">
        <ele>529.8</ele>
        <time>2022-11-05T12:20:31Z</time>
      </trkpt>
      <trkpt lat="48.40639" lon="7.1365">
        <ele>529.8</ele>
        <time>2022-11-05T12:20:38Z</time>
      </trkpt>
      <trkpt lat="48.40641" lon="7.13661">
        <ele>529.6</ele>
        <time>2022-11-05T12:20:39Z</time>
      </trkpt>
      <trkpt lat="48.40652" lon="7.13705">
        <ele>529.6</ele>
        <time>2022-11-05T12:20:43Z</time>
      </trkpt>
      <trkpt lat="48.4066" lon="7.13736">
        <ele>529.4</ele>
        <time>2022-11-05T12:20:46Z</time>
      </trkpt>
      <trkpt lat="48.40669" lon="7.13768">
        <ele>529.4</ele>
        <time>2022-11-05T12:20:49Z</time>
      </trkpt>
      <trkpt lat="48.40675" lon="7.1379">
        <ele>529.2</ele>
        <time>2022-11-05T12:20:51Z</time>
      </trkpt>
      <trkpt lat="48.40682" lon="7.13811">
        <ele>529</ele>
        <time>2022-11-05T12:20:53Z</time>
      </trkpt>
      <trkpt lat="48.40696" lon="7.13853">
        <ele>528.6</ele>
        <time>2022-11-05T12:20:57Z</time>
      </trkpt>
      <trkpt lat="48.40705" lon="7.13874">
        <ele>528.4</ele>
        <time>2022-11-05T12:20:59Z</time>
      </trkpt>
      <trkpt lat="48.40728" lon="7.13941">
        <ele>528.2</ele>
        <time>2022-11-05T12:21:05Z</time>
      </trkpt>
      <trkpt lat="48.40739" lon="7.13976">
        <ele>528.2</ele>
        <time>2022-11-05T12:21:08Z</time>
      </trkpt>
      <trkpt lat="48.4075" lon="7.14022">
        <ele>528.2</ele>
        <time>2022-11-05T12:21:12Z</time>
      </trkpt>
      <trkpt lat="48.40757" lon="7.14057">
        <ele>528</ele>
        <time>2022-11-05T12:21:15Z</time>
      </trkpt>
      <trkpt lat="48.40767" lon="7.14107">
        <ele>528</ele>
        <time>2022-11-05T12:21:19Z</time>
      </trkpt>
      <trkpt lat="48.40775" lon="7.14186">
        <ele>528.2</ele>
        <time>2022-11-05T12:21:25Z</time>
      </trkpt>
      <trkpt lat="48.40776" lon="7.14213">
        <ele>528.2</ele>
        <time>2022-11-05T12:21:27Z</time>
      </trkpt>
      <trkpt lat="48.40778" lon="7.14281">
        <ele>528.2</ele>
        <time>2022-11-05T12:21:32Z</time>
      </trkpt>
      <trkpt lat="48.40782" lon="7.14374">
        <ele>528</ele>
        <time>2022-11-05T12:21:39Z</time>
      </trkpt>
      <trkpt lat="48.40783" lon="7.14437">
        <ele>528.2</ele>
        <time>2022-11-05T12:21:44Z</time>
      </trkpt>
      <trkpt lat="48.40776" lon="7.14499">
        <ele>528.6</ele>
        <time>2022-11-05T12:21:49Z</time>
      </trkpt>
      <trkpt lat="48.4076" lon="7.14552">
        <ele>528.6</ele>
        <time>2022-11-05T12:21:54Z</time>
      </trkpt>
      <trkpt lat="48.4075" lon="7.14584">
        <ele>528.6</ele>
        <time>2022-11-05T12:21:57Z</time>
      </trkpt>
      <trkpt lat="48.40745" lon="7.14606">
        <ele>528.8</ele>
        <time>2022-11-05T12:21:59Z</time>
      </trkpt>
      <trkpt lat="48.40744" lon="7.14618">
        <ele>528.8</ele>
        <time>2022-11-05T12:22:00Z</time>
      </trkpt>
      <trkpt lat="48.40739" lon="7.14653">
        <ele>528.6</ele>
        <time>2022-11-05T12:22:03Z</time>
      </trkpt>
      <trkpt lat="48.40736" lon="7.14686">
        <ele>528.6</ele>
        <time>2022-11-05T12:22:06Z</time>
      </trkpt>
      <trkpt lat="48.40737" lon="7.14746">
        <ele>528.6</ele>
        <time>2022-11-05T12:22:12Z</time>
      </trkpt>
      <trkpt lat="48.40738" lon="7.14765">
        <ele>528.4</ele>
        <time>2022-11-05T12:22:14Z</time>
      </trkpt>
      <trkpt lat="48.40738" lon="7.14783">
        <ele>528.4</ele>
        <time>2022-11-05T12:22:16Z</time>
      </trkpt>
      <trkpt lat="48.40739" lon="7.14801">
        <ele>528.4</ele>
        <time>2022-11-05T12:22:18Z</time>
      </trkpt>
      <trkpt lat="48.40741" lon="7.1481">
        <ele>528.4</ele>
        <time>2022-11-05T12:22:19Z</time>
      </trkpt>
      <trkpt lat="48.40744" lon="7.14827">
        <ele>528.2</ele>
        <time>2022-11-05T12:22:21Z</time>
      </trkpt>
      <trkpt lat="48.4075" lon="7.14844">
        <ele>528.4</ele>
        <time>2022-11-05T12:22:23Z</time>
      </trkpt>
      <trkpt lat="48.40752" lon="7.14853">
        <ele>528.4</ele>
        <time>2022-11-05T12:22:24Z</time>
      </trkpt>
      <trkpt lat="48.40757" lon="7.14869">
        <ele>528.2</ele>
        <time>2022-11-05T12:22:26Z</time>
      </trkpt>
      <trkpt lat="48.40777" lon="7.14915">
        <ele>528</ele>
        <time>2022-11-05T12:22:32Z</time>
      </trkpt>
      <trkpt lat="48.40782" lon="7.14923">
        <ele>527.8</ele>
        <time>2022-11-05T12:22:33Z</time>
      </trkpt>
      <trkpt lat="48.40807" lon="7.14981">
        <ele>527.2</ele>
        <time>2022-11-05T12:22:40Z</time>
      </trkpt>
      <trkpt lat="48.40815" lon="7.15">
        <ele>527.2</ele>
        <time>2022-11-05T12:22:42Z</time>
      </trkpt>
      <trkpt lat="48.40821" lon="7.15018">
        <ele>527.2</ele>
        <time>2022-11-05T12:22:44Z</time>
      </trkpt>
      <trkpt lat="48.40827" lon="7.15062">
        <ele>527</ele>
        <time>2022-11-05T12:22:48Z</time>
      </trkpt>
      <trkpt lat="48.40827" lon="7.15074">
        <ele>527.2</ele>
        <time>2022-11-05T12:22:49Z</time>
      </trkpt>
      <trkpt lat="48.40827" lon="7.15107">
        <ele>526.8</ele>
        <time>2022-11-05T12:22:52Z</time>
      </trkpt>
      <trkpt lat="48.40826" lon="7.15118">
        <ele>526.8</ele>
        <time>2022-11-05T12:22:53Z</time>
      </trkpt>
      <trkpt lat="48.40824" lon="7.15128">
        <ele>526.8</ele>
        <time>2022-11-05T12:22:54Z</time>
      </trkpt>
      <trkpt lat="48.40822" lon="7.15139">
        <ele>526.8</ele>
        <time>2022-11-05T12:22:55Z</time>
      </trkpt>
      <trkpt lat="48.4082" lon="7.15149">
        <ele>526.6</ele>
        <time>2022-11-05T12:22:56Z</time>
      </trkpt>
      <trkpt lat="48.40807" lon="7.1519">
        <ele>526.4</ele>
        <time>2022-11-05T12:23:00Z</time>
      </trkpt>
      <trkpt lat="48.40791" lon="7.15243">
        <ele>526</ele>
        <time>2022-11-05T12:23:05Z</time>
      </trkpt>
      <trkpt lat="48.40784" lon="7.15266">
        <ele>526</ele>
        <time>2022-11-05T12:23:07Z</time>
      </trkpt>
      <trkpt lat="48.40757" lon="7.15351">
        <ele>525.4</ele>
        <time>2022-11-05T12:23:15Z</time>
      </trkpt>
      <trkpt lat="48.40754" lon="7.15366">
        <ele>525</ele>
        <time>2022-11-05T12:23:17Z</time>
      </trkpt>
      <trkpt lat="48.40756" lon="7.15371">
        <ele>525.2</ele>
        <time>2022-11-05T12:23:18Z</time>
      </trkpt>
      <trkpt lat="48.4076" lon="7.15383">
        <ele>524.8</ele>
        <time>2022-11-05T12:23:21Z</time>
      </trkpt>
      <trkpt lat="48.4076" lon="7.15387">
        <ele>525</ele>
        <time>2022-11-05T12:23:22Z</time>
      </trkpt>
      <trkpt lat="48.40758" lon="7.154">
        <ele>524.8</ele>
        <time>2022-11-05T12:23:25Z</time>
      </trkpt>
      <trkpt lat="48.40757" lon="7.15406">
        <ele>524.6</ele>
        <time>2022-11-05T12:23:26Z</time>
      </trkpt>
      <trkpt lat="48.40755" lon="7.15418">
        <ele>524.6</ele>
        <time>2022-11-05T12:23:28Z</time>
      </trkpt>
      <trkpt lat="48.40753" lon="7.1543">
        <ele>524.4</ele>
        <time>2022-11-05T12:23:30Z</time>
      </trkpt>
      <trkpt lat="48.40749" lon="7.15443">
        <ele>524.2</ele>
        <time>2022-11-05T12:23:33Z</time>
      </trkpt>
      <trkpt lat="48.40743" lon="7.15451">
        <ele>524.2</ele>
        <time>2022-11-05T12:23:36Z</time>
      </trkpt>
      <trkpt lat="48.40741" lon="7.15455">
        <ele>524.2</ele>
        <time>2022-11-05T12:23:37Z</time>
      </trkpt>
      <trkpt lat="48.40738" lon="7.15459">
        <ele>524.2</ele>
        <time>2022-11-05T12:23:38Z</time>
      </trkpt>
      <trkpt lat="48.40729" lon="7.15474">
        <ele>524</ele>
        <time>2022-11-05T12:23:41Z</time>
      </trkpt>
      <trkpt lat="48.40724" lon="7.15479">
        <ele>524</ele>
        <time>2022-11-05T12:23:42Z</time>
      </trkpt>
      <trkpt lat="48.4072" lon="7.15484">
        <ele>523.8</ele>
        <time>2022-11-05T12:23:43Z</time>
      </trkpt>
      <trkpt lat="48.40704" lon="7.15501">
        <ele>523.2</ele>
        <time>2022-11-05T12:23:46Z</time>
      </trkpt>
      <trkpt lat="48.40698" lon="7.15508">
        <ele>523</ele>
        <time>2022-11-05T12:23:47Z</time>
      </trkpt>
      <trkpt lat="48.4068" lon="7.1553">
        <ele>522.8</ele>
        <time>2022-11-05T12:23:50Z</time>
      </trkpt>
      <trkpt lat="48.40674" lon="7.15537">
        <ele>522.8</ele>
        <time>2022-11-05T12:23:51Z</time>
      </trkpt>
      <trkpt lat="48.40667" lon="7.15542">
        <ele>522.6</ele>
        <time>2022-11-05T12:23:52Z</time>
      </trkpt>
      <trkpt lat="48.40653" lon="7.1555">
        <ele>522.4</ele>
        <time>2022-11-05T12:23:54Z</time>
      </trkpt>
      <trkpt lat="48.40639" lon="7.15552">
        <ele>522.4</ele>
        <time>2022-11-05T12:23:56Z</time>
      </trkpt>
      <trkpt lat="48.40595" lon="7.15568">
        <ele>521.8</ele>
        <time>2022-11-05T12:24:02Z</time>
      </trkpt>
      <trkpt lat="48.40564" lon="7.15582">
        <ele>521.4</ele>
        <time>2022-11-05T12:24:07Z</time>
      </trkpt>
      <trkpt lat="48.40559" lon="7.15584">
        <ele>521.6</ele>
        <time>2022-11-05T12:24:08Z</time>
      </trkpt>
      <trkpt lat="48.40518" lon="7.15604">
        <ele>521.6</ele>
        <time>2022-11-05T12:24:15Z</time>
      </trkpt>
      <trkpt lat="48.40512" lon="7.15609">
        <ele>521.6</ele>
        <time>2022-11-05T12:24:16Z</time>
      </trkpt>
      <trkpt lat="48.40496" lon="7.15626">
        <ele>521.6</ele>
        <time>2022-11-05T12:24:19Z</time>
      </trkpt>
      <trkpt lat="48.40492" lon="7.15634">
        <ele>521.6</ele>
        <time>2022-11-05T12:24:20Z</time>
      </trkpt>
      <trkpt lat="48.40488" lon="7.15642">
        <ele>521.8</ele>
        <time>2022-11-05T12:24:21Z</time>
      </trkpt>
      <trkpt lat="48.40484" lon="7.1566">
        <ele>521.6</ele>
        <time>2022-11-05T12:24:23Z</time>
      </trkpt>
      <trkpt lat="48.40484" lon="7.1567">
        <ele>521.6</ele>
        <time>2022-11-05T12:24:24Z</time>
      </trkpt>
      <trkpt lat="48.40484" lon="7.1571">
        <ele>521.6</ele>
        <time>2022-11-05T12:24:28Z</time>
      </trkpt>
      <trkpt lat="48.40481" lon="7.15727">
        <ele>521.6</ele>
        <time>2022-11-05T12:24:30Z</time>
      </trkpt>
      <trkpt lat="48.40479" lon="7.15743">
        <ele>521.4</ele>
        <time>2022-11-05T12:24:32Z</time>
      </trkpt>
      <trkpt lat="48.4048" lon="7.15749">
        <ele>521.4</ele>
        <time>2022-11-05T12:24:33Z</time>
      </trkpt>
      <trkpt lat="48.40482" lon="7.1576">
        <ele>521.4</ele>
        <time>2022-11-05T12:24:35Z</time>
      </trkpt>
      <trkpt lat="48.40484" lon="7.15772">
        <ele>521.4</ele>
        <time>2022-11-05T12:24:37Z</time>
      </trkpt>
      <trkpt lat="48.40486" lon="7.15779">
        <ele>521.4</ele>
        <time>2022-11-05T12:24:38Z</time>
      </trkpt>
      <trkpt lat="48.40492" lon="7.15794">
        <ele>521.4</ele>
        <time>2022-11-05T12:24:40Z</time>
      </trkpt>
      <trkpt lat="48.40498" lon="7.15811">
        <ele>521.4</ele>
        <time>2022-11-05T12:24:42Z</time>
      </trkpt>
      <trkpt lat="48.405" lon="7.15831">
        <ele>521.2</ele>
        <time>2022-11-05T12:24:44Z</time>
      </trkpt>
      <trkpt lat="48.40499" lon="7.15842">
        <ele>521.2</ele>
        <time>2022-11-05T12:24:45Z</time>
      </trkpt>
      <trkpt lat="48.40497" lon="7.15852">
        <ele>520.8</ele>
        <time>2022-11-05T12:24:46Z</time>
      </trkpt>
      <trkpt lat="48.40491" lon="7.15872">
        <ele>520.6</ele>
        <time>2022-11-05T12:24:48Z</time>
      </trkpt>
      <trkpt lat="48.40487" lon="7.1588">
        <ele>520.6</ele>
        <time>2022-11-05T12:24:49Z</time>
      </trkpt>
      <trkpt lat="48.40475" lon="7.15908">
        <ele>520.2</ele>
        <time>2022-11-05T12:24:53Z</time>
      </trkpt>
      <trkpt lat="48.40467" lon="7.15933">
        <ele>520</ele>
        <time>2022-11-05T12:24:57Z</time>
      </trkpt>
      <trkpt lat="48.40464" lon="7.15938">
        <ele>520</ele>
        <time>2022-11-05T12:24:58Z</time>
      </trkpt>
      <trkpt lat="48.40463" lon="7.15942">
        <ele>519.8</ele>
        <time>2022-11-05T12:24:59Z</time>
      </trkpt>
      <trkpt lat="48.40463" lon="7.15953">
        <ele>519.4</ele>
        <time>2022-11-05T12:25:01Z</time>
      </trkpt>
      <trkpt lat="48.40466" lon="7.15966">
        <ele>519.2</ele>
        <time>2022-11-05T12:25:03Z</time>
      </trkpt>
      <trkpt lat="48.40468" lon="7.15973">
        <ele>519</ele>
        <time>2022-11-05T12:25:04Z</time>
      </trkpt>
      <trkpt lat="48.40472" lon="7.15987">
        <ele>519</ele>
        <time>2022-11-05T12:25:06Z</time>
      </trkpt>
      <trkpt lat="48.40483" lon="7.16018">
        <ele>518.4</ele>
        <time>2022-11-05T12:25:10Z</time>
      </trkpt>
      <trkpt lat="48.40494" lon="7.1605">
        <ele>517.8</ele>
        <time>2022-11-05T12:25:14Z</time>
      </trkpt>
      <trkpt lat="48.40499" lon="7.16067">
        <ele>517.8</ele>
        <time>2022-11-05T12:25:16Z</time>
      </trkpt>
      <trkpt lat="48.40505" lon="7.16081">
        <ele>517.6</ele>
        <time>2022-11-05T12:25:18Z</time>
      </trkpt>
      <trkpt lat="48.40512" lon="7.16096">
        <ele>517.4</ele>
        <time>2022-11-05T12:25:20Z</time>
      </trkpt>
      <trkpt lat="48.40522" lon="7.16106">
        <ele>516.8</ele>
        <time>2022-11-05T12:25:22Z</time>
      </trkpt>
      <trkpt lat="48.40528" lon="7.16109">
        <ele>516.8</ele>
        <time>2022-11-05T12:25:23Z</time>
      </trkpt>
      <trkpt lat="48.40554" lon="7.16121">
        <ele>516</ele>
        <time>2022-11-05T12:25:28Z</time>
      </trkpt>
      <trkpt lat="48.40557" lon="7.16123">
        <ele>515.6</ele>
        <time>2022-11-05T12:25:29Z</time>
      </trkpt>
      <trkpt lat="48.40566" lon="7.16127">
        <ele>515</ele>
        <time>2022-11-05T12:25:33Z</time>
      </trkpt>
      <trkpt lat="48.40567" lon="7.16126">
        <ele>515</ele>
        <time>2022-11-05T12:25:34Z</time>
      </trkpt>
      <trkpt lat="48.40568" lon="7.16125">
        <ele>515</ele>
        <time>2022-11-05T12:25:35Z</time>
      </trkpt>
      <trkpt lat="48.40568" lon="7.16123">
        <ele>514.8</ele>
        <time>2022-11-05T12:25:36Z</time>
      </trkpt>
      <trkpt lat="48.40568" lon="7.16122">
        <ele>514.8</ele>
        <time>2022-11-05T12:25:37Z</time>
      </trkpt>
      <trkpt lat="48.40555" lon="7.16122">
        <ele>514.2</ele>
        <time>2022-11-05T12:25:43Z</time>
      </trkpt>
      <trkpt lat="48.40549" lon="7.16123">
        <ele>514</ele>
        <time>2022-11-05T12:25:45Z</time>
      </trkpt>
      <trkpt lat="48.40547" lon="7.16126">
        <ele>513.8</ele>
        <time>2022-11-05T12:25:46Z</time>
      </trkpt>
      <trkpt lat="48.40544" lon="7.16155">
        <ele>513.6</ele>
        <time>2022-11-05T12:25:51Z</time>
      </trkpt>
      <trkpt lat="48.40546" lon="7.16166">
        <ele>513.4</ele>
        <time>2022-11-05T12:25:53Z</time>
      </trkpt>
      <trkpt lat="48.40547" lon="7.16176">
        <ele>513</ele>
        <time>2022-11-05T12:25:55Z</time>
      </trkpt>
      <trkpt lat="48.4055" lon="7.16186">
        <ele>512.8</ele>
        <time>2022-11-05T12:25:58Z</time>
      </trkpt>
      <trkpt lat="48.40553" lon="7.1619">
        <ele>512.6</ele>
        <time>2022-11-05T12:25:59Z</time>
      </trkpt>
      <trkpt lat="48.40559" lon="7.16201">
        <ele>512.2</ele>
        <time>2022-11-05T12:26:02Z</time>
      </trkpt>
      <trkpt lat="48.40565" lon="7.16211">
        <ele>512</ele>
        <time>2022-11-05T12:26:05Z</time>
      </trkpt>
      <trkpt lat="48.40571" lon="7.16218">
        <ele>511.6</ele>
        <time>2022-11-05T12:26:07Z</time>
      </trkpt>
      <trkpt lat="48.4058" lon="7.16233">
        <ele>511.2</ele>
        <time>2022-11-05T12:26:10Z</time>
      </trkpt>
      <trkpt lat="48.40595" lon="7.16253">
        <ele>511</ele>
        <time>2022-11-05T12:26:14Z</time>
      </trkpt>
      <trkpt lat="48.40602" lon="7.16261">
        <ele>510.6</ele>
        <time>2022-11-05T12:26:16Z</time>
      </trkpt>
      <trkpt lat="48.40621" lon="7.16283">
        <ele>510.4</ele>
        <time>2022-11-05T12:26:21Z</time>
      </trkpt>
      <trkpt lat="48.40628" lon="7.16292">
        <ele>510.2</ele>
        <time>2022-11-05T12:26:23Z</time>
      </trkpt>
      <trkpt lat="48.40635" lon="7.16299">
        <ele>510</ele>
        <time>2022-11-05T12:26:25Z</time>
      </trkpt>
      <trkpt lat="48.40645" lon="7.16309">
        <ele>510</ele>
        <time>2022-11-05T12:26:28Z</time>
      </trkpt>
      <trkpt lat="48.40647" lon="7.16312">
        <ele>510</ele>
        <time>2022-11-05T12:26:29Z</time>
      </trkpt>
      <trkpt lat="48.40651" lon="7.16318">
        <ele>509.8</ele>
        <time>2022-11-05T12:26:31Z</time>
      </trkpt>
      <trkpt lat="48.40654" lon="7.1632">
        <ele>510</ele>
        <time>2022-11-05T12:26:32Z</time>
      </trkpt>
      <trkpt lat="48.40657" lon="7.1632">
        <ele>509.8</ele>
        <time>2022-11-05T12:26:33Z</time>
      </trkpt>
      <trkpt lat="48.40664" lon="7.16315">
        <ele>509.8</ele>
        <time>2022-11-05T12:26:35Z</time>
      </trkpt>
      <trkpt lat="48.40672" lon="7.16306">
        <ele>509.6</ele>
        <time>2022-11-05T12:26:37Z</time>
      </trkpt>
      <trkpt lat="48.40682" lon="7.16296">
        <ele>509.6</ele>
        <time>2022-11-05T12:26:39Z</time>
      </trkpt>
      <trkpt lat="48.40703" lon="7.16273">
        <ele>509.2</ele>
        <time>2022-11-05T12:26:43Z</time>
      </trkpt>
      <trkpt lat="48.4072" lon="7.16257">
        <ele>508.8</ele>
        <time>2022-11-05T12:26:46Z</time>
      </trkpt>
      <trkpt lat="48.40739" lon="7.16239">
        <ele>508.8</ele>
        <time>2022-11-05T12:26:49Z</time>
      </trkpt>
      <trkpt lat="48.40777" lon="7.16202">
        <ele>508.4</ele>
        <time>2022-11-05T12:26:55Z</time>
      </trkpt>
      <trkpt lat="48.40783" lon="7.16196">
        <ele>508.2</ele>
        <time>2022-11-05T12:26:56Z</time>
      </trkpt>
      <trkpt lat="48.40812" lon="7.1617">
        <ele>508</ele>
        <time>2022-11-05T12:27:01Z</time>
      </trkpt>
      <trkpt lat="48.40825" lon="7.16164">
        <ele>507.8</ele>
        <time>2022-11-05T12:27:03Z</time>
      </trkpt>
      <trkpt lat="48.40832" lon="7.16164">
        <ele>508</ele>
        <time>2022-11-05T12:27:04Z</time>
      </trkpt>
      <trkpt lat="48.40879" lon="7.16171">
        <ele>507.8</ele>
        <time>2022-11-05T12:27:11Z</time>
      </trkpt>
      <trkpt lat="48.40886" lon="7.16173">
        <ele>507.8</ele>
        <time>2022-11-05T12:27:12Z</time>
      </trkpt>
      <trkpt lat="48.40912" lon="7.16175">
        <ele>507.8</ele>
        <time>2022-11-05T12:27:16Z</time>
      </trkpt>
      <trkpt lat="48.40925" lon="7.16173">
        <ele>507.6</ele>
        <time>2022-11-05T12:27:18Z</time>
      </trkpt>
      <trkpt lat="48.40943" lon="7.16166">
        <ele>507.6</ele>
        <time>2022-11-05T12:27:21Z</time>
      </trkpt>
      <trkpt lat="48.40968" lon="7.16156">
        <ele>507.6</ele>
        <time>2022-11-05T12:27:25Z</time>
      </trkpt>
      <trkpt lat="48.40974" lon="7.16154">
        <ele>507.6</ele>
        <time>2022-11-05T12:27:26Z</time>
      </trkpt>
      <trkpt lat="48.40985" lon="7.1615">
        <ele>507.6</ele>
        <time>2022-11-05T12:27:28Z</time>
      </trkpt>
      <trkpt lat="48.41001" lon="7.16144">
        <ele>507.8</ele>
        <time>2022-11-05T12:27:31Z</time>
      </trkpt>
      <trkpt lat="48.41012" lon="7.1614">
        <ele>507.8</ele>
        <time>2022-11-05T12:27:33Z</time>
      </trkpt>
      <trkpt lat="48.41016" lon="7.16136">
        <ele>507.8</ele>
        <time>2022-11-05T12:27:34Z</time>
      </trkpt>
      <trkpt lat="48.4102" lon="7.1613">
        <ele>507.8</ele>
        <time>2022-11-05T12:27:35Z</time>
      </trkpt>
      <trkpt lat="48.41024" lon="7.16118">
        <ele>508</ele>
        <time>2022-11-05T12:27:37Z</time>
      </trkpt>
      <trkpt lat="48.41029" lon="7.16093">
        <ele>508</ele>
        <time>2022-11-05T12:27:41Z</time>
      </trkpt>
      <trkpt lat="48.4103" lon="7.16087">
        <ele>508</ele>
        <time>2022-11-05T12:27:42Z</time>
      </trkpt>
      <trkpt lat="48.41031" lon="7.16074">
        <ele>508</ele>
        <time>2022-11-05T12:27:44Z</time>
      </trkpt>
      <trkpt lat="48.41033" lon="7.16068">
        <ele>508</ele>
        <time>2022-11-05T12:27:45Z</time>
      </trkpt>
      <trkpt lat="48.41035" lon="7.16055">
        <ele>508</ele>
        <time>2022-11-05T12:27:47Z</time>
      </trkpt>
      <trkpt lat="48.41048" lon="7.16001">
        <ele>508</ele>
        <time>2022-11-05T12:27:55Z</time>
      </trkpt>
      <trkpt lat="48.41055" lon="7.1598">
        <ele>507.8</ele>
        <time>2022-11-05T12:27:58Z</time>
      </trkpt>
      <trkpt lat="48.41058" lon="7.15966">
        <ele>507.6</ele>
        <time>2022-11-05T12:28:00Z</time>
      </trkpt>
      <trkpt lat="48.41061" lon="7.15959">
        <ele>507.4</ele>
        <time>2022-11-05T12:28:01Z</time>
      </trkpt>
      <trkpt lat="48.41066" lon="7.15946">
        <ele>507.4</ele>
        <time>2022-11-05T12:28:03Z</time>
      </trkpt>
      <trkpt lat="48.41071" lon="7.15919">
        <ele>507</ele>
        <time>2022-11-05T12:28:07Z</time>
      </trkpt>
      <trkpt lat="48.41073" lon="7.15913">
        <ele>507</ele>
        <time>2022-11-05T12:28:08Z</time>
      </trkpt>
      <trkpt lat="48.41078" lon="7.15905">
        <ele>507</ele>
        <time>2022-11-05T12:28:10Z</time>
      </trkpt>
      <trkpt lat="48.41081" lon="7.15904">
        <ele>506.8</ele>
        <time>2022-11-05T12:28:11Z</time>
      </trkpt>
      <trkpt lat="48.41084" lon="7.15904">
        <ele>506.8</ele>
        <time>2022-11-05T12:28:12Z</time>
      </trkpt>
      <trkpt lat="48.41088" lon="7.15906">
        <ele>506.6</ele>
        <time>2022-11-05T12:28:13Z</time>
      </trkpt>
      <trkpt lat="48.41095" lon="7.15912">
        <ele>506.8</ele>
        <time>2022-11-05T12:28:15Z</time>
      </trkpt>
      <trkpt lat="48.41104" lon="7.15925">
        <ele>506</ele>
        <time>2022-11-05T12:28:18Z</time>
      </trkpt>
      <trkpt lat="48.41107" lon="7.15928">
        <ele>505.8</ele>
        <time>2022-11-05T12:28:19Z</time>
      </trkpt>
      <trkpt lat="48.4111" lon="7.15932">
        <ele>505.6</ele>
        <time>2022-11-05T12:28:20Z</time>
      </trkpt>
      <trkpt lat="48.41122" lon="7.15948">
        <ele>505.2</ele>
        <time>2022-11-05T12:28:25Z</time>
      </trkpt>
      <trkpt lat="48.41125" lon="7.15951">
        <ele>505</ele>
        <time>2022-11-05T12:28:26Z</time>
      </trkpt>
      <trkpt lat="48.41131" lon="7.15964">
        <ele>505</ele>
        <time>2022-11-05T12:28:30Z</time>
      </trkpt>
      <trkpt lat="48.41135" lon="7.15985">
        <ele>504.6</ele>
        <time>2022-11-05T12:28:36Z</time>
      </trkpt>
      <trkpt lat="48.41138" lon="7.15994">
        <ele>504.4</ele>
        <time>2022-11-05T12:28:39Z</time>
      </trkpt>
      <trkpt lat="48.4114" lon="7.15996">
        <ele>504.2</ele>
        <time>2022-11-05T12:28:40Z</time>
      </trkpt>
      <trkpt lat="48.41142" lon="7.15998">
        <ele>504.2</ele>
        <time>2022-11-05T12:28:41Z</time>
      </trkpt>
      <trkpt lat="48.41142" lon="7.16001">
        <ele>504</ele>
        <time>2022-11-05T12:28:43Z</time>
      </trkpt>
      <trkpt lat="48.41142" lon="7.16002">
        <ele>504</ele>
        <time>2022-11-05T12:28:44Z</time>
      </trkpt>
    </trkseg>
  </trk>
</gpx>